<?xml version='1.0' encoding='UTF-8'?><gpx version="1.1" creator="JPX - https://github.com/jenetics/jpx" xmlns="http://www.topografix.com/GPX/1/1"><trk><trkseg><trkpt lat="43.8084884" lon="11.3014109"><ele>297.0</ele><time>2026-04-11T09:10:23.585Z</time></trkpt><trkpt lat="43.8084628" lon="11.3013283"><ele>297.0</ele><time>2026-04-11T09:10:29.586Z</time></trkpt><trkpt lat="43.8085208" lon="11.3013798"><ele>297.0</ele><time>2026-04-11T09:10:44.586Z</time></trkpt><trkpt lat="43.8085621" lon="11.3014531"><ele>297.0</ele><time>2026-04-11T09:18:52.587Z</time></trkpt><trkpt lat="43.8086093" lon="11.3015438"><ele>297.0</ele><time>2026-04-11T09:18:56.587Z</time></trkpt><trkpt lat="43.8086768" lon="11.3015869"><ele>297.0</ele><time>2026-04-11T09:18:58.587Z</time></trkpt><trkpt lat="43.8087546" lon="11.3016292"><ele>297.0</ele><time>2026-04-11T09:19:00.587Z</time></trkpt><trkpt lat="43.8088305" lon="11.3016965"><ele>295.1666666666667</ele><time>2026-04-11T09:19:02.587Z</time></trkpt><trkpt lat="43.8088925" lon="11.3017777"><ele>293.3333333333333</ele><time>2026-04-11T09:19:04.587Z</time></trkpt><trkpt lat="43.8089579" lon="11.3018634"><ele>291.5</ele><time>2026-04-11T09:19:06.587Z</time></trkpt><trkpt lat="43.8090339" lon="11.3019669"><ele>289.66666666666663</ele><time>2026-04-11T09:19:08.587Z</time></trkpt><trkpt lat="43.8090795" lon="11.3020387"><ele>287.8333333333333</ele><time>2026-04-11T09:19:09.586Z</time></trkpt><trkpt lat="43.8091325" lon="11.302114"><ele>286.0</ele><time>2026-04-11T09:19:10.587Z</time></trkpt><trkpt lat="43.8091836" lon="11.302188"><ele>287.40000000000003</ele><time>2026-04-11T09:19:11.587Z</time></trkpt><trkpt lat="43.8092288" lon="11.302255"><ele>288.8</ele><time>2026-04-11T09:19:12.585Z</time></trkpt><trkpt lat="43.8093111" lon="11.3023832"><ele>290.20000000000005</ele><time>2026-04-11T09:19:14.587Z</time></trkpt><trkpt lat="43.8093571" lon="11.3024502"><ele>291.6</ele><time>2026-04-11T09:19:15.587Z</time></trkpt><trkpt lat="43.8094299" lon="11.302567"><ele>293.0</ele><time>2026-04-11T09:19:17.586Z</time></trkpt><trkpt lat="43.8095091" lon="11.3026683"><ele>289.83333333333337</ele><time>2026-04-11T09:19:19.587Z</time></trkpt><trkpt lat="43.8096202" lon="11.3027513"><ele>286.6666666666667</ele><time>2026-04-11T09:19:21.587Z</time></trkpt><trkpt lat="43.8096848" lon="11.302789"><ele>283.5</ele><time>2026-04-11T09:19:22.587Z</time></trkpt><trkpt lat="43.8097534" lon="11.3028413"><ele>280.3333333333333</ele><time>2026-04-11T09:19:23.586Z</time></trkpt><trkpt lat="43.8098243" lon="11.3028879"><ele>277.16666666666663</ele><time>2026-04-11T09:19:24.586Z</time></trkpt><trkpt lat="43.8098896" lon="11.3029366"><ele>274.0</ele><time>2026-04-11T09:19:25.587Z</time></trkpt><trkpt lat="43.8099537" lon="11.3029793"><ele>274.0</ele><time>2026-04-11T09:19:26.586Z</time></trkpt><trkpt lat="43.810024" lon="11.3030241"><ele>274.0</ele><time>2026-04-11T09:19:27.587Z</time></trkpt><trkpt lat="43.810104" lon="11.3030674"><ele>274.0</ele><time>2026-04-11T09:19:28.587Z</time></trkpt><trkpt lat="43.8101797" lon="11.3031179"><ele>274.0</ele><time>2026-04-11T09:19:29.587Z</time></trkpt><trkpt lat="43.8102505" lon="11.3031745"><ele>274.0</ele><time>2026-04-11T09:19:30.587Z</time></trkpt><trkpt lat="43.8103228" lon="11.3032323"><ele>274.0</ele><time>2026-04-11T09:19:31.587Z</time></trkpt><trkpt lat="43.8103891" lon="11.3032894"><ele>272.66666666666663</ele><time>2026-04-11T09:19:32.587Z</time></trkpt><trkpt lat="43.8104518" lon="11.3033557"><ele>271.3333333333333</ele><time>2026-04-11T09:19:33.587Z</time></trkpt><trkpt lat="43.8105329" lon="11.303493"><ele>270.0</ele><time>2026-04-11T09:19:35.587Z</time></trkpt><trkpt lat="43.8105875" lon="11.3035608"><ele>268.6666666666667</ele><time>2026-04-11T09:19:36.587Z</time></trkpt><trkpt lat="43.8106509" lon="11.3036203"><ele>267.33333333333337</ele><time>2026-04-11T09:19:37.587Z</time></trkpt><trkpt lat="43.8107252" lon="11.3036699"><ele>266.0</ele><time>2026-04-11T09:19:38.587Z</time></trkpt><trkpt lat="43.8108006" lon="11.3037204"><ele>266.0</ele><time>2026-04-11T09:19:39.586Z</time></trkpt><trkpt lat="43.8108715" lon="11.3037687"><ele>266.0</ele><time>2026-04-11T09:19:40.587Z</time></trkpt><trkpt lat="43.8109506" lon="11.30382"><ele>266.0</ele><time>2026-04-11T09:19:41.586Z</time></trkpt><trkpt lat="43.8110206" lon="11.3038683"><ele>266.0</ele><time>2026-04-11T09:19:42.587Z</time></trkpt><trkpt lat="43.8110525" lon="11.3039452"><ele>266.0</ele><time>2026-04-11T09:19:43.587Z</time></trkpt><trkpt lat="43.8111028" lon="11.3040184"><ele>266.0</ele><time>2026-04-11T09:19:44.586Z</time></trkpt><trkpt lat="43.8111605" lon="11.3040984"><ele>265.5</ele><time>2026-04-11T09:19:45.587Z</time></trkpt><trkpt lat="43.8112202" lon="11.3041657"><ele>265.0</ele><time>2026-04-11T09:19:46.586Z</time></trkpt><trkpt lat="43.8112733" lon="11.3042249"><ele>264.5</ele><time>2026-04-11T09:19:47.587Z</time></trkpt><trkpt lat="43.8113198" lon="11.3043063"><ele>264.0</ele><time>2026-04-11T09:19:49.586Z</time></trkpt><trkpt lat="43.8112912" lon="11.3044643"><ele>263.5</ele><time>2026-04-11T09:19:52.586Z</time></trkpt><trkpt lat="43.8112683" lon="11.3045493"><ele>263.0</ele><time>2026-04-11T09:19:54.586Z</time></trkpt><trkpt lat="43.8112388" lon="11.3046848"><ele>263.6666666666667</ele><time>2026-04-11T09:19:56.587Z</time></trkpt><trkpt lat="43.8112079" lon="11.3048663"><ele>264.33333333333337</ele><time>2026-04-11T09:19:58.587Z</time></trkpt><trkpt lat="43.8111875" lon="11.3049767"><ele>265.0</ele><time>2026-04-11T09:19:59.586Z</time></trkpt><trkpt lat="43.8111695" lon="11.3050696"><ele>265.6666666666667</ele><time>2026-04-11T09:20:00.586Z</time></trkpt><trkpt lat="43.8111533" lon="11.3051607"><ele>266.3333333333333</ele><time>2026-04-11T09:20:01.587Z</time></trkpt><trkpt lat="43.8111333" lon="11.3052632"><ele>267.0</ele><time>2026-04-11T09:20:02.587Z</time></trkpt><trkpt lat="43.8111192" lon="11.3053583"><ele>267.0</ele><time>2026-04-11T09:20:03.587Z</time></trkpt><trkpt lat="43.811107" lon="11.3055025"><ele>267.0</ele><time>2026-04-11T09:20:05.587Z</time></trkpt><trkpt lat="43.8111196" lon="11.3055932"><ele>267.0</ele><time>2026-04-11T09:20:07.587Z</time></trkpt><trkpt lat="43.8111793" lon="11.3056623"><ele>267.0</ele><time>2026-04-11T09:20:09.587Z</time></trkpt><trkpt lat="43.8112945" lon="11.3057305"><ele>267.0</ele><time>2026-04-11T09:20:11.587Z</time></trkpt><trkpt lat="43.8113581" lon="11.3057628"><ele>267.0</ele><time>2026-04-11T09:20:12.586Z</time></trkpt><trkpt lat="43.811427" lon="11.3057974"><ele>268.8</ele><time>2026-04-11T09:20:13.586Z</time></trkpt><trkpt lat="43.8115025" lon="11.3058266"><ele>270.6</ele><time>2026-04-11T09:20:14.587Z</time></trkpt><trkpt lat="43.8116119" lon="11.3058903"><ele>272.40000000000003</ele><time>2026-04-11T09:20:16.587Z</time></trkpt><trkpt lat="43.8116966" lon="11.305961"><ele>274.2</ele><time>2026-04-11T09:20:18.586Z</time></trkpt><trkpt lat="43.8117389" lon="11.3060632"><ele>276.0</ele><time>2026-04-11T09:20:20.587Z</time></trkpt><trkpt lat="43.8117509" lon="11.3062419"><ele>276.0</ele><time>2026-04-11T09:20:22.587Z</time></trkpt><trkpt lat="43.8117654" lon="11.3063534"><ele>276.0</ele><time>2026-04-11T09:20:23.586Z</time></trkpt><trkpt lat="43.81178" lon="11.3064615"><ele>276.0</ele><time>2026-04-11T09:20:24.586Z</time></trkpt><trkpt lat="43.8117874" lon="11.30656"><ele>276.0</ele><time>2026-04-11T09:20:25.587Z</time></trkpt><trkpt lat="43.8117908" lon="11.3066567"><ele>276.0</ele><time>2026-04-11T09:20:26.587Z</time></trkpt><trkpt lat="43.8117918" lon="11.3067555"><ele>276.0</ele><time>2026-04-11T09:20:27.586Z</time></trkpt><trkpt lat="43.8117972" lon="11.3068622"><ele>277.1666666666667</ele><time>2026-04-11T09:20:28.587Z</time></trkpt><trkpt lat="43.811813" lon="11.3069621"><ele>278.3333333333333</ele><time>2026-04-11T09:20:29.587Z</time></trkpt><trkpt lat="43.8118439" lon="11.3070415"><ele>279.5</ele><time>2026-04-11T09:20:30.587Z</time></trkpt><trkpt lat="43.8119408" lon="11.3071586"><ele>280.66666666666663</ele><time>2026-04-11T09:20:32.587Z</time></trkpt><trkpt lat="43.8119968" lon="11.3072004"><ele>281.8333333333333</ele><time>2026-04-11T09:20:33.587Z</time></trkpt><trkpt lat="43.8121007" lon="11.3071824"><ele>283.0</ele><time>2026-04-11T09:20:35.587Z</time></trkpt><trkpt lat="43.812165" lon="11.3071505"><ele>279.8</ele><time>2026-04-11T09:20:36.586Z</time></trkpt><trkpt lat="43.8122356" lon="11.3070888"><ele>276.6</ele><time>2026-04-11T09:20:37.587Z</time></trkpt><trkpt lat="43.8123507" lon="11.3070318"><ele>273.4</ele><time>2026-04-11T09:20:39.586Z</time></trkpt><trkpt lat="43.8124525" lon="11.3070088"><ele>270.2</ele><time>2026-04-11T09:20:41.585Z</time></trkpt><trkpt lat="43.8125502" lon="11.3070605"><ele>267.0</ele><time>2026-04-11T09:20:43.587Z</time></trkpt><trkpt lat="43.8126121" lon="11.3071743"><ele>267.3333333333333</ele><time>2026-04-11T09:20:45.587Z</time></trkpt><trkpt lat="43.8126749" lon="11.3073205"><ele>267.6666666666667</ele><time>2026-04-11T09:20:47.587Z</time></trkpt><trkpt lat="43.8126856" lon="11.3074182"><ele>268.0</ele><time>2026-04-11T09:20:48.586Z</time></trkpt><trkpt lat="43.8127071" lon="11.30752"><ele>268.33333333333337</ele><time>2026-04-11T09:20:49.587Z</time></trkpt><trkpt lat="43.8127393" lon="11.307616"><ele>268.6666666666667</ele><time>2026-04-11T09:20:50.587Z</time></trkpt><trkpt lat="43.8127822" lon="11.3077101"><ele>269.0</ele><time>2026-04-11T09:20:51.587Z</time></trkpt><trkpt lat="43.8128117" lon="11.3077991"><ele>269.0</ele><time>2026-04-11T09:20:52.586Z</time></trkpt><trkpt lat="43.8128582" lon="11.3078624"><ele>269.0</ele><time>2026-04-11T09:20:53.586Z</time></trkpt><trkpt lat="43.8129448" lon="11.3079415"><ele>269.0</ele><time>2026-04-11T09:20:55.587Z</time></trkpt><trkpt lat="43.8130077" lon="11.3079671"><ele>269.0</ele><time>2026-04-11T09:20:56.587Z</time></trkpt><trkpt lat="43.8130766" lon="11.3079847"><ele>269.0</ele><time>2026-04-11T09:20:57.587Z</time></trkpt><trkpt lat="43.8131431" lon="11.307994"><ele>269.0</ele><time>2026-04-11T09:20:58.587Z</time></trkpt><trkpt lat="43.8132079" lon="11.308006"><ele>269.0</ele><time>2026-04-11T09:20:59.587Z</time></trkpt><trkpt lat="43.8133111" lon="11.3080034"><ele>269.0</ele><time>2026-04-11T09:21:01.587Z</time></trkpt><trkpt lat="43.8134234" lon="11.3079851"><ele>269.0</ele><time>2026-04-11T09:21:03.587Z</time></trkpt><trkpt lat="43.8135354" lon="11.3079491"><ele>269.0</ele><time>2026-04-11T09:21:05.587Z</time></trkpt><trkpt lat="43.8136405" lon="11.3079358"><ele>269.0</ele><time>2026-04-11T09:21:07.587Z</time></trkpt><trkpt lat="43.8137238" lon="11.3079676"><ele>269.0</ele><time>2026-04-11T09:21:09.586Z</time></trkpt><trkpt lat="43.8137541" lon="11.3080608"><ele>269.33333333333337</ele><time>2026-04-11T09:21:11.587Z</time></trkpt><trkpt lat="43.8137831" lon="11.3082394"><ele>269.6666666666667</ele><time>2026-04-11T09:21:13.586Z</time></trkpt><trkpt lat="43.8137959" lon="11.3083413"><ele>270.0</ele><time>2026-04-11T09:21:14.587Z</time></trkpt><trkpt lat="43.8138083" lon="11.3084483"><ele>270.3333333333333</ele><time>2026-04-11T09:21:15.587Z</time></trkpt><trkpt lat="43.8138246" lon="11.308559"><ele>270.66666666666663</ele><time>2026-04-11T09:21:16.587Z</time></trkpt><trkpt lat="43.8138409" lon="11.3086653"><ele>271.0</ele><time>2026-04-11T09:21:17.586Z</time></trkpt><trkpt lat="43.8138608" lon="11.3087692"><ele>271.0</ele><time>2026-04-11T09:21:18.587Z</time></trkpt><trkpt lat="43.8138787" lon="11.3088829"><ele>271.0</ele><time>2026-04-11T09:21:19.587Z</time></trkpt><trkpt lat="43.8138965" lon="11.3090042"><ele>271.0</ele><time>2026-04-11T09:21:20.587Z</time></trkpt><trkpt lat="43.8139168" lon="11.3091306"><ele>271.0</ele><time>2026-04-11T09:21:21.587Z</time></trkpt><trkpt lat="43.8139392" lon="11.3092548"><ele>271.0</ele><time>2026-04-11T09:21:22.587Z</time></trkpt><trkpt lat="43.8139594" lon="11.3093741"><ele>271.0</ele><time>2026-04-11T09:21:23.587Z</time></trkpt><trkpt lat="43.8139763" lon="11.3094977"><ele>272.16666666666663</ele><time>2026-04-11T09:21:24.587Z</time></trkpt><trkpt lat="43.813989" lon="11.3096184"><ele>273.3333333333333</ele><time>2026-04-11T09:21:25.587Z</time></trkpt><trkpt lat="43.8140063" lon="11.309722"><ele>274.5</ele><time>2026-04-11T09:21:26.586Z</time></trkpt><trkpt lat="43.8140388" lon="11.3098144"><ele>275.6666666666667</ele><time>2026-04-11T09:21:27.586Z</time></trkpt><trkpt lat="43.8140933" lon="11.3099037"><ele>276.83333333333337</ele><time>2026-04-11T09:21:28.586Z</time></trkpt><trkpt lat="43.8141603" lon="11.310002"><ele>278.0</ele><time>2026-04-11T09:21:29.587Z</time></trkpt><trkpt lat="43.8142262" lon="11.3101005"><ele>279.0</ele><time>2026-04-11T09:21:30.587Z</time></trkpt><trkpt lat="43.8142943" lon="11.3102057"><ele>280.0</ele><time>2026-04-11T09:21:31.587Z</time></trkpt><trkpt lat="43.8143493" lon="11.3102972"><ele>281.0</ele><time>2026-04-11T09:21:32.585Z</time></trkpt><trkpt lat="43.814402" lon="11.3103801"><ele>282.0</ele><time>2026-04-11T09:21:33.587Z</time></trkpt><trkpt lat="43.8144615" lon="11.3104682"><ele>283.0</ele><time>2026-04-11T09:21:34.586Z</time></trkpt><trkpt lat="43.8145257" lon="11.3105592"><ele>284.0</ele><time>2026-04-11T09:21:35.587Z</time></trkpt><trkpt lat="43.8145932" lon="11.3106531"><ele>286.2</ele><time>2026-04-11T09:21:36.587Z</time></trkpt><trkpt lat="43.8146619" lon="11.3107468"><ele>288.4</ele><time>2026-04-11T09:21:37.587Z</time></trkpt><trkpt lat="43.8147307" lon="11.3108394"><ele>290.6</ele><time>2026-04-11T09:21:38.586Z</time></trkpt><trkpt lat="43.8147969" lon="11.3109273"><ele>292.8</ele><time>2026-04-11T09:21:39.587Z</time></trkpt><trkpt lat="43.8148624" lon="11.3110146"><ele>295.0</ele><time>2026-04-11T09:21:40.587Z</time></trkpt><trkpt lat="43.8149255" lon="11.3111027"><ele>295.0</ele><time>2026-04-11T09:21:41.587Z</time></trkpt><trkpt lat="43.8149904" lon="11.3111878"><ele>295.0</ele><time>2026-04-11T09:21:42.587Z</time></trkpt><trkpt lat="43.8150464" lon="11.3112705"><ele>295.0</ele><time>2026-04-11T09:21:43.587Z</time></trkpt><trkpt lat="43.8150996" lon="11.3113507"><ele>295.0</ele><time>2026-04-11T09:21:44.587Z</time></trkpt><trkpt lat="43.8151547" lon="11.3114363"><ele>295.0</ele><time>2026-04-11T09:21:45.586Z</time></trkpt><trkpt lat="43.8152108" lon="11.3115203"><ele>295.0</ele><time>2026-04-11T09:21:46.586Z</time></trkpt><trkpt lat="43.8152629" lon="11.3116036"><ele>297.5714285714286</ele><time>2026-04-11T09:21:47.586Z</time></trkpt><trkpt lat="43.8153097" lon="11.3116815"><ele>300.14285714285717</ele><time>2026-04-11T09:21:48.586Z</time></trkpt><trkpt lat="43.8153651" lon="11.3117513"><ele>302.7142857142857</ele><time>2026-04-11T09:21:50.586Z</time></trkpt><trkpt lat="43.8153669" lon="11.3118422"><ele>305.28571428571433</ele><time>2026-04-11T09:22:00.586Z</time></trkpt><trkpt lat="43.8153126" lon="11.3119123"><ele>307.8571428571429</ele><time>2026-04-11T09:22:03.587Z</time></trkpt><trkpt lat="43.8153424" lon="11.3119956"><ele>310.42857142857144</ele><time>2026-04-11T09:22:08.587Z</time></trkpt><trkpt lat="43.8152909" lon="11.3119425"><ele>313.0</ele><time>2026-04-11T09:22:24.587Z</time></trkpt><trkpt lat="43.8153117" lon="11.3118597"><ele>313.0</ele><time>2026-04-11T09:22:39.587Z</time></trkpt><trkpt lat="43.8153612" lon="11.3117887"><ele>313.0</ele><time>2026-04-11T09:22:42.587Z</time></trkpt><trkpt lat="43.8153416" lon="11.3117003"><ele>313.0</ele><time>2026-04-11T09:22:45.586Z</time></trkpt><trkpt lat="43.8153024" lon="11.3116233"><ele>313.0</ele><time>2026-04-11T09:22:47.586Z</time></trkpt><trkpt lat="43.815238" lon="11.3115429"><ele>313.0</ele><time>2026-04-11T09:22:49.587Z</time></trkpt><trkpt lat="43.8151752" lon="11.311449"><ele>313.0</ele><time>2026-04-11T09:22:51.587Z</time></trkpt><trkpt lat="43.8151018" lon="11.3113414"><ele>309.4</ele><time>2026-04-11T09:22:53.587Z</time></trkpt><trkpt lat="43.8150095" lon="11.3112143"><ele>305.8</ele><time>2026-04-11T09:22:55.587Z</time></trkpt><trkpt lat="43.8149645" lon="11.3111524"><ele>302.2</ele><time>2026-04-11T09:22:56.587Z</time></trkpt><trkpt lat="43.8148762" lon="11.3110328"><ele>298.6</ele><time>2026-04-11T09:22:58.587Z</time></trkpt><trkpt lat="43.8147855" lon="11.3109152"><ele>295.0</ele><time>2026-04-11T09:23:00.586Z</time></trkpt><trkpt lat="43.814734" lon="11.3108454"><ele>295.00000000000006</ele><time>2026-04-11T09:23:01.586Z</time></trkpt><trkpt lat="43.8146781" lon="11.310777"><ele>295.0</ele><time>2026-04-11T09:23:02.587Z</time></trkpt><trkpt lat="43.8146306" lon="11.3107084"><ele>295.0</ele><time>2026-04-11T09:23:03.587Z</time></trkpt><trkpt lat="43.814584" lon="11.3106436"><ele>295.0</ele><time>2026-04-11T09:23:04.586Z</time></trkpt><trkpt lat="43.8145341" lon="11.310576"><ele>295.0</ele><time>2026-04-11T09:23:05.587Z</time></trkpt><trkpt lat="43.814484" lon="11.3105045"><ele>295.00000000000006</ele><time>2026-04-11T09:23:06.587Z</time></trkpt><trkpt lat="43.814438" lon="11.3104321"><ele>295.0</ele><time>2026-04-11T09:23:07.586Z</time></trkpt><trkpt lat="43.8143941" lon="11.3103594"><ele>293.2</ele><time>2026-04-11T09:23:08.587Z</time></trkpt><trkpt lat="43.8143529" lon="11.3102899"><ele>291.4</ele><time>2026-04-11T09:23:09.587Z</time></trkpt><trkpt lat="43.8142752" lon="11.3101619"><ele>289.6</ele><time>2026-04-11T09:23:11.586Z</time></trkpt><trkpt lat="43.814193" lon="11.3100352"><ele>287.8</ele><time>2026-04-11T09:23:13.585Z</time></trkpt><trkpt lat="43.8141389" lon="11.3099583"><ele>286.0</ele><time>2026-04-11T09:23:14.587Z</time></trkpt><trkpt lat="43.8140947" lon="11.3098814"><ele>285.6</ele><time>2026-04-11T09:23:15.587Z</time></trkpt><trkpt lat="43.8140552" lon="11.3098092"><ele>285.20000000000005</ele><time>2026-04-11T09:23:16.587Z</time></trkpt><trkpt lat="43.8140138" lon="11.3096534"><ele>284.79999999999995</ele><time>2026-04-11T09:23:18.586Z</time></trkpt><trkpt lat="43.8140002" lon="11.3095627"><ele>284.4</ele><time>2026-04-11T09:23:19.587Z</time></trkpt><trkpt lat="43.81399" lon="11.3094732"><ele>284.0</ele><time>2026-04-11T09:23:20.587Z</time></trkpt><trkpt lat="43.8139634" lon="11.3092932"><ele>283.0</ele><time>2026-04-11T09:23:22.587Z</time></trkpt><trkpt lat="43.8139457" lon="11.3091855"><ele>282.0</ele><time>2026-04-11T09:23:23.587Z</time></trkpt><trkpt lat="43.8139287" lon="11.3090743"><ele>281.0</ele><time>2026-04-11T09:23:24.586Z</time></trkpt><trkpt lat="43.8139121" lon="11.3089646"><ele>280.0</ele><time>2026-04-11T09:23:25.586Z</time></trkpt><trkpt lat="43.8138948" lon="11.3088596"><ele>279.0</ele><time>2026-04-11T09:23:26.586Z</time></trkpt><trkpt lat="43.813881" lon="11.3087561"><ele>278.0</ele><time>2026-04-11T09:23:27.587Z</time></trkpt><trkpt lat="43.8138645" lon="11.3086464"><ele>276.83333333333337</ele><time>2026-04-11T09:23:28.585Z</time></trkpt><trkpt lat="43.8138512" lon="11.3085383"><ele>275.6666666666667</ele><time>2026-04-11T09:23:29.586Z</time></trkpt><trkpt lat="43.8138394" lon="11.3084404"><ele>274.5</ele><time>2026-04-11T09:23:30.587Z</time></trkpt><trkpt lat="43.813817" lon="11.3082886"><ele>273.3333333333333</ele><time>2026-04-11T09:23:32.587Z</time></trkpt><trkpt lat="43.8138035" lon="11.3081679"><ele>272.16666666666663</ele><time>2026-04-11T09:23:34.586Z</time></trkpt><trkpt lat="43.8137792" lon="11.3080369"><ele>271.0</ele><time>2026-04-11T09:23:36.586Z</time></trkpt><trkpt lat="43.8137395" lon="11.3079606"><ele>270.5</ele><time>2026-04-11T09:23:38.586Z</time></trkpt><trkpt lat="43.8136297" lon="11.3079362"><ele>270.0</ele><time>2026-04-11T09:23:41.586Z</time></trkpt><trkpt lat="43.8135097" lon="11.3079518"><ele>269.5</ele><time>2026-04-11T09:23:43.585Z</time></trkpt><trkpt lat="43.8134041" lon="11.3079693"><ele>269.0</ele><time>2026-04-11T09:23:45.587Z</time></trkpt><trkpt lat="43.8132907" lon="11.3079846"><ele>269.0</ele><time>2026-04-11T09:23:47.586Z</time></trkpt><trkpt lat="43.8131837" lon="11.3079746"><ele>269.0</ele><time>2026-04-11T09:23:49.587Z</time></trkpt><trkpt lat="43.813075" lon="11.307954"><ele>269.0</ele><time>2026-04-11T09:23:51.587Z</time></trkpt><trkpt lat="43.8129613" lon="11.3079206"><ele>269.0</ele><time>2026-04-11T09:23:53.587Z</time></trkpt><trkpt lat="43.8128702" lon="11.307852"><ele>269.0</ele><time>2026-04-11T09:23:55.587Z</time></trkpt><trkpt lat="43.8128089" lon="11.3076983"><ele>269.0</ele><time>2026-04-11T09:23:57.585Z</time></trkpt><trkpt lat="43.8127808" lon="11.3076149"><ele>269.0</ele><time>2026-04-11T09:23:58.587Z</time></trkpt><trkpt lat="43.812757" lon="11.3075157"><ele>269.0</ele><time>2026-04-11T09:23:59.587Z</time></trkpt><trkpt lat="43.8127252" lon="11.307422"><ele>269.0</ele><time>2026-04-11T09:24:00.587Z</time></trkpt><trkpt lat="43.8127002" lon="11.3073305"><ele>269.0</ele><time>2026-04-11T09:24:01.587Z</time></trkpt><trkpt lat="43.8126674" lon="11.3072451"><ele>269.0</ele><time>2026-04-11T09:24:02.585Z</time></trkpt><trkpt lat="43.8126091" lon="11.3071131"><ele>268.6666666666667</ele><time>2026-04-11T09:24:04.587Z</time></trkpt><trkpt lat="43.8125414" lon="11.3070366"><ele>268.33333333333337</ele><time>2026-04-11T09:24:06.587Z</time></trkpt><trkpt lat="43.8124392" lon="11.3069992"><ele>268.0</ele><time>2026-04-11T09:24:08.587Z</time></trkpt><trkpt lat="43.8123762" lon="11.3070118"><ele>267.6666666666667</ele><time>2026-04-11T09:24:09.587Z</time></trkpt><trkpt lat="43.8123139" lon="11.307048"><ele>267.3333333333333</ele><time>2026-04-11T09:24:10.586Z</time></trkpt><trkpt lat="43.8122472" lon="11.3070919"><ele>267.0</ele><time>2026-04-11T09:24:11.586Z</time></trkpt><trkpt lat="43.8121823" lon="11.3071489"><ele>267.0</ele><time>2026-04-11T09:24:12.586Z</time></trkpt><trkpt lat="43.8121224" lon="11.3071775"><ele>267.0</ele><time>2026-04-11T09:24:13.587Z</time></trkpt><trkpt lat="43.8120038" lon="11.3071991"><ele>267.0</ele><time>2026-04-11T09:24:15.586Z</time></trkpt><trkpt lat="43.8119361" lon="11.3071339"><ele>267.0</ele><time>2026-04-11T09:24:16.587Z</time></trkpt><trkpt lat="43.8118591" lon="11.3070068"><ele>267.0</ele><time>2026-04-11T09:24:18.586Z</time></trkpt><trkpt lat="43.8118378" lon="11.3069081"><ele>267.0</ele><time>2026-04-11T09:24:19.587Z</time></trkpt><trkpt lat="43.811827" lon="11.3068067"><ele>267.0</ele><time>2026-04-11T09:24:20.586Z</time></trkpt><trkpt lat="43.811817" lon="11.3066843"><ele>267.0</ele><time>2026-04-11T09:24:21.586Z</time></trkpt><trkpt lat="43.8118044" lon="11.3065645"><ele>267.0</ele><time>2026-04-11T09:24:22.586Z</time></trkpt><trkpt lat="43.8117916" lon="11.3064564"><ele>267.0</ele><time>2026-04-11T09:24:23.587Z</time></trkpt><trkpt lat="43.8117795" lon="11.3063532"><ele>267.0</ele><time>2026-04-11T09:24:24.587Z</time></trkpt><trkpt lat="43.8117709" lon="11.3062485"><ele>268.8</ele><time>2026-04-11T09:24:25.587Z</time></trkpt><trkpt lat="43.8117616" lon="11.306105"><ele>270.6</ele><time>2026-04-11T09:24:27.587Z</time></trkpt><trkpt lat="43.8117219" lon="11.3059837"><ele>272.40000000000003</ele><time>2026-04-11T09:24:29.586Z</time></trkpt><trkpt lat="43.8116358" lon="11.3058896"><ele>274.2</ele><time>2026-04-11T09:24:31.587Z</time></trkpt><trkpt lat="43.8115748" lon="11.3058589"><ele>276.0</ele><time>2026-04-11T09:24:32.586Z</time></trkpt><trkpt lat="43.8114462" lon="11.3057991"><ele>276.0</ele><time>2026-04-11T09:24:34.586Z</time></trkpt><trkpt lat="43.8113794" lon="11.3057609"><ele>276.0</ele><time>2026-04-11T09:24:35.586Z</time></trkpt><trkpt lat="43.8112711" lon="11.305712"><ele>276.0</ele><time>2026-04-11T09:24:37.586Z</time></trkpt><trkpt lat="43.8111732" lon="11.3056558"><ele>276.0</ele><time>2026-04-11T09:24:39.587Z</time></trkpt><trkpt lat="43.8111294" lon="11.3055698"><ele>276.0</ele><time>2026-04-11T09:24:41.586Z</time></trkpt><trkpt lat="43.8111239" lon="11.3054495"><ele>274.7142857142857</ele><time>2026-04-11T09:24:43.587Z</time></trkpt><trkpt lat="43.811132" lon="11.3053565"><ele>273.42857142857144</ele><time>2026-04-11T09:24:44.587Z</time></trkpt><trkpt lat="43.8111481" lon="11.3052545"><ele>272.14285714285717</ele><time>2026-04-11T09:24:45.586Z</time></trkpt><trkpt lat="43.811168" lon="11.3051554"><ele>270.8571428571429</ele><time>2026-04-11T09:24:46.586Z</time></trkpt><trkpt lat="43.8111876" lon="11.3050554"><ele>269.57142857142856</ele><time>2026-04-11T09:24:47.587Z</time></trkpt><trkpt lat="43.8112091" lon="11.3049592"><ele>268.28571428571433</ele><time>2026-04-11T09:24:48.587Z</time></trkpt><trkpt lat="43.8112256" lon="11.3048661"><ele>267.0</ele><time>2026-04-11T09:24:49.586Z</time></trkpt><trkpt lat="43.8112431" lon="11.3047818"><ele>266.2</ele><time>2026-04-11T09:24:50.587Z</time></trkpt><trkpt lat="43.8112728" lon="11.3046331"><ele>265.4</ele><time>2026-04-11T09:24:52.586Z</time></trkpt><trkpt lat="43.8112979" lon="11.3045024"><ele>264.6</ele><time>2026-04-11T09:24:54.587Z</time></trkpt><trkpt lat="43.8113104" lon="11.3044153"><ele>263.8</ele><time>2026-04-11T09:24:56.587Z</time></trkpt><trkpt lat="43.8113229" lon="11.3043234"><ele>263.0</ele><time>2026-04-11T09:25:01.587Z</time></trkpt><trkpt lat="43.8112631" lon="11.3041871"><ele>263.0</ele><time>2026-04-11T09:25:04.587Z</time></trkpt><trkpt lat="43.8112089" lon="11.304126"><ele>263.0</ele><time>2026-04-11T09:25:05.587Z</time></trkpt><trkpt lat="43.8111621" lon="11.3040641"><ele>263.0</ele><time>2026-04-11T09:25:06.587Z</time></trkpt><trkpt lat="43.8110969" lon="11.303937"><ele>263.0</ele><time>2026-04-11T09:25:08.587Z</time></trkpt><trkpt lat="43.8110005" lon="11.3038512"><ele>263.0</ele><time>2026-04-11T09:25:10.587Z</time></trkpt><trkpt lat="43.8109342" lon="11.3038076"><ele>263.0</ele><time>2026-04-11T09:25:11.586Z</time></trkpt><trkpt lat="43.8108577" lon="11.3037545"><ele>263.5</ele><time>2026-04-11T09:25:12.586Z</time></trkpt><trkpt lat="43.8107714" lon="11.3036964"><ele>264.0</ele><time>2026-04-11T09:25:13.586Z</time></trkpt><trkpt lat="43.8106881" lon="11.3036466"><ele>264.5</ele><time>2026-04-11T09:25:14.586Z</time></trkpt><trkpt lat="43.8106168" lon="11.3035877"><ele>265.0</ele><time>2026-04-11T09:25:15.586Z</time></trkpt><trkpt lat="43.8105598" lon="11.3035085"><ele>265.5</ele><time>2026-04-11T09:25:16.587Z</time></trkpt><trkpt lat="43.8104989" lon="11.3034174"><ele>266.0</ele><time>2026-04-11T09:25:17.587Z</time></trkpt><trkpt lat="43.8104306" lon="11.3033295"><ele>266.0</ele><time>2026-04-11T09:25:18.587Z</time></trkpt><trkpt lat="43.8103451" lon="11.3032501"><ele>266.0</ele><time>2026-04-11T09:25:19.587Z</time></trkpt><trkpt lat="43.8102676" lon="11.3031752"><ele>266.0</ele><time>2026-04-11T09:25:20.587Z</time></trkpt><trkpt lat="43.81018" lon="11.3031236"><ele>266.0</ele><time>2026-04-11T09:25:21.587Z</time></trkpt><trkpt lat="43.8100931" lon="11.303064"><ele>266.0</ele><time>2026-04-11T09:25:22.587Z</time></trkpt><trkpt lat="43.8100176" lon="11.303005"><ele>267.6</ele><time>2026-04-11T09:25:23.586Z</time></trkpt><trkpt lat="43.8099351" lon="11.3029647"><ele>269.20000000000005</ele><time>2026-04-11T09:25:24.587Z</time></trkpt><trkpt lat="43.8098466" lon="11.3028954"><ele>270.79999999999995</ele><time>2026-04-11T09:25:25.587Z</time></trkpt><trkpt lat="43.8097592" lon="11.3028344"><ele>272.4</ele><time>2026-04-11T09:25:26.586Z</time></trkpt><trkpt lat="43.8096704" lon="11.3027733"><ele>274.0</ele><time>2026-04-11T09:25:27.586Z</time></trkpt><trkpt lat="43.8095855" lon="11.3027073"><ele>274.0</ele><time>2026-04-11T09:25:28.586Z</time></trkpt><trkpt lat="43.8095033" lon="11.3026466"><ele>274.0</ele><time>2026-04-11T09:25:29.586Z</time></trkpt><trkpt lat="43.8094214" lon="11.3025694"><ele>274.0</ele><time>2026-04-11T09:25:30.587Z</time></trkpt><trkpt lat="43.8093418" lon="11.3024753"><ele>274.0</ele><time>2026-04-11T09:25:31.587Z</time></trkpt><trkpt lat="43.8092818" lon="11.302338"><ele>274.0</ele><time>2026-04-11T09:25:32.587Z</time></trkpt><trkpt lat="43.8091995" lon="11.3022248"><ele>276.4</ele><time>2026-04-11T09:25:33.587Z</time></trkpt><trkpt lat="43.8091281" lon="11.3020965"><ele>278.79999999999995</ele><time>2026-04-11T09:25:34.587Z</time></trkpt><trkpt lat="43.8090515" lon="11.3019834"><ele>281.20000000000005</ele><time>2026-04-11T09:25:35.587Z</time></trkpt><trkpt lat="43.8089836" lon="11.3018679"><ele>283.6</ele><time>2026-04-11T09:25:36.586Z</time></trkpt><trkpt lat="43.8089073" lon="11.3017604"><ele>286.0</ele><time>2026-04-11T09:25:37.587Z</time></trkpt><trkpt lat="43.8088317" lon="11.3016553"><ele>286.0</ele><time>2026-04-11T09:25:38.587Z</time></trkpt><trkpt lat="43.8087573" lon="11.301581"><ele>286.0</ele><time>2026-04-11T09:25:39.587Z</time></trkpt><trkpt lat="43.8086804" lon="11.3015106"><ele>286.0</ele><time>2026-04-11T09:25:40.587Z</time></trkpt><trkpt lat="43.8086044" lon="11.3014298"><ele>286.0</ele><time>2026-04-11T09:25:41.587Z</time></trkpt><trkpt lat="43.8085303" lon="11.3013475"><ele>286.0</ele><time>2026-04-11T09:25:42.585Z</time></trkpt><trkpt lat="43.8084658" lon="11.301266"><ele>288.2</ele><time>2026-04-11T09:25:43.587Z</time></trkpt><trkpt lat="43.8084014" lon="11.3011697"><ele>290.40000000000003</ele><time>2026-04-11T09:25:44.587Z</time></trkpt><trkpt lat="43.8083403" lon="11.3010602"><ele>292.6</ele><time>2026-04-11T09:25:45.587Z</time></trkpt><trkpt lat="43.8082807" lon="11.3009355"><ele>294.8</ele><time>2026-04-11T09:25:46.587Z</time></trkpt><trkpt lat="43.8082298" lon="11.3008067"><ele>297.0</ele><time>2026-04-11T09:25:47.586Z</time></trkpt><trkpt lat="43.8081875" lon="11.3006655"><ele>296.75</ele><time>2026-04-11T09:25:48.587Z</time></trkpt><trkpt lat="43.8081383" lon="11.3005017"><ele>296.5</ele><time>2026-04-11T09:25:49.587Z</time></trkpt><trkpt lat="43.8080844" lon="11.3003209"><ele>296.25</ele><time>2026-04-11T09:25:50.586Z</time></trkpt><trkpt lat="43.8080295" lon="11.3001555"><ele>296.0</ele><time>2026-04-11T09:25:51.587Z</time></trkpt><trkpt lat="43.8079834" lon="11.3000072"><ele>296.0</ele><time>2026-04-11T09:25:52.587Z</time></trkpt><trkpt lat="43.8079384" lon="11.2998785"><ele>296.0</ele><time>2026-04-11T09:25:53.587Z</time></trkpt><trkpt lat="43.8079073" lon="11.299772"><ele>296.0</ele><time>2026-04-11T09:25:54.587Z</time></trkpt><trkpt lat="43.8078834" lon="11.2996709"><ele>296.0</ele><time>2026-04-11T09:25:55.587Z</time></trkpt><trkpt lat="43.8078793" lon="11.2995698"><ele>296.0</ele><time>2026-04-11T09:25:56.587Z</time></trkpt><trkpt lat="43.8078722" lon="11.2994504"><ele>296.0</ele><time>2026-04-11T09:25:57.586Z</time></trkpt><trkpt lat="43.8078862" lon="11.2992941"><ele>295.0</ele><time>2026-04-11T09:25:58.587Z</time></trkpt><trkpt lat="43.8079019" lon="11.2991337"><ele>294.0</ele><time>2026-04-11T09:25:59.586Z</time></trkpt><trkpt lat="43.8079153" lon="11.2989568"><ele>293.0</ele><time>2026-04-11T09:26:00.587Z</time></trkpt><trkpt lat="43.8079387" lon="11.2987891"><ele>292.0</ele><time>2026-04-11T09:26:01.587Z</time></trkpt><trkpt lat="43.8079598" lon="11.2986334"><ele>291.5</ele><time>2026-04-11T09:26:02.587Z</time></trkpt><trkpt lat="43.8079775" lon="11.2984896"><ele>291.0</ele><time>2026-04-11T09:26:03.587Z</time></trkpt><trkpt lat="43.8079907" lon="11.2983664"><ele>290.5</ele><time>2026-04-11T09:26:04.587Z</time></trkpt><trkpt lat="43.8079824" lon="11.2982598"><ele>290.0</ele><time>2026-04-11T09:26:05.587Z</time></trkpt><trkpt lat="43.8079396" lon="11.2981665"><ele>289.5</ele><time>2026-04-11T09:26:06.586Z</time></trkpt><trkpt lat="43.8078984" lon="11.2980796"><ele>289.0</ele><time>2026-04-11T09:26:07.587Z</time></trkpt><trkpt lat="43.8078517" lon="11.2979833"><ele>288.5</ele><time>2026-04-11T09:26:08.587Z</time></trkpt><trkpt lat="43.8078239" lon="11.2978778"><ele>288.0</ele><time>2026-04-11T09:26:09.587Z</time></trkpt><trkpt lat="43.8077953" lon="11.2977473"><ele>287.5</ele><time>2026-04-11T09:26:10.586Z</time></trkpt><trkpt lat="43.8077774" lon="11.2976281"><ele>287.0</ele><time>2026-04-11T09:26:11.587Z</time></trkpt><trkpt lat="43.8077759" lon="11.2975181"><ele>286.5</ele><time>2026-04-11T09:26:12.587Z</time></trkpt><trkpt lat="43.807779" lon="11.297417"><ele>286.0</ele><time>2026-04-11T09:26:13.587Z</time></trkpt><trkpt lat="43.8078056" lon="11.2972469"><ele>286.0</ele><time>2026-04-11T09:26:15.587Z</time></trkpt><trkpt lat="43.807799" lon="11.2971352"><ele>286.0</ele><time>2026-04-11T09:26:16.586Z</time></trkpt><trkpt lat="43.8077842" lon="11.2970122"><ele>286.0</ele><time>2026-04-11T09:26:17.587Z</time></trkpt><trkpt lat="43.8077629" lon="11.2968706"><ele>286.0</ele><time>2026-04-11T09:26:18.586Z</time></trkpt><trkpt lat="43.8077319" lon="11.2967272"><ele>286.0</ele><time>2026-04-11T09:26:19.586Z</time></trkpt><trkpt lat="43.8076823" lon="11.2965998"><ele>289.6</ele><time>2026-04-11T09:26:20.585Z</time></trkpt><trkpt lat="43.8076064" lon="11.2964941"><ele>293.20000000000005</ele><time>2026-04-11T09:26:21.587Z</time></trkpt><trkpt lat="43.8075229" lon="11.2963981"><ele>296.79999999999995</ele><time>2026-04-11T09:26:22.587Z</time></trkpt><trkpt lat="43.807449" lon="11.2963093"><ele>300.4</ele><time>2026-04-11T09:26:23.587Z</time></trkpt><trkpt lat="43.8073921" lon="11.2962268"><ele>304.0</ele><time>2026-04-11T09:26:24.587Z</time></trkpt><trkpt lat="43.8073498" lon="11.296138"><ele>304.0</ele><time>2026-04-11T09:26:25.587Z</time></trkpt><trkpt lat="43.8073217" lon="11.2960124"><ele>304.0</ele><time>2026-04-11T09:26:27.586Z</time></trkpt><trkpt lat="43.807298" lon="11.295913"><ele>304.0</ele><time>2026-04-11T09:26:33.586Z</time></trkpt><trkpt lat="43.807269" lon="11.295794"><ele>304.0</ele><time>2026-04-11T09:26:35.586Z</time></trkpt><trkpt lat="43.8072497" lon="11.2956684"><ele>304.0</ele><time>2026-04-11T09:26:36.586Z</time></trkpt><trkpt lat="43.8072288" lon="11.2954619"><ele>303.59999999999997</ele><time>2026-04-11T09:26:37.587Z</time></trkpt><trkpt lat="43.8072134" lon="11.2953468"><ele>303.2</ele><time>2026-04-11T09:26:38.587Z</time></trkpt><trkpt lat="43.8071529" lon="11.2952805"><ele>302.79999999999995</ele><time>2026-04-11T09:26:39.586Z</time></trkpt><trkpt lat="43.8070718" lon="11.2951437"><ele>302.4</ele><time>2026-04-11T09:26:41.587Z</time></trkpt><trkpt lat="43.8069806" lon="11.2951093"><ele>302.0</ele><time>2026-04-11T09:26:43.587Z</time></trkpt><trkpt lat="43.8069536" lon="11.2951934"><ele>302.0</ele><time>2026-04-11T09:26:45.587Z</time></trkpt><trkpt lat="43.8069364" lon="11.2953372"><ele>302.0</ele><time>2026-04-11T09:26:47.586Z</time></trkpt><trkpt lat="43.8069226" lon="11.2955059"><ele>302.0</ele><time>2026-04-11T09:26:49.587Z</time></trkpt><trkpt lat="43.8069053" lon="11.2956155"><ele>302.0</ele><time>2026-04-11T09:26:50.587Z</time></trkpt><trkpt lat="43.8069085" lon="11.2957328"><ele>302.0</ele><time>2026-04-11T09:26:51.587Z</time></trkpt><trkpt lat="43.8069128" lon="11.2958547"><ele>302.4</ele><time>2026-04-11T09:26:52.586Z</time></trkpt><trkpt lat="43.8069113" lon="11.295974"><ele>302.79999999999995</ele><time>2026-04-11T09:26:53.587Z</time></trkpt><trkpt lat="43.8069089" lon="11.2961134"><ele>303.2</ele><time>2026-04-11T09:26:54.587Z</time></trkpt><trkpt lat="43.806922" lon="11.2962442"><ele>303.59999999999997</ele><time>2026-04-11T09:26:55.587Z</time></trkpt><trkpt lat="43.8069317" lon="11.2963681"><ele>304.0</ele><time>2026-04-11T09:26:56.587Z</time></trkpt><trkpt lat="43.8069566" lon="11.2964879"><ele>304.59999999999997</ele><time>2026-04-11T09:26:57.587Z</time></trkpt><trkpt lat="43.8069785" lon="11.2966015"><ele>305.2</ele><time>2026-04-11T09:26:58.586Z</time></trkpt><trkpt lat="43.8070137" lon="11.2967259"><ele>305.79999999999995</ele><time>2026-04-11T09:26:59.585Z</time></trkpt><trkpt lat="43.8070424" lon="11.2968483"><ele>306.4</ele><time>2026-04-11T09:27:00.586Z</time></trkpt><trkpt lat="43.8070819" lon="11.2969679"><ele>307.0</ele><time>2026-04-11T09:27:01.586Z</time></trkpt><trkpt lat="43.8071236" lon="11.2970836"><ele>307.0</ele><time>2026-04-11T09:27:02.587Z</time></trkpt><trkpt lat="43.8071722" lon="11.2971932"><ele>307.0</ele><time>2026-04-11T09:27:03.587Z</time></trkpt><trkpt lat="43.807219" lon="11.2972955"><ele>307.0</ele><time>2026-04-11T09:27:04.587Z</time></trkpt><trkpt lat="43.807239" lon="11.2974189"><ele>307.0</ele><time>2026-04-11T09:27:05.587Z</time></trkpt><trkpt lat="43.8072563" lon="11.2975454"><ele>307.0</ele><time>2026-04-11T09:27:06.587Z</time></trkpt><trkpt lat="43.8072557" lon="11.2976711"><ele>307.66666666666663</ele><time>2026-04-11T09:27:07.586Z</time></trkpt><trkpt lat="43.8072537" lon="11.2977916"><ele>308.3333333333333</ele><time>2026-04-11T09:27:08.586Z</time></trkpt><trkpt lat="43.8072489" lon="11.2979074"><ele>309.0</ele><time>2026-04-11T09:27:09.587Z</time></trkpt><trkpt lat="43.8072496" lon="11.2980141"><ele>309.6666666666667</ele><time>2026-04-11T09:27:10.587Z</time></trkpt><trkpt lat="43.8072586" lon="11.2981144"><ele>310.33333333333337</ele><time>2026-04-11T09:27:11.587Z</time></trkpt><trkpt lat="43.8072886" lon="11.2982174"><ele>311.0</ele><time>2026-04-11T09:27:12.587Z</time></trkpt><trkpt lat="43.8073275" lon="11.2983174"><ele>312.0</ele><time>2026-04-11T09:27:13.587Z</time></trkpt><trkpt lat="43.8073668" lon="11.2984268"><ele>313.0</ele><time>2026-04-11T09:27:14.587Z</time></trkpt><trkpt lat="43.8073957" lon="11.2985489"><ele>314.0</ele><time>2026-04-11T09:27:15.587Z</time></trkpt><trkpt lat="43.8074113" lon="11.2986822"><ele>315.0</ele><time>2026-04-11T09:27:16.587Z</time></trkpt><trkpt lat="43.807427" lon="11.2988124"><ele>316.0</ele><time>2026-04-11T09:27:17.587Z</time></trkpt><trkpt lat="43.8074367" lon="11.298942"><ele>316.2</ele><time>2026-04-11T09:27:18.586Z</time></trkpt><trkpt lat="43.8074598" lon="11.2990739"><ele>316.40000000000003</ele><time>2026-04-11T09:27:19.586Z</time></trkpt><trkpt lat="43.8074831" lon="11.2992035"><ele>316.6</ele><time>2026-04-11T09:27:20.587Z</time></trkpt><trkpt lat="43.8075119" lon="11.2993385"><ele>316.8</ele><time>2026-04-11T09:27:21.587Z</time></trkpt><trkpt lat="43.8075431" lon="11.2994757"><ele>317.0</ele><time>2026-04-11T09:27:22.587Z</time></trkpt><trkpt lat="43.8075817" lon="11.2996097"><ele>317.0</ele><time>2026-04-11T09:27:23.587Z</time></trkpt><trkpt lat="43.8076052" lon="11.2997473"><ele>317.0</ele><time>2026-04-11T09:27:24.587Z</time></trkpt><trkpt lat="43.8076233" lon="11.2998859"><ele>317.0</ele><time>2026-04-11T09:27:25.587Z</time></trkpt><trkpt lat="43.807642" lon="11.3000263"><ele>317.0</ele><time>2026-04-11T09:27:26.587Z</time></trkpt><trkpt lat="43.8076315" lon="11.3001724"><ele>317.0</ele><time>2026-04-11T09:27:27.587Z</time></trkpt><trkpt lat="43.8076064" lon="11.3003099"><ele>318.0</ele><time>2026-04-11T09:27:28.587Z</time></trkpt><trkpt lat="43.8075782" lon="11.300447"><ele>319.0</ele><time>2026-04-11T09:27:29.587Z</time></trkpt><trkpt lat="43.8075589" lon="11.3005786"><ele>320.0</ele><time>2026-04-11T09:27:30.587Z</time></trkpt><trkpt lat="43.8075534" lon="11.3006883"><ele>321.0</ele><time>2026-04-11T09:27:31.586Z</time></trkpt><trkpt lat="43.8075513" lon="11.3007909"><ele>322.0</ele><time>2026-04-11T09:27:32.587Z</time></trkpt><trkpt lat="43.8075652" lon="11.30095"><ele>322.0</ele><time>2026-04-11T09:27:34.586Z</time></trkpt><trkpt lat="43.8075744" lon="11.301058"><ele>322.0</ele><time>2026-04-11T09:27:36.586Z</time></trkpt><trkpt lat="43.8075914" lon="11.3011785"><ele>322.0</ele><time>2026-04-11T09:27:50.587Z</time></trkpt><trkpt lat="43.8075372" lon="11.3012611"><ele>322.0</ele><time>2026-04-11T09:27:51.587Z</time></trkpt><trkpt lat="43.8074911" lon="11.3014225"><ele>322.0</ele><time>2026-04-11T09:27:53.587Z</time></trkpt><trkpt lat="43.8074534" lon="11.301494"><ele>322.0</ele><time>2026-04-11T09:27:54.587Z</time></trkpt><trkpt lat="43.807396" lon="11.3015442"><ele>322.6</ele><time>2026-04-11T09:27:55.586Z</time></trkpt><trkpt lat="43.8073495" lon="11.3016626"><ele>323.20000000000005</ele><time>2026-04-11T09:27:57.587Z</time></trkpt><trkpt lat="43.8073307" lon="11.3017975"><ele>323.8</ele><time>2026-04-11T09:27:59.586Z</time></trkpt><trkpt lat="43.8073418" lon="11.3019261"><ele>324.4</ele><time>2026-04-11T09:28:01.586Z</time></trkpt><trkpt lat="43.8074215" lon="11.3020443"><ele>325.0</ele><time>2026-04-11T09:28:03.587Z</time></trkpt><trkpt lat="43.8074833" lon="11.3021022"><ele>325.0</ele><time>2026-04-11T09:28:04.586Z</time></trkpt><trkpt lat="43.8075422" lon="11.3021701"><ele>325.0</ele><time>2026-04-11T09:28:05.587Z</time></trkpt><trkpt lat="43.8076179" lon="11.3022358"><ele>325.0</ele><time>2026-04-11T09:28:06.587Z</time></trkpt><trkpt lat="43.8076951" lon="11.3023047"><ele>325.0</ele><time>2026-04-11T09:28:07.587Z</time></trkpt><trkpt lat="43.8077747" lon="11.3023785"><ele>325.0</ele><time>2026-04-11T09:28:08.587Z</time></trkpt><trkpt lat="43.8078494" lon="11.3024628"><ele>323.2</ele><time>2026-04-11T09:28:09.586Z</time></trkpt><trkpt lat="43.8079395" lon="11.3025395"><ele>321.4</ele><time>2026-04-11T09:28:10.587Z</time></trkpt><trkpt lat="43.8080075" lon="11.3026059"><ele>319.6</ele><time>2026-04-11T09:28:11.587Z</time></trkpt><trkpt lat="43.8080978" lon="11.3026562"><ele>317.8</ele><time>2026-04-11T09:28:12.587Z</time></trkpt><trkpt lat="43.8081644" lon="11.3027294"><ele>316.0</ele><time>2026-04-11T09:28:13.587Z</time></trkpt><trkpt lat="43.8082121" lon="11.3028483"><ele>316.0</ele><time>2026-04-11T09:28:14.586Z</time></trkpt><trkpt lat="43.8082549" lon="11.3029615"><ele>316.0</ele><time>2026-04-11T09:28:15.587Z</time></trkpt><trkpt lat="43.8082847" lon="11.3030935"><ele>316.0</ele><time>2026-04-11T09:28:16.587Z</time></trkpt><trkpt lat="43.8083045" lon="11.3032463"><ele>316.0</ele><time>2026-04-11T09:28:17.586Z</time></trkpt><trkpt lat="43.8083049" lon="11.3033999"><ele>316.0</ele><time>2026-04-11T09:28:18.587Z</time></trkpt><trkpt lat="43.8083" lon="11.3035599"><ele>318.4</ele><time>2026-04-11T09:28:19.587Z</time></trkpt><trkpt lat="43.8082937" lon="11.3037168"><ele>320.8</ele><time>2026-04-11T09:28:20.587Z</time></trkpt><trkpt lat="43.8082815" lon="11.303866"><ele>323.2</ele><time>2026-04-11T09:28:21.587Z</time></trkpt><trkpt lat="43.8082665" lon="11.3040179"><ele>325.59999999999997</ele><time>2026-04-11T09:28:22.586Z</time></trkpt><trkpt lat="43.808258" lon="11.304159"><ele>328.0</ele><time>2026-04-11T09:28:23.586Z</time></trkpt><trkpt lat="43.8082517" lon="11.3042923"><ele>328.79999999999995</ele><time>2026-04-11T09:28:24.587Z</time></trkpt><trkpt lat="43.8082532" lon="11.3044259"><ele>329.6</ele><time>2026-04-11T09:28:25.587Z</time></trkpt><trkpt lat="43.8082625" lon="11.3045683"><ele>330.4</ele><time>2026-04-11T09:28:26.587Z</time></trkpt><trkpt lat="43.8082727" lon="11.3047107"><ele>331.20000000000005</ele><time>2026-04-11T09:28:27.586Z</time></trkpt><trkpt lat="43.8082849" lon="11.3048619"><ele>332.0</ele><time>2026-04-11T09:28:28.586Z</time></trkpt><trkpt lat="43.8082999" lon="11.3050133"><ele>333.5</ele><time>2026-04-11T09:28:29.587Z</time></trkpt><trkpt lat="43.8083126" lon="11.3051673"><ele>335.0</ele><time>2026-04-11T09:28:30.587Z</time></trkpt><trkpt lat="43.8083265" lon="11.3053274"><ele>336.5</ele><time>2026-04-11T09:28:31.587Z</time></trkpt><trkpt lat="43.8083439" lon="11.3054919"><ele>338.0</ele><time>2026-04-11T09:28:32.587Z</time></trkpt><trkpt lat="43.8083559" lon="11.3056572"><ele>339.5</ele><time>2026-04-11T09:28:33.586Z</time></trkpt><trkpt lat="43.8083434" lon="11.3058218"><ele>341.0</ele><time>2026-04-11T09:28:34.587Z</time></trkpt><trkpt lat="43.8083255" lon="11.3059887"><ele>342.5</ele><time>2026-04-11T09:28:35.586Z</time></trkpt><trkpt lat="43.8082616" lon="11.3061659"><ele>344.0</ele><time>2026-04-11T09:28:36.586Z</time></trkpt><trkpt lat="43.8082128" lon="11.3063294"><ele>343.4</ele><time>2026-04-11T09:28:37.587Z</time></trkpt><trkpt lat="43.8081648" lon="11.3064653"><ele>342.79999999999995</ele><time>2026-04-11T09:28:38.587Z</time></trkpt><trkpt lat="43.8081204" lon="11.3065932"><ele>342.20000000000005</ele><time>2026-04-11T09:28:39.587Z</time></trkpt><trkpt lat="43.8080792" lon="11.30671"><ele>341.6</ele><time>2026-04-11T09:28:40.587Z</time></trkpt><trkpt lat="43.8080451" lon="11.3068563"><ele>341.0</ele><time>2026-04-11T09:28:41.587Z</time></trkpt><trkpt lat="43.8080066" lon="11.3070068"><ele>341.0</ele><time>2026-04-11T09:28:42.587Z</time></trkpt><trkpt lat="43.8079815" lon="11.3071649"><ele>341.0</ele><time>2026-04-11T09:28:43.587Z</time></trkpt><trkpt lat="43.8079629" lon="11.3073187"><ele>341.0</ele><time>2026-04-11T09:28:44.587Z</time></trkpt><trkpt lat="43.8079474" lon="11.3074728"><ele>341.0</ele><time>2026-04-11T09:28:45.587Z</time></trkpt><trkpt lat="43.8079323" lon="11.3076153"><ele>341.0</ele><time>2026-04-11T09:28:46.586Z</time></trkpt><trkpt lat="43.8079136" lon="11.3077606"><ele>340.5</ele><time>2026-04-11T09:28:47.586Z</time></trkpt><trkpt lat="43.807896" lon="11.3079099"><ele>340.0</ele><time>2026-04-11T09:28:48.585Z</time></trkpt><trkpt lat="43.8078818" lon="11.3080701"><ele>339.5</ele><time>2026-04-11T09:28:49.587Z</time></trkpt><trkpt lat="43.8078699" lon="11.3082429"><ele>339.0</ele><time>2026-04-11T09:28:50.587Z</time></trkpt><trkpt lat="43.8078563" lon="11.3084234"><ele>338.75</ele><time>2026-04-11T09:28:51.586Z</time></trkpt><trkpt lat="43.8078436" lon="11.3086097"><ele>338.5</ele><time>2026-04-11T09:28:52.587Z</time></trkpt><trkpt lat="43.8078382" lon="11.3087824"><ele>338.25</ele><time>2026-04-11T09:28:53.587Z</time></trkpt><trkpt lat="43.8078351" lon="11.3089443"><ele>338.0</ele><time>2026-04-11T09:28:54.587Z</time></trkpt><trkpt lat="43.8078351" lon="11.3090977"><ele>339.2</ele><time>2026-04-11T09:28:55.586Z</time></trkpt><trkpt lat="43.8078431" lon="11.3092467"><ele>340.4</ele><time>2026-04-11T09:28:56.587Z</time></trkpt><trkpt lat="43.8078513" lon="11.3093981"><ele>341.59999999999997</ele><time>2026-04-11T09:28:57.587Z</time></trkpt><trkpt lat="43.8078641" lon="11.3095432"><ele>342.79999999999995</ele><time>2026-04-11T09:28:58.586Z</time></trkpt><trkpt lat="43.8078814" lon="11.3096784"><ele>344.0</ele><time>2026-04-11T09:28:59.587Z</time></trkpt><trkpt lat="43.807912" lon="11.3098223"><ele>345.75</ele><time>2026-04-11T09:29:00.587Z</time></trkpt><trkpt lat="43.8079569" lon="11.3099759"><ele>347.5</ele><time>2026-04-11T09:29:01.587Z</time></trkpt><trkpt lat="43.8080129" lon="11.3101274"><ele>349.25</ele><time>2026-04-11T09:29:02.587Z</time></trkpt><trkpt lat="43.8080779" lon="11.3102628"><ele>351.0</ele><time>2026-04-11T09:29:03.586Z</time></trkpt><trkpt lat="43.8081446" lon="11.3103973"><ele>351.0</ele><time>2026-04-11T09:29:04.587Z</time></trkpt><trkpt lat="43.8082168" lon="11.3105192"><ele>351.0</ele><time>2026-04-11T09:29:05.587Z</time></trkpt><trkpt lat="43.80829" lon="11.3106486"><ele>351.0</ele><time>2026-04-11T09:29:06.586Z</time></trkpt><trkpt lat="43.8083523" lon="11.3107642"><ele>351.0</ele><time>2026-04-11T09:29:07.586Z</time></trkpt><trkpt lat="43.8083918" lon="11.3109157"><ele>352.0</ele><time>2026-04-11T09:29:08.587Z</time></trkpt><trkpt lat="43.8084395" lon="11.3110514"><ele>353.0</ele><time>2026-04-11T09:29:09.587Z</time></trkpt><trkpt lat="43.8084834" lon="11.3112034"><ele>354.0</ele><time>2026-04-11T09:29:10.587Z</time></trkpt><trkpt lat="43.808526" lon="11.3113741"><ele>355.0</ele><time>2026-04-11T09:29:11.585Z</time></trkpt><trkpt lat="43.8085568" lon="11.3115431"><ele>358.0</ele><time>2026-04-11T09:29:12.586Z</time></trkpt><trkpt lat="43.8085983" lon="11.3117154"><ele>361.0</ele><time>2026-04-11T09:29:13.587Z</time></trkpt><trkpt lat="43.8086357" lon="11.3118941"><ele>364.0</ele><time>2026-04-11T09:29:14.587Z</time></trkpt><trkpt lat="43.8086478" lon="11.3120847"><ele>367.0</ele><time>2026-04-11T09:29:15.587Z</time></trkpt><trkpt lat="43.8086952" lon="11.3122608"><ele>367.0</ele><time>2026-04-11T09:29:16.586Z</time></trkpt><trkpt lat="43.8087325" lon="11.3124367"><ele>367.0</ele><time>2026-04-11T09:29:17.587Z</time></trkpt><trkpt lat="43.8087641" lon="11.3125919"><ele>367.0</ele><time>2026-04-11T09:29:18.587Z</time></trkpt><trkpt lat="43.8087999" lon="11.3127423"><ele>367.0</ele><time>2026-04-11T09:29:19.587Z</time></trkpt><trkpt lat="43.8088289" lon="11.3128739"><ele>367.0</ele><time>2026-04-11T09:29:20.586Z</time></trkpt><trkpt lat="43.8088525" lon="11.313007"><ele>367.0</ele><time>2026-04-11T09:29:21.587Z</time></trkpt><trkpt lat="43.8088969" lon="11.3131202"><ele>367.0</ele><time>2026-04-11T09:29:22.587Z</time></trkpt><trkpt lat="43.8089633" lon="11.3132291"><ele>367.0</ele><time>2026-04-11T09:29:23.587Z</time></trkpt><trkpt lat="43.8090246" lon="11.3133578"><ele>367.0</ele><time>2026-04-11T09:29:24.587Z</time></trkpt><trkpt lat="43.8091243" lon="11.3134609"><ele>366.0</ele><time>2026-04-11T09:29:25.587Z</time></trkpt><trkpt lat="43.8092119" lon="11.3135727"><ele>365.0</ele><time>2026-04-11T09:29:26.587Z</time></trkpt><trkpt lat="43.8092848" lon="11.3136804"><ele>364.0</ele><time>2026-04-11T09:29:27.587Z</time></trkpt><trkpt lat="43.8093583" lon="11.3137682"><ele>363.0</ele><time>2026-04-11T09:29:28.587Z</time></trkpt><trkpt lat="43.8094266" lon="11.3138631"><ele>362.0</ele><time>2026-04-11T09:29:29.587Z</time></trkpt><trkpt lat="43.809497" lon="11.3139537"><ele>361.6666666666667</ele><time>2026-04-11T09:29:30.586Z</time></trkpt><trkpt lat="43.8095652" lon="11.3140391"><ele>361.33333333333337</ele><time>2026-04-11T09:29:31.586Z</time></trkpt><trkpt lat="43.8096104" lon="11.3141119"><ele>361.0</ele><time>2026-04-11T09:29:32.587Z</time></trkpt><trkpt lat="43.809699" lon="11.3142054"><ele>360.6666666666667</ele><time>2026-04-11T09:29:34.587Z</time></trkpt><trkpt lat="43.8097621" lon="11.3143112"><ele>360.3333333333333</ele><time>2026-04-11T09:29:36.587Z</time></trkpt><trkpt lat="43.8098195" lon="11.3143478"><ele>360.0</ele><time>2026-04-11T09:29:40.586Z</time></trkpt><trkpt lat="43.8098117" lon="11.3142565"><ele>360.0</ele><time>2026-04-11T09:29:44.586Z</time></trkpt><trkpt lat="43.809772" lon="11.3141778"><ele>360.0</ele><time>2026-04-11T09:29:45.587Z</time></trkpt><trkpt lat="43.8096733" lon="11.3140884"><ele>360.0</ele><time>2026-04-11T09:29:46.587Z</time></trkpt><trkpt lat="43.8095999" lon="11.3140013"><ele>360.0</ele><time>2026-04-11T09:29:48.587Z</time></trkpt><trkpt lat="43.809541" lon="11.3140365"><ele>360.0</ele><time>2026-04-11T09:29:49.587Z</time></trkpt><trkpt lat="43.8095139" lon="11.3142019"><ele>360.0</ele><time>2026-04-11T09:29:53.586Z</time></trkpt><trkpt lat="43.8094498" lon="11.3143697"><ele>360.0</ele><time>2026-04-11T09:29:55.587Z</time></trkpt><trkpt lat="43.8093891" lon="11.314493"><ele>360.0</ele><time>2026-04-11T09:29:56.587Z</time></trkpt><trkpt lat="43.8093465" lon="11.3145818"><ele>360.0</ele><time>2026-04-11T09:29:57.587Z</time></trkpt><trkpt lat="43.8092964" lon="11.3146823"><ele>360.0</ele><time>2026-04-11T09:29:58.587Z</time></trkpt><trkpt lat="43.8092686" lon="11.3147832"><ele>359.6666666666667</ele><time>2026-04-11T09:29:59.587Z</time></trkpt><trkpt lat="43.8092143" lon="11.3148699"><ele>359.3333333333333</ele><time>2026-04-11T09:30:00.587Z</time></trkpt><trkpt lat="43.8091809" lon="11.3149723"><ele>359.0</ele><time>2026-04-11T09:30:01.587Z</time></trkpt><trkpt lat="43.8091505" lon="11.3150569"><ele>358.66666666666663</ele><time>2026-04-11T09:30:02.586Z</time></trkpt><trkpt lat="43.8091217" lon="11.3151473"><ele>358.3333333333333</ele><time>2026-04-11T09:30:03.586Z</time></trkpt><trkpt lat="43.8090839" lon="11.3152369"><ele>358.0</ele><time>2026-04-11T09:30:04.586Z</time></trkpt><trkpt lat="43.809043" lon="11.3153199"><ele>358.0</ele><time>2026-04-11T09:30:05.587Z</time></trkpt><trkpt lat="43.8090039" lon="11.3153887"><ele>358.0</ele><time>2026-04-11T09:30:06.587Z</time></trkpt><trkpt lat="43.8089785" lon="11.3154942"><ele>358.0</ele><time>2026-04-11T09:30:08.587Z</time></trkpt><trkpt lat="43.8089643" lon="11.3156219"><ele>358.0</ele><time>2026-04-11T09:30:10.587Z</time></trkpt><trkpt lat="43.8089008" lon="11.3157324"><ele>358.0</ele><time>2026-04-11T09:30:12.587Z</time></trkpt><trkpt lat="43.808815" lon="11.3158502"><ele>358.0</ele><time>2026-04-11T09:30:14.586Z</time></trkpt><trkpt lat="43.8087407" lon="11.3160096"><ele>358.0</ele><time>2026-04-11T09:30:16.587Z</time></trkpt><trkpt lat="43.8087028" lon="11.3160805"><ele>358.0</ele><time>2026-04-11T09:30:17.586Z</time></trkpt><trkpt lat="43.8086359" lon="11.3162102"><ele>358.0</ele><time>2026-04-11T09:30:19.587Z</time></trkpt><trkpt lat="43.8085574" lon="11.3163308"><ele>358.0</ele><time>2026-04-11T09:30:21.587Z</time></trkpt><trkpt lat="43.8084465" lon="11.3164172"><ele>357.8333333333333</ele><time>2026-04-11T09:30:23.587Z</time></trkpt><trkpt lat="43.8083707" lon="11.3164467"><ele>357.66666666666663</ele><time>2026-04-11T09:30:24.586Z</time></trkpt><trkpt lat="43.8082837" lon="11.3164661"><ele>357.5</ele><time>2026-04-11T09:30:25.587Z</time></trkpt><trkpt lat="43.8082002" lon="11.3164826"><ele>357.3333333333333</ele><time>2026-04-11T09:30:26.587Z</time></trkpt><trkpt lat="43.8081259" lon="11.3164872"><ele>357.1666666666667</ele><time>2026-04-11T09:30:27.587Z</time></trkpt><trkpt lat="43.8080589" lon="11.3164973"><ele>357.0</ele><time>2026-04-11T09:30:28.586Z</time></trkpt><trkpt lat="43.8079953" lon="11.3165043"><ele>357.0</ele><time>2026-04-11T09:30:29.587Z</time></trkpt><trkpt lat="43.807897" lon="11.3165214"><ele>357.0</ele><time>2026-04-11T09:30:31.587Z</time></trkpt><trkpt lat="43.8078339" lon="11.3165253"><ele>357.0</ele><time>2026-04-11T09:30:34.587Z</time></trkpt><trkpt lat="43.8077617" lon="11.3165428"><ele>357.0</ele><time>2026-04-11T09:30:44.586Z</time></trkpt><trkpt lat="43.8076876" lon="11.3165641"><ele>357.0</ele><time>2026-04-11T09:30:46.587Z</time></trkpt><trkpt lat="43.8076039" lon="11.3165776"><ele>357.0</ele><time>2026-04-11T09:30:48.587Z</time></trkpt><trkpt lat="43.8075124" lon="11.3165668"><ele>354.20000000000005</ele><time>2026-04-11T09:30:50.587Z</time></trkpt><trkpt lat="43.8073958" lon="11.3165719"><ele>351.4</ele><time>2026-04-11T09:30:52.587Z</time></trkpt><trkpt lat="43.8072887" lon="11.3165993"><ele>348.6</ele><time>2026-04-11T09:30:54.587Z</time></trkpt><trkpt lat="43.8071735" lon="11.3166104"><ele>345.79999999999995</ele><time>2026-04-11T09:30:56.587Z</time></trkpt><trkpt lat="43.8071043" lon="11.3165999"><ele>343.0</ele><time>2026-04-11T09:30:57.587Z</time></trkpt><trkpt lat="43.8070366" lon="11.31659"><ele>343.0</ele><time>2026-04-11T09:30:58.587Z</time></trkpt><trkpt lat="43.8069702" lon="11.3165903"><ele>343.0</ele><time>2026-04-11T09:30:59.587Z</time></trkpt><trkpt lat="43.8068927" lon="11.3165872"><ele>343.0</ele><time>2026-04-11T09:31:00.586Z</time></trkpt><trkpt lat="43.8068144" lon="11.3165849"><ele>343.0</ele><time>2026-04-11T09:31:01.587Z</time></trkpt><trkpt lat="43.8067451" lon="11.3165909"><ele>343.0</ele><time>2026-04-11T09:31:02.585Z</time></trkpt><trkpt lat="43.8066824" lon="11.3166015"><ele>343.0</ele><time>2026-04-11T09:31:03.587Z</time></trkpt><trkpt lat="43.8066054" lon="11.316624"><ele>343.0</ele><time>2026-04-11T09:31:05.587Z</time></trkpt><trkpt lat="43.8065508" lon="11.3167143"><ele>342.85714285714283</ele><time>2026-04-11T09:31:09.587Z</time></trkpt><trkpt lat="43.806509" lon="11.316802"><ele>342.7142857142857</ele><time>2026-04-11T09:31:12.587Z</time></trkpt><trkpt lat="43.8064756" lon="11.3168871"><ele>342.57142857142856</ele><time>2026-04-11T09:31:14.587Z</time></trkpt><trkpt lat="43.8064335" lon="11.3169639"><ele>342.42857142857144</ele><time>2026-04-11T09:31:16.586Z</time></trkpt><trkpt lat="43.806398" lon="11.3170421"><ele>342.2857142857143</ele><time>2026-04-11T09:31:18.586Z</time></trkpt><trkpt lat="43.8063887" lon="11.3171392"><ele>342.1428571428571</ele><time>2026-04-11T09:31:20.586Z</time></trkpt><trkpt lat="43.8063605" lon="11.3172562"><ele>342.0</ele><time>2026-04-11T09:31:26.586Z</time></trkpt><trkpt lat="43.8062957" lon="11.317365"><ele>342.0</ele><time>2026-04-11T09:31:28.587Z</time></trkpt><trkpt lat="43.8062396" lon="11.3174368"><ele>342.0</ele><time>2026-04-11T09:31:29.586Z</time></trkpt><trkpt lat="43.8061654" lon="11.3175355"><ele>342.0</ele><time>2026-04-11T09:31:30.586Z</time></trkpt><trkpt lat="43.8061228" lon="11.3176147"><ele>342.0</ele><time>2026-04-11T09:31:31.585Z</time></trkpt><trkpt lat="43.8061022" lon="11.3176974"><ele>342.0</ele><time>2026-04-11T09:31:32.586Z</time></trkpt><trkpt lat="43.8060418" lon="11.3178394"><ele>342.0</ele><time>2026-04-11T09:31:34.587Z</time></trkpt><trkpt lat="43.8059972" lon="11.3179374"><ele>339.8</ele><time>2026-04-11T09:31:36.586Z</time></trkpt><trkpt lat="43.805948" lon="11.3180368"><ele>337.6</ele><time>2026-04-11T09:31:38.587Z</time></trkpt><trkpt lat="43.8059201" lon="11.318181"><ele>335.40000000000003</ele><time>2026-04-11T09:31:40.587Z</time></trkpt><trkpt lat="43.8058671" lon="11.3182751"><ele>333.20000000000005</ele><time>2026-04-11T09:31:42.587Z</time></trkpt><trkpt lat="43.8058044" lon="11.3183778"><ele>331.0</ele><time>2026-04-11T09:31:45.587Z</time></trkpt><trkpt lat="43.8057529" lon="11.318515"><ele>331.0</ele><time>2026-04-11T09:31:47.587Z</time></trkpt><trkpt lat="43.8057023" lon="11.3186409"><ele>331.0</ele><time>2026-04-11T09:31:49.587Z</time></trkpt><trkpt lat="43.8056635" lon="11.3187624"><ele>331.0</ele><time>2026-04-11T09:31:51.586Z</time></trkpt><trkpt lat="43.8056326" lon="11.3188914"><ele>331.0</ele><time>2026-04-11T09:31:53.587Z</time></trkpt><trkpt lat="43.8055961" lon="11.319006"><ele>331.0</ele><time>2026-04-11T09:31:55.586Z</time></trkpt><trkpt lat="43.8055824" lon="11.3191138"><ele>331.0</ele><time>2026-04-11T09:31:57.587Z</time></trkpt><trkpt lat="43.805566" lon="11.3192146"><ele>331.0</ele><time>2026-04-11T09:31:59.586Z</time></trkpt><trkpt lat="43.8055644" lon="11.3193404"><ele>331.0</ele><time>2026-04-11T09:32:01.586Z</time></trkpt><trkpt lat="43.8055504" lon="11.3194504"><ele>331.0</ele><time>2026-04-11T09:32:03.587Z</time></trkpt><trkpt lat="43.8055391" lon="11.3195487"><ele>331.0</ele><time>2026-04-11T09:32:05.586Z</time></trkpt><trkpt lat="43.8055285" lon="11.3196519"><ele>331.0</ele><time>2026-04-11T09:32:07.587Z</time></trkpt><trkpt lat="43.8055154" lon="11.319746"><ele>330.3333333333333</ele><time>2026-04-11T09:32:09.585Z</time></trkpt><trkpt lat="43.8054977" lon="11.319841"><ele>329.66666666666663</ele><time>2026-04-11T09:32:11.587Z</time></trkpt><trkpt lat="43.8054849" lon="11.3199483"><ele>329.0</ele><time>2026-04-11T09:32:13.587Z</time></trkpt><trkpt lat="43.8054741" lon="11.3200661"><ele>328.3333333333333</ele><time>2026-04-11T09:32:15.587Z</time></trkpt><trkpt lat="43.8054613" lon="11.3201793"><ele>327.6666666666667</ele><time>2026-04-11T09:32:17.587Z</time></trkpt><trkpt lat="43.8054458" lon="11.3203055"><ele>327.0</ele><time>2026-04-11T09:32:19.587Z</time></trkpt><trkpt lat="43.805411" lon="11.3204115"><ele>327.0</ele><time>2026-04-11T09:32:22.586Z</time></trkpt><trkpt lat="43.8053782" lon="11.3205004"><ele>327.0</ele><time>2026-04-11T09:32:24.587Z</time></trkpt><trkpt lat="43.8053512" lon="11.3206031"><ele>327.0</ele><time>2026-04-11T09:32:26.586Z</time></trkpt><trkpt lat="43.8053456" lon="11.3207345"><ele>327.0</ele><time>2026-04-11T09:32:28.587Z</time></trkpt><trkpt lat="43.8053477" lon="11.3208219"><ele>327.0</ele><time>2026-04-11T09:32:30.585Z</time></trkpt><trkpt lat="43.8053376" lon="11.320943"><ele>327.0</ele><time>2026-04-11T09:32:32.586Z</time></trkpt><trkpt lat="43.8053198" lon="11.3210631"><ele>327.42857142857144</ele><time>2026-04-11T09:32:34.586Z</time></trkpt><trkpt lat="43.8053078" lon="11.3211757"><ele>327.8571428571429</ele><time>2026-04-11T09:32:36.587Z</time></trkpt><trkpt lat="43.8053356" lon="11.3212601"><ele>328.28571428571433</ele><time>2026-04-11T09:32:38.586Z</time></trkpt><trkpt lat="43.8053224" lon="11.3213516"><ele>328.7142857142857</ele><time>2026-04-11T09:32:42.586Z</time></trkpt><trkpt lat="43.8052672" lon="11.3213985"><ele>329.14285714285717</ele><time>2026-04-11T09:32:50.587Z</time></trkpt><trkpt lat="43.8051946" lon="11.3214716"><ele>329.5714285714286</ele><time>2026-04-11T09:33:08.586Z</time></trkpt><trkpt lat="43.8051679" lon="11.3215556"><ele>330.0</ele><time>2026-04-11T09:33:12.587Z</time></trkpt><trkpt lat="43.8051361" lon="11.3216587"><ele>329.0</ele><time>2026-04-11T09:34:32.587Z</time></trkpt><trkpt lat="43.8051056" lon="11.3217608"><ele>328.0</ele><time>2026-04-11T09:34:34.587Z</time></trkpt><trkpt lat="43.8050751" lon="11.3218622"><ele>327.0</ele><time>2026-04-11T09:34:36.586Z</time></trkpt><trkpt lat="43.8050356" lon="11.321966"><ele>326.0</ele><time>2026-04-11T09:34:38.587Z</time></trkpt><trkpt lat="43.8050002" lon="11.3220545"><ele>325.0</ele><time>2026-04-11T09:34:40.587Z</time></trkpt><trkpt lat="43.8049492" lon="11.3221139"><ele>324.0</ele><time>2026-04-11T09:34:44.587Z</time></trkpt><trkpt lat="43.8048918" lon="11.3221705"><ele>325.14285714285717</ele><time>2026-04-11T09:34:50.587Z</time></trkpt><trkpt lat="43.8048536" lon="11.3222715"><ele>326.2857142857143</ele><time>2026-04-11T09:34:58.585Z</time></trkpt><trkpt lat="43.8048077" lon="11.3223352"><ele>327.42857142857144</ele><time>2026-04-11T09:35:04.587Z</time></trkpt><trkpt lat="43.8047492" lon="11.3223789"><ele>328.57142857142856</ele><time>2026-04-11T09:35:49.587Z</time></trkpt><trkpt lat="43.8046982" lon="11.3224532"><ele>329.7142857142857</ele><time>2026-04-11T09:35:52.587Z</time></trkpt><trkpt lat="43.8046899" lon="11.3225535"><ele>330.85714285714283</ele><time>2026-04-11T09:36:00.587Z</time></trkpt><trkpt lat="43.8046545" lon="11.3226392"><ele>332.0</ele><time>2026-04-11T09:36:05.586Z</time></trkpt><trkpt lat="43.8046226" lon="11.3227338"><ele>332.0</ele><time>2026-04-11T09:36:09.586Z</time></trkpt><trkpt lat="43.8045902" lon="11.322809"><ele>332.0</ele><time>2026-04-11T09:36:12.587Z</time></trkpt><trkpt lat="43.804558" lon="11.3228872"><ele>332.0</ele><time>2026-04-11T09:36:15.587Z</time></trkpt><trkpt lat="43.8045321" lon="11.3229845"><ele>332.0</ele><time>2026-04-11T09:36:18.587Z</time></trkpt><trkpt lat="43.8044923" lon="11.3230668"><ele>332.0</ele><time>2026-04-11T09:36:22.587Z</time></trkpt><trkpt lat="43.8044757" lon="11.3231511"><ele>332.0</ele><time>2026-04-11T09:36:35.587Z</time></trkpt><trkpt lat="43.8044342" lon="11.3232421"><ele>332.0</ele><time>2026-04-11T09:36:39.587Z</time></trkpt><trkpt lat="43.8044467" lon="11.3231356"><ele>332.0</ele><time>2026-04-11T09:38:55.587Z</time></trkpt><trkpt lat="43.8044855" lon="11.323063"><ele>332.0</ele><time>2026-04-11T09:39:09.587Z</time></trkpt><trkpt lat="43.8044667" lon="11.3231508"><ele>332.0</ele><time>2026-04-11T09:40:47.585Z</time></trkpt><trkpt lat="43.8044229" lon="11.3232195"><ele>332.0</ele><time>2026-04-11T09:42:11.585Z</time></trkpt><trkpt lat="43.8044704" lon="11.3231473"><ele>332.0</ele><time>2026-04-11T09:43:38.585Z</time></trkpt><trkpt lat="43.8045117" lon="11.3230779"><ele>332.0</ele><time>2026-04-11T09:43:47.586Z</time></trkpt><trkpt lat="43.8045365" lon="11.3229921"><ele>332.0</ele><time>2026-04-11T09:43:53.585Z</time></trkpt><trkpt lat="43.8045183" lon="11.3230804"><ele>333.1428571428571</ele><time>2026-04-11T09:48:20.586Z</time></trkpt><trkpt lat="43.8044685" lon="11.323139"><ele>334.28571428571433</ele><time>2026-04-11T09:48:26.586Z</time></trkpt><trkpt lat="43.8044269" lon="11.3232156"><ele>335.42857142857144</ele><time>2026-04-11T09:48:33.586Z</time></trkpt><trkpt lat="43.8044543" lon="11.3232954"><ele>336.57142857142856</ele><time>2026-04-11T09:48:42.586Z</time></trkpt><trkpt lat="43.804409" lon="11.3233692"><ele>337.71428571428567</ele><time>2026-04-11T09:48:48.586Z</time></trkpt><trkpt lat="43.8043557" lon="11.3234381"><ele>338.8571428571429</ele><time>2026-04-11T09:48:54.585Z</time></trkpt><trkpt lat="43.8043054" lon="11.3235038"><ele>340.0</ele><time>2026-04-11T09:49:00.586Z</time></trkpt><trkpt lat="43.8042623" lon="11.3235703"><ele>340.0</ele><time>2026-04-11T09:49:08.586Z</time></trkpt><trkpt lat="43.8042136" lon="11.3236326"><ele>340.0</ele><time>2026-04-11T09:49:13.586Z</time></trkpt><trkpt lat="43.8041567" lon="11.323693"><ele>340.0</ele><time>2026-04-11T09:49:19.658Z</time></trkpt><trkpt lat="43.8041088" lon="11.3237645"><ele>340.0</ele><time>2026-04-11T09:49:25.639Z</time></trkpt><trkpt lat="43.8040507" lon="11.3238393"><ele>340.0</ele><time>2026-04-11T09:49:31.586Z</time></trkpt><trkpt lat="43.803997" lon="11.3239007"><ele>340.0</ele><time>2026-04-11T09:49:37.585Z</time></trkpt><trkpt lat="43.8039512" lon="11.32397"><ele>340.0</ele><time>2026-04-11T09:49:42.517Z</time></trkpt><trkpt lat="43.8039045" lon="11.3240299"><ele>342.5714285714286</ele><time>2026-04-11T09:49:47.586Z</time></trkpt><trkpt lat="43.8038455" lon="11.324063"><ele>345.1428571428571</ele><time>2026-04-11T09:49:53.585Z</time></trkpt><trkpt lat="43.8038064" lon="11.3241389"><ele>347.7142857142857</ele><time>2026-04-11T09:49:58.513Z</time></trkpt><trkpt lat="43.803763" lon="11.3242084"><ele>350.28571428571433</ele><time>2026-04-11T09:50:03.586Z</time></trkpt><trkpt lat="43.8037056" lon="11.3242639"><ele>352.8571428571429</ele><time>2026-04-11T09:50:08.662Z</time></trkpt><trkpt lat="43.8036458" lon="11.3243241"><ele>355.42857142857144</ele><time>2026-04-11T09:50:14.538Z</time></trkpt><trkpt lat="43.8036019" lon="11.3243997"><ele>358.0</ele><time>2026-04-11T09:50:20.586Z</time></trkpt><trkpt lat="43.8035421" lon="11.3244442"><ele>358.0</ele><time>2026-04-11T09:50:27.537Z</time></trkpt><trkpt lat="43.8034768" lon="11.3244657"><ele>358.0</ele><time>2026-04-11T09:50:36.585Z</time></trkpt><trkpt lat="43.8034128" lon="11.3245006"><ele>358.0</ele><time>2026-04-11T09:50:45.586Z</time></trkpt><trkpt lat="43.8033616" lon="11.324555"><ele>358.0</ele><time>2026-04-11T09:50:55.643Z</time></trkpt><trkpt lat="43.8033872" lon="11.3246518"><ele>358.0</ele><time>2026-04-11T09:51:20.513Z</time></trkpt><trkpt lat="43.8033862" lon="11.3247416"><ele>358.0</ele><time>2026-04-11T09:51:29.606Z</time></trkpt><trkpt lat="43.8035195" lon="11.3246871"><ele>357.5714285714286</ele><time>2026-04-11T09:51:35.586Z</time></trkpt><trkpt lat="43.8034512" lon="11.3246866"><ele>357.14285714285717</ele><time>2026-04-11T09:51:54.631Z</time></trkpt><trkpt lat="43.8033868" lon="11.3247342"><ele>356.7142857142857</ele><time>2026-04-11T09:52:02.586Z</time></trkpt><trkpt lat="43.803331" lon="11.3247944"><ele>356.28571428571433</ele><time>2026-04-11T09:52:10.539Z</time></trkpt><trkpt lat="43.8032652" lon="11.3248"><ele>355.8571428571429</ele><time>2026-04-11T09:52:17.586Z</time></trkpt><trkpt lat="43.8032084" lon="11.324842"><ele>355.42857142857144</ele><time>2026-04-11T09:52:34.586Z</time></trkpt><trkpt lat="43.8031494" lon="11.3248747"><ele>355.0</ele><time>2026-04-11T09:52:43.638Z</time></trkpt><trkpt lat="43.8030866" lon="11.3248956"><ele>357.0</ele><time>2026-04-11T09:52:49.586Z</time></trkpt><trkpt lat="43.8030484" lon="11.3249693"><ele>359.0</ele><time>2026-04-11T09:52:55.586Z</time></trkpt><trkpt lat="43.8031189" lon="11.3250046"><ele>361.0</ele><time>2026-04-11T09:53:20.586Z</time></trkpt><trkpt lat="43.8031791" lon="11.3250461"><ele>363.0</ele><time>2026-04-11T09:53:27.585Z</time></trkpt><trkpt lat="43.8032427" lon="11.3250656"><ele>365.0</ele><time>2026-04-11T09:53:32.606Z</time></trkpt><trkpt lat="43.8033109" lon="11.3250719"><ele>367.0</ele><time>2026-04-11T09:53:37.492Z</time></trkpt><trkpt lat="43.8033794" lon="11.3250975"><ele>369.0</ele><time>2026-04-11T09:53:44.586Z</time></trkpt><trkpt lat="43.8033171" lon="11.3251223"><ele>369.0</ele><time>2026-04-11T09:54:07.649Z</time></trkpt><trkpt lat="43.8032986" lon="11.3252157"><ele>369.0</ele><time>2026-04-11T09:54:14.65Z</time></trkpt><trkpt lat="43.8032297" lon="11.3252354"><ele>369.0</ele><time>2026-04-11T09:54:20.637Z</time></trkpt><trkpt lat="43.8031596" lon="11.3252271"><ele>369.0</ele><time>2026-04-11T09:54:31.622Z</time></trkpt><trkpt lat="43.8031113" lon="11.3250899"><ele>369.0</ele><time>2026-04-11T09:55:20.67Z</time></trkpt><trkpt lat="43.8031573" lon="11.3249812"><ele>369.0</ele><time>2026-04-11T09:56:13.636Z</time></trkpt><trkpt lat="43.803222" lon="11.3249891"><ele>369.0</ele><time>2026-04-11T09:56:17.586Z</time></trkpt><trkpt lat="43.8032897" lon="11.3250141"><ele>369.0</ele><time>2026-04-11T09:56:23.586Z</time></trkpt><trkpt lat="43.8033541" lon="11.3250268"><ele>369.0</ele><time>2026-04-11T09:56:31.585Z</time></trkpt><trkpt lat="43.8033995" lon="11.3250887"><ele>369.0</ele><time>2026-04-11T09:56:38.645Z</time></trkpt><trkpt lat="43.8034655" lon="11.3251026"><ele>369.0</ele><time>2026-04-11T09:56:44.586Z</time></trkpt><trkpt lat="43.8035284" lon="11.3250885"><ele>369.0</ele><time>2026-04-11T09:56:49.585Z</time></trkpt><trkpt lat="43.8035917" lon="11.3250657"><ele>369.0</ele><time>2026-04-11T09:56:55.518Z</time></trkpt><trkpt lat="43.8036587" lon="11.3250609"><ele>369.0</ele><time>2026-04-11T09:57:03.585Z</time></trkpt><trkpt lat="43.8037344" lon="11.3250291"><ele>369.0</ele><time>2026-04-11T09:57:19.586Z</time></trkpt><trkpt lat="43.8036449" lon="11.3249584"><ele>369.0</ele><time>2026-04-11T09:57:32.585Z</time></trkpt><trkpt lat="43.8035759" lon="11.3250083"><ele>369.0</ele><time>2026-04-11T09:58:15.586Z</time></trkpt><trkpt lat="43.8035292" lon="11.3250722"><ele>369.0</ele><time>2026-04-11T09:58:30.587Z</time></trkpt><trkpt lat="43.8033517" lon="11.3250462"><ele>369.0</ele><time>2026-04-11T09:58:37.587Z</time></trkpt><trkpt lat="43.8032897" lon="11.3250071"><ele>369.0</ele><time>2026-04-11T09:58:40.587Z</time></trkpt><trkpt lat="43.8032137" lon="11.324999"><ele>369.0</ele><time>2026-04-11T09:58:46.586Z</time></trkpt><trkpt lat="43.803143" lon="11.3249873"><ele>369.0</ele><time>2026-04-11T09:58:52.587Z</time></trkpt><trkpt lat="43.8031317" lon="11.3248957"><ele>369.0</ele><time>2026-04-11T09:59:00.569Z</time></trkpt><trkpt lat="43.803177" lon="11.3248315"><ele>369.0</ele><time>2026-04-11T09:59:06.586Z</time></trkpt><trkpt lat="43.8032411" lon="11.3248406"><ele>369.0</ele><time>2026-04-11T09:59:12.587Z</time></trkpt><trkpt lat="43.8033049" lon="11.3248257"><ele>369.0</ele><time>2026-04-11T09:59:19.524Z</time></trkpt><trkpt lat="43.8033529" lon="11.3247643"><ele>369.0</ele><time>2026-04-11T09:59:26.586Z</time></trkpt><trkpt lat="43.8033679" lon="11.3246783"><ele>369.0</ele><time>2026-04-11T09:59:35.586Z</time></trkpt><trkpt lat="43.8034303" lon="11.3246592"><ele>369.0</ele><time>2026-04-11T09:59:43.587Z</time></trkpt><trkpt lat="43.8034932" lon="11.3246315"><ele>369.0</ele><time>2026-04-11T09:59:50.609Z</time></trkpt><trkpt lat="43.8034614" lon="11.3245521"><ele>369.0</ele><time>2026-04-11T09:59:57.586Z</time></trkpt><trkpt lat="43.8035271" lon="11.3245411"><ele>369.0</ele><time>2026-04-11T10:00:05.587Z</time></trkpt><trkpt lat="43.8035228" lon="11.324445"><ele>367.42857142857144</ele><time>2026-04-11T10:00:13.587Z</time></trkpt><trkpt lat="43.8035788" lon="11.3244009"><ele>365.85714285714283</ele><time>2026-04-11T10:00:21.587Z</time></trkpt><trkpt lat="43.8036398" lon="11.3243627"><ele>364.28571428571433</ele><time>2026-04-11T10:00:30.587Z</time></trkpt><trkpt lat="43.8036989" lon="11.3242987"><ele>362.7142857142857</ele><time>2026-04-11T10:00:36.584Z</time></trkpt><trkpt lat="43.8037481" lon="11.3242442"><ele>361.14285714285717</ele><time>2026-04-11T10:00:41.584Z</time></trkpt><trkpt lat="43.8038028" lon="11.3241871"><ele>359.5714285714286</ele><time>2026-04-11T10:00:47.587Z</time></trkpt><trkpt lat="43.8038561" lon="11.3241288"><ele>358.0</ele><time>2026-04-11T10:00:52.587Z</time></trkpt><trkpt lat="43.8039103" lon="11.3240645"><ele>358.00000000000006</ele><time>2026-04-11T10:00:57.587Z</time></trkpt><trkpt lat="43.8039537" lon="11.3239966"><ele>358.0</ele><time>2026-04-11T10:01:02.587Z</time></trkpt><trkpt lat="43.8039959" lon="11.3239314"><ele>358.0</ele><time>2026-04-11T10:01:07.486Z</time></trkpt><trkpt lat="43.8040394" lon="11.3238521"><ele>358.0</ele><time>2026-04-11T10:01:12.587Z</time></trkpt><trkpt lat="43.8040882" lon="11.3237864"><ele>358.0</ele><time>2026-04-11T10:01:18.51Z</time></trkpt><trkpt lat="43.8041451" lon="11.3237487"><ele>358.00000000000006</ele><time>2026-04-11T10:01:24.504Z</time></trkpt><trkpt lat="43.8042113" lon="11.3237055"><ele>358.0</ele><time>2026-04-11T10:01:30.587Z</time></trkpt><trkpt lat="43.8042631" lon="11.3236353"><ele>355.5714285714286</ele><time>2026-04-11T10:01:36.482Z</time></trkpt><trkpt lat="43.8042829" lon="11.323544"><ele>353.14285714285717</ele><time>2026-04-11T10:01:43.586Z</time></trkpt><trkpt lat="43.8043379" lon="11.3234986"><ele>350.7142857142857</ele><time>2026-04-11T10:01:48.587Z</time></trkpt><trkpt lat="43.8043725" lon="11.3234137"><ele>348.28571428571433</ele><time>2026-04-11T10:01:55.586Z</time></trkpt><trkpt lat="43.804426" lon="11.3233466"><ele>345.8571428571429</ele><time>2026-04-11T10:02:02.587Z</time></trkpt><trkpt lat="43.8044559" lon="11.3232617"><ele>343.42857142857144</ele><time>2026-04-11T10:02:08.587Z</time></trkpt><trkpt lat="43.8043916" lon="11.3232022"><ele>341.0</ele><time>2026-04-11T10:12:50.587Z</time></trkpt><trkpt lat="43.8043966" lon="11.3231025"><ele>339.5</ele><time>2026-04-11T10:13:50.587Z</time></trkpt><trkpt lat="43.8044544" lon="11.323047"><ele>338.0</ele><time>2026-04-11T10:13:53.586Z</time></trkpt><trkpt lat="43.8045079" lon="11.3229941"><ele>336.5</ele><time>2026-04-11T10:13:57.586Z</time></trkpt><trkpt lat="43.8045507" lon="11.3229145"><ele>335.0</ele><time>2026-04-11T10:14:03.587Z</time></trkpt><trkpt lat="43.8045883" lon="11.3228379"><ele>333.5</ele><time>2026-04-11T10:14:08.587Z</time></trkpt><trkpt lat="43.8046198" lon="11.3227581"><ele>332.0</ele><time>2026-04-11T10:14:12.587Z</time></trkpt><trkpt lat="43.8046962" lon="11.3226432"><ele>332.0</ele><time>2026-04-11T10:14:13.585Z</time></trkpt><trkpt lat="43.8047442" lon="11.3225678"><ele>332.0</ele><time>2026-04-11T10:14:17.587Z</time></trkpt><trkpt lat="43.8047533" lon="11.3224777"><ele>332.0</ele><time>2026-04-11T10:14:20.586Z</time></trkpt><trkpt lat="43.8047805" lon="11.3223916"><ele>332.0</ele><time>2026-04-11T10:14:23.587Z</time></trkpt><trkpt lat="43.8048495" lon="11.3223024"><ele>332.0</ele><time>2026-04-11T10:14:29.587Z</time></trkpt><trkpt lat="43.8048807" lon="11.3222234"><ele>332.0</ele><time>2026-04-11T10:14:34.587Z</time></trkpt><trkpt lat="43.8049259" lon="11.3221503"><ele>332.0</ele><time>2026-04-11T10:14:39.587Z</time></trkpt><trkpt lat="43.8049951" lon="11.322073"><ele>330.6666666666667</ele><time>2026-04-11T10:14:43.585Z</time></trkpt><trkpt lat="43.8050457" lon="11.3219684"><ele>329.33333333333337</ele><time>2026-04-11T10:14:46.587Z</time></trkpt><trkpt lat="43.8050858" lon="11.3218943"><ele>328.0</ele><time>2026-04-11T10:14:48.587Z</time></trkpt><trkpt lat="43.8051216" lon="11.321787"><ele>326.6666666666667</ele><time>2026-04-11T10:14:51.587Z</time></trkpt><trkpt lat="43.805159" lon="11.3216849"><ele>325.3333333333333</ele><time>2026-04-11T10:14:54.587Z</time></trkpt><trkpt lat="43.8051941" lon="11.3215946"><ele>324.0</ele><time>2026-04-11T10:14:58.586Z</time></trkpt><trkpt lat="43.8052343" lon="11.3215129"><ele>325.0</ele><time>2026-04-11T10:15:43.586Z</time></trkpt><trkpt lat="43.8052671" lon="11.3214254"><ele>326.0</ele><time>2026-04-11T10:16:08.586Z</time></trkpt><trkpt lat="43.8053305" lon="11.3213653"><ele>327.0</ele><time>2026-04-11T10:16:38.587Z</time></trkpt><trkpt lat="43.8053304" lon="11.3212744"><ele>328.0</ele><time>2026-04-11T10:17:33.587Z</time></trkpt><trkpt lat="43.8053347" lon="11.3211509"><ele>329.0</ele><time>2026-04-11T10:17:36.587Z</time></trkpt><trkpt lat="43.8053467" lon="11.3210272"><ele>330.0</ele><time>2026-04-11T10:17:39.587Z</time></trkpt><trkpt lat="43.8053508" lon="11.3209254"><ele>330.0</ele><time>2026-04-11T10:17:42.586Z</time></trkpt><trkpt lat="43.8053595" lon="11.3208183"><ele>330.0</ele><time>2026-04-11T10:17:47.587Z</time></trkpt><trkpt lat="43.8053523" lon="11.3207132"><ele>330.0</ele><time>2026-04-11T10:17:50.586Z</time></trkpt><trkpt lat="43.8053655" lon="11.320614"><ele>330.0</ele><time>2026-04-11T10:17:52.585Z</time></trkpt><trkpt lat="43.8053849" lon="11.3205202"><ele>330.0</ele><time>2026-04-11T10:17:54.587Z</time></trkpt><trkpt lat="43.805421" lon="11.3204307"><ele>330.0</ele><time>2026-04-11T10:17:56.586Z</time></trkpt><trkpt lat="43.8054533" lon="11.3203301"><ele>330.2</ele><time>2026-04-11T10:17:58.587Z</time></trkpt><trkpt lat="43.8054697" lon="11.3202036"><ele>330.4</ele><time>2026-04-11T10:18:00.587Z</time></trkpt><trkpt lat="43.8054898" lon="11.3200369"><ele>330.6</ele><time>2026-04-11T10:18:02.586Z</time></trkpt><trkpt lat="43.8055087" lon="11.3198832"><ele>330.8</ele><time>2026-04-11T10:18:04.585Z</time></trkpt><trkpt lat="43.8055308" lon="11.3197392"><ele>331.0</ele><time>2026-04-11T10:18:06.587Z</time></trkpt><trkpt lat="43.8055455" lon="11.3196204"><ele>331.0</ele><time>2026-04-11T10:18:08.586Z</time></trkpt><trkpt lat="43.8055614" lon="11.3195071"><ele>331.0</ele><time>2026-04-11T10:18:10.587Z</time></trkpt><trkpt lat="43.8055725" lon="11.3193766"><ele>331.0</ele><time>2026-04-11T10:18:12.587Z</time></trkpt><trkpt lat="43.8055789" lon="11.3192187"><ele>331.0</ele><time>2026-04-11T10:18:14.587Z</time></trkpt><trkpt lat="43.8055897" lon="11.3190926"><ele>331.0</ele><time>2026-04-11T10:18:16.587Z</time></trkpt><trkpt lat="43.8056162" lon="11.3189866"><ele>331.0</ele><time>2026-04-11T10:18:18.586Z</time></trkpt><trkpt lat="43.8056501" lon="11.3188676"><ele>331.0</ele><time>2026-04-11T10:18:20.587Z</time></trkpt><trkpt lat="43.8056855" lon="11.3187417"><ele>331.0</ele><time>2026-04-11T10:18:22.587Z</time></trkpt><trkpt lat="43.8057307" lon="11.3186027"><ele>331.0</ele><time>2026-04-11T10:18:24.587Z</time></trkpt><trkpt lat="43.8057856" lon="11.3184778"><ele>331.0</ele><time>2026-04-11T10:18:26.587Z</time></trkpt><trkpt lat="43.805828" lon="11.3183512"><ele>331.0</ele><time>2026-04-11T10:18:28.587Z</time></trkpt><trkpt lat="43.8058718" lon="11.3182793"><ele>331.0</ele><time>2026-04-11T10:18:30.587Z</time></trkpt><trkpt lat="43.805911" lon="11.3181778"><ele>331.0</ele><time>2026-04-11T10:18:32.587Z</time></trkpt><trkpt lat="43.8059336" lon="11.3180893"><ele>331.0</ele><time>2026-04-11T10:18:33.586Z</time></trkpt><trkpt lat="43.8059953" lon="11.3179306"><ele>331.0</ele><time>2026-04-11T10:18:35.587Z</time></trkpt><trkpt lat="43.8060359" lon="11.3178597"><ele>331.0</ele><time>2026-04-11T10:18:36.587Z</time></trkpt><trkpt lat="43.806074" lon="11.3177876"><ele>331.3333333333333</ele><time>2026-04-11T10:18:37.587Z</time></trkpt><trkpt lat="43.8061091" lon="11.3177027"><ele>331.66666666666663</ele><time>2026-04-11T10:18:38.587Z</time></trkpt><trkpt lat="43.8061428" lon="11.3176248"><ele>332.0</ele><time>2026-04-11T10:18:39.587Z</time></trkpt><trkpt lat="43.8062132" lon="11.3174926"><ele>332.3333333333333</ele><time>2026-04-11T10:18:41.587Z</time></trkpt><trkpt lat="43.8062592" lon="11.3174124"><ele>332.6666666666667</ele><time>2026-04-11T10:18:42.587Z</time></trkpt><trkpt lat="43.8063257" lon="11.3172883"><ele>333.0</ele><time>2026-04-11T10:18:44.587Z</time></trkpt><trkpt lat="43.8063645" lon="11.3172155"><ele>333.0</ele><time>2026-04-11T10:18:47.586Z</time></trkpt><trkpt lat="43.8063672" lon="11.3171273"><ele>333.0</ele><time>2026-04-11T10:19:24.586Z</time></trkpt><trkpt lat="43.806384" lon="11.3170392"><ele>333.0</ele><time>2026-04-11T10:19:29.586Z</time></trkpt><trkpt lat="43.8064216" lon="11.3169508"><ele>333.0</ele><time>2026-04-11T10:21:14.587Z</time></trkpt><trkpt lat="43.8064884" lon="11.3168401"><ele>333.0</ele><time>2026-04-11T10:21:16.587Z</time></trkpt><trkpt lat="43.8065334" lon="11.3167621"><ele>333.0</ele><time>2026-04-11T10:21:18.585Z</time></trkpt><trkpt lat="43.8065791" lon="11.3166785"><ele>333.0</ele><time>2026-04-11T10:21:21.586Z</time></trkpt><trkpt lat="43.8066773" lon="11.3166252"><ele>333.0</ele><time>2026-04-11T10:21:24.587Z</time></trkpt><trkpt lat="43.8067778" lon="11.3166097"><ele>333.0</ele><time>2026-04-11T10:21:26.587Z</time></trkpt><trkpt lat="43.8068435" lon="11.316602"><ele>333.0</ele><time>2026-04-11T10:21:27.587Z</time></trkpt><trkpt lat="43.8069255" lon="11.3166101"><ele>333.0</ele><time>2026-04-11T10:21:28.586Z</time></trkpt><trkpt lat="43.8070005" lon="11.3166207"><ele>333.0</ele><time>2026-04-11T10:21:29.586Z</time></trkpt><trkpt lat="43.8071051" lon="11.3166292"><ele>334.42857142857144</ele><time>2026-04-11T10:21:31.587Z</time></trkpt><trkpt lat="43.8071692" lon="11.3166333"><ele>335.85714285714283</ele><time>2026-04-11T10:21:45.587Z</time></trkpt><trkpt lat="43.8072356" lon="11.3166269"><ele>337.2857142857143</ele><time>2026-04-11T10:21:47.587Z</time></trkpt><trkpt lat="43.8073007" lon="11.3166145"><ele>338.7142857142857</ele><time>2026-04-11T10:21:48.586Z</time></trkpt><trkpt lat="43.8073658" lon="11.3165998"><ele>340.1428571428571</ele><time>2026-04-11T10:21:49.586Z</time></trkpt><trkpt lat="43.807438" lon="11.3165864"><ele>341.57142857142856</ele><time>2026-04-11T10:21:50.587Z</time></trkpt><trkpt lat="43.8075118" lon="11.3165659"><ele>343.0</ele><time>2026-04-11T10:21:51.587Z</time></trkpt><trkpt lat="43.8076005" lon="11.3165602"><ele>345.3333333333333</ele><time>2026-04-11T10:21:52.587Z</time></trkpt><trkpt lat="43.8076863" lon="11.3165672"><ele>347.66666666666663</ele><time>2026-04-11T10:21:53.585Z</time></trkpt><trkpt lat="43.8077626" lon="11.3165624"><ele>350.0</ele><time>2026-04-11T10:21:54.587Z</time></trkpt><trkpt lat="43.8078425" lon="11.3165455"><ele>352.3333333333333</ele><time>2026-04-11T10:21:55.586Z</time></trkpt><trkpt lat="43.8079191" lon="11.316535"><ele>354.6666666666667</ele><time>2026-04-11T10:21:56.587Z</time></trkpt><trkpt lat="43.8079956" lon="11.3165269"><ele>357.0</ele><time>2026-04-11T10:21:57.587Z</time></trkpt><trkpt lat="43.8080804" lon="11.3165195"><ele>357.0</ele><time>2026-04-11T10:21:58.587Z</time></trkpt><trkpt lat="43.8081653" lon="11.316508"><ele>357.0</ele><time>2026-04-11T10:21:59.587Z</time></trkpt><trkpt lat="43.8082398" lon="11.3164999"><ele>357.0</ele><time>2026-04-11T10:22:00.587Z</time></trkpt><trkpt lat="43.8083563" lon="11.3164835"><ele>357.0</ele><time>2026-04-11T10:22:02.587Z</time></trkpt><trkpt lat="43.8084576" lon="11.3164508"><ele>357.0</ele><time>2026-04-11T10:22:04.587Z</time></trkpt><trkpt lat="43.8085311" lon="11.3164051"><ele>357.1666666666667</ele><time>2026-04-11T10:22:06.587Z</time></trkpt><trkpt lat="43.8085735" lon="11.3163126"><ele>357.3333333333333</ele><time>2026-04-11T10:22:08.585Z</time></trkpt><trkpt lat="43.8086394" lon="11.3162238"><ele>357.5</ele><time>2026-04-11T10:22:10.586Z</time></trkpt><trkpt lat="43.8086786" lon="11.3161545"><ele>357.66666666666663</ele><time>2026-04-11T10:22:11.587Z</time></trkpt><trkpt lat="43.8087256" lon="11.3160701"><ele>357.8333333333333</ele><time>2026-04-11T10:22:12.586Z</time></trkpt><trkpt lat="43.808756" lon="11.3159904"><ele>358.0</ele><time>2026-04-11T10:22:13.585Z</time></trkpt><trkpt lat="43.8087928" lon="11.3158993"><ele>358.0</ele><time>2026-04-11T10:22:14.587Z</time></trkpt><trkpt lat="43.8088406" lon="11.3158213"><ele>358.0</ele><time>2026-04-11T10:22:15.587Z</time></trkpt><trkpt lat="43.8088929" lon="11.3157319"><ele>358.0</ele><time>2026-04-11T10:22:16.586Z</time></trkpt><trkpt lat="43.8089237" lon="11.3156452"><ele>358.0</ele><time>2026-04-11T10:22:17.586Z</time></trkpt><trkpt lat="43.8089667" lon="11.3155627"><ele>358.0</ele><time>2026-04-11T10:22:18.585Z</time></trkpt><trkpt lat="43.809006" lon="11.3154565"><ele>358.0</ele><time>2026-04-11T10:22:19.586Z</time></trkpt><trkpt lat="43.8090476" lon="11.3153516"><ele>358.0</ele><time>2026-04-11T10:22:20.586Z</time></trkpt><trkpt lat="43.8090954" lon="11.3152268"><ele>358.0</ele><time>2026-04-11T10:22:21.585Z</time></trkpt><trkpt lat="43.8091456" lon="11.3151143"><ele>358.0</ele><time>2026-04-11T10:22:22.586Z</time></trkpt><trkpt lat="43.809198" lon="11.3149832"><ele>358.0</ele><time>2026-04-11T10:22:23.586Z</time></trkpt><trkpt lat="43.8092706" lon="11.3148236"><ele>358.0</ele><time>2026-04-11T10:22:24.586Z</time></trkpt><trkpt lat="43.8093417" lon="11.3146368"><ele>358.5</ele><time>2026-04-11T10:22:25.586Z</time></trkpt><trkpt lat="43.8094108" lon="11.3144357"><ele>359.0</ele><time>2026-04-11T10:22:26.586Z</time></trkpt><trkpt lat="43.8094707" lon="11.3142884"><ele>359.5</ele><time>2026-04-11T10:22:27.585Z</time></trkpt><trkpt lat="43.8095155" lon="11.3141751"><ele>360.0</ele><time>2026-04-11T10:22:28.586Z</time></trkpt><trkpt lat="43.8095615" lon="11.3140746"><ele>360.0</ele><time>2026-04-11T10:22:29.586Z</time></trkpt><trkpt lat="43.8096535" lon="11.3140783"><ele>360.0</ele><time>2026-04-11T10:22:33.586Z</time></trkpt><trkpt lat="43.8097274" lon="11.3141902"><ele>360.0</ele><time>2026-04-11T10:22:35.586Z</time></trkpt><trkpt lat="43.8097792" lon="11.3142525"><ele>360.0</ele><time>2026-04-11T10:22:37.585Z</time></trkpt><trkpt lat="43.8098208" lon="11.3143365"><ele>360.0</ele><time>2026-04-11T10:22:41.585Z</time></trkpt><trkpt lat="43.8097899" lon="11.3144499"><ele>360.0</ele><time>2026-04-11T10:22:48.585Z</time></trkpt><trkpt lat="43.8097527" lon="11.3145408"><ele>360.0</ele><time>2026-04-11T10:22:52.585Z</time></trkpt><trkpt lat="43.8097365" lon="11.3146485"><ele>360.0</ele><time>2026-04-11T10:22:55.585Z</time></trkpt><trkpt lat="43.8097149" lon="11.3147539"><ele>360.0</ele><time>2026-04-11T10:22:57.585Z</time></trkpt><trkpt lat="43.8096952" lon="11.3149591"><ele>360.0</ele><time>2026-04-11T10:22:59.586Z</time></trkpt><trkpt lat="43.8096623" lon="11.3150707"><ele>360.0</ele><time>2026-04-11T10:23:00.586Z</time></trkpt><trkpt lat="43.809647" lon="11.3151864"><ele>361.8</ele><time>2026-04-11T10:23:01.586Z</time></trkpt><trkpt lat="43.8096427" lon="11.3153099"><ele>363.6</ele><time>2026-04-11T10:23:02.584Z</time></trkpt><trkpt lat="43.8096403" lon="11.3154453"><ele>365.4</ele><time>2026-04-11T10:23:03.585Z</time></trkpt><trkpt lat="43.8096546" lon="11.3155763"><ele>367.2</ele><time>2026-04-11T10:23:04.586Z</time></trkpt><trkpt lat="43.8096841" lon="11.3157068"><ele>369.0</ele><time>2026-04-11T10:23:05.586Z</time></trkpt><trkpt lat="43.8097234" lon="11.3158448"><ele>369.75</ele><time>2026-04-11T10:23:06.586Z</time></trkpt><trkpt lat="43.8097752" lon="11.3159849"><ele>370.5</ele><time>2026-04-11T10:23:07.586Z</time></trkpt><trkpt lat="43.8098288" lon="11.3161271"><ele>371.25</ele><time>2026-04-11T10:23:08.586Z</time></trkpt><trkpt lat="43.809873" lon="11.3162712"><ele>372.0</ele><time>2026-04-11T10:23:09.586Z</time></trkpt><trkpt lat="43.8098995" lon="11.3164226"><ele>373.20000000000005</ele><time>2026-04-11T10:23:10.586Z</time></trkpt><trkpt lat="43.8098974" lon="11.3165721"><ele>374.4</ele><time>2026-04-11T10:23:11.586Z</time></trkpt><trkpt lat="43.8098703" lon="11.3167188"><ele>375.6</ele><time>2026-04-11T10:23:12.586Z</time></trkpt><trkpt lat="43.8098387" lon="11.3168752"><ele>376.79999999999995</ele><time>2026-04-11T10:23:13.585Z</time></trkpt><trkpt lat="43.8097694" lon="11.3169946"><ele>378.0</ele><time>2026-04-11T10:23:14.586Z</time></trkpt><trkpt lat="43.8096943" lon="11.317121"><ele>378.0</ele><time>2026-04-11T10:23:15.586Z</time></trkpt><trkpt lat="43.8096207" lon="11.3172349"><ele>378.0</ele><time>2026-04-11T10:23:16.585Z</time></trkpt><trkpt lat="43.8095329" lon="11.3173048"><ele>378.0</ele><time>2026-04-11T10:23:17.586Z</time></trkpt><trkpt lat="43.809451" lon="11.3173652"><ele>378.0</ele><time>2026-04-11T10:23:18.585Z</time></trkpt><trkpt lat="43.8093724" lon="11.3174167"><ele>378.0</ele><time>2026-04-11T10:23:19.586Z</time></trkpt><trkpt lat="43.8093615" lon="11.3175317"><ele>378.79999999999995</ele><time>2026-04-11T10:23:20.586Z</time></trkpt><trkpt lat="43.8093185" lon="11.3176408"><ele>379.6</ele><time>2026-04-11T10:23:21.586Z</time></trkpt><trkpt lat="43.8092932" lon="11.3177955"><ele>380.4</ele><time>2026-04-11T10:23:22.586Z</time></trkpt><trkpt lat="43.809268" lon="11.3179454"><ele>381.20000000000005</ele><time>2026-04-11T10:23:23.586Z</time></trkpt><trkpt lat="43.8092436" lon="11.3180684"><ele>382.0</ele><time>2026-04-11T10:23:24.586Z</time></trkpt><trkpt lat="43.80915" lon="11.3182173"><ele>383.40000000000003</ele><time>2026-04-11T10:23:25.586Z</time></trkpt><trkpt lat="43.8090769" lon="11.3183345"><ele>384.8</ele><time>2026-04-11T10:23:26.586Z</time></trkpt><trkpt lat="43.8089466" lon="11.3184119"><ele>386.2</ele><time>2026-04-11T10:23:27.584Z</time></trkpt><trkpt lat="43.8088848" lon="11.3184675"><ele>387.6</ele><time>2026-04-11T10:23:28.586Z</time></trkpt><trkpt lat="43.8088053" lon="11.3185692"><ele>389.0</ele><time>2026-04-11T10:23:29.586Z</time></trkpt><trkpt lat="43.8087467" lon="11.3186739"><ele>389.0</ele><time>2026-04-11T10:23:30.586Z</time></trkpt><trkpt lat="43.8087384" lon="11.318818"><ele>389.0</ele><time>2026-04-11T10:23:31.586Z</time></trkpt><trkpt lat="43.808786" lon="11.3189696"><ele>389.0</ele><time>2026-04-11T10:23:32.585Z</time></trkpt><trkpt lat="43.8088178" lon="11.3191181"><ele>389.0</ele><time>2026-04-11T10:23:33.585Z</time></trkpt><trkpt lat="43.8088359" lon="11.3192769"><ele>390.5</ele><time>2026-04-11T10:23:34.586Z</time></trkpt><trkpt lat="43.8088175" lon="11.3194538"><ele>392.0</ele><time>2026-04-11T10:23:35.586Z</time></trkpt><trkpt lat="43.8088088" lon="11.3196317"><ele>393.5</ele><time>2026-04-11T10:23:36.585Z</time></trkpt><trkpt lat="43.8087971" lon="11.3198018"><ele>395.0</ele><time>2026-04-11T10:23:37.585Z</time></trkpt><trkpt lat="43.8087731" lon="11.3199717"><ele>395.75</ele><time>2026-04-11T10:23:38.586Z</time></trkpt><trkpt lat="43.8087598" lon="11.3201399"><ele>396.5</ele><time>2026-04-11T10:23:39.585Z</time></trkpt><trkpt lat="43.8087304" lon="11.3203024"><ele>397.25</ele><time>2026-04-11T10:23:40.586Z</time></trkpt><trkpt lat="43.8086894" lon="11.3204412"><ele>398.0</ele><time>2026-04-11T10:23:41.586Z</time></trkpt><trkpt lat="43.8086534" lon="11.3205879"><ele>399.5</ele><time>2026-04-11T10:23:42.586Z</time></trkpt><trkpt lat="43.8086035" lon="11.3207384"><ele>401.0</ele><time>2026-04-11T10:23:43.586Z</time></trkpt><trkpt lat="43.8085309" lon="11.3208672"><ele>402.5</ele><time>2026-04-11T10:23:44.586Z</time></trkpt><trkpt lat="43.8084501" lon="11.3209827"><ele>404.0</ele><time>2026-04-11T10:23:45.585Z</time></trkpt><trkpt lat="43.808373" lon="11.3210871"><ele>400.25</ele><time>2026-04-11T10:23:46.586Z</time></trkpt><trkpt lat="43.808337" lon="11.3212267"><ele>396.5</ele><time>2026-04-11T10:23:47.585Z</time></trkpt><trkpt lat="43.8082895" lon="11.321347"><ele>392.75</ele><time>2026-04-11T10:23:48.585Z</time></trkpt><trkpt lat="43.8083093" lon="11.3215017"><ele>389.0</ele><time>2026-04-11T10:23:49.586Z</time></trkpt><trkpt lat="43.8083227" lon="11.3216813"><ele>389.0</ele><time>2026-04-11T10:23:50.586Z</time></trkpt><trkpt lat="43.8083288" lon="11.3218416"><ele>389.0</ele><time>2026-04-11T10:23:51.586Z</time></trkpt><trkpt lat="43.8082911" lon="11.3220246"><ele>389.0</ele><time>2026-04-11T10:23:52.586Z</time></trkpt><trkpt lat="43.8082398" lon="11.3221566"><ele>389.0</ele><time>2026-04-11T10:23:53.585Z</time></trkpt><trkpt lat="43.8081837" lon="11.3223007"><ele>391.0</ele><time>2026-04-11T10:23:54.586Z</time></trkpt><trkpt lat="43.808077" lon="11.3223938"><ele>393.0</ele><time>2026-04-11T10:23:55.586Z</time></trkpt><trkpt lat="43.80801" lon="11.3225391"><ele>395.0</ele><time>2026-04-11T10:23:56.586Z</time></trkpt><trkpt lat="43.8079541" lon="11.3227304"><ele>397.0</ele><time>2026-04-11T10:23:57.585Z</time></trkpt><trkpt lat="43.8078957" lon="11.3229224"><ele>399.25</ele><time>2026-04-11T10:23:58.585Z</time></trkpt><trkpt lat="43.8078519" lon="11.3231192"><ele>401.5</ele><time>2026-04-11T10:23:59.586Z</time></trkpt><trkpt lat="43.8078083" lon="11.3232973"><ele>403.75</ele><time>2026-04-11T10:24:00.586Z</time></trkpt><trkpt lat="43.8077787" lon="11.3234708"><ele>406.0</ele><time>2026-04-11T10:24:01.585Z</time></trkpt><trkpt lat="43.8077621" lon="11.3236224"><ele>406.0</ele><time>2026-04-11T10:24:02.586Z</time></trkpt><trkpt lat="43.8077673" lon="11.3237721"><ele>406.0</ele><time>2026-04-11T10:24:03.586Z</time></trkpt><trkpt lat="43.8077734" lon="11.3239207"><ele>406.0</ele><time>2026-04-11T10:24:04.586Z</time></trkpt><trkpt lat="43.8077903" lon="11.324061"><ele>406.0</ele><time>2026-04-11T10:24:05.585Z</time></trkpt><trkpt lat="43.8077934" lon="11.3241999"><ele>406.0</ele><time>2026-04-11T10:24:06.585Z</time></trkpt><trkpt lat="43.8077916" lon="11.3243272"><ele>408.0</ele><time>2026-04-11T10:24:07.585Z</time></trkpt><trkpt lat="43.8077755" lon="11.3244716"><ele>410.0</ele><time>2026-04-11T10:24:08.586Z</time></trkpt><trkpt lat="43.8076387" lon="11.3246023"><ele>412.0</ele><time>2026-04-11T10:24:09.585Z</time></trkpt><trkpt lat="43.8075576" lon="11.3247609"><ele>414.0</ele><time>2026-04-11T10:24:10.586Z</time></trkpt><trkpt lat="43.8074692" lon="11.3249154"><ele>409.5</ele><time>2026-04-11T10:24:11.586Z</time></trkpt><trkpt lat="43.8073836" lon="11.3250659"><ele>405.0</ele><time>2026-04-11T10:24:12.586Z</time></trkpt><trkpt lat="43.8073" lon="11.3252195"><ele>400.5</ele><time>2026-04-11T10:24:13.586Z</time></trkpt><trkpt lat="43.807219" lon="11.3253679"><ele>396.0</ele><time>2026-04-11T10:24:14.586Z</time></trkpt><trkpt lat="43.8071419" lon="11.3254941"><ele>396.0</ele><time>2026-04-11T10:24:15.585Z</time></trkpt><trkpt lat="43.8070448" lon="11.3255896"><ele>396.0</ele><time>2026-04-11T10:24:16.585Z</time></trkpt><trkpt lat="43.8069241" lon="11.3256797"><ele>396.0</ele><time>2026-04-11T10:24:17.586Z</time></trkpt><trkpt lat="43.8068136" lon="11.3257694"><ele>396.0</ele><time>2026-04-11T10:24:18.586Z</time></trkpt><trkpt lat="43.8067066" lon="11.3258589"><ele>396.0</ele><time>2026-04-11T10:24:19.586Z</time></trkpt><trkpt lat="43.8065948" lon="11.3259152"><ele>396.0</ele><time>2026-04-11T10:24:20.585Z</time></trkpt><trkpt lat="43.8064845" lon="11.3259769"><ele>396.0</ele><time>2026-04-11T10:24:21.585Z</time></trkpt><trkpt lat="43.8063798" lon="11.326009"><ele>396.0</ele><time>2026-04-11T10:24:22.585Z</time></trkpt><trkpt lat="43.8062772" lon="11.3258812"><ele>396.0</ele><time>2026-04-11T10:24:23.585Z</time></trkpt><trkpt lat="43.8061753" lon="11.3257641"><ele>396.0</ele><time>2026-04-11T10:24:24.586Z</time></trkpt><trkpt lat="43.806079" lon="11.3257031"><ele>396.0</ele><time>2026-04-11T10:24:25.586Z</time></trkpt><trkpt lat="43.8059753" lon="11.3256723"><ele>396.0</ele><time>2026-04-11T10:24:26.586Z</time></trkpt><trkpt lat="43.8058606" lon="11.3256805"><ele>394.5</ele><time>2026-04-11T10:24:27.586Z</time></trkpt><trkpt lat="43.8057255" lon="11.3257075"><ele>393.0</ele><time>2026-04-11T10:24:28.586Z</time></trkpt><trkpt lat="43.8055943" lon="11.3257175"><ele>391.5</ele><time>2026-04-11T10:24:29.586Z</time></trkpt><trkpt lat="43.8054615" lon="11.3257036"><ele>390.0</ele><time>2026-04-11T10:24:30.586Z</time></trkpt><trkpt lat="43.8053342" lon="11.325684"><ele>390.0</ele><time>2026-04-11T10:24:31.586Z</time></trkpt><trkpt lat="43.8052067" lon="11.325654"><ele>390.0</ele><time>2026-04-11T10:24:32.586Z</time></trkpt><trkpt lat="43.8050883" lon="11.3256215"><ele>390.0</ele><time>2026-04-11T10:24:33.586Z</time></trkpt><trkpt lat="43.8049746" lon="11.3255513"><ele>390.0</ele><time>2026-04-11T10:24:34.586Z</time></trkpt><trkpt lat="43.80486" lon="11.3254975"><ele>385.0</ele><time>2026-04-11T10:24:35.585Z</time></trkpt><trkpt lat="43.8047326" lon="11.3253729"><ele>380.0</ele><time>2026-04-11T10:24:36.586Z</time></trkpt><trkpt lat="43.8046457" lon="11.3252137"><ele>375.0</ele><time>2026-04-11T10:24:37.585Z</time></trkpt><trkpt lat="43.8045382" lon="11.3251111"><ele>370.0</ele><time>2026-04-11T10:24:38.585Z</time></trkpt><trkpt lat="43.804444" lon="11.3250735"><ele>370.0</ele><time>2026-04-11T10:24:39.586Z</time></trkpt><trkpt lat="43.8043326" lon="11.3250619"><ele>370.0</ele><time>2026-04-11T10:24:40.586Z</time></trkpt><trkpt lat="43.8042071" lon="11.325076"><ele>370.0</ele><time>2026-04-11T10:24:41.585Z</time></trkpt><trkpt lat="43.8040806" lon="11.3250829"><ele>370.0</ele><time>2026-04-11T10:24:42.586Z</time></trkpt><trkpt lat="43.8039349" lon="11.3251061"><ele>369.8</ele><time>2026-04-11T10:24:43.584Z</time></trkpt><trkpt lat="43.8038054" lon="11.3251157"><ele>369.6</ele><time>2026-04-11T10:24:44.586Z</time></trkpt><trkpt lat="43.8036901" lon="11.3251107"><ele>369.4</ele><time>2026-04-11T10:24:45.585Z</time></trkpt><trkpt lat="43.803575" lon="11.3251085"><ele>369.2</ele><time>2026-04-11T10:24:46.586Z</time></trkpt><trkpt lat="43.8034999" lon="11.3251214"><ele>369.0</ele><time>2026-04-11T10:24:47.585Z</time></trkpt><trkpt lat="43.803408" lon="11.3251247"><ele>369.0</ele><time>2026-04-11T10:24:49.585Z</time></trkpt><trkpt lat="43.8034153" lon="11.3252167"><ele>369.0</ele><time>2026-04-11T10:25:08.586Z</time></trkpt><trkpt lat="43.8033786" lon="11.3253445"><ele>369.0</ele><time>2026-04-11T10:25:12.585Z</time></trkpt><trkpt lat="43.8033915" lon="11.3254901"><ele>369.0</ele><time>2026-04-11T10:25:14.586Z</time></trkpt><trkpt lat="43.8033298" lon="11.3255571"><ele>369.0</ele><time>2026-04-11T10:25:16.585Z</time></trkpt><trkpt lat="43.8032584" lon="11.3255729"><ele>369.0</ele><time>2026-04-11T10:25:18.585Z</time></trkpt><trkpt lat="43.8032174" lon="11.3256429"><ele>368.2</ele><time>2026-04-11T10:25:21.586Z</time></trkpt><trkpt lat="43.8032252" lon="11.3257456"><ele>367.4</ele><time>2026-04-11T10:25:22.586Z</time></trkpt><trkpt lat="43.8033042" lon="11.3259036"><ele>366.6</ele><time>2026-04-11T10:25:24.586Z</time></trkpt><trkpt lat="43.803344" lon="11.3259779"><ele>365.8</ele><time>2026-04-11T10:25:25.585Z</time></trkpt><trkpt lat="43.8033906" lon="11.3260669"><ele>365.0</ele><time>2026-04-11T10:25:26.586Z</time></trkpt><trkpt lat="43.8034433" lon="11.3262135"><ele>365.0</ele><time>2026-04-11T10:25:28.584Z</time></trkpt><trkpt lat="43.8034691" lon="11.3263851"><ele>365.0</ele><time>2026-04-11T10:25:30.586Z</time></trkpt><trkpt lat="43.8034869" lon="11.326486"><ele>365.0</ele><time>2026-04-11T10:25:31.586Z</time></trkpt><trkpt lat="43.8035067" lon="11.3265906"><ele>365.0</ele><time>2026-04-11T10:25:32.586Z</time></trkpt><trkpt lat="43.8035037" lon="11.3266786"><ele>365.0</ele><time>2026-04-11T10:25:33.586Z</time></trkpt><trkpt lat="43.8035075" lon="11.3267781"><ele>365.0</ele><time>2026-04-11T10:25:34.584Z</time></trkpt><trkpt lat="43.8035127" lon="11.3268828"><ele>365.2</ele><time>2026-04-11T10:25:35.586Z</time></trkpt><trkpt lat="43.8035474" lon="11.3269996"><ele>365.4</ele><time>2026-04-11T10:25:36.585Z</time></trkpt><trkpt lat="43.8036124" lon="11.3270751"><ele>365.6</ele><time>2026-04-11T10:25:37.586Z</time></trkpt><trkpt lat="43.8036478" lon="11.3271737"><ele>365.8</ele><time>2026-04-11T10:25:38.584Z</time></trkpt><trkpt lat="43.8036873" lon="11.3272889"><ele>366.0</ele><time>2026-04-11T10:25:39.586Z</time></trkpt><trkpt lat="43.8037375" lon="11.3274127"><ele>366.0</ele><time>2026-04-11T10:25:41.586Z</time></trkpt><trkpt lat="43.8037387" lon="11.327596"><ele>366.0</ele><time>2026-04-11T10:25:43.586Z</time></trkpt><trkpt lat="43.8037331" lon="11.3277008"><ele>366.0</ele><time>2026-04-11T10:25:44.586Z</time></trkpt><trkpt lat="43.8037161" lon="11.3278"><ele>366.0</ele><time>2026-04-11T10:25:45.586Z</time></trkpt><trkpt lat="43.803685" lon="11.3278765"><ele>366.0</ele><time>2026-04-11T10:25:46.586Z</time></trkpt><trkpt lat="43.8036626" lon="11.3279726"><ele>366.0</ele><time>2026-04-11T10:25:47.586Z</time></trkpt><trkpt lat="43.8036608" lon="11.3280945"><ele>364.20000000000005</ele><time>2026-04-11T10:25:49.586Z</time></trkpt><trkpt lat="43.8036974" lon="11.3282561"><ele>362.40000000000003</ele><time>2026-04-11T10:25:51.586Z</time></trkpt><trkpt lat="43.8036798" lon="11.328426"><ele>360.6</ele><time>2026-04-11T10:25:53.584Z</time></trkpt><trkpt lat="43.8036548" lon="11.328518"><ele>358.8</ele><time>2026-04-11T10:25:54.586Z</time></trkpt><trkpt lat="43.8036196" lon="11.3286008"><ele>357.0</ele><time>2026-04-11T10:25:55.586Z</time></trkpt><trkpt lat="43.8035627" lon="11.3287016"><ele>357.0</ele><time>2026-04-11T10:25:57.585Z</time></trkpt><trkpt lat="43.803544" lon="11.3288086"><ele>357.0</ele><time>2026-04-11T10:25:59.586Z</time></trkpt><trkpt lat="43.8035655" lon="11.3289511"><ele>357.0</ele><time>2026-04-11T10:26:01.586Z</time></trkpt><trkpt lat="43.8035906" lon="11.3290555"><ele>357.0</ele><time>2026-04-11T10:26:02.586Z</time></trkpt><trkpt lat="43.8036167" lon="11.3291521"><ele>357.0</ele><time>2026-04-11T10:26:03.585Z</time></trkpt><trkpt lat="43.8036495" lon="11.3292454"><ele>357.0</ele><time>2026-04-11T10:26:04.586Z</time></trkpt><trkpt lat="43.8036711" lon="11.3293314"><ele>356.5</ele><time>2026-04-11T10:26:05.586Z</time></trkpt><trkpt lat="43.8036809" lon="11.329434"><ele>356.0</ele><time>2026-04-11T10:26:07.586Z</time></trkpt><trkpt lat="43.8036879" lon="11.3295367"><ele>355.5</ele><time>2026-04-11T10:26:10.585Z</time></trkpt><trkpt lat="43.8037226" lon="11.3296134"><ele>355.0</ele><time>2026-04-11T10:26:32.586Z</time></trkpt><trkpt lat="43.8037951" lon="11.3296424"><ele>354.5</ele><time>2026-04-11T10:26:35.586Z</time></trkpt><trkpt lat="43.8038093" lon="11.3297844"><ele>354.0</ele><time>2026-04-11T10:26:37.586Z</time></trkpt><trkpt lat="43.8037983" lon="11.3299247"><ele>352.8571428571429</ele><time>2026-04-11T10:26:39.586Z</time></trkpt><trkpt lat="43.8037873" lon="11.3300333"><ele>351.71428571428567</ele><time>2026-04-11T10:26:41.585Z</time></trkpt><trkpt lat="43.8037745" lon="11.3301197"><ele>350.57142857142856</ele><time>2026-04-11T10:26:44.585Z</time></trkpt><trkpt lat="43.8037253" lon="11.3301883"><ele>349.42857142857144</ele><time>2026-04-11T10:26:51.585Z</time></trkpt><trkpt lat="43.8037536" lon="11.3302837"><ele>348.28571428571433</ele><time>2026-04-11T10:26:58.586Z</time></trkpt><trkpt lat="43.803733" lon="11.3303674"><ele>347.1428571428571</ele><time>2026-04-11T10:27:49.586Z</time></trkpt><trkpt lat="43.8036932" lon="11.3304609"><ele>346.0</ele><time>2026-04-11T10:27:51.586Z</time></trkpt><trkpt lat="43.8036537" lon="11.3305386"><ele>344.66666666666663</ele><time>2026-04-11T10:27:53.586Z</time></trkpt><trkpt lat="43.803607" lon="11.3306186"><ele>343.3333333333333</ele><time>2026-04-11T10:27:55.585Z</time></trkpt><trkpt lat="43.8035582" lon="11.3307073"><ele>342.0</ele><time>2026-04-11T10:27:57.585Z</time></trkpt><trkpt lat="43.8035045" lon="11.3307949"><ele>340.6666666666667</ele><time>2026-04-11T10:27:59.586Z</time></trkpt><trkpt lat="43.8034516" lon="11.3308861"><ele>339.33333333333337</ele><time>2026-04-11T10:28:01.585Z</time></trkpt><trkpt lat="43.803419" lon="11.3309707"><ele>338.0</ele><time>2026-04-11T10:28:03.586Z</time></trkpt><trkpt lat="43.8033536" lon="11.3310009"><ele>334.0</ele><time>2026-04-11T10:28:10.586Z</time></trkpt><trkpt lat="43.8032848" lon="11.3310288"><ele>330.0</ele><time>2026-04-11T10:28:13.586Z</time></trkpt><trkpt lat="43.8032237" lon="11.3310733"><ele>326.0</ele><time>2026-04-11T10:28:16.586Z</time></trkpt><trkpt lat="43.8031741" lon="11.3311273"><ele>322.0</ele><time>2026-04-11T10:28:22.586Z</time></trkpt><trkpt lat="43.8031527" lon="11.3312113"><ele>318.0</ele><time>2026-04-11T10:28:34.586Z</time></trkpt><trkpt lat="43.8031583" lon="11.3313106"><ele>314.0</ele><time>2026-04-11T10:28:39.585Z</time></trkpt><trkpt lat="43.8031174" lon="11.3314044"><ele>310.0</ele><time>2026-04-11T10:28:43.586Z</time></trkpt><trkpt lat="43.8030543" lon="11.3314659"><ele>309.5</ele><time>2026-04-11T10:28:47.586Z</time></trkpt><trkpt lat="43.8030015" lon="11.3315468"><ele>309.0</ele><time>2026-04-11T10:28:51.586Z</time></trkpt><trkpt lat="43.802956" lon="11.3316124"><ele>308.5</ele><time>2026-04-11T10:28:55.586Z</time></trkpt><trkpt lat="43.8028989" lon="11.3316907"><ele>308.0</ele><time>2026-04-11T10:29:26.585Z</time></trkpt><trkpt lat="43.8028472" lon="11.3317778"><ele>307.5</ele><time>2026-04-11T10:29:28.586Z</time></trkpt><trkpt lat="43.8027875" lon="11.3318691"><ele>307.0</ele><time>2026-04-11T10:29:30.586Z</time></trkpt><trkpt lat="43.8027192" lon="11.3319698"><ele>304.0</ele><time>2026-04-11T10:29:32.586Z</time></trkpt><trkpt lat="43.8026549" lon="11.3320746"><ele>301.0</ele><time>2026-04-11T10:29:34.585Z</time></trkpt><trkpt lat="43.8026099" lon="11.3321666"><ele>298.0</ele><time>2026-04-11T10:29:36.584Z</time></trkpt><trkpt lat="43.8025527" lon="11.3322686"><ele>295.0</ele><time>2026-04-11T10:29:40.586Z</time></trkpt><trkpt lat="43.8025049" lon="11.3323494"><ele>292.0</ele><time>2026-04-11T10:29:42.585Z</time></trkpt><trkpt lat="43.8024523" lon="11.3324404"><ele>289.0</ele><time>2026-04-11T10:29:44.585Z</time></trkpt><trkpt lat="43.8023731" lon="11.3325312"><ele>288.0</ele><time>2026-04-11T10:29:46.585Z</time></trkpt><trkpt lat="43.8023201" lon="11.3325994"><ele>287.0</ele><time>2026-04-11T10:29:48.586Z</time></trkpt><trkpt lat="43.8022602" lon="11.3326779"><ele>286.0</ele><time>2026-04-11T10:29:50.586Z</time></trkpt><trkpt lat="43.8022092" lon="11.3327458"><ele>285.0</ele><time>2026-04-11T10:29:52.586Z</time></trkpt><trkpt lat="43.8021648" lon="11.3328131"><ele>284.0</ele><time>2026-04-11T10:29:53.586Z</time></trkpt><trkpt lat="43.8021062" lon="11.3329108"><ele>283.0</ele><time>2026-04-11T10:29:55.585Z</time></trkpt><trkpt lat="43.8020333" lon="11.3330115"><ele>281.8</ele><time>2026-04-11T10:29:57.586Z</time></trkpt><trkpt lat="43.8019786" lon="11.3330955"><ele>280.6</ele><time>2026-04-11T10:29:58.585Z</time></trkpt><trkpt lat="43.801889" lon="11.3332136"><ele>279.4</ele><time>2026-04-11T10:30:00.586Z</time></trkpt><trkpt lat="43.8018178" lon="11.3333164"><ele>278.2</ele><time>2026-04-11T10:30:02.586Z</time></trkpt><trkpt lat="43.801756" lon="11.3334095"><ele>277.0</ele><time>2026-04-11T10:30:04.586Z</time></trkpt><trkpt lat="43.8017068" lon="11.3334766"><ele>276.16666666666663</ele><time>2026-04-11T10:30:06.586Z</time></trkpt><trkpt lat="43.8016564" lon="11.3335309"><ele>275.3333333333333</ele><time>2026-04-11T10:30:08.585Z</time></trkpt><trkpt lat="43.8016152" lon="11.3336048"><ele>274.5</ele><time>2026-04-11T10:30:12.585Z</time></trkpt><trkpt lat="43.8016099" lon="11.3337357"><ele>273.6666666666667</ele><time>2026-04-11T10:30:52.585Z</time></trkpt><trkpt lat="43.8015998" lon="11.333835"><ele>272.83333333333337</ele><time>2026-04-11T10:30:54.586Z</time></trkpt><trkpt lat="43.8015643" lon="11.3339584"><ele>272.0</ele><time>2026-04-11T10:30:56.586Z</time></trkpt><trkpt lat="43.8015334" lon="11.3340636"><ele>270.83333333333337</ele><time>2026-04-11T10:30:58.586Z</time></trkpt><trkpt lat="43.8015118" lon="11.3341501"><ele>269.6666666666667</ele><time>2026-04-11T10:31:00.586Z</time></trkpt><trkpt lat="43.8014815" lon="11.3342315"><ele>268.5</ele><time>2026-04-11T10:31:02.586Z</time></trkpt><trkpt lat="43.8014446" lon="11.3343136"><ele>267.3333333333333</ele><time>2026-04-11T10:31:04.586Z</time></trkpt><trkpt lat="43.8013924" lon="11.3344166"><ele>266.16666666666663</ele><time>2026-04-11T10:31:07.586Z</time></trkpt><trkpt lat="43.801339" lon="11.3345286"><ele>265.0</ele><time>2026-04-11T10:31:10.585Z</time></trkpt><trkpt lat="43.8012857" lon="11.3346078"><ele>265.0</ele><time>2026-04-11T10:31:12.586Z</time></trkpt><trkpt lat="43.8012404" lon="11.334688"><ele>265.0</ele><time>2026-04-11T10:31:14.585Z</time></trkpt><trkpt lat="43.8011833" lon="11.3347686"><ele>265.0</ele><time>2026-04-11T10:31:16.585Z</time></trkpt><trkpt lat="43.801111" lon="11.3348447"><ele>265.0</ele><time>2026-04-11T10:31:18.586Z</time></trkpt><trkpt lat="43.801049" lon="11.3349409"><ele>265.0</ele><time>2026-04-11T10:31:20.586Z</time></trkpt><trkpt lat="43.8009847" lon="11.3350437"><ele>265.0</ele><time>2026-04-11T10:31:22.586Z</time></trkpt><trkpt lat="43.8009149" lon="11.3351488"><ele>263.16666666666663</ele><time>2026-04-11T10:31:24.586Z</time></trkpt><trkpt lat="43.8008506" lon="11.3352461"><ele>261.3333333333333</ele><time>2026-04-11T10:31:26.586Z</time></trkpt><trkpt lat="43.8007853" lon="11.3353316"><ele>259.5</ele><time>2026-04-11T10:31:28.586Z</time></trkpt><trkpt lat="43.8007861" lon="11.3354228"><ele>257.6666666666667</ele><time>2026-04-11T10:31:31.585Z</time></trkpt><trkpt lat="43.8007866" lon="11.3355118"><ele>255.83333333333334</ele><time>2026-04-11T10:32:01.586Z</time></trkpt><trkpt lat="43.8008103" lon="11.3356055"><ele>254.0</ele><time>2026-04-11T10:32:05.586Z</time></trkpt><trkpt lat="43.8008164" lon="11.3356933"><ele>252.39999999999998</ele><time>2026-04-11T10:32:07.586Z</time></trkpt><trkpt lat="43.8008132" lon="11.3358042"><ele>250.79999999999998</ele><time>2026-04-11T10:32:09.586Z</time></trkpt><trkpt lat="43.8008265" lon="11.3359384"><ele>249.20000000000002</ele><time>2026-04-11T10:32:11.586Z</time></trkpt><trkpt lat="43.8008207" lon="11.3360792"><ele>247.60000000000002</ele><time>2026-04-11T10:32:13.585Z</time></trkpt><trkpt lat="43.8008225" lon="11.3362155"><ele>246.0</ele><time>2026-04-11T10:32:15.585Z</time></trkpt><trkpt lat="43.8008381" lon="11.3363617"><ele>245.4</ele><time>2026-04-11T10:32:17.586Z</time></trkpt><trkpt lat="43.8008301" lon="11.336526"><ele>244.8</ele><time>2026-04-11T10:32:19.586Z</time></trkpt><trkpt lat="43.8008127" lon="11.3366919"><ele>244.20000000000002</ele><time>2026-04-11T10:32:21.586Z</time></trkpt><trkpt lat="43.8008114" lon="11.3367841"><ele>243.60000000000002</ele><time>2026-04-11T10:32:23.586Z</time></trkpt><trkpt lat="43.8008736" lon="11.3369225"><ele>243.0</ele><time>2026-04-11T10:32:26.584Z</time></trkpt><trkpt lat="43.8009221" lon="11.3370428"><ele>243.0</ele><time>2026-04-11T10:32:27.586Z</time></trkpt><trkpt lat="43.8009702" lon="11.3371484"><ele>243.0</ele><time>2026-04-11T10:32:28.586Z</time></trkpt><trkpt lat="43.8010124" lon="11.3372375"><ele>243.0</ele><time>2026-04-11T10:32:29.585Z</time></trkpt><trkpt lat="43.8010762" lon="11.3373614"><ele>243.0</ele><time>2026-04-11T10:32:31.586Z</time></trkpt><trkpt lat="43.8010769" lon="11.3375102"><ele>243.0</ele><time>2026-04-11T10:32:33.586Z</time></trkpt><trkpt lat="43.8010664" lon="11.3376798"><ele>241.0</ele><time>2026-04-11T10:32:35.585Z</time></trkpt><trkpt lat="43.8011174" lon="11.3377991"><ele>239.0</ele><time>2026-04-11T10:32:37.586Z</time></trkpt><trkpt lat="43.801211" lon="11.3379136"><ele>237.0</ele><time>2026-04-11T10:32:39.586Z</time></trkpt><trkpt lat="43.8012663" lon="11.3379732"><ele>235.0</ele><time>2026-04-11T10:32:40.586Z</time></trkpt><trkpt lat="43.8013443" lon="11.3380187"><ele>233.0</ele><time>2026-04-11T10:32:41.585Z</time></trkpt><trkpt lat="43.8014089" lon="11.3380719"><ele>231.50000000000003</ele><time>2026-04-11T10:32:42.586Z</time></trkpt><trkpt lat="43.8014735" lon="11.3381138"><ele>230.0</ele><time>2026-04-11T10:32:43.586Z</time></trkpt><trkpt lat="43.8015343" lon="11.3381508"><ele>228.5</ele><time>2026-04-11T10:32:44.585Z</time></trkpt><trkpt lat="43.8015968" lon="11.3381701"><ele>227.0</ele><time>2026-04-11T10:32:45.586Z</time></trkpt><trkpt lat="43.8016971" lon="11.3382044"><ele>225.50000000000003</ele><time>2026-04-11T10:32:47.585Z</time></trkpt><trkpt lat="43.8017823" lon="11.3382575"><ele>224.0</ele><time>2026-04-11T10:32:49.584Z</time></trkpt><trkpt lat="43.8018833" lon="11.3383178"><ele>224.0</ele><time>2026-04-11T10:32:51.586Z</time></trkpt><trkpt lat="43.8019854" lon="11.3383624"><ele>223.99999999999997</ele><time>2026-04-11T10:32:53.586Z</time></trkpt><trkpt lat="43.8020781" lon="11.3383961"><ele>223.99999999999997</ele><time>2026-04-11T10:32:55.586Z</time></trkpt><trkpt lat="43.8021551" lon="11.3384752"><ele>224.0</ele><time>2026-04-11T10:32:57.585Z</time></trkpt><trkpt lat="43.8022241" lon="11.3384388"><ele>224.0</ele><time>2026-04-11T10:32:59.586Z</time></trkpt><trkpt lat="43.802242" lon="11.338554"><ele>224.0</ele><time>2026-04-11T10:33:03.586Z</time></trkpt><trkpt lat="43.8022254" lon="11.3386546"><ele>224.0</ele><time>2026-04-11T10:33:05.585Z</time></trkpt><trkpt lat="43.8022013" lon="11.33874"><ele>224.0</ele><time>2026-04-11T10:33:07.586Z</time></trkpt><trkpt lat="43.8021859" lon="11.3388329"><ele>224.0</ele><time>2026-04-11T10:38:50.585Z</time></trkpt><trkpt lat="43.8022586" lon="11.338835"><ele>224.0</ele><time>2026-04-11T10:38:53.586Z</time></trkpt><trkpt lat="43.8023088" lon="11.3387728"><ele>224.0</ele><time>2026-04-11T10:38:57.585Z</time></trkpt><trkpt lat="43.8022443" lon="11.3387402"><ele>224.0</ele><time>2026-04-11T11:08:26.587Z</time></trkpt><trkpt lat="43.8021803" lon="11.3387665"><ele>224.00000000000003</ele><time>2026-04-11T11:08:28.587Z</time></trkpt><trkpt lat="43.8021126" lon="11.3387837"><ele>224.0</ele><time>2026-04-11T11:08:32.586Z</time></trkpt><trkpt lat="43.8020595" lon="11.3388726"><ele>224.0</ele><time>2026-04-11T11:08:36.587Z</time></trkpt><trkpt lat="43.802019" lon="11.3389481"><ele>224.0</ele><time>2026-04-11T11:10:17.587Z</time></trkpt><trkpt lat="43.8019659" lon="11.3391016"><ele>224.00000000000003</ele><time>2026-04-11T11:10:19.586Z</time></trkpt><trkpt lat="43.8019147" lon="11.3392264"><ele>224.0</ele><time>2026-04-11T11:10:21.587Z</time></trkpt><trkpt lat="43.8018816" lon="11.3393205"><ele>223.79999999999998</ele><time>2026-04-11T11:10:23.587Z</time></trkpt><trkpt lat="43.801833" lon="11.3394552"><ele>223.59999999999997</ele><time>2026-04-11T11:10:25.587Z</time></trkpt><trkpt lat="43.8017889" lon="11.3396184"><ele>223.4</ele><time>2026-04-11T11:10:27.587Z</time></trkpt><trkpt lat="43.8017367" lon="11.339696"><ele>223.2</ele><time>2026-04-11T11:10:28.587Z</time></trkpt><trkpt lat="43.8016656" lon="11.3398331"><ele>223.0</ele><time>2026-04-11T11:10:30.587Z</time></trkpt><trkpt lat="43.8016335" lon="11.3399144"><ele>225.0</ele><time>2026-04-11T11:10:31.586Z</time></trkpt><trkpt lat="43.8015896" lon="11.3399956"><ele>227.0</ele><time>2026-04-11T11:10:32.587Z</time></trkpt><trkpt lat="43.801551" lon="11.3400767"><ele>229.0</ele><time>2026-04-11T11:10:33.587Z</time></trkpt><trkpt lat="43.801506" lon="11.3401573"><ele>231.0</ele><time>2026-04-11T11:10:34.586Z</time></trkpt><trkpt lat="43.8014566" lon="11.3402255"><ele>233.0</ele><time>2026-04-11T11:10:35.587Z</time></trkpt><trkpt lat="43.8014029" lon="11.340284"><ele>234.99999999999997</ele><time>2026-04-11T11:10:36.586Z</time></trkpt><trkpt lat="43.8013517" lon="11.3403379"><ele>236.99999999999997</ele><time>2026-04-11T11:10:37.586Z</time></trkpt><trkpt lat="43.8012954" lon="11.3403948"><ele>236.99999999999997</ele><time>2026-04-11T11:10:38.587Z</time></trkpt><trkpt lat="43.8012389" lon="11.3404462"><ele>237.0</ele><time>2026-04-11T11:10:39.587Z</time></trkpt><trkpt lat="43.8011779" lon="11.3405041"><ele>236.99999999999997</ele><time>2026-04-11T11:10:40.587Z</time></trkpt><trkpt lat="43.8011161" lon="11.3405555"><ele>236.99999999999997</ele><time>2026-04-11T11:10:41.587Z</time></trkpt><trkpt lat="43.8010674" lon="11.3406215"><ele>237.0</ele><time>2026-04-11T11:10:42.586Z</time></trkpt><trkpt lat="43.8010159" lon="11.3406949"><ele>236.99999999999997</ele><time>2026-04-11T11:10:43.587Z</time></trkpt><trkpt lat="43.8009676" lon="11.3407852"><ele>236.99999999999997</ele><time>2026-04-11T11:10:44.587Z</time></trkpt><trkpt lat="43.8009257" lon="11.340882"><ele>238.0</ele><time>2026-04-11T11:10:45.586Z</time></trkpt><trkpt lat="43.8008809" lon="11.3409911"><ele>239.0</ele><time>2026-04-11T11:10:46.586Z</time></trkpt><trkpt lat="43.8008541" lon="11.3411006"><ele>240.0</ele><time>2026-04-11T11:10:47.586Z</time></trkpt><trkpt lat="43.8008236" lon="11.3412081"><ele>241.0</ele><time>2026-04-11T11:10:48.587Z</time></trkpt><trkpt lat="43.8008057" lon="11.3413188"><ele>242.0</ele><time>2026-04-11T11:10:49.587Z</time></trkpt><trkpt lat="43.8007924" lon="11.341417"><ele>243.0</ele><time>2026-04-11T11:10:50.587Z</time></trkpt><trkpt lat="43.8007346" lon="11.3415465"><ele>243.0</ele><time>2026-04-11T11:10:52.586Z</time></trkpt><trkpt lat="43.8006931" lon="11.3416297"><ele>243.0</ele><time>2026-04-11T11:10:53.586Z</time></trkpt><trkpt lat="43.8006487" lon="11.3417224"><ele>243.0</ele><time>2026-04-11T11:10:54.587Z</time></trkpt><trkpt lat="43.8006159" lon="11.3418208"><ele>243.0</ele><time>2026-04-11T11:10:55.587Z</time></trkpt><trkpt lat="43.8005827" lon="11.3419236"><ele>243.0</ele><time>2026-04-11T11:10:56.586Z</time></trkpt><trkpt lat="43.8005497" lon="11.3420916"><ele>243.0</ele><time>2026-04-11T11:10:58.587Z</time></trkpt><trkpt lat="43.8005112" lon="11.3421708"><ele>243.66666666666666</ele><time>2026-04-11T11:10:59.587Z</time></trkpt><trkpt lat="43.8004429" lon="11.3422182"><ele>244.33333333333331</ele><time>2026-04-11T11:11:00.585Z</time></trkpt><trkpt lat="43.8003503" lon="11.3422383"><ele>245.0</ele><time>2026-04-11T11:11:01.587Z</time></trkpt><trkpt lat="43.800297" lon="11.3423156"><ele>245.66666666666666</ele><time>2026-04-11T11:11:02.586Z</time></trkpt><trkpt lat="43.8002459" lon="11.3423973"><ele>246.33333333333331</ele><time>2026-04-11T11:11:03.587Z</time></trkpt><trkpt lat="43.80017" lon="11.342502"><ele>247.0</ele><time>2026-04-11T11:11:04.586Z</time></trkpt><trkpt lat="43.8001063" lon="11.3425905"><ele>247.0</ele><time>2026-04-11T11:11:05.586Z</time></trkpt><trkpt lat="43.8000442" lon="11.3426795"><ele>247.0</ele><time>2026-04-11T11:11:06.587Z</time></trkpt><trkpt lat="43.7999743" lon="11.3427618"><ele>247.0</ele><time>2026-04-11T11:11:07.587Z</time></trkpt><trkpt lat="43.799912" lon="11.3428513"><ele>247.0</ele><time>2026-04-11T11:11:08.586Z</time></trkpt><trkpt lat="43.7998158" lon="11.3429255"><ele>247.0</ele><time>2026-04-11T11:11:09.586Z</time></trkpt><trkpt lat="43.7997478" lon="11.3429962"><ele>249.99999999999997</ele><time>2026-04-11T11:11:10.587Z</time></trkpt><trkpt lat="43.799682" lon="11.3430633"><ele>253.0</ele><time>2026-04-11T11:11:11.587Z</time></trkpt><trkpt lat="43.7996214" lon="11.3431385"><ele>256.0</ele><time>2026-04-11T11:11:12.586Z</time></trkpt><trkpt lat="43.7995483" lon="11.3432128"><ele>259.0</ele><time>2026-04-11T11:11:13.587Z</time></trkpt><trkpt lat="43.7994853" lon="11.3432956"><ele>262.0</ele><time>2026-04-11T11:11:14.586Z</time></trkpt><trkpt lat="43.7994266" lon="11.3433836"><ele>265.0</ele><time>2026-04-11T11:11:15.586Z</time></trkpt><trkpt lat="43.7993712" lon="11.3434839"><ele>264.5</ele><time>2026-04-11T11:11:16.587Z</time></trkpt><trkpt lat="43.7993141" lon="11.3435768"><ele>264.0</ele><time>2026-04-11T11:11:17.587Z</time></trkpt><trkpt lat="43.7992558" lon="11.343669"><ele>263.5</ele><time>2026-04-11T11:11:18.586Z</time></trkpt><trkpt lat="43.7992033" lon="11.3437576"><ele>263.0</ele><time>2026-04-11T11:11:19.585Z</time></trkpt><trkpt lat="43.7991456" lon="11.343838"><ele>262.5</ele><time>2026-04-11T11:11:20.586Z</time></trkpt><trkpt lat="43.7990916" lon="11.3439181"><ele>262.0</ele><time>2026-04-11T11:11:21.587Z</time></trkpt><trkpt lat="43.7990371" lon="11.3439912"><ele>262.0</ele><time>2026-04-11T11:11:22.587Z</time></trkpt><trkpt lat="43.7989504" lon="11.3440933"><ele>262.0</ele><time>2026-04-11T11:11:24.587Z</time></trkpt><trkpt lat="43.7988781" lon="11.3441725"><ele>262.0</ele><time>2026-04-11T11:11:26.586Z</time></trkpt><trkpt lat="43.7988064" lon="11.344228"><ele>262.0</ele><time>2026-04-11T11:11:31.587Z</time></trkpt><trkpt lat="43.7987718" lon="11.3443206"><ele>262.0</ele><time>2026-04-11T11:11:33.587Z</time></trkpt><trkpt lat="43.7987645" lon="11.3444387"><ele>262.0</ele><time>2026-04-11T11:11:35.587Z</time></trkpt><trkpt lat="43.7987691" lon="11.3445938"><ele>262.0</ele><time>2026-04-11T11:11:37.586Z</time></trkpt><trkpt lat="43.7987373" lon="11.344683"><ele>262.0</ele><time>2026-04-11T11:11:38.586Z</time></trkpt><trkpt lat="43.798678" lon="11.3447791"><ele>262.0</ele><time>2026-04-11T11:11:39.587Z</time></trkpt><trkpt lat="43.7986269" lon="11.3448564"><ele>262.0</ele><time>2026-04-11T11:11:40.587Z</time></trkpt><trkpt lat="43.7985707" lon="11.3449253"><ele>262.0</ele><time>2026-04-11T11:11:41.587Z</time></trkpt><trkpt lat="43.7985163" lon="11.3449934"><ele>262.0</ele><time>2026-04-11T11:11:42.586Z</time></trkpt><trkpt lat="43.7984619" lon="11.3450632"><ele>262.0</ele><time>2026-04-11T11:11:43.587Z</time></trkpt><trkpt lat="43.7984102" lon="11.3451261"><ele>262.0</ele><time>2026-04-11T11:11:44.587Z</time></trkpt><trkpt lat="43.7983544" lon="11.3451863"><ele>262.0</ele><time>2026-04-11T11:11:45.587Z</time></trkpt><trkpt lat="43.7982983" lon="11.3452426"><ele>262.0</ele><time>2026-04-11T11:11:46.586Z</time></trkpt><trkpt lat="43.7981895" lon="11.3453551"><ele>262.0</ele><time>2026-04-11T11:11:48.587Z</time></trkpt><trkpt lat="43.7981346" lon="11.345416"><ele>262.0</ele><time>2026-04-11T11:11:49.586Z</time></trkpt><trkpt lat="43.7980817" lon="11.3454877"><ele>264.4</ele><time>2026-04-11T11:11:50.587Z</time></trkpt><trkpt lat="43.7980323" lon="11.3455591"><ele>266.79999999999995</ele><time>2026-04-11T11:11:51.587Z</time></trkpt><trkpt lat="43.7979577" lon="11.345675"><ele>269.2</ele><time>2026-04-11T11:11:53.586Z</time></trkpt><trkpt lat="43.797913" lon="11.3458184"><ele>271.59999999999997</ele><time>2026-04-11T11:11:55.587Z</time></trkpt><trkpt lat="43.7978879" lon="11.3459652"><ele>274.0</ele><time>2026-04-11T11:11:57.586Z</time></trkpt><trkpt lat="43.7978817" lon="11.3460931"><ele>274.0</ele><time>2026-04-11T11:11:59.587Z</time></trkpt><trkpt lat="43.7978907" lon="11.3462308"><ele>274.0</ele><time>2026-04-11T11:12:02.586Z</time></trkpt><trkpt lat="43.7979481" lon="11.3463464"><ele>274.0</ele><time>2026-04-11T11:12:04.587Z</time></trkpt><trkpt lat="43.7979618" lon="11.3464514"><ele>274.0</ele><time>2026-04-11T11:12:06.587Z</time></trkpt><trkpt lat="43.7979274" lon="11.3465736"><ele>274.0</ele><time>2026-04-11T11:12:08.587Z</time></trkpt><trkpt lat="43.797891" lon="11.346649"><ele>274.0</ele><time>2026-04-11T11:12:09.587Z</time></trkpt><trkpt lat="43.7978505" lon="11.3467346"><ele>273.66666666666663</ele><time>2026-04-11T11:12:10.587Z</time></trkpt><trkpt lat="43.7978051" lon="11.3468296"><ele>273.3333333333333</ele><time>2026-04-11T11:12:11.587Z</time></trkpt><trkpt lat="43.7977658" lon="11.346921"><ele>273.0</ele><time>2026-04-11T11:12:12.587Z</time></trkpt><trkpt lat="43.7977306" lon="11.3470072"><ele>272.6666666666667</ele><time>2026-04-11T11:12:13.587Z</time></trkpt><trkpt lat="43.7977007" lon="11.3470878"><ele>272.33333333333337</ele><time>2026-04-11T11:12:14.587Z</time></trkpt><trkpt lat="43.7976383" lon="11.3472077"><ele>272.0</ele><time>2026-04-11T11:12:16.586Z</time></trkpt><trkpt lat="43.7975681" lon="11.3472944"><ele>277.6</ele><time>2026-04-11T11:12:18.587Z</time></trkpt><trkpt lat="43.7974844" lon="11.3473715"><ele>283.2</ele><time>2026-04-11T11:12:20.587Z</time></trkpt><trkpt lat="43.797386" lon="11.3474592"><ele>288.8</ele><time>2026-04-11T11:12:22.587Z</time></trkpt><trkpt lat="43.7973248" lon="11.3475089"><ele>294.4</ele><time>2026-04-11T11:12:23.587Z</time></trkpt><trkpt lat="43.7972191" lon="11.3475763"><ele>300.0</ele><time>2026-04-11T11:12:25.587Z</time></trkpt><trkpt lat="43.7970878" lon="11.3476028"><ele>300.0</ele><time>2026-04-11T11:12:27.587Z</time></trkpt><trkpt lat="43.7970223" lon="11.3476327"><ele>300.0</ele><time>2026-04-11T11:12:28.587Z</time></trkpt><trkpt lat="43.7969585" lon="11.3476657"><ele>300.0</ele><time>2026-04-11T11:12:29.586Z</time></trkpt><trkpt lat="43.7968933" lon="11.3477037"><ele>300.0</ele><time>2026-04-11T11:12:30.587Z</time></trkpt><trkpt lat="43.7967827" lon="11.3477485"><ele>300.0</ele><time>2026-04-11T11:12:32.587Z</time></trkpt><trkpt lat="43.7967149" lon="11.3477635"><ele>300.0</ele><time>2026-04-11T11:12:33.587Z</time></trkpt><trkpt lat="43.7966453" lon="11.3478165"><ele>301.3333333333333</ele><time>2026-04-11T11:12:35.587Z</time></trkpt><trkpt lat="43.7965699" lon="11.3478379"><ele>302.6666666666667</ele><time>2026-04-11T11:13:11.587Z</time></trkpt><trkpt lat="43.7965127" lon="11.3478864"><ele>304.0</ele><time>2026-04-11T11:13:13.587Z</time></trkpt><trkpt lat="43.7964511" lon="11.3479389"><ele>305.33333333333337</ele><time>2026-04-11T11:13:14.587Z</time></trkpt><trkpt lat="43.796393" lon="11.3480134"><ele>306.6666666666667</ele><time>2026-04-11T11:13:16.587Z</time></trkpt><trkpt lat="43.7963347" lon="11.3480972"><ele>308.0</ele><time>2026-04-11T11:13:18.587Z</time></trkpt><trkpt lat="43.7962828" lon="11.3481952"><ele>308.0</ele><time>2026-04-11T11:13:20.586Z</time></trkpt><trkpt lat="43.7962469" lon="11.3482901"><ele>308.0</ele><time>2026-04-11T11:13:22.587Z</time></trkpt><trkpt lat="43.7962285" lon="11.3483977"><ele>308.0</ele><time>2026-04-11T11:13:24.587Z</time></trkpt><trkpt lat="43.7962315" lon="11.3485055"><ele>308.0</ele><time>2026-04-11T11:13:27.587Z</time></trkpt><trkpt lat="43.7962622" lon="11.3485848"><ele>308.0</ele><time>2026-04-11T11:13:29.587Z</time></trkpt><trkpt lat="43.7962966" lon="11.3486947"><ele>308.0</ele><time>2026-04-11T11:13:31.587Z</time></trkpt><trkpt lat="43.7963217" lon="11.3488114"><ele>308.2</ele><time>2026-04-11T11:13:33.586Z</time></trkpt><trkpt lat="43.7963553" lon="11.3489286"><ele>308.4</ele><time>2026-04-11T11:13:35.587Z</time></trkpt><trkpt lat="43.7963801" lon="11.3491002"><ele>308.59999999999997</ele><time>2026-04-11T11:13:37.587Z</time></trkpt><trkpt lat="43.7964213" lon="11.349259"><ele>308.8</ele><time>2026-04-11T11:13:39.586Z</time></trkpt><trkpt lat="43.7964382" lon="11.3493628"><ele>309.0</ele><time>2026-04-11T11:13:40.587Z</time></trkpt><trkpt lat="43.796459" lon="11.3494499"><ele>309.0</ele><time>2026-04-11T11:13:41.587Z</time></trkpt><trkpt lat="43.7964918" lon="11.3495339"><ele>309.0</ele><time>2026-04-11T11:13:42.587Z</time></trkpt><trkpt lat="43.796544" lon="11.349671"><ele>309.0</ele><time>2026-04-11T11:13:44.587Z</time></trkpt><trkpt lat="43.7965949" lon="11.3498294"><ele>309.0</ele><time>2026-04-11T11:13:46.587Z</time></trkpt><trkpt lat="43.7966334" lon="11.3499463"><ele>309.0</ele><time>2026-04-11T11:13:48.586Z</time></trkpt><trkpt lat="43.7966322" lon="11.3500556"><ele>307.8571428571429</ele><time>2026-04-11T11:13:51.587Z</time></trkpt><trkpt lat="43.7966275" lon="11.350144"><ele>306.7142857142857</ele><time>2026-04-11T11:13:54.587Z</time></trkpt><trkpt lat="43.7966065" lon="11.3502374"><ele>305.57142857142856</ele><time>2026-04-11T11:13:57.587Z</time></trkpt><trkpt lat="43.7966258" lon="11.3503341"><ele>304.42857142857144</ele><time>2026-04-11T11:14:00.587Z</time></trkpt><trkpt lat="43.7966332" lon="11.3504246"><ele>303.2857142857143</ele><time>2026-04-11T11:14:03.586Z</time></trkpt><trkpt lat="43.7966168" lon="11.3505136"><ele>302.14285714285717</ele><time>2026-04-11T11:14:05.586Z</time></trkpt><trkpt lat="43.7966091" lon="11.350622"><ele>301.0</ele><time>2026-04-11T11:14:07.587Z</time></trkpt><trkpt lat="43.7966043" lon="11.350714"><ele>298.8333333333333</ele><time>2026-04-11T11:14:09.587Z</time></trkpt><trkpt lat="43.7965924" lon="11.3508125"><ele>296.66666666666663</ele><time>2026-04-11T11:14:12.587Z</time></trkpt><trkpt lat="43.7965527" lon="11.3508944"><ele>294.5</ele><time>2026-04-11T11:14:20.587Z</time></trkpt><trkpt lat="43.7964857" lon="11.3509267"><ele>292.3333333333333</ele><time>2026-04-11T11:14:22.587Z</time></trkpt><trkpt lat="43.7964129" lon="11.3509832"><ele>290.1666666666667</ele><time>2026-04-11T11:14:25.587Z</time></trkpt><trkpt lat="43.7963563" lon="11.3510494"><ele>288.0</ele><time>2026-04-11T11:14:28.587Z</time></trkpt><trkpt lat="43.7962954" lon="11.351154"><ele>288.0</ele><time>2026-04-11T11:14:31.587Z</time></trkpt><trkpt lat="43.7962704" lon="11.3512452"><ele>288.0</ele><time>2026-04-11T11:14:33.587Z</time></trkpt><trkpt lat="43.7962512" lon="11.3513539"><ele>288.0</ele><time>2026-04-11T11:14:35.586Z</time></trkpt><trkpt lat="43.7962418" lon="11.3514532"><ele>288.0</ele><time>2026-04-11T11:14:37.586Z</time></trkpt><trkpt lat="43.7962308" lon="11.3515682"><ele>288.0</ele><time>2026-04-11T11:14:39.587Z</time></trkpt><trkpt lat="43.7962185" lon="11.3516808"><ele>288.0</ele><time>2026-04-11T11:14:41.587Z</time></trkpt><trkpt lat="43.796163" lon="11.3517576"><ele>285.0</ele><time>2026-04-11T11:14:45.587Z</time></trkpt><trkpt lat="43.7960858" lon="11.3517581"><ele>282.0</ele><time>2026-04-11T11:14:47.587Z</time></trkpt><trkpt lat="43.7959956" lon="11.3517213"><ele>279.0</ele><time>2026-04-11T11:14:49.586Z</time></trkpt><trkpt lat="43.7959307" lon="11.3517408"><ele>276.0</ele><time>2026-04-11T11:14:51.587Z</time></trkpt><trkpt lat="43.7958739" lon="11.3517853"><ele>273.0</ele><time>2026-04-11T11:14:53.587Z</time></trkpt><trkpt lat="43.7958439" lon="11.3518704"><ele>270.0</ele><time>2026-04-11T11:14:55.586Z</time></trkpt><trkpt lat="43.7958588" lon="11.3519955"><ele>268.3333333333333</ele><time>2026-04-11T11:14:58.587Z</time></trkpt><trkpt lat="43.7958959" lon="11.3521114"><ele>266.6666666666667</ele><time>2026-04-11T11:15:01.587Z</time></trkpt><trkpt lat="43.7959167" lon="11.352202"><ele>265.0</ele><time>2026-04-11T11:15:05.586Z</time></trkpt><trkpt lat="43.7959118" lon="11.352314"><ele>263.33333333333337</ele><time>2026-04-11T11:15:09.585Z</time></trkpt><trkpt lat="43.7958113" lon="11.352376"><ele>261.6666666666667</ele><time>2026-04-11T11:15:12.587Z</time></trkpt><trkpt lat="43.7957488" lon="11.3523989"><ele>260.0</ele><time>2026-04-11T11:15:13.587Z</time></trkpt><trkpt lat="43.7956764" lon="11.3524117"><ele>257.4</ele><time>2026-04-11T11:15:14.586Z</time></trkpt><trkpt lat="43.7955533" lon="11.3524651"><ele>254.8</ele><time>2026-04-11T11:15:16.587Z</time></trkpt><trkpt lat="43.7954824" lon="11.3525088"><ele>252.2</ele><time>2026-04-11T11:15:17.587Z</time></trkpt><trkpt lat="43.795412" lon="11.3526119"><ele>249.6</ele><time>2026-04-11T11:15:19.586Z</time></trkpt><trkpt lat="43.7953505" lon="11.3526902"><ele>247.0</ele><time>2026-04-11T11:15:21.587Z</time></trkpt><trkpt lat="43.7952956" lon="11.3527405"><ele>246.99999999999997</ele><time>2026-04-11T11:15:23.587Z</time></trkpt><trkpt lat="43.7953532" lon="11.3528178"><ele>247.0</ele><time>2026-04-11T11:15:47.587Z</time></trkpt><trkpt lat="43.7954352" lon="11.352796"><ele>247.0</ele><time>2026-04-11T11:15:49.587Z</time></trkpt><trkpt lat="43.7955342" lon="11.3527901"><ele>247.0</ele><time>2026-04-11T11:15:51.586Z</time></trkpt><trkpt lat="43.7956321" lon="11.3528248"><ele>246.99999999999997</ele><time>2026-04-11T11:15:53.586Z</time></trkpt><trkpt lat="43.7957143" lon="11.3528453"><ele>247.0</ele><time>2026-04-11T11:15:55.586Z</time></trkpt><trkpt lat="43.7957915" lon="11.3528774"><ele>247.0</ele><time>2026-04-11T11:15:57.587Z</time></trkpt><trkpt lat="43.7958707" lon="11.3529125"><ele>247.0</ele><time>2026-04-11T11:15:59.587Z</time></trkpt><trkpt lat="43.7959551" lon="11.3529725"><ele>247.0</ele><time>2026-04-11T11:16:01.587Z</time></trkpt><trkpt lat="43.7960344" lon="11.3530687"><ele>247.0</ele><time>2026-04-11T11:16:03.587Z</time></trkpt><trkpt lat="43.7960771" lon="11.3531388"><ele>247.0</ele><time>2026-04-11T11:16:04.586Z</time></trkpt><trkpt lat="43.7961491" lon="11.3532622"><ele>245.39999999999998</ele><time>2026-04-11T11:16:06.585Z</time></trkpt><trkpt lat="43.7962102" lon="11.3533628"><ele>243.79999999999998</ele><time>2026-04-11T11:16:08.585Z</time></trkpt><trkpt lat="43.7962697" lon="11.3534628"><ele>242.2</ele><time>2026-04-11T11:16:10.586Z</time></trkpt><trkpt lat="43.7963383" lon="11.3535797"><ele>240.6</ele><time>2026-04-11T11:16:12.586Z</time></trkpt><trkpt lat="43.796404" lon="11.353692"><ele>239.0</ele><time>2026-04-11T11:16:14.586Z</time></trkpt><trkpt lat="43.7964687" lon="11.3538178"><ele>238.2</ele><time>2026-04-11T11:16:16.585Z</time></trkpt><trkpt lat="43.79654" lon="11.3539268"><ele>237.39999999999998</ele><time>2026-04-11T11:16:18.586Z</time></trkpt><trkpt lat="43.7966417" lon="11.3540383"><ele>236.6</ele><time>2026-04-11T11:16:20.585Z</time></trkpt><trkpt lat="43.7967012" lon="11.3540906"><ele>235.8</ele><time>2026-04-11T11:16:21.586Z</time></trkpt><trkpt lat="43.7967719" lon="11.3541481"><ele>235.0</ele><time>2026-04-11T11:16:22.586Z</time></trkpt><trkpt lat="43.7968434" lon="11.3542016"><ele>235.0</ele><time>2026-04-11T11:16:23.586Z</time></trkpt><trkpt lat="43.7969126" lon="11.3542502"><ele>234.99999999999997</ele><time>2026-04-11T11:16:24.585Z</time></trkpt><trkpt lat="43.7969747" lon="11.3542965"><ele>235.0</ele><time>2026-04-11T11:16:25.586Z</time></trkpt><trkpt lat="43.7970335" lon="11.3543408"><ele>235.0</ele><time>2026-04-11T11:16:26.586Z</time></trkpt><trkpt lat="43.7970914" lon="11.354382"><ele>234.99999999999997</ele><time>2026-04-11T11:16:27.586Z</time></trkpt><trkpt lat="43.7971523" lon="11.3544275"><ele>235.0</ele><time>2026-04-11T11:16:28.586Z</time></trkpt><trkpt lat="43.7972167" lon="11.354477"><ele>235.0</ele><time>2026-04-11T11:16:29.586Z</time></trkpt><trkpt lat="43.7972775" lon="11.3545262"><ele>234.99999999999997</ele><time>2026-04-11T11:16:30.584Z</time></trkpt><trkpt lat="43.7973778" lon="11.3546088"><ele>235.0</ele><time>2026-04-11T11:16:32.586Z</time></trkpt><trkpt lat="43.7974345" lon="11.3546487"><ele>235.0</ele><time>2026-04-11T11:16:33.586Z</time></trkpt><trkpt lat="43.7974994" lon="11.3547148"><ele>235.0</ele><time>2026-04-11T11:16:35.586Z</time></trkpt><trkpt lat="43.7975362" lon="11.3547951"><ele>234.99999999999997</ele><time>2026-04-11T11:16:37.585Z</time></trkpt><trkpt lat="43.7975551" lon="11.3548907"><ele>235.0</ele><time>2026-04-11T11:16:39.586Z</time></trkpt><trkpt lat="43.7975365" lon="11.3549899"><ele>233.16666666666666</ele><time>2026-04-11T11:16:41.586Z</time></trkpt><trkpt lat="43.7974439" lon="11.3551105"><ele>231.33333333333331</ele><time>2026-04-11T11:16:43.586Z</time></trkpt><trkpt lat="43.7973736" lon="11.355204"><ele>229.5</ele><time>2026-04-11T11:16:45.586Z</time></trkpt><trkpt lat="43.7973155" lon="11.3552716"><ele>227.66666666666669</ele><time>2026-04-11T11:16:47.586Z</time></trkpt><trkpt lat="43.7972719" lon="11.3553373"><ele>225.83333333333334</ele><time>2026-04-11T11:16:49.584Z</time></trkpt><trkpt lat="43.797234" lon="11.3554239"><ele>224.0</ele><time>2026-04-11T11:16:52.585Z</time></trkpt><trkpt lat="43.7973161" lon="11.355439"><ele>224.0</ele><time>2026-04-11T11:16:56.585Z</time></trkpt><trkpt lat="43.7974283" lon="11.3553612"><ele>223.99999999999997</ele><time>2026-04-11T11:16:59.585Z</time></trkpt><trkpt lat="43.7974977" lon="11.3553048"><ele>223.99999999999997</ele><time>2026-04-11T11:17:01.585Z</time></trkpt><trkpt lat="43.7975806" lon="11.3552352"><ele>224.0</ele><time>2026-04-11T11:17:03.585Z</time></trkpt><trkpt lat="43.7976516" lon="11.355188"><ele>224.0</ele><time>2026-04-11T11:17:06.584Z</time></trkpt><trkpt lat="43.7976664" lon="11.3552804"><ele>224.00000000000003</ele><time>2026-04-11T11:17:21.585Z</time></trkpt><trkpt lat="43.7976436" lon="11.3553644"><ele>224.0</ele><time>2026-04-11T11:17:22.586Z</time></trkpt><trkpt lat="43.7975993" lon="11.3554973"><ele>224.0</ele><time>2026-04-11T11:17:24.586Z</time></trkpt><trkpt lat="43.7975733" lon="11.3556498"><ele>224.0</ele><time>2026-04-11T11:17:25.584Z</time></trkpt><trkpt lat="43.7975499" lon="11.3557579"><ele>224.00000000000003</ele><time>2026-04-11T11:17:26.586Z</time></trkpt><trkpt lat="43.797509" lon="11.3558323"><ele>224.0</ele><time>2026-04-11T11:17:28.586Z</time></trkpt><trkpt lat="43.7974648" lon="11.3559496"><ele>223.0</ele><time>2026-04-11T11:17:30.586Z</time></trkpt><trkpt lat="43.7974173" lon="11.3560979"><ele>221.99999999999997</ele><time>2026-04-11T11:17:32.586Z</time></trkpt><trkpt lat="43.7973513" lon="11.3562319"><ele>220.99999999999997</ele><time>2026-04-11T11:17:34.586Z</time></trkpt><trkpt lat="43.7972802" lon="11.3562851"><ele>220.0</ele><time>2026-04-11T11:17:36.585Z</time></trkpt><trkpt lat="43.7971975" lon="11.356354"><ele>219.0</ele><time>2026-04-11T11:17:38.585Z</time></trkpt><trkpt lat="43.7971103" lon="11.3564045"><ele>219.0</ele><time>2026-04-11T11:17:39.586Z</time></trkpt><trkpt lat="43.7970327" lon="11.3564718"><ele>218.99999999999997</ele><time>2026-04-11T11:17:40.585Z</time></trkpt><trkpt lat="43.7969297" lon="11.3564978"><ele>218.99999999999997</ele><time>2026-04-11T11:17:41.586Z</time></trkpt><trkpt lat="43.7968379" lon="11.3565332"><ele>219.0</ele><time>2026-04-11T11:17:42.586Z</time></trkpt><trkpt lat="43.796749" lon="11.3565784"><ele>219.0</ele><time>2026-04-11T11:17:43.586Z</time></trkpt><trkpt lat="43.7966634" lon="11.3566217"><ele>219.0</ele><time>2026-04-11T11:17:44.586Z</time></trkpt><trkpt lat="43.7965957" lon="11.3566687"><ele>219.0</ele><time>2026-04-11T11:17:45.586Z</time></trkpt><trkpt lat="43.796526" lon="11.3566897"><ele>219.0</ele><time>2026-04-11T11:17:46.585Z</time></trkpt><trkpt lat="43.7964448" lon="11.3567185"><ele>219.0</ele><time>2026-04-11T11:17:47.585Z</time></trkpt><trkpt lat="43.7963713" lon="11.3567659"><ele>219.0</ele><time>2026-04-11T11:17:48.586Z</time></trkpt><trkpt lat="43.7962847" lon="11.3567905"><ele>219.0</ele><time>2026-04-11T11:17:49.586Z</time></trkpt><trkpt lat="43.7962116" lon="11.3568066"><ele>219.0</ele><time>2026-04-11T11:17:50.585Z</time></trkpt><trkpt lat="43.7961022" lon="11.356785"><ele>218.99999999999997</ele><time>2026-04-11T11:17:51.586Z</time></trkpt><trkpt lat="43.7960046" lon="11.3568022"><ele>218.99999999999997</ele><time>2026-04-11T11:17:52.584Z</time></trkpt><trkpt lat="43.7959223" lon="11.3568332"><ele>219.0</ele><time>2026-04-11T11:17:53.585Z</time></trkpt><trkpt lat="43.7958366" lon="11.3568642"><ele>219.0</ele><time>2026-04-11T11:17:54.585Z</time></trkpt><trkpt lat="43.7957571" lon="11.3569277"><ele>217.33333333333334</ele><time>2026-04-11T11:17:56.586Z</time></trkpt><trkpt lat="43.7956871" lon="11.3569509"><ele>215.66666666666669</ele><time>2026-04-11T11:17:58.586Z</time></trkpt><trkpt lat="43.7956162" lon="11.3569988"><ele>214.0</ele><time>2026-04-11T11:18:00.586Z</time></trkpt><trkpt lat="43.7955337" lon="11.3570328"><ele>212.33333333333334</ele><time>2026-04-11T11:18:02.586Z</time></trkpt><trkpt lat="43.7954935" lon="11.3571234"><ele>210.66666666666669</ele><time>2026-04-11T11:18:04.586Z</time></trkpt><trkpt lat="43.7954584" lon="11.3572117"><ele>209.0</ele><time>2026-04-11T11:18:06.586Z</time></trkpt><trkpt lat="43.7954268" lon="11.3573035"><ele>208.50000000000003</ele><time>2026-04-11T11:18:08.585Z</time></trkpt><trkpt lat="43.7953627" lon="11.3574082"><ele>208.0</ele><time>2026-04-11T11:18:10.585Z</time></trkpt><trkpt lat="43.795271" lon="11.3574829"><ele>207.5</ele><time>2026-04-11T11:18:12.586Z</time></trkpt><trkpt lat="43.7952104" lon="11.3575412"><ele>207.0</ele><time>2026-04-11T11:18:13.586Z</time></trkpt><trkpt lat="43.7951572" lon="11.3576005"><ele>206.50000000000003</ele><time>2026-04-11T11:18:14.585Z</time></trkpt><trkpt lat="43.7950991" lon="11.3576624"><ele>206.0</ele><time>2026-04-11T11:18:15.586Z</time></trkpt><trkpt lat="43.7950458" lon="11.3577185"><ele>206.0</ele><time>2026-04-11T11:18:16.585Z</time></trkpt><trkpt lat="43.7949961" lon="11.3577732"><ele>206.0</ele><time>2026-04-11T11:18:17.585Z</time></trkpt><trkpt lat="43.7949136" lon="11.3578702"><ele>206.0</ele><time>2026-04-11T11:18:19.586Z</time></trkpt><trkpt lat="43.7948203" lon="11.3579745"><ele>206.0</ele><time>2026-04-11T11:18:21.586Z</time></trkpt><trkpt lat="43.7947391" lon="11.358063"><ele>206.0</ele><time>2026-04-11T11:18:23.586Z</time></trkpt><trkpt lat="43.7946692" lon="11.3581429"><ele>204.66666666666669</ele><time>2026-04-11T11:18:25.585Z</time></trkpt><trkpt lat="43.7946203" lon="11.3581998"><ele>203.33333333333334</ele><time>2026-04-11T11:18:27.585Z</time></trkpt><trkpt lat="43.7945679" lon="11.3582602"><ele>202.0</ele><time>2026-04-11T11:18:47.585Z</time></trkpt><trkpt lat="43.7945087" lon="11.3583305"><ele>200.66666666666669</ele><time>2026-04-11T11:18:49.585Z</time></trkpt><trkpt lat="43.7944376" lon="11.3584127"><ele>199.33333333333334</ele><time>2026-04-11T11:18:51.586Z</time></trkpt><trkpt lat="43.7943485" lon="11.3585242"><ele>198.0</ele><time>2026-04-11T11:18:53.586Z</time></trkpt><trkpt lat="43.7942937" lon="11.3585919"><ele>198.0</ele><time>2026-04-11T11:18:54.586Z</time></trkpt><trkpt lat="43.7942359" lon="11.3586486"><ele>198.0</ele><time>2026-04-11T11:18:55.585Z</time></trkpt><trkpt lat="43.7941491" lon="11.3587624"><ele>198.0</ele><time>2026-04-11T11:18:57.586Z</time></trkpt><trkpt lat="43.7940541" lon="11.358866"><ele>198.0</ele><time>2026-04-11T11:18:59.586Z</time></trkpt><trkpt lat="43.7939507" lon="11.3589351"><ele>198.0</ele><time>2026-04-11T11:19:01.586Z</time></trkpt><trkpt lat="43.7938464" lon="11.3589751"><ele>197.0</ele><time>2026-04-11T11:19:03.585Z</time></trkpt><trkpt lat="43.7937473" lon="11.3590175"><ele>196.0</ele><time>2026-04-11T11:19:05.586Z</time></trkpt><trkpt lat="43.7936288" lon="11.3590556"><ele>195.0</ele><time>2026-04-11T11:19:07.586Z</time></trkpt><trkpt lat="43.7935649" lon="11.3590717"><ele>194.0</ele><time>2026-04-11T11:19:08.586Z</time></trkpt><trkpt lat="43.7934963" lon="11.3590894"><ele>193.0</ele><time>2026-04-11T11:19:09.586Z</time></trkpt><trkpt lat="43.7934294" lon="11.3591077"><ele>192.0</ele><time>2026-04-11T11:19:10.585Z</time></trkpt><trkpt lat="43.7933578" lon="11.3591116"><ele>192.0</ele><time>2026-04-11T11:19:11.586Z</time></trkpt><trkpt lat="43.7932779" lon="11.3591054"><ele>192.0</ele><time>2026-04-11T11:19:12.586Z</time></trkpt><trkpt lat="43.7931966" lon="11.3590893"><ele>192.0</ele><time>2026-04-11T11:19:13.586Z</time></trkpt><trkpt lat="43.7931165" lon="11.3590732"><ele>192.0</ele><time>2026-04-11T11:19:14.586Z</time></trkpt><trkpt lat="43.7930412" lon="11.3590564"><ele>192.0</ele><time>2026-04-11T11:19:15.585Z</time></trkpt><trkpt lat="43.7929641" lon="11.3590418"><ele>192.0</ele><time>2026-04-11T11:19:16.586Z</time></trkpt><trkpt lat="43.7928972" lon="11.3590349"><ele>192.0</ele><time>2026-04-11T11:19:17.586Z</time></trkpt><trkpt lat="43.7928214" lon="11.359031"><ele>192.0</ele><time>2026-04-11T11:19:18.586Z</time></trkpt><trkpt lat="43.7927466" lon="11.3590315"><ele>192.0</ele><time>2026-04-11T11:19:19.585Z</time></trkpt><trkpt lat="43.792681" lon="11.3590369"><ele>192.0</ele><time>2026-04-11T11:19:20.585Z</time></trkpt><trkpt lat="43.7925952" lon="11.3590509"><ele>192.0</ele><time>2026-04-11T11:19:22.586Z</time></trkpt><trkpt lat="43.792524" lon="11.3590715"><ele>192.0</ele><time>2026-04-11T11:19:24.586Z</time></trkpt><trkpt lat="43.7924491" lon="11.3591308"><ele>191.83333333333334</ele><time>2026-04-11T11:19:26.586Z</time></trkpt><trkpt lat="43.7923876" lon="11.3592441"><ele>191.66666666666666</ele><time>2026-04-11T11:19:28.586Z</time></trkpt><trkpt lat="43.7923121" lon="11.359372"><ele>191.5</ele><time>2026-04-11T11:19:30.586Z</time></trkpt><trkpt lat="43.792275" lon="11.3594445"><ele>191.33333333333331</ele><time>2026-04-11T11:19:31.586Z</time></trkpt><trkpt lat="43.7922304" lon="11.3595119"><ele>191.16666666666666</ele><time>2026-04-11T11:19:32.586Z</time></trkpt><trkpt lat="43.7921898" lon="11.3595869"><ele>191.0</ele><time>2026-04-11T11:19:33.586Z</time></trkpt><trkpt lat="43.7921175" lon="11.3597088"><ele>191.0</ele><time>2026-04-11T11:19:35.586Z</time></trkpt><trkpt lat="43.7920391" lon="11.3598293"><ele>191.0</ele><time>2026-04-11T11:19:37.586Z</time></trkpt><trkpt lat="43.7919888" lon="11.3598986"><ele>191.0</ele><time>2026-04-11T11:19:38.586Z</time></trkpt><trkpt lat="43.7919298" lon="11.359969"><ele>191.0</ele><time>2026-04-11T11:19:39.586Z</time></trkpt><trkpt lat="43.7918628" lon="11.3600396"><ele>191.0</ele><time>2026-04-11T11:19:40.585Z</time></trkpt><trkpt lat="43.7917924" lon="11.3601025"><ele>191.0</ele><time>2026-04-11T11:19:41.586Z</time></trkpt><trkpt lat="43.7917201" lon="11.3601656"><ele>191.0</ele><time>2026-04-11T11:19:42.586Z</time></trkpt><trkpt lat="43.7916461" lon="11.3602204"><ele>191.0</ele><time>2026-04-11T11:19:43.586Z</time></trkpt><trkpt lat="43.7915683" lon="11.3602653"><ele>191.0</ele><time>2026-04-11T11:19:44.585Z</time></trkpt><trkpt lat="43.7914906" lon="11.3603085"><ele>191.0</ele><time>2026-04-11T11:19:45.585Z</time></trkpt><trkpt lat="43.7914145" lon="11.3603531"><ele>191.0</ele><time>2026-04-11T11:19:46.585Z</time></trkpt><trkpt lat="43.7913479" lon="11.3603879"><ele>191.0</ele><time>2026-04-11T11:19:47.586Z</time></trkpt><trkpt lat="43.7912308" lon="11.3604472"><ele>191.0</ele><time>2026-04-11T11:19:49.585Z</time></trkpt><trkpt lat="43.7911663" lon="11.3604792"><ele>191.0</ele><time>2026-04-11T11:19:50.584Z</time></trkpt><trkpt lat="43.7911044" lon="11.3605072"><ele>191.0</ele><time>2026-04-11T11:19:51.586Z</time></trkpt><trkpt lat="43.7909789" lon="11.3605573"><ele>191.0</ele><time>2026-04-11T11:19:53.586Z</time></trkpt><trkpt lat="43.7909129" lon="11.3605814"><ele>191.0</ele><time>2026-04-11T11:19:54.586Z</time></trkpt><trkpt lat="43.7908468" lon="11.3606048"><ele>191.0</ele><time>2026-04-11T11:19:55.586Z</time></trkpt><trkpt lat="43.7907813" lon="11.3606262"><ele>192.0</ele><time>2026-04-11T11:19:56.586Z</time></trkpt><trkpt lat="43.790718" lon="11.3606458"><ele>193.0</ele><time>2026-04-11T11:19:57.586Z</time></trkpt><trkpt lat="43.7906031" lon="11.3606809"><ele>194.0</ele><time>2026-04-11T11:19:59.585Z</time></trkpt><trkpt lat="43.7904992" lon="11.360717"><ele>195.0</ele><time>2026-04-11T11:20:01.585Z</time></trkpt><trkpt lat="43.7904063" lon="11.3607646"><ele>196.0</ele><time>2026-04-11T11:20:03.586Z</time></trkpt><trkpt lat="43.7903423" lon="11.3608266"><ele>196.0</ele><time>2026-04-11T11:20:05.586Z</time></trkpt><trkpt lat="43.7903051" lon="11.3609049"><ele>196.0</ele><time>2026-04-11T11:20:06.585Z</time></trkpt><trkpt lat="43.7902244" lon="11.3610134"><ele>196.0</ele><time>2026-04-11T11:20:08.586Z</time></trkpt><trkpt lat="43.7901611" lon="11.3611207"><ele>196.0</ele><time>2026-04-11T11:20:10.585Z</time></trkpt><trkpt lat="43.7901253" lon="11.3612678"><ele>196.0</ele><time>2026-04-11T11:20:12.586Z</time></trkpt><trkpt lat="43.7900947" lon="11.3613664"><ele>193.16666666666666</ele><time>2026-04-11T11:20:14.585Z</time></trkpt><trkpt lat="43.7900182" lon="11.361351"><ele>190.33333333333331</ele><time>2026-04-11T11:20:17.586Z</time></trkpt><trkpt lat="43.7900242" lon="11.3612157"><ele>187.5</ele><time>2026-04-11T11:20:19.585Z</time></trkpt><trkpt lat="43.7900366" lon="11.3611253"><ele>184.66666666666666</ele><time>2026-04-11T11:20:20.585Z</time></trkpt><trkpt lat="43.7900433" lon="11.3609554"><ele>181.83333333333331</ele><time>2026-04-11T11:20:22.586Z</time></trkpt><trkpt lat="43.7900608" lon="11.3608531"><ele>179.0</ele><time>2026-04-11T11:20:23.586Z</time></trkpt><trkpt lat="43.7900766" lon="11.3607464"><ele>179.0</ele><time>2026-04-11T11:20:24.586Z</time></trkpt><trkpt lat="43.7900798" lon="11.3606433"><ele>179.0</ele><time>2026-04-11T11:20:25.585Z</time></trkpt><trkpt lat="43.7900903" lon="11.3605391"><ele>179.0</ele><time>2026-04-11T11:20:26.585Z</time></trkpt><trkpt lat="43.7900939" lon="11.360438"><ele>179.0</ele><time>2026-04-11T11:20:27.586Z</time></trkpt><trkpt lat="43.790123" lon="11.3602985"><ele>179.0</ele><time>2026-04-11T11:20:29.586Z</time></trkpt><trkpt lat="43.7901461" lon="11.3601859"><ele>179.0</ele><time>2026-04-11T11:20:31.586Z</time></trkpt><trkpt lat="43.7901115" lon="11.3600974"><ele>179.0</ele><time>2026-04-11T11:20:33.585Z</time></trkpt><trkpt lat="43.7900451" lon="11.3600841"><ele>179.0</ele><time>2026-04-11T11:20:35.586Z</time></trkpt><trkpt lat="43.7899853" lon="11.360274"><ele>179.0</ele><time>2026-04-11T11:20:37.586Z</time></trkpt><trkpt lat="43.7899496" lon="11.3604691"><ele>179.0</ele><time>2026-04-11T11:20:39.585Z</time></trkpt><trkpt lat="43.7898973" lon="11.3605528"><ele>179.0</ele><time>2026-04-11T11:20:40.586Z</time></trkpt><trkpt lat="43.7898045" lon="11.3606808"><ele>179.0</ele><time>2026-04-11T11:20:42.586Z</time></trkpt><trkpt lat="43.7897602" lon="11.3607707"><ele>179.0</ele><time>2026-04-11T11:20:43.586Z</time></trkpt><trkpt lat="43.7897177" lon="11.3608456"><ele>179.0</ele><time>2026-04-11T11:20:44.586Z</time></trkpt><trkpt lat="43.7896179" lon="11.3609469"><ele>179.0</ele><time>2026-04-11T11:20:46.586Z</time></trkpt><trkpt lat="43.789552" lon="11.361087"><ele>179.0</ele><time>2026-04-11T11:20:48.585Z</time></trkpt><trkpt lat="43.7895122" lon="11.3612363"><ele>179.0</ele><time>2026-04-11T11:20:50.586Z</time></trkpt><trkpt lat="43.7894833" lon="11.3613526"><ele>179.0</ele><time>2026-04-11T11:20:51.586Z</time></trkpt><trkpt lat="43.7894636" lon="11.3614761"><ele>179.0</ele><time>2026-04-11T11:20:52.585Z</time></trkpt><trkpt lat="43.7894351" lon="11.3616134"><ele>179.0</ele><time>2026-04-11T11:20:53.585Z</time></trkpt><trkpt lat="43.7894147" lon="11.3617509"><ele>179.0</ele><time>2026-04-11T11:20:54.586Z</time></trkpt><trkpt lat="43.7894025" lon="11.3618838"><ele>179.16666666666666</ele><time>2026-04-11T11:20:55.585Z</time></trkpt><trkpt lat="43.7893912" lon="11.3620124"><ele>179.33333333333331</ele><time>2026-04-11T11:20:56.586Z</time></trkpt><trkpt lat="43.7893776" lon="11.3621281"><ele>179.5</ele><time>2026-04-11T11:20:57.586Z</time></trkpt><trkpt lat="43.7893666" lon="11.3622404"><ele>179.66666666666666</ele><time>2026-04-11T11:20:58.585Z</time></trkpt><trkpt lat="43.7893594" lon="11.3623565"><ele>179.83333333333334</ele><time>2026-04-11T11:20:59.586Z</time></trkpt><trkpt lat="43.7893522" lon="11.3624719"><ele>180.0</ele><time>2026-04-11T11:21:00.586Z</time></trkpt><trkpt lat="43.7893332" lon="11.3625889"><ele>174.2</ele><time>2026-04-11T11:21:01.586Z</time></trkpt><trkpt lat="43.7893051" lon="11.362711"><ele>168.4</ele><time>2026-04-11T11:21:02.586Z</time></trkpt><trkpt lat="43.7892701" lon="11.3628338"><ele>162.6</ele><time>2026-04-11T11:21:03.586Z</time></trkpt><trkpt lat="43.789233" lon="11.3629487"><ele>156.8</ele><time>2026-04-11T11:21:04.585Z</time></trkpt><trkpt lat="43.7891942" lon="11.36307"><ele>151.0</ele><time>2026-04-11T11:21:05.586Z</time></trkpt><trkpt lat="43.7891468" lon="11.3631885"><ele>150.4</ele><time>2026-04-11T11:21:06.586Z</time></trkpt><trkpt lat="43.7890803" lon="11.3632842"><ele>149.8</ele><time>2026-04-11T11:21:07.586Z</time></trkpt><trkpt lat="43.7890028" lon="11.3633489"><ele>149.20000000000002</ele><time>2026-04-11T11:21:08.585Z</time></trkpt><trkpt lat="43.7889278" lon="11.3634132"><ele>148.6</ele><time>2026-04-11T11:21:09.586Z</time></trkpt><trkpt lat="43.7888467" lon="11.3634782"><ele>148.0</ele><time>2026-04-11T11:21:10.586Z</time></trkpt><trkpt lat="43.7887662" lon="11.3635452"><ele>148.0</ele><time>2026-04-11T11:21:11.586Z</time></trkpt><trkpt lat="43.7886847" lon="11.3636124"><ele>148.0</ele><time>2026-04-11T11:21:12.585Z</time></trkpt><trkpt lat="43.7886061" lon="11.3636769"><ele>148.0</ele><time>2026-04-11T11:21:13.586Z</time></trkpt><trkpt lat="43.7885297" lon="11.3637355"><ele>148.0</ele><time>2026-04-11T11:21:14.585Z</time></trkpt><trkpt lat="43.7884602" lon="11.3637933"><ele>148.0</ele><time>2026-04-11T11:21:15.586Z</time></trkpt><trkpt lat="43.7883912" lon="11.3638523"><ele>148.0</ele><time>2026-04-11T11:21:16.586Z</time></trkpt><trkpt lat="43.7883228" lon="11.3639096"><ele>143.8</ele><time>2026-04-11T11:21:17.585Z</time></trkpt><trkpt lat="43.7882613" lon="11.3639565"><ele>139.60000000000002</ele><time>2026-04-11T11:21:18.586Z</time></trkpt><trkpt lat="43.7882047" lon="11.3640008"><ele>135.39999999999998</ele><time>2026-04-11T11:21:19.586Z</time></trkpt><trkpt lat="43.7880961" lon="11.3640863"><ele>131.2</ele><time>2026-04-11T11:21:21.586Z</time></trkpt><trkpt lat="43.7879896" lon="11.3641723"><ele>127.0</ele><time>2026-04-11T11:21:23.586Z</time></trkpt><trkpt lat="43.7879056" lon="11.3642536"><ele>127.0</ele><time>2026-04-11T11:21:25.586Z</time></trkpt><trkpt lat="43.7879499" lon="11.364374"><ele>126.99999999999999</ele><time>2026-04-11T11:21:28.586Z</time></trkpt><trkpt lat="43.7880249" lon="11.3645216"><ele>126.99999999999999</ele><time>2026-04-11T11:21:30.586Z</time></trkpt><trkpt lat="43.7880558" lon="11.3646265"><ele>127.0</ele><time>2026-04-11T11:21:31.586Z</time></trkpt><trkpt lat="43.7880819" lon="11.3647368"><ele>127.0</ele><time>2026-04-11T11:21:32.586Z</time></trkpt><trkpt lat="43.7881077" lon="11.3648462"><ele>125.83333333333334</ele><time>2026-04-11T11:21:33.586Z</time></trkpt><trkpt lat="43.7881313" lon="11.3649571"><ele>124.66666666666667</ele><time>2026-04-11T11:21:34.585Z</time></trkpt><trkpt lat="43.7881583" lon="11.3650679"><ele>123.5</ele><time>2026-04-11T11:21:35.586Z</time></trkpt><trkpt lat="43.7881822" lon="11.365176"><ele>122.33333333333334</ele><time>2026-04-11T11:21:36.585Z</time></trkpt><trkpt lat="43.7881872" lon="11.3652787"><ele>121.16666666666667</ele><time>2026-04-11T11:21:37.586Z</time></trkpt><trkpt lat="43.7881751" lon="11.3653843"><ele>120.0</ele><time>2026-04-11T11:21:38.586Z</time></trkpt><trkpt lat="43.7881602" lon="11.365496"><ele>120.16666666666667</ele><time>2026-04-11T11:21:39.586Z</time></trkpt><trkpt lat="43.7881559" lon="11.3656181"><ele>120.33333333333334</ele><time>2026-04-11T11:21:40.585Z</time></trkpt><trkpt lat="43.7881547" lon="11.36574"><ele>120.5</ele><time>2026-04-11T11:21:41.585Z</time></trkpt><trkpt lat="43.7881537" lon="11.3658615"><ele>120.66666666666667</ele><time>2026-04-11T11:21:42.584Z</time></trkpt><trkpt lat="43.7881485" lon="11.3659861"><ele>120.83333333333334</ele><time>2026-04-11T11:21:43.586Z</time></trkpt><trkpt lat="43.7881369" lon="11.3660984"><ele>121.0</ele><time>2026-04-11T11:21:44.585Z</time></trkpt><trkpt lat="43.7881206" lon="11.3662128"><ele>121.00000000000001</ele><time>2026-04-11T11:21:45.585Z</time></trkpt><trkpt lat="43.7880976" lon="11.3663362"><ele>121.0</ele><time>2026-04-11T11:21:46.585Z</time></trkpt><trkpt lat="43.7880671" lon="11.3664617"><ele>121.0</ele><time>2026-04-11T11:21:47.585Z</time></trkpt><trkpt lat="43.7880251" lon="11.3665672"><ele>121.0</ele><time>2026-04-11T11:21:48.586Z</time></trkpt><trkpt lat="43.7879748" lon="11.3666551"><ele>121.00000000000001</ele><time>2026-04-11T11:21:49.585Z</time></trkpt><trkpt lat="43.787937" lon="11.3667567"><ele>121.0</ele><time>2026-04-11T11:21:50.586Z</time></trkpt><trkpt lat="43.7879058" lon="11.3668793"><ele>121.16666666666667</ele><time>2026-04-11T11:21:51.586Z</time></trkpt><trkpt lat="43.7878789" lon="11.3670084"><ele>121.33333333333334</ele><time>2026-04-11T11:21:52.586Z</time></trkpt><trkpt lat="43.7878538" lon="11.3671309"><ele>121.5</ele><time>2026-04-11T11:21:53.586Z</time></trkpt><trkpt lat="43.7878265" lon="11.3672494"><ele>121.66666666666666</ele><time>2026-04-11T11:21:54.586Z</time></trkpt><trkpt lat="43.7877987" lon="11.3673535"><ele>121.83333333333333</ele><time>2026-04-11T11:21:55.586Z</time></trkpt><trkpt lat="43.7877755" lon="11.3674444"><ele>122.0</ele><time>2026-04-11T11:21:56.586Z</time></trkpt><trkpt lat="43.7877443" lon="11.367581"><ele>121.49999999999999</ele><time>2026-04-11T11:21:58.586Z</time></trkpt><trkpt lat="43.7877175" lon="11.3676674"><ele>121.0</ele><time>2026-04-11T11:22:00.586Z</time></trkpt><trkpt lat="43.7877082" lon="11.3678084"><ele>120.5</ele><time>2026-04-11T11:22:03.586Z</time></trkpt><trkpt lat="43.7877353" lon="11.3679002"><ele>120.0</ele><time>2026-04-11T11:22:04.584Z</time></trkpt><trkpt lat="43.7877653" lon="11.367995"><ele>119.49999999999999</ele><time>2026-04-11T11:22:05.586Z</time></trkpt><trkpt lat="43.7878044" lon="11.3681057"><ele>119.0</ele><time>2026-04-11T11:22:06.586Z</time></trkpt><trkpt lat="43.7878454" lon="11.3682225"><ele>118.6</ele><time>2026-04-11T11:22:07.586Z</time></trkpt><trkpt lat="43.7878953" lon="11.3683523"><ele>118.2</ele><time>2026-04-11T11:22:08.586Z</time></trkpt><trkpt lat="43.7879468" lon="11.3684883"><ele>117.79999999999998</ele><time>2026-04-11T11:22:09.586Z</time></trkpt><trkpt lat="43.7879972" lon="11.3686011"><ele>117.39999999999999</ele><time>2026-04-11T11:22:10.586Z</time></trkpt><trkpt lat="43.7880465" lon="11.368674"><ele>117.0</ele><time>2026-04-11T11:22:11.585Z</time></trkpt><trkpt lat="43.7880929" lon="11.3687605"><ele>117.0</ele><time>2026-04-11T11:22:12.586Z</time></trkpt><trkpt lat="43.7881595" lon="11.368815"><ele>116.99999999999999</ele><time>2026-04-11T11:22:14.586Z</time></trkpt><trkpt lat="43.7882514" lon="11.3689233"><ele>116.99999999999999</ele><time>2026-04-11T11:22:16.586Z</time></trkpt><trkpt lat="43.7883095" lon="11.3690148"><ele>117.0</ele><time>2026-04-11T11:22:18.586Z</time></trkpt><trkpt lat="43.7883775" lon="11.3690966"><ele>117.0</ele><time>2026-04-11T11:22:21.586Z</time></trkpt><trkpt lat="43.7884441" lon="11.3691692"><ele>117.6</ele><time>2026-04-11T11:22:23.586Z</time></trkpt><trkpt lat="43.7885018" lon="11.3692337"><ele>118.19999999999999</ele><time>2026-04-11T11:22:28.585Z</time></trkpt><trkpt lat="43.78862" lon="11.3693553"><ele>118.8</ele><time>2026-04-11T11:22:30.585Z</time></trkpt><trkpt lat="43.7886967" lon="11.3694504"><ele>119.4</ele><time>2026-04-11T11:22:31.586Z</time></trkpt><trkpt lat="43.7887728" lon="11.3695818"><ele>120.0</ele><time>2026-04-11T11:22:32.585Z</time></trkpt><trkpt lat="43.7888443" lon="11.3697045"><ele>120.0</ele><time>2026-04-11T11:22:33.586Z</time></trkpt><trkpt lat="43.7889055" lon="11.3698145"><ele>120.0</ele><time>2026-04-11T11:22:34.586Z</time></trkpt><trkpt lat="43.7889582" lon="11.3699127"><ele>120.0</ele><time>2026-04-11T11:22:35.586Z</time></trkpt><trkpt lat="43.7889989" lon="11.369991"><ele>120.0</ele><time>2026-04-11T11:22:36.585Z</time></trkpt><trkpt lat="43.7890404" lon="11.3700908"><ele>120.0</ele><time>2026-04-11T11:22:38.586Z</time></trkpt><trkpt lat="43.7889945" lon="11.3701581"><ele>120.0</ele><time>2026-04-11T11:23:16.586Z</time></trkpt><trkpt lat="43.7889229" lon="11.3702286"><ele>120.0</ele><time>2026-04-11T11:23:18.586Z</time></trkpt><trkpt lat="43.7888651" lon="11.3702908"><ele>120.0</ele><time>2026-04-11T11:23:19.586Z</time></trkpt><trkpt lat="43.7887925" lon="11.3703677"><ele>120.0</ele><time>2026-04-11T11:23:20.586Z</time></trkpt><trkpt lat="43.7887161" lon="11.3704459"><ele>120.0</ele><time>2026-04-11T11:23:21.586Z</time></trkpt><trkpt lat="43.788644" lon="11.3705189"><ele>120.0</ele><time>2026-04-11T11:23:22.586Z</time></trkpt><trkpt lat="43.7885781" lon="11.3705919"><ele>120.0</ele><time>2026-04-11T11:23:23.586Z</time></trkpt><trkpt lat="43.7885131" lon="11.3706587"><ele>118.16666666666667</ele><time>2026-04-11T11:23:24.585Z</time></trkpt><trkpt lat="43.7884602" lon="11.3707216"><ele>116.33333333333334</ele><time>2026-04-11T11:23:25.586Z</time></trkpt><trkpt lat="43.7883744" lon="11.3708116"><ele>114.5</ele><time>2026-04-11T11:23:27.586Z</time></trkpt><trkpt lat="43.7882986" lon="11.3708814"><ele>112.66666666666667</ele><time>2026-04-11T11:23:29.586Z</time></trkpt><trkpt lat="43.7882303" lon="11.3709461"><ele>110.83333333333334</ele><time>2026-04-11T11:23:31.586Z</time></trkpt><trkpt lat="43.7881695" lon="11.3710047"><ele>109.0</ele><time>2026-04-11T11:23:33.586Z</time></trkpt><trkpt lat="43.7881066" lon="11.3710454"><ele>109.00000000000001</ele><time>2026-04-11T11:23:35.586Z</time></trkpt><trkpt lat="43.7880272" lon="11.3710868"><ele>109.0</ele><time>2026-04-11T11:23:37.586Z</time></trkpt><trkpt lat="43.7879098" lon="11.3711276"><ele>109.0</ele><time>2026-04-11T11:23:39.585Z</time></trkpt><trkpt lat="43.7878473" lon="11.3711593"><ele>109.0</ele><time>2026-04-11T11:23:40.586Z</time></trkpt><trkpt lat="43.7877825" lon="11.3711831"><ele>109.00000000000001</ele><time>2026-04-11T11:23:41.585Z</time></trkpt><trkpt lat="43.7877144" lon="11.37121"><ele>109.0</ele><time>2026-04-11T11:23:42.586Z</time></trkpt><trkpt lat="43.7876444" lon="11.3712338"><ele>107.57142857142857</ele><time>2026-04-11T11:23:43.586Z</time></trkpt><trkpt lat="43.787575" lon="11.3712619"><ele>106.14285714285714</ele><time>2026-04-11T11:23:44.586Z</time></trkpt><trkpt lat="43.7875036" lon="11.37129"><ele>104.71428571428572</ele><time>2026-04-11T11:23:45.586Z</time></trkpt><trkpt lat="43.7874315" lon="11.3713148"><ele>103.28571428571428</ele><time>2026-04-11T11:23:46.584Z</time></trkpt><trkpt lat="43.7873615" lon="11.3713462"><ele>101.85714285714285</ele><time>2026-04-11T11:23:47.586Z</time></trkpt><trkpt lat="43.7872989" lon="11.3713833"><ele>100.42857142857143</ele><time>2026-04-11T11:23:48.586Z</time></trkpt><trkpt lat="43.7872437" lon="11.3714301"><ele>99.0</ele><time>2026-04-11T11:23:49.585Z</time></trkpt><trkpt lat="43.7871989" lon="11.3714927"><ele>97.83333333333333</ele><time>2026-04-11T11:23:50.586Z</time></trkpt><trkpt lat="43.7871466" lon="11.3716463"><ele>96.66666666666667</ele><time>2026-04-11T11:23:52.586Z</time></trkpt><trkpt lat="43.7871264" lon="11.3717438"><ele>95.5</ele><time>2026-04-11T11:23:53.586Z</time></trkpt><trkpt lat="43.7871114" lon="11.3718493"><ele>94.33333333333334</ele><time>2026-04-11T11:23:54.586Z</time></trkpt><trkpt lat="43.787099" lon="11.371944"><ele>93.16666666666667</ele><time>2026-04-11T11:23:55.586Z</time></trkpt><trkpt lat="43.787085" lon="11.3720366"><ele>92.0</ele><time>2026-04-11T11:23:56.585Z</time></trkpt><trkpt lat="43.7870688" lon="11.3721786"><ele>91.57142857142857</ele><time>2026-04-11T11:23:58.586Z</time></trkpt><trkpt lat="43.7870738" lon="11.3722675"><ele>91.14285714285714</ele><time>2026-04-11T11:24:01.585Z</time></trkpt><trkpt lat="43.7871047" lon="11.3723497"><ele>90.71428571428571</ele><time>2026-04-11T11:24:05.585Z</time></trkpt><trkpt lat="43.7871822" lon="11.3723495"><ele>90.28571428571428</ele><time>2026-04-11T11:24:42.586Z</time></trkpt><trkpt lat="43.7872471" lon="11.3723586"><ele>89.85714285714286</ele><time>2026-04-11T11:24:43.585Z</time></trkpt><trkpt lat="43.7873543" lon="11.3723596"><ele>89.42857142857142</ele><time>2026-04-11T11:24:45.586Z</time></trkpt><trkpt lat="43.7874172" lon="11.372364"><ele>89.0</ele><time>2026-04-11T11:24:46.586Z</time></trkpt><trkpt lat="43.7875033" lon="11.3723815"><ele>89.0</ele><time>2026-04-11T11:24:48.586Z</time></trkpt><trkpt lat="43.7875693" lon="11.3724061"><ele>89.0</ele><time>2026-04-11T11:24:51.585Z</time></trkpt><trkpt lat="43.7874974" lon="11.3723912"><ele>89.0</ele><time>2026-04-11T11:25:25.586Z</time></trkpt><trkpt lat="43.7874281" lon="11.3723765"><ele>89.0</ele><time>2026-04-11T11:25:27.585Z</time></trkpt><trkpt lat="43.787346" lon="11.3723591"><ele>89.0</ele><time>2026-04-11T11:25:29.586Z</time></trkpt><trkpt lat="43.7872766" lon="11.372353"><ele>89.0</ele><time>2026-04-11T11:25:31.584Z</time></trkpt><trkpt lat="43.7871903" lon="11.3723366"><ele>89.0</ele><time>2026-04-11T11:25:34.586Z</time></trkpt><trkpt lat="43.787122" lon="11.3723442"><ele>89.0</ele><time>2026-04-11T11:25:38.586Z</time></trkpt><trkpt lat="43.7870667" lon="11.3722683"><ele>89.0</ele><time>2026-04-11T11:26:20.586Z</time></trkpt><trkpt lat="43.7870003" lon="11.3722513"><ele>89.0</ele><time>2026-04-11T11:26:24.586Z</time></trkpt><trkpt lat="43.7869378" lon="11.3722928"><ele>89.0</ele><time>2026-04-11T11:26:26.586Z</time></trkpt><trkpt lat="43.7868161" lon="11.3723077"><ele>89.0</ele><time>2026-04-11T11:26:28.585Z</time></trkpt><trkpt lat="43.7867364" lon="11.3723191"><ele>87.83333333333334</ele><time>2026-04-11T11:26:29.586Z</time></trkpt><trkpt lat="43.7866562" lon="11.3723282"><ele>86.66666666666667</ele><time>2026-04-11T11:26:30.586Z</time></trkpt><trkpt lat="43.7865761" lon="11.3723349"><ele>85.5</ele><time>2026-04-11T11:26:31.586Z</time></trkpt><trkpt lat="43.7864994" lon="11.3723447"><ele>84.33333333333333</ele><time>2026-04-11T11:26:32.586Z</time></trkpt><trkpt lat="43.7864225" lon="11.3723523"><ele>83.16666666666666</ele><time>2026-04-11T11:26:33.586Z</time></trkpt><trkpt lat="43.7863483" lon="11.3723637"><ele>82.0</ele><time>2026-04-11T11:26:34.586Z</time></trkpt><trkpt lat="43.7862741" lon="11.3723731"><ele>81.99999999999999</ele><time>2026-04-11T11:26:35.586Z</time></trkpt><trkpt lat="43.7862055" lon="11.372382"><ele>82.0</ele><time>2026-04-11T11:26:36.586Z</time></trkpt><trkpt lat="43.7861425" lon="11.3723872"><ele>82.0</ele><time>2026-04-11T11:26:37.586Z</time></trkpt><trkpt lat="43.786055" lon="11.3723713"><ele>82.0</ele><time>2026-04-11T11:26:39.586Z</time></trkpt><trkpt lat="43.7860144" lon="11.3722892"><ele>82.0</ele><time>2026-04-11T11:26:45.586Z</time></trkpt><trkpt lat="43.786002" lon="11.3721922"><ele>81.99999999999999</ele><time>2026-04-11T11:26:47.585Z</time></trkpt><trkpt lat="43.7859985" lon="11.3720826"><ele>82.0</ele><time>2026-04-11T11:26:49.586Z</time></trkpt><trkpt lat="43.7859564" lon="11.3720038"><ele>81.66666666666666</ele><time>2026-04-11T11:26:51.586Z</time></trkpt><trkpt lat="43.7858763" lon="11.3720092"><ele>81.33333333333333</ele><time>2026-04-11T11:26:54.585Z</time></trkpt><trkpt lat="43.7858008" lon="11.3720417"><ele>81.0</ele><time>2026-04-11T11:26:58.586Z</time></trkpt><trkpt lat="43.7857354" lon="11.3720197"><ele>80.66666666666667</ele><time>2026-04-11T11:27:06.586Z</time></trkpt><trkpt lat="43.785675" lon="11.3719427"><ele>80.33333333333334</ele><time>2026-04-11T11:27:10.586Z</time></trkpt><trkpt lat="43.7856474" lon="11.3718643"><ele>80.0</ele><time>2026-04-11T11:27:11.586Z</time></trkpt><trkpt lat="43.7856141" lon="11.3717503"><ele>80.0</ele><time>2026-04-11T11:27:12.584Z</time></trkpt><trkpt lat="43.7855569" lon="11.371602"><ele>80.0</ele><time>2026-04-11T11:27:14.585Z</time></trkpt><trkpt lat="43.7855146" lon="11.3714782"><ele>80.0</ele><time>2026-04-11T11:27:16.586Z</time></trkpt><trkpt lat="43.7854386" lon="11.3714296"><ele>80.0</ele><time>2026-04-11T11:27:22.586Z</time></trkpt><trkpt lat="43.785417" lon="11.371533"><ele>80.0</ele><time>2026-04-11T11:27:24.586Z</time></trkpt><trkpt lat="43.7854924" lon="11.371688"><ele>80.0</ele><time>2026-04-11T11:27:26.586Z</time></trkpt><trkpt lat="43.7855288" lon="11.3718001"><ele>80.0</ele><time>2026-04-11T11:27:27.586Z</time></trkpt><trkpt lat="43.7855861" lon="11.3719701"><ele>80.0</ele><time>2026-04-11T11:27:28.586Z</time></trkpt><trkpt lat="43.7856417" lon="11.3721691"><ele>80.0</ele><time>2026-04-11T11:27:29.585Z</time></trkpt><trkpt lat="43.7856971" lon="11.37242"><ele>79.66666666666667</ele><time>2026-04-11T11:27:30.586Z</time></trkpt><trkpt lat="43.7857555" lon="11.3726917"><ele>79.33333333333333</ele><time>2026-04-11T11:27:31.586Z</time></trkpt><trkpt lat="43.785822" lon="11.3729971"><ele>79.0</ele><time>2026-04-11T11:27:32.586Z</time></trkpt><trkpt lat="43.7858778" lon="11.3732724"><ele>79.0</ele><time>2026-04-11T11:27:33.586Z</time></trkpt><trkpt lat="43.7859359" lon="11.3735555"><ele>79.0</ele><time>2026-04-11T11:27:34.586Z</time></trkpt><trkpt lat="43.7860027" lon="11.3738679"><ele>79.0</ele><time>2026-04-11T11:27:35.586Z</time></trkpt><trkpt lat="43.7860669" lon="11.3741713"><ele>81.0</ele><time>2026-04-11T11:27:36.586Z</time></trkpt><trkpt lat="43.7861237" lon="11.3744533"><ele>83.0</ele><time>2026-04-11T11:27:37.585Z</time></trkpt><trkpt lat="43.7861757" lon="11.3747115"><ele>85.0</ele><time>2026-04-11T11:27:38.586Z</time></trkpt><trkpt lat="43.7862254" lon="11.3749384"><ele>85.4</ele><time>2026-04-11T11:27:39.586Z</time></trkpt><trkpt lat="43.7862668" lon="11.3751273"><ele>85.8</ele><time>2026-04-11T11:27:40.584Z</time></trkpt><trkpt lat="43.786293" lon="11.3752803"><ele>86.19999999999999</ele><time>2026-04-11T11:27:41.586Z</time></trkpt><trkpt lat="43.7862936" lon="11.3754033"><ele>86.6</ele><time>2026-04-11T11:27:42.586Z</time></trkpt><trkpt lat="43.7862718" lon="11.3755006"><ele>87.0</ele><time>2026-04-11T11:27:43.585Z</time></trkpt><trkpt lat="43.7862298" lon="11.3755802"><ele>86.33333333333333</ele><time>2026-04-11T11:27:44.585Z</time></trkpt><trkpt lat="43.7862" lon="11.3756759"><ele>85.66666666666667</ele><time>2026-04-11T11:27:45.586Z</time></trkpt><trkpt lat="43.7861984" lon="11.375782"><ele>85.0</ele><time>2026-04-11T11:27:46.586Z</time></trkpt><trkpt lat="43.7862204" lon="11.3758964"><ele>84.33333333333334</ele><time>2026-04-11T11:27:47.585Z</time></trkpt><trkpt lat="43.7862518" lon="11.3760197"><ele>83.66666666666667</ele><time>2026-04-11T11:27:48.586Z</time></trkpt><trkpt lat="43.7862878" lon="11.3761484"><ele>83.0</ele><time>2026-04-11T11:27:49.585Z</time></trkpt><trkpt lat="43.7863301" lon="11.3762883"><ele>82.4</ele><time>2026-04-11T11:27:50.586Z</time></trkpt><trkpt lat="43.7863763" lon="11.3764304"><ele>81.80000000000001</ele><time>2026-04-11T11:27:51.586Z</time></trkpt><trkpt lat="43.7864215" lon="11.3765751"><ele>81.2</ele><time>2026-04-11T11:27:52.586Z</time></trkpt><trkpt lat="43.786467" lon="11.3767187"><ele>80.6</ele><time>2026-04-11T11:27:53.586Z</time></trkpt><trkpt lat="43.7865101" lon="11.3768584"><ele>80.0</ele><time>2026-04-11T11:27:54.586Z</time></trkpt><trkpt lat="43.7865523" lon="11.3769961"><ele>80.0</ele><time>2026-04-11T11:27:55.586Z</time></trkpt><trkpt lat="43.7865927" lon="11.3771222"><ele>80.0</ele><time>2026-04-11T11:27:56.586Z</time></trkpt><trkpt lat="43.7866298" lon="11.3772415"><ele>80.0</ele><time>2026-04-11T11:27:57.584Z</time></trkpt><trkpt lat="43.786668" lon="11.377355"><ele>80.0</ele><time>2026-04-11T11:27:58.585Z</time></trkpt><trkpt lat="43.7867058" lon="11.377472"><ele>80.0</ele><time>2026-04-11T11:27:59.586Z</time></trkpt><trkpt lat="43.786746" lon="11.377591"><ele>79.83333333333334</ele><time>2026-04-11T11:28:00.585Z</time></trkpt><trkpt lat="43.786784" lon="11.3777016"><ele>79.66666666666667</ele><time>2026-04-11T11:28:01.586Z</time></trkpt><trkpt lat="43.786816" lon="11.3778045"><ele>79.5</ele><time>2026-04-11T11:28:02.586Z</time></trkpt><trkpt lat="43.7868474" lon="11.3779006"><ele>79.33333333333333</ele><time>2026-04-11T11:28:03.586Z</time></trkpt><trkpt lat="43.7868797" lon="11.3779981"><ele>79.16666666666666</ele><time>2026-04-11T11:28:04.586Z</time></trkpt><trkpt lat="43.7869169" lon="11.3781043"><ele>79.0</ele><time>2026-04-11T11:28:05.585Z</time></trkpt><trkpt lat="43.786957" lon="11.3782117"><ele>81.4</ele><time>2026-04-11T11:28:06.586Z</time></trkpt><trkpt lat="43.7870031" lon="11.3783178"><ele>83.80000000000001</ele><time>2026-04-11T11:28:07.586Z</time></trkpt><trkpt lat="43.7870588" lon="11.3784247"><ele>86.19999999999999</ele><time>2026-04-11T11:28:08.586Z</time></trkpt><trkpt lat="43.7871284" lon="11.3785331"><ele>88.6</ele><time>2026-04-11T11:28:09.586Z</time></trkpt><trkpt lat="43.7872114" lon="11.3786404"><ele>91.0</ele><time>2026-04-11T11:28:10.586Z</time></trkpt><trkpt lat="43.7873045" lon="11.3787488"><ele>88.75</ele><time>2026-04-11T11:28:11.585Z</time></trkpt><trkpt lat="43.7873977" lon="11.3788576"><ele>86.5</ele><time>2026-04-11T11:28:12.586Z</time></trkpt><trkpt lat="43.7874883" lon="11.3789579"><ele>84.25</ele><time>2026-04-11T11:28:13.585Z</time></trkpt><trkpt lat="43.7875707" lon="11.3790623"><ele>82.0</ele><time>2026-04-11T11:28:14.585Z</time></trkpt><trkpt lat="43.787648" lon="11.3791821"><ele>82.0</ele><time>2026-04-11T11:28:15.586Z</time></trkpt><trkpt lat="43.7877249" lon="11.3793147"><ele>82.0</ele><time>2026-04-11T11:28:16.586Z</time></trkpt><trkpt lat="43.7878096" lon="11.3794477"><ele>82.0</ele><time>2026-04-11T11:28:17.586Z</time></trkpt><trkpt lat="43.7878989" lon="11.3795763"><ele>82.0</ele><time>2026-04-11T11:28:18.586Z</time></trkpt><trkpt lat="43.7879904" lon="11.3797073"><ele>82.0</ele><time>2026-04-11T11:28:19.586Z</time></trkpt><trkpt lat="43.7880835" lon="11.3798413"><ele>82.0</ele><time>2026-04-11T11:28:20.586Z</time></trkpt><trkpt lat="43.7881818" lon="11.3799717"><ele>82.0</ele><time>2026-04-11T11:28:21.585Z</time></trkpt><trkpt lat="43.7882848" lon="11.3801012"><ele>82.0</ele><time>2026-04-11T11:28:22.586Z</time></trkpt><trkpt lat="43.7883902" lon="11.3802307"><ele>82.0</ele><time>2026-04-11T11:28:23.586Z</time></trkpt><trkpt lat="43.7884987" lon="11.3803604"><ele>82.0</ele><time>2026-04-11T11:28:24.586Z</time></trkpt><trkpt lat="43.7886085" lon="11.3804893"><ele>82.0</ele><time>2026-04-11T11:28:25.586Z</time></trkpt><trkpt lat="43.7887174" lon="11.3806188"><ele>82.0</ele><time>2026-04-11T11:28:26.586Z</time></trkpt><trkpt lat="43.7888265" lon="11.3807475"><ele>81.5</ele><time>2026-04-11T11:28:27.586Z</time></trkpt><trkpt lat="43.7889403" lon="11.380878"><ele>81.0</ele><time>2026-04-11T11:28:28.585Z</time></trkpt><trkpt lat="43.7890563" lon="11.381009"><ele>80.5</ele><time>2026-04-11T11:28:29.585Z</time></trkpt><trkpt lat="43.7891739" lon="11.381137"><ele>80.0</ele><time>2026-04-11T11:28:30.585Z</time></trkpt><trkpt lat="43.7892921" lon="11.3812644"><ele>80.0</ele><time>2026-04-11T11:28:31.586Z</time></trkpt><trkpt lat="43.7894106" lon="11.38139"><ele>80.0</ele><time>2026-04-11T11:28:32.586Z</time></trkpt><trkpt lat="43.7895269" lon="11.3815136"><ele>80.0</ele><time>2026-04-11T11:28:33.585Z</time></trkpt><trkpt lat="43.7896439" lon="11.3816342"><ele>80.0</ele><time>2026-04-11T11:28:34.586Z</time></trkpt><trkpt lat="43.7897536" lon="11.3817515"><ele>80.0</ele><time>2026-04-11T11:28:35.586Z</time></trkpt><trkpt lat="43.7898552" lon="11.3818663"><ele>80.0</ele><time>2026-04-11T11:28:36.586Z</time></trkpt><trkpt lat="43.7899456" lon="11.381985"><ele>80.0</ele><time>2026-04-11T11:28:37.586Z</time></trkpt><trkpt lat="43.7900168" lon="11.3821186"><ele>80.0</ele><time>2026-04-11T11:28:38.586Z</time></trkpt><trkpt lat="43.790061" lon="11.3822747"><ele>79.5</ele><time>2026-04-11T11:28:39.586Z</time></trkpt><trkpt lat="43.7900789" lon="11.3824506"><ele>79.0</ele><time>2026-04-11T11:28:40.586Z</time></trkpt><trkpt lat="43.7900739" lon="11.3826328"><ele>78.5</ele><time>2026-04-11T11:28:41.586Z</time></trkpt><trkpt lat="43.7900613" lon="11.3828263"><ele>78.0</ele><time>2026-04-11T11:28:42.585Z</time></trkpt><trkpt lat="43.7900531" lon="11.383018"><ele>77.5</ele><time>2026-04-11T11:28:43.585Z</time></trkpt><trkpt lat="43.7900568" lon="11.383202"><ele>77.0</ele><time>2026-04-11T11:28:44.585Z</time></trkpt><trkpt lat="43.7900828" lon="11.3833689"><ele>76.5</ele><time>2026-04-11T11:28:45.585Z</time></trkpt><trkpt lat="43.7901372" lon="11.3835086"><ele>76.0</ele><time>2026-04-11T11:28:46.586Z</time></trkpt><trkpt lat="43.7902154" lon="11.3836198"><ele>75.25</ele><time>2026-04-11T11:28:47.586Z</time></trkpt><trkpt lat="43.7903226" lon="11.3837112"><ele>74.5</ele><time>2026-04-11T11:28:48.586Z</time></trkpt><trkpt lat="43.7904482" lon="11.3837864"><ele>73.75</ele><time>2026-04-11T11:28:49.585Z</time></trkpt><trkpt lat="43.7905702" lon="11.3838586"><ele>73.0</ele><time>2026-04-11T11:28:50.585Z</time></trkpt><trkpt lat="43.7906924" lon="11.3839168"><ele>73.0</ele><time>2026-04-11T11:28:51.586Z</time></trkpt><trkpt lat="43.7908104" lon="11.3839562"><ele>73.0</ele><time>2026-04-11T11:28:52.586Z</time></trkpt><trkpt lat="43.7909213" lon="11.3839856"><ele>73.0</ele><time>2026-04-11T11:28:53.586Z</time></trkpt><trkpt lat="43.7910242" lon="11.3840068"><ele>73.0</ele><time>2026-04-11T11:28:54.586Z</time></trkpt><trkpt lat="43.7910986" lon="11.384029"><ele>73.0</ele><time>2026-04-11T11:28:55.586Z</time></trkpt><trkpt lat="43.7911744" lon="11.3840525"><ele>73.2</ele><time>2026-04-11T11:28:56.586Z</time></trkpt><trkpt lat="43.7912619" lon="11.384079"><ele>73.4</ele><time>2026-04-11T11:28:57.586Z</time></trkpt><trkpt lat="43.7913579" lon="11.3841034"><ele>73.60000000000001</ele><time>2026-04-11T11:28:58.584Z</time></trkpt><trkpt lat="43.7914606" lon="11.3841283"><ele>73.8</ele><time>2026-04-11T11:28:59.586Z</time></trkpt><trkpt lat="43.7915689" lon="11.3841559"><ele>74.0</ele><time>2026-04-11T11:29:00.586Z</time></trkpt><trkpt lat="43.7916707" lon="11.3841866"><ele>74.0</ele><time>2026-04-11T11:29:01.586Z</time></trkpt><trkpt lat="43.7917662" lon="11.3842241"><ele>74.0</ele><time>2026-04-11T11:29:02.586Z</time></trkpt><trkpt lat="43.7918546" lon="11.3842727"><ele>74.0</ele><time>2026-04-11T11:29:03.586Z</time></trkpt><trkpt lat="43.7919305" lon="11.3843319"><ele>74.0</ele><time>2026-04-11T11:29:04.585Z</time></trkpt><trkpt lat="43.7919943" lon="11.3843908"><ele>74.0</ele><time>2026-04-11T11:29:05.585Z</time></trkpt><trkpt lat="43.7920468" lon="11.3844454"><ele>74.0</ele><time>2026-04-11T11:29:06.586Z</time></trkpt><trkpt lat="43.7921405" lon="11.3845155"><ele>75.0</ele><time>2026-04-11T11:29:08.586Z</time></trkpt><trkpt lat="43.7922377" lon="11.3844542"><ele>76.0</ele><time>2026-04-11T11:29:10.586Z</time></trkpt><trkpt lat="43.7922923" lon="11.3843924"><ele>77.0</ele><time>2026-04-11T11:29:11.586Z</time></trkpt><trkpt lat="43.7923322" lon="11.3843054"><ele>78.0</ele><time>2026-04-11T11:29:12.584Z</time></trkpt><trkpt lat="43.7923713" lon="11.3842265"><ele>79.0</ele><time>2026-04-11T11:29:13.586Z</time></trkpt><trkpt lat="43.7924164" lon="11.3841653"><ele>80.0</ele><time>2026-04-11T11:29:14.585Z</time></trkpt><trkpt lat="43.7925173" lon="11.384155"><ele>80.0</ele><time>2026-04-11T11:29:16.585Z</time></trkpt><trkpt lat="43.7925883" lon="11.3842622"><ele>80.0</ele><time>2026-04-11T11:29:18.584Z</time></trkpt><trkpt lat="43.7925899" lon="11.3843531"><ele>80.0</ele><time>2026-04-11T11:29:19.586Z</time></trkpt><trkpt lat="43.792593" lon="11.3844509"><ele>80.0</ele><time>2026-04-11T11:29:20.585Z</time></trkpt><trkpt lat="43.7926618" lon="11.3845314"><ele>80.0</ele><time>2026-04-11T11:29:22.586Z</time></trkpt><trkpt lat="43.7927428" lon="11.3844912"><ele>80.0</ele><time>2026-04-11T11:29:24.584Z</time></trkpt><trkpt lat="43.7928001" lon="11.3844546"><ele>81.16666666666667</ele><time>2026-04-11T11:29:37.585Z</time></trkpt><trkpt lat="43.7927424" lon="11.3845"><ele>82.33333333333334</ele><time>2026-04-11T11:29:49.586Z</time></trkpt><trkpt lat="43.7928061" lon="11.3845602"><ele>83.5</ele><time>2026-04-11T11:29:59.586Z</time></trkpt><trkpt lat="43.7928432" lon="11.3846375"><ele>84.66666666666667</ele><time>2026-04-11T11:30:00.586Z</time></trkpt><trkpt lat="43.7929315" lon="11.3847692"><ele>85.83333333333333</ele><time>2026-04-11T11:30:02.586Z</time></trkpt><trkpt lat="43.7929756" lon="11.3848362"><ele>87.0</ele><time>2026-04-11T11:30:03.585Z</time></trkpt><trkpt lat="43.7930157" lon="11.3849069"><ele>87.0</ele><time>2026-04-11T11:30:04.586Z</time></trkpt><trkpt lat="43.793086" lon="11.3850552"><ele>87.0</ele><time>2026-04-11T11:30:06.585Z</time></trkpt><trkpt lat="43.7931154" lon="11.3851446"><ele>87.0</ele><time>2026-04-11T11:30:07.585Z</time></trkpt><trkpt lat="43.7931447" lon="11.3852397"><ele>87.0</ele><time>2026-04-11T11:30:08.586Z</time></trkpt><trkpt lat="43.7931693" lon="11.3853359"><ele>87.0</ele><time>2026-04-11T11:30:09.585Z</time></trkpt><trkpt lat="43.7931928" lon="11.3854236"><ele>87.0</ele><time>2026-04-11T11:30:10.586Z</time></trkpt><trkpt lat="43.7932191" lon="11.3855188"><ele>86.28571428571428</ele><time>2026-04-11T11:30:11.586Z</time></trkpt><trkpt lat="43.7932476" lon="11.3856222"><ele>85.57142857142857</ele><time>2026-04-11T11:30:12.586Z</time></trkpt><trkpt lat="43.7932801" lon="11.385733"><ele>84.85714285714286</ele><time>2026-04-11T11:30:13.586Z</time></trkpt><trkpt lat="43.7933077" lon="11.3858245"><ele>84.14285714285714</ele><time>2026-04-11T11:30:14.586Z</time></trkpt><trkpt lat="43.7933286" lon="11.3859092"><ele>83.42857142857143</ele><time>2026-04-11T11:30:15.586Z</time></trkpt><trkpt lat="43.7933482" lon="11.3859957"><ele>82.71428571428571</ele><time>2026-04-11T11:30:16.586Z</time></trkpt><trkpt lat="43.7933747" lon="11.3860864"><ele>82.0</ele><time>2026-04-11T11:30:17.586Z</time></trkpt><trkpt lat="43.7933988" lon="11.3861734"><ele>82.0</ele><time>2026-04-11T11:30:18.585Z</time></trkpt><trkpt lat="43.7934326" lon="11.3863396"><ele>82.0</ele><time>2026-04-11T11:30:20.585Z</time></trkpt><trkpt lat="43.7934416" lon="11.3864338"><ele>82.0</ele><time>2026-04-11T11:30:21.586Z</time></trkpt><trkpt lat="43.7934413" lon="11.3865313"><ele>82.0</ele><time>2026-04-11T11:30:22.586Z</time></trkpt><trkpt lat="43.7934396" lon="11.386626"><ele>82.0</ele><time>2026-04-11T11:30:23.585Z</time></trkpt><trkpt lat="43.7934655" lon="11.3867921"><ele>81.83333333333333</ele><time>2026-04-11T11:30:25.585Z</time></trkpt><trkpt lat="43.7934911" lon="11.3868835"><ele>81.66666666666666</ele><time>2026-04-11T11:30:26.585Z</time></trkpt><trkpt lat="43.7935219" lon="11.3869826"><ele>81.5</ele><time>2026-04-11T11:30:27.585Z</time></trkpt><trkpt lat="43.7935481" lon="11.3870696"><ele>81.33333333333333</ele><time>2026-04-11T11:30:28.585Z</time></trkpt><trkpt lat="43.7935744" lon="11.387236"><ele>81.16666666666667</ele><time>2026-04-11T11:30:30.585Z</time></trkpt><trkpt lat="43.7935778" lon="11.3873278"><ele>81.0</ele><time>2026-04-11T11:30:31.586Z</time></trkpt><trkpt lat="43.7935626" lon="11.3874586"><ele>82.6</ele><time>2026-04-11T11:30:33.585Z</time></trkpt><trkpt lat="43.7935597" lon="11.3875799"><ele>84.19999999999999</ele><time>2026-04-11T11:30:35.586Z</time></trkpt><trkpt lat="43.7935944" lon="11.3877614"><ele>85.80000000000001</ele><time>2026-04-11T11:30:37.586Z</time></trkpt><trkpt lat="43.7936172" lon="11.3878506"><ele>87.4</ele><time>2026-04-11T11:30:38.586Z</time></trkpt><trkpt lat="43.7936557" lon="11.3880039"><ele>89.0</ele><time>2026-04-11T11:30:40.586Z</time></trkpt><trkpt lat="43.7936883" lon="11.3881436"><ele>89.0</ele><time>2026-04-11T11:30:42.586Z</time></trkpt><trkpt lat="43.7937262" lon="11.3882896"><ele>89.0</ele><time>2026-04-11T11:30:44.586Z</time></trkpt><trkpt lat="43.793748" lon="11.3883719"><ele>89.0</ele><time>2026-04-11T11:30:45.586Z</time></trkpt><trkpt lat="43.7937999" lon="11.3885024"><ele>89.0</ele><time>2026-04-11T11:30:47.586Z</time></trkpt><trkpt lat="43.7938396" lon="11.3885737"><ele>89.0</ele><time>2026-04-11T11:30:48.586Z</time></trkpt><trkpt lat="43.7939182" lon="11.3886747"><ele>89.0</ele><time>2026-04-11T11:30:50.586Z</time></trkpt><trkpt lat="43.7939945" lon="11.3887663"><ele>89.0</ele><time>2026-04-11T11:30:52.586Z</time></trkpt><trkpt lat="43.7940643" lon="11.3888445"><ele>89.0</ele><time>2026-04-11T11:30:54.585Z</time></trkpt><trkpt lat="43.7941234" lon="11.3889188"><ele>89.0</ele><time>2026-04-11T11:30:57.586Z</time></trkpt><trkpt lat="43.7941065" lon="11.3890434"><ele>89.0</ele><time>2026-04-11T11:31:02.585Z</time></trkpt><trkpt lat="43.793998" lon="11.3891375"><ele>87.33333333333334</ele><time>2026-04-11T11:31:04.586Z</time></trkpt><trkpt lat="43.7938816" lon="11.3891307"><ele>85.66666666666667</ele><time>2026-04-11T11:31:06.586Z</time></trkpt><trkpt lat="43.7938145" lon="11.3890911"><ele>84.0</ele><time>2026-04-11T11:31:07.586Z</time></trkpt><trkpt lat="43.7937451" lon="11.3890504"><ele>82.33333333333333</ele><time>2026-04-11T11:31:08.586Z</time></trkpt><trkpt lat="43.7936765" lon="11.3889947"><ele>80.66666666666666</ele><time>2026-04-11T11:31:09.584Z</time></trkpt><trkpt lat="43.7936118" lon="11.3889426"><ele>79.0</ele><time>2026-04-11T11:31:10.586Z</time></trkpt><trkpt lat="43.7935617" lon="11.3888843"><ele>78.2</ele><time>2026-04-11T11:31:11.586Z</time></trkpt><trkpt lat="43.7935054" lon="11.3888247"><ele>77.4</ele><time>2026-04-11T11:31:12.586Z</time></trkpt><trkpt lat="43.7934586" lon="11.3887618"><ele>76.6</ele><time>2026-04-11T11:31:13.586Z</time></trkpt><trkpt lat="43.7933741" lon="11.3886592"><ele>75.8</ele><time>2026-04-11T11:31:15.586Z</time></trkpt><trkpt lat="43.7933016" lon="11.3885495"><ele>75.0</ele><time>2026-04-11T11:31:17.586Z</time></trkpt><trkpt lat="43.7932112" lon="11.3884741"><ele>75.0</ele><time>2026-04-11T11:31:19.586Z</time></trkpt><trkpt lat="43.7931013" lon="11.3884497"><ele>75.0</ele><time>2026-04-11T11:31:21.585Z</time></trkpt><trkpt lat="43.7930342" lon="11.388394"><ele>75.0</ele><time>2026-04-11T11:31:23.586Z</time></trkpt><trkpt lat="43.7929669" lon="11.3884578"><ele>75.0</ele><time>2026-04-11T11:31:26.586Z</time></trkpt><trkpt lat="43.7929283" lon="11.388625"><ele>75.0</ele><time>2026-04-11T11:31:28.586Z</time></trkpt><trkpt lat="43.7929107" lon="11.3887223"><ele>75.0</ele><time>2026-04-11T11:31:29.585Z</time></trkpt><trkpt lat="43.7928875" lon="11.38883"><ele>75.0</ele><time>2026-04-11T11:31:30.586Z</time></trkpt><trkpt lat="43.7928727" lon="11.3889546"><ele>75.0</ele><time>2026-04-11T11:31:31.586Z</time></trkpt><trkpt lat="43.7928533" lon="11.3890664"><ele>75.0</ele><time>2026-04-11T11:31:32.586Z</time></trkpt><trkpt lat="43.7928195" lon="11.3891698"><ele>75.0</ele><time>2026-04-11T11:31:33.586Z</time></trkpt><trkpt lat="43.7927892" lon="11.3892565"><ele>75.0</ele><time>2026-04-11T11:31:34.586Z</time></trkpt><trkpt lat="43.7927503" lon="11.389388"><ele>74.8</ele><time>2026-04-11T11:31:36.586Z</time></trkpt><trkpt lat="43.7927235" lon="11.3894859"><ele>74.6</ele><time>2026-04-11T11:31:40.584Z</time></trkpt><trkpt lat="43.7928113" lon="11.3895846"><ele>74.4</ele><time>2026-04-11T11:31:43.586Z</time></trkpt><trkpt lat="43.7928757" lon="11.3896164"><ele>74.2</ele><time>2026-04-11T11:31:44.586Z</time></trkpt><trkpt lat="43.7929629" lon="11.3896619"><ele>74.0</ele><time>2026-04-11T11:31:45.586Z</time></trkpt><trkpt lat="43.7930804" lon="11.3897205"><ele>74.4</ele><time>2026-04-11T11:31:46.585Z</time></trkpt><trkpt lat="43.7931738" lon="11.3897725"><ele>74.80000000000001</ele><time>2026-04-11T11:31:47.586Z</time></trkpt><trkpt lat="43.7932619" lon="11.3898276"><ele>75.19999999999999</ele><time>2026-04-11T11:31:48.585Z</time></trkpt><trkpt lat="43.793363" lon="11.3898927"><ele>75.6</ele><time>2026-04-11T11:31:49.585Z</time></trkpt><trkpt lat="43.793465" lon="11.3899572"><ele>76.0</ele><time>2026-04-11T11:31:50.586Z</time></trkpt><trkpt lat="43.7935521" lon="11.3900205"><ele>76.2</ele><time>2026-04-11T11:31:51.585Z</time></trkpt><trkpt lat="43.7936359" lon="11.3900728"><ele>76.39999999999999</ele><time>2026-04-11T11:31:52.585Z</time></trkpt><trkpt lat="43.7937225" lon="11.3901132"><ele>76.6</ele><time>2026-04-11T11:31:53.586Z</time></trkpt><trkpt lat="43.7938044" lon="11.3901339"><ele>76.8</ele><time>2026-04-11T11:31:54.586Z</time></trkpt><trkpt lat="43.7938992" lon="11.3901352"><ele>77.0</ele><time>2026-04-11T11:31:55.586Z</time></trkpt><trkpt lat="43.7940015" lon="11.3901287"><ele>77.0</ele><time>2026-04-11T11:31:56.586Z</time></trkpt><trkpt lat="43.7941219" lon="11.3901054"><ele>77.0</ele><time>2026-04-11T11:31:57.586Z</time></trkpt><trkpt lat="43.7942313" lon="11.3900761"><ele>77.0</ele><time>2026-04-11T11:31:58.585Z</time></trkpt><trkpt lat="43.79433" lon="11.3900525"><ele>77.0</ele><time>2026-04-11T11:31:59.586Z</time></trkpt><trkpt lat="43.7944279" lon="11.3900236"><ele>77.0</ele><time>2026-04-11T11:32:00.586Z</time></trkpt><trkpt lat="43.7945225" lon="11.3899933"><ele>77.0</ele><time>2026-04-11T11:32:01.585Z</time></trkpt><trkpt lat="43.7946159" lon="11.3899626"><ele>77.0</ele><time>2026-04-11T11:32:02.586Z</time></trkpt><trkpt lat="43.7947064" lon="11.3899295"><ele>77.0</ele><time>2026-04-11T11:32:03.586Z</time></trkpt><trkpt lat="43.7948021" lon="11.3898978"><ele>77.0</ele><time>2026-04-11T11:32:04.585Z</time></trkpt><trkpt lat="43.7949053" lon="11.3898608"><ele>77.0</ele><time>2026-04-11T11:32:05.585Z</time></trkpt><trkpt lat="43.7949951" lon="11.3898281"><ele>77.0</ele><time>2026-04-11T11:32:06.586Z</time></trkpt><trkpt lat="43.795057" lon="11.3898039"><ele>77.0</ele><time>2026-04-11T11:32:07.586Z</time></trkpt><trkpt lat="43.7951155" lon="11.3898506"><ele>77.0</ele><time>2026-04-11T11:32:10.586Z</time></trkpt><trkpt lat="43.7951245" lon="11.3899568"><ele>77.0</ele><time>2026-04-11T11:32:44.586Z</time></trkpt><trkpt lat="43.795147" lon="11.3901341"><ele>77.0</ele><time>2026-04-11T11:32:46.585Z</time></trkpt><trkpt lat="43.7951589" lon="11.3902264"><ele>77.0</ele><time>2026-04-11T11:32:47.586Z</time></trkpt><trkpt lat="43.7951893" lon="11.3903244"><ele>76.8</ele><time>2026-04-11T11:32:49.585Z</time></trkpt><trkpt lat="43.7952629" lon="11.3903815"><ele>76.6</ele><time>2026-04-11T11:32:51.586Z</time></trkpt><trkpt lat="43.795381" lon="11.390471"><ele>76.39999999999999</ele><time>2026-04-11T11:32:53.586Z</time></trkpt><trkpt lat="43.7954209" lon="11.3905433"><ele>76.2</ele><time>2026-04-11T11:32:54.586Z</time></trkpt><trkpt lat="43.7954591" lon="11.3906475"><ele>76.0</ele><time>2026-04-11T11:32:55.586Z</time></trkpt><trkpt lat="43.7954805" lon="11.3907675"><ele>77.8</ele><time>2026-04-11T11:32:56.586Z</time></trkpt><trkpt lat="43.7954996" lon="11.3908547"><ele>79.6</ele><time>2026-04-11T11:32:57.585Z</time></trkpt><trkpt lat="43.7955228" lon="11.3909791"><ele>81.4</ele><time>2026-04-11T11:32:59.585Z</time></trkpt><trkpt lat="43.7955369" lon="11.3910718"><ele>83.2</ele><time>2026-04-11T11:33:00.586Z</time></trkpt><trkpt lat="43.7955521" lon="11.3911981"><ele>85.0</ele><time>2026-04-11T11:33:01.585Z</time></trkpt><trkpt lat="43.79558" lon="11.3914139"><ele>87.2</ele><time>2026-04-11T11:33:02.586Z</time></trkpt><trkpt lat="43.7955962" lon="11.3915888"><ele>89.4</ele><time>2026-04-11T11:33:03.586Z</time></trkpt><trkpt lat="43.7955854" lon="11.3917292"><ele>91.6</ele><time>2026-04-11T11:33:04.586Z</time></trkpt><trkpt lat="43.7955732" lon="11.3918847"><ele>93.8</ele><time>2026-04-11T11:33:05.585Z</time></trkpt><trkpt lat="43.7955299" lon="11.3920071"><ele>96.0</ele><time>2026-04-11T11:33:06.586Z</time></trkpt><trkpt lat="43.7953849" lon="11.3918544"><ele>96.0</ele><time>2026-04-11T11:33:07.586Z</time></trkpt><trkpt lat="43.7952823" lon="11.3918534"><ele>96.0</ele><time>2026-04-11T11:33:09.586Z</time></trkpt><trkpt lat="43.7952036" lon="11.3918492"><ele>96.0</ele><time>2026-04-11T11:33:11.585Z</time></trkpt><trkpt lat="43.7951156" lon="11.3918442"><ele>96.0</ele><time>2026-04-11T11:33:13.586Z</time></trkpt><trkpt lat="43.7949705" lon="11.3918411"><ele>96.0</ele><time>2026-04-11T11:33:15.586Z</time></trkpt><trkpt lat="43.7948877" lon="11.3918449"><ele>96.0</ele><time>2026-04-11T11:33:16.586Z</time></trkpt><trkpt lat="43.794809" lon="11.3918307"><ele>96.0</ele><time>2026-04-11T11:33:17.586Z</time></trkpt><trkpt lat="43.7947376" lon="11.3917926"><ele>96.0</ele><time>2026-04-11T11:33:18.586Z</time></trkpt><trkpt lat="43.7946651" lon="11.3917524"><ele>96.0</ele><time>2026-04-11T11:33:19.585Z</time></trkpt><trkpt lat="43.7945915" lon="11.3917146"><ele>96.0</ele><time>2026-04-11T11:33:20.586Z</time></trkpt><trkpt lat="43.7945225" lon="11.391672"><ele>96.0</ele><time>2026-04-11T11:33:21.585Z</time></trkpt><trkpt lat="43.7944631" lon="11.3916192"><ele>95.99999999999999</ele><time>2026-04-11T11:33:22.586Z</time></trkpt><trkpt lat="43.7944104" lon="11.391558"><ele>96.0</ele><time>2026-04-11T11:33:23.586Z</time></trkpt><trkpt lat="43.7943609" lon="11.3914936"><ele>96.0</ele><time>2026-04-11T11:33:24.586Z</time></trkpt><trkpt lat="43.7943125" lon="11.3914316"><ele>96.0</ele><time>2026-04-11T11:33:25.586Z</time></trkpt><trkpt lat="43.7942645" lon="11.3913674"><ele>96.0</ele><time>2026-04-11T11:33:26.586Z</time></trkpt><trkpt lat="43.7941917" lon="11.3912821"><ele>95.99999999999999</ele><time>2026-04-11T11:33:28.586Z</time></trkpt><trkpt lat="43.7941251" lon="11.3912952"><ele>96.0</ele><time>2026-04-11T11:33:30.586Z</time></trkpt><trkpt lat="43.7940639" lon="11.3913724"><ele>95.4</ele><time>2026-04-11T11:33:32.585Z</time></trkpt><trkpt lat="43.7940171" lon="11.3914786"><ele>94.8</ele><time>2026-04-11T11:33:34.586Z</time></trkpt><trkpt lat="43.7939468" lon="11.3915863"><ele>94.2</ele><time>2026-04-11T11:33:36.586Z</time></trkpt><trkpt lat="43.7938724" lon="11.3916702"><ele>93.60000000000001</ele><time>2026-04-11T11:33:38.585Z</time></trkpt><trkpt lat="43.793809" lon="11.3917517"><ele>93.0</ele><time>2026-04-11T11:33:40.585Z</time></trkpt><trkpt lat="43.7937392" lon="11.3918419"><ele>93.0</ele><time>2026-04-11T11:33:42.586Z</time></trkpt><trkpt lat="43.7936631" lon="11.3919372"><ele>93.0</ele><time>2026-04-11T11:33:44.586Z</time></trkpt><trkpt lat="43.7935973" lon="11.3920201"><ele>93.0</ele><time>2026-04-11T11:33:46.586Z</time></trkpt><trkpt lat="43.7935526" lon="11.3920834"><ele>93.0</ele><time>2026-04-11T11:33:48.585Z</time></trkpt><trkpt lat="43.7934938" lon="11.3921662"><ele>93.0</ele><time>2026-04-11T11:33:51.585Z</time></trkpt><trkpt lat="43.7934288" lon="11.3922515"><ele>93.0</ele><time>2026-04-11T11:33:53.585Z</time></trkpt><trkpt lat="43.7933512" lon="11.3923414"><ele>94.80000000000001</ele><time>2026-04-11T11:33:55.584Z</time></trkpt><trkpt lat="43.7932709" lon="11.3924353"><ele>96.6</ele><time>2026-04-11T11:33:57.585Z</time></trkpt><trkpt lat="43.7931855" lon="11.3925269"><ele>98.4</ele><time>2026-04-11T11:33:59.584Z</time></trkpt><trkpt lat="43.7930998" lon="11.3925989"><ele>100.19999999999999</ele><time>2026-04-11T11:34:01.585Z</time></trkpt><trkpt lat="43.7930194" lon="11.3926644"><ele>102.0</ele><time>2026-04-11T11:34:03.584Z</time></trkpt><trkpt lat="43.7929335" lon="11.3927356"><ele>102.0</ele><time>2026-04-11T11:34:05.585Z</time></trkpt><trkpt lat="43.7928594" lon="11.3928224"><ele>102.0</ele><time>2026-04-11T11:34:07.583Z</time></trkpt><trkpt lat="43.7928032" lon="11.3928873"><ele>102.0</ele><time>2026-04-11T11:34:09.585Z</time></trkpt><trkpt lat="43.7927509" lon="11.3929662"><ele>102.0</ele><time>2026-04-11T11:34:11.585Z</time></trkpt><trkpt lat="43.7927345" lon="11.3930566"><ele>102.0</ele><time>2026-04-11T11:34:14.584Z</time></trkpt><trkpt lat="43.7927422" lon="11.3931432"><ele>102.0</ele><time>2026-04-11T11:34:16.585Z</time></trkpt><trkpt lat="43.7927391" lon="11.3932383"><ele>102.0</ele><time>2026-04-11T11:34:29.585Z</time></trkpt><trkpt lat="43.7927008" lon="11.3933148"><ele>101.5</ele><time>2026-04-11T11:34:38.585Z</time></trkpt><trkpt lat="43.7926653" lon="11.3934157"><ele>101.0</ele><time>2026-04-11T11:34:41.585Z</time></trkpt><trkpt lat="43.7926356" lon="11.3935156"><ele>100.5</ele><time>2026-04-11T11:34:46.584Z</time></trkpt><trkpt lat="43.7926129" lon="11.3935974"><ele>100.0</ele><time>2026-04-11T11:34:49.585Z</time></trkpt><trkpt lat="43.792603" lon="11.3937109"><ele>99.5</ele><time>2026-04-11T11:34:52.585Z</time></trkpt><trkpt lat="43.7926005" lon="11.3938123"><ele>99.0</ele><time>2026-04-11T11:34:54.583Z</time></trkpt><trkpt lat="43.7925927" lon="11.3939258"><ele>100.5</ele><time>2026-04-11T11:34:56.585Z</time></trkpt><trkpt lat="43.7925813" lon="11.3940345"><ele>102.0</ele><time>2026-04-11T11:34:58.584Z</time></trkpt><trkpt lat="43.7925677" lon="11.3941482"><ele>103.5</ele><time>2026-04-11T11:35:00.585Z</time></trkpt><trkpt lat="43.7925545" lon="11.3942359"><ele>105.0</ele><time>2026-04-11T11:35:02.585Z</time></trkpt><trkpt lat="43.7925292" lon="11.3943368"><ele>106.5</ele><time>2026-04-11T11:35:18.585Z</time></trkpt><trkpt lat="43.7925182" lon="11.3944387"><ele>108.0</ele><time>2026-04-11T11:35:21.584Z</time></trkpt><trkpt lat="43.7925101" lon="11.3945664"><ele>108.5</ele><time>2026-04-11T11:35:24.585Z</time></trkpt><trkpt lat="43.7924911" lon="11.3946938"><ele>109.0</ele><time>2026-04-11T11:35:27.584Z</time></trkpt><trkpt lat="43.7924837" lon="11.3948143"><ele>109.5</ele><time>2026-04-11T11:35:29.585Z</time></trkpt><trkpt lat="43.7924706" lon="11.3949052"><ele>110.0</ele><time>2026-04-11T11:35:31.583Z</time></trkpt><trkpt lat="43.7924823" lon="11.3950432"><ele>110.5</ele><time>2026-04-11T11:35:34.584Z</time></trkpt><trkpt lat="43.7924876" lon="11.3951453"><ele>111.0</ele><time>2026-04-11T11:35:36.585Z</time></trkpt><trkpt lat="43.7924801" lon="11.3952355"><ele>111.0</ele><time>2026-04-11T11:35:38.584Z</time></trkpt><trkpt lat="43.7924904" lon="11.3953461"><ele>111.0</ele><time>2026-04-11T11:35:40.584Z</time></trkpt><trkpt lat="43.7925172" lon="11.3954849"><ele>111.0</ele><time>2026-04-11T11:35:42.585Z</time></trkpt><trkpt lat="43.7925346" lon="11.3955795"><ele>111.0</ele><time>2026-04-11T11:35:44.585Z</time></trkpt><trkpt lat="43.7925613" lon="11.3956909"><ele>111.0</ele><time>2026-04-11T11:36:01.584Z</time></trkpt><trkpt lat="43.7925898" lon="11.39579"><ele>111.0</ele><time>2026-04-11T11:36:06.585Z</time></trkpt><trkpt lat="43.7925903" lon="11.3958883"><ele>110.83333333333333</ele><time>2026-04-11T11:36:15.585Z</time></trkpt><trkpt lat="43.792602" lon="11.3959788"><ele>110.66666666666666</ele><time>2026-04-11T11:36:24.585Z</time></trkpt><trkpt lat="43.792651" lon="11.396079"><ele>110.5</ele><time>2026-04-11T11:36:28.585Z</time></trkpt><trkpt lat="43.7926854" lon="11.3961745"><ele>110.33333333333333</ele><time>2026-04-11T11:36:31.584Z</time></trkpt><trkpt lat="43.792685" lon="11.3962819"><ele>110.16666666666666</ele><time>2026-04-11T11:36:34.584Z</time></trkpt><trkpt lat="43.7926659" lon="11.3963749"><ele>110.0</ele><time>2026-04-11T11:36:36.585Z</time></trkpt><trkpt lat="43.7926127" lon="11.3965284"><ele>109.99999999999999</ele><time>2026-04-11T11:36:38.585Z</time></trkpt><trkpt lat="43.7925838" lon="11.3966165"><ele>110.0</ele><time>2026-04-11T11:36:39.584Z</time></trkpt><trkpt lat="43.7925471" lon="11.3967566"><ele>110.0</ele><time>2026-04-11T11:36:41.585Z</time></trkpt><trkpt lat="43.7925246" lon="11.3968548"><ele>110.0</ele><time>2026-04-11T11:36:43.585Z</time></trkpt><trkpt lat="43.7925338" lon="11.396967"><ele>109.99999999999999</ele><time>2026-04-11T11:36:46.584Z</time></trkpt><trkpt lat="43.792556" lon="11.3970554"><ele>110.0</ele><time>2026-04-11T11:36:48.585Z</time></trkpt><trkpt lat="43.7925601" lon="11.3971502"><ele>112.2</ele><time>2026-04-11T11:36:50.585Z</time></trkpt><trkpt lat="43.7925011" lon="11.3972644"><ele>114.4</ele><time>2026-04-11T11:36:52.584Z</time></trkpt><trkpt lat="43.7924169" lon="11.397395"><ele>116.6</ele><time>2026-04-11T11:36:54.585Z</time></trkpt><trkpt lat="43.7923707" lon="11.3974657"><ele>118.8</ele><time>2026-04-11T11:36:55.585Z</time></trkpt><trkpt lat="43.7923238" lon="11.3975315"><ele>121.0</ele><time>2026-04-11T11:36:56.585Z</time></trkpt><trkpt lat="43.7922509" lon="11.3976482"><ele>121.0</ele><time>2026-04-11T11:36:58.585Z</time></trkpt><trkpt lat="43.7922046" lon="11.3977239"><ele>120.99999999999999</ele><time>2026-04-11T11:37:00.584Z</time></trkpt><trkpt lat="43.7921592" lon="11.3977983"><ele>121.0</ele><time>2026-04-11T11:37:02.584Z</time></trkpt><trkpt lat="43.7921209" lon="11.3978793"><ele>121.0</ele><time>2026-04-11T11:37:04.585Z</time></trkpt><trkpt lat="43.7920746" lon="11.3979808"><ele>120.99999999999999</ele><time>2026-04-11T11:37:06.584Z</time></trkpt><trkpt lat="43.792032" lon="11.3980492"><ele>121.0</ele><time>2026-04-11T11:49:00.585Z</time></trkpt><trkpt lat="43.7919919" lon="11.3981408"><ele>121.0</ele><time>2026-04-11T11:49:02.585Z</time></trkpt><trkpt lat="43.7919438" lon="11.3982542"><ele>120.0</ele><time>2026-04-11T11:49:04.585Z</time></trkpt><trkpt lat="43.7918937" lon="11.3983742"><ele>119.0</ele><time>2026-04-11T11:49:06.585Z</time></trkpt><trkpt lat="43.7918528" lon="11.3984828"><ele>118.0</ele><time>2026-04-11T11:49:08.585Z</time></trkpt><trkpt lat="43.7918134" lon="11.3985832"><ele>117.0</ele><time>2026-04-11T11:49:10.584Z</time></trkpt><trkpt lat="43.7917658" lon="11.3987132"><ele>116.0</ele><time>2026-04-11T11:49:12.585Z</time></trkpt><trkpt lat="43.7917135" lon="11.3988724"><ele>116.0</ele><time>2026-04-11T11:49:14.585Z</time></trkpt><trkpt lat="43.7916655" lon="11.3990089"><ele>116.0</ele><time>2026-04-11T11:49:16.585Z</time></trkpt><trkpt lat="43.7916241" lon="11.399117"><ele>116.0</ele><time>2026-04-11T11:49:18.585Z</time></trkpt><trkpt lat="43.7915859" lon="11.3992048"><ele>116.0</ele><time>2026-04-11T11:49:20.585Z</time></trkpt><trkpt lat="43.7915241" lon="11.3992947"><ele>116.0</ele><time>2026-04-11T11:49:22.585Z</time></trkpt><trkpt lat="43.7914595" lon="11.3994019"><ele>116.0</ele><time>2026-04-11T11:49:24.585Z</time></trkpt><trkpt lat="43.7913818" lon="11.3995384"><ele>116.0</ele><time>2026-04-11T11:49:26.585Z</time></trkpt><trkpt lat="43.7913093" lon="11.3996476"><ele>116.0</ele><time>2026-04-11T11:49:28.585Z</time></trkpt><trkpt lat="43.7912437" lon="11.3997402"><ele>116.0</ele><time>2026-04-11T11:49:30.583Z</time></trkpt><trkpt lat="43.7911478" lon="11.3998155"><ele>116.0</ele><time>2026-04-11T11:49:32.584Z</time></trkpt><trkpt lat="43.7910559" lon="11.399888"><ele>113.4</ele><time>2026-04-11T11:49:34.584Z</time></trkpt><trkpt lat="43.7909846" lon="11.3999578"><ele>110.8</ele><time>2026-04-11T11:49:36.584Z</time></trkpt><trkpt lat="43.7909081" lon="11.4000085"><ele>108.2</ele><time>2026-04-11T11:49:38.584Z</time></trkpt><trkpt lat="43.7908232" lon="11.4000816"><ele>105.60000000000001</ele><time>2026-04-11T11:49:40.584Z</time></trkpt><trkpt lat="43.7907426" lon="11.4001538"><ele>103.0</ele><time>2026-04-11T11:49:42.585Z</time></trkpt><trkpt lat="43.7906512" lon="11.4002355"><ele>103.00000000000001</ele><time>2026-04-11T11:49:44.585Z</time></trkpt><trkpt lat="43.7905768" lon="11.4002893"><ele>103.0</ele><time>2026-04-11T11:49:46.585Z</time></trkpt><trkpt lat="43.7904965" lon="11.400353"><ele>103.0</ele><time>2026-04-11T11:49:48.584Z</time></trkpt><trkpt lat="43.7904068" lon="11.4004274"><ele>103.0</ele><time>2026-04-11T11:49:50.585Z</time></trkpt><trkpt lat="43.790357" lon="11.4004869"><ele>103.00000000000001</ele><time>2026-04-11T11:49:52.585Z</time></trkpt><trkpt lat="43.7903293" lon="11.400577"><ele>103.0</ele><time>2026-04-11T11:49:56.584Z</time></trkpt><trkpt lat="43.7903704" lon="11.4006928"><ele>104.33333333333334</ele><time>2026-04-11T11:50:00.585Z</time></trkpt><trkpt lat="43.7904025" lon="11.4008047"><ele>105.66666666666667</ele><time>2026-04-11T11:50:02.585Z</time></trkpt><trkpt lat="43.7904376" lon="11.4008919"><ele>107.0</ele><time>2026-04-11T11:50:04.585Z</time></trkpt><trkpt lat="43.7904721" lon="11.4009687"><ele>108.33333333333334</ele><time>2026-04-11T11:50:08.585Z</time></trkpt><trkpt lat="43.7905383" lon="11.4010143"><ele>109.66666666666667</ele><time>2026-04-11T11:51:02.584Z</time></trkpt><trkpt lat="43.7906127" lon="11.401027"><ele>111.0</ele><time>2026-04-11T11:51:04.584Z</time></trkpt><trkpt lat="43.7906953" lon="11.4010258"><ele>111.0</ele><time>2026-04-11T11:51:06.585Z</time></trkpt><trkpt lat="43.7907836" lon="11.4010452"><ele>111.0</ele><time>2026-04-11T11:51:08.584Z</time></trkpt><trkpt lat="43.7908993" lon="11.4010684"><ele>111.0</ele><time>2026-04-11T11:51:10.584Z</time></trkpt><trkpt lat="43.7909623" lon="11.4010764"><ele>111.0</ele><time>2026-04-11T11:51:11.585Z</time></trkpt><trkpt lat="43.7910735" lon="11.4010936"><ele>111.0</ele><time>2026-04-11T11:51:13.585Z</time></trkpt><trkpt lat="43.79118" lon="11.4011139"><ele>115.19999999999999</ele><time>2026-04-11T11:51:15.584Z</time></trkpt><trkpt lat="43.7912905" lon="11.4011338"><ele>119.39999999999999</ele><time>2026-04-11T11:51:17.585Z</time></trkpt><trkpt lat="43.7913903" lon="11.4011807"><ele>123.6</ele><time>2026-04-11T11:51:19.585Z</time></trkpt><trkpt lat="43.7914881" lon="11.401234"><ele>127.8</ele><time>2026-04-11T11:51:21.585Z</time></trkpt><trkpt lat="43.7915967" lon="11.4012804"><ele>132.0</ele><time>2026-04-11T11:51:23.585Z</time></trkpt><trkpt lat="43.791689" lon="11.4013348"><ele>132.0</ele><time>2026-04-11T11:51:25.585Z</time></trkpt><trkpt lat="43.7917671" lon="11.4013842"><ele>132.0</ele><time>2026-04-11T11:51:27.585Z</time></trkpt><trkpt lat="43.7918564" lon="11.4014204"><ele>132.0</ele><time>2026-04-11T11:51:29.582Z</time></trkpt><trkpt lat="43.7919534" lon="11.4014419"><ele>132.0</ele><time>2026-04-11T11:51:31.584Z</time></trkpt><trkpt lat="43.7920587" lon="11.4014355"><ele>132.0</ele><time>2026-04-11T11:51:33.583Z</time></trkpt><trkpt lat="43.7921738" lon="11.4014354"><ele>135.2</ele><time>2026-04-11T11:51:35.584Z</time></trkpt><trkpt lat="43.7922727" lon="11.4014263"><ele>138.39999999999998</ele><time>2026-04-11T11:51:37.584Z</time></trkpt><trkpt lat="43.7923534" lon="11.4013606"><ele>141.60000000000002</ele><time>2026-04-11T11:51:39.584Z</time></trkpt><trkpt lat="43.7924304" lon="11.401289"><ele>144.8</ele><time>2026-04-11T11:51:41.584Z</time></trkpt><trkpt lat="43.7925054" lon="11.4012982"><ele>148.0</ele><time>2026-04-11T11:51:43.584Z</time></trkpt><trkpt lat="43.792569" lon="11.4013843"><ele>148.0</ele><time>2026-04-11T11:51:45.584Z</time></trkpt><trkpt lat="43.792617" lon="11.4014508"><ele>148.0</ele><time>2026-04-11T11:51:47.584Z</time></trkpt><trkpt lat="43.7926799" lon="11.4015447"><ele>148.0</ele><time>2026-04-11T11:52:19.584Z</time></trkpt><trkpt lat="43.7927303" lon="11.4016401"><ele>148.0</ele><time>2026-04-11T11:52:21.583Z</time></trkpt><trkpt lat="43.792786" lon="11.4017251"><ele>148.0</ele><time>2026-04-11T11:52:23.584Z</time></trkpt><trkpt lat="43.7928561" lon="11.4018142"><ele>148.0</ele><time>2026-04-11T11:52:25.584Z</time></trkpt><trkpt lat="43.7929146" lon="11.4019186"><ele>147.33333333333334</ele><time>2026-04-11T11:52:27.584Z</time></trkpt><trkpt lat="43.7929552" lon="11.401987"><ele>146.66666666666669</ele><time>2026-04-11T11:52:28.583Z</time></trkpt><trkpt lat="43.7930246" lon="11.4021165"><ele>146.0</ele><time>2026-04-11T11:52:30.584Z</time></trkpt><trkpt lat="43.7930859" lon="11.4022611"><ele>145.33333333333334</ele><time>2026-04-11T11:52:32.584Z</time></trkpt><trkpt lat="43.793112" lon="11.4023411"><ele>144.66666666666666</ele><time>2026-04-11T11:52:33.584Z</time></trkpt><trkpt lat="43.7931371" lon="11.4024327"><ele>144.0</ele><time>2026-04-11T11:52:34.584Z</time></trkpt><trkpt lat="43.7931596" lon="11.4025186"><ele>144.0</ele><time>2026-04-11T11:52:35.583Z</time></trkpt><trkpt lat="43.7931882" lon="11.4026196"><ele>144.0</ele><time>2026-04-11T11:52:36.584Z</time></trkpt><trkpt lat="43.7932212" lon="11.4027198"><ele>144.0</ele><time>2026-04-11T11:52:37.584Z</time></trkpt><trkpt lat="43.7932514" lon="11.4028063"><ele>144.0</ele><time>2026-04-11T11:52:38.584Z</time></trkpt><trkpt lat="43.7932897" lon="11.4028999"><ele>144.0</ele><time>2026-04-11T11:52:39.583Z</time></trkpt><trkpt lat="43.7933308" lon="11.4029813"><ele>144.0</ele><time>2026-04-11T11:52:40.584Z</time></trkpt><trkpt lat="43.7933791" lon="11.4030704"><ele>144.66666666666666</ele><time>2026-04-11T11:52:41.584Z</time></trkpt><trkpt lat="43.7934242" lon="11.403163"><ele>145.33333333333334</ele><time>2026-04-11T11:52:42.583Z</time></trkpt><trkpt lat="43.7934759" lon="11.4032663"><ele>146.0</ele><time>2026-04-11T11:52:43.582Z</time></trkpt><trkpt lat="43.7935193" lon="11.4033755"><ele>146.66666666666669</ele><time>2026-04-11T11:52:44.584Z</time></trkpt><trkpt lat="43.7935653" lon="11.4034879"><ele>147.33333333333334</ele><time>2026-04-11T11:52:45.583Z</time></trkpt><trkpt lat="43.7936118" lon="11.4035966"><ele>148.0</ele><time>2026-04-11T11:52:46.583Z</time></trkpt><trkpt lat="43.7936587" lon="11.4037102"><ele>145.83333333333334</ele><time>2026-04-11T11:52:47.583Z</time></trkpt><trkpt lat="43.7936989" lon="11.4038312"><ele>143.66666666666669</ele><time>2026-04-11T11:52:48.584Z</time></trkpt><trkpt lat="43.7937437" lon="11.403946"><ele>141.5</ele><time>2026-04-11T11:52:49.584Z</time></trkpt><trkpt lat="43.7937849" lon="11.4040512"><ele>139.33333333333334</ele><time>2026-04-11T11:52:50.584Z</time></trkpt><trkpt lat="43.79382" lon="11.4041604"><ele>137.16666666666666</ele><time>2026-04-11T11:52:51.583Z</time></trkpt><trkpt lat="43.7938446" lon="11.4042611"><ele>135.0</ele><time>2026-04-11T11:52:52.584Z</time></trkpt><trkpt lat="43.7938588" lon="11.4043599"><ele>135.0</ele><time>2026-04-11T11:52:53.582Z</time></trkpt><trkpt lat="43.7938542" lon="11.404525"><ele>135.0</ele><time>2026-04-11T11:52:55.583Z</time></trkpt><trkpt lat="43.7938118" lon="11.4046273"><ele>135.0</ele><time>2026-04-11T11:52:57.584Z</time></trkpt><trkpt lat="43.7937576" lon="11.4046802"><ele>135.0</ele><time>2026-04-11T11:53:01.584Z</time></trkpt><trkpt lat="43.7936739" lon="11.4047219"><ele>135.0</ele><time>2026-04-11T11:53:04.584Z</time></trkpt><trkpt lat="43.7935646" lon="11.4047304"><ele>134.66666666666666</ele><time>2026-04-11T11:53:06.583Z</time></trkpt><trkpt lat="43.7934993" lon="11.4047306"><ele>134.33333333333334</ele><time>2026-04-11T11:53:07.584Z</time></trkpt><trkpt lat="43.7934328" lon="11.4047379"><ele>134.0</ele><time>2026-04-11T11:53:08.584Z</time></trkpt><trkpt lat="43.7933665" lon="11.4047437"><ele>133.66666666666669</ele><time>2026-04-11T11:53:09.584Z</time></trkpt><trkpt lat="43.793295" lon="11.4047471"><ele>133.33333333333334</ele><time>2026-04-11T11:53:10.584Z</time></trkpt><trkpt lat="43.7932277" lon="11.4047525"><ele>133.0</ele><time>2026-04-11T11:53:11.583Z</time></trkpt><trkpt lat="43.7931109" lon="11.4047752"><ele>133.0</ele><time>2026-04-11T11:53:13.583Z</time></trkpt><trkpt lat="43.7929955" lon="11.4048013"><ele>133.0</ele><time>2026-04-11T11:53:15.584Z</time></trkpt><trkpt lat="43.7929993" lon="11.4049161"><ele>133.0</ele><time>2026-04-11T11:53:16.583Z</time></trkpt><trkpt lat="43.7930058" lon="11.40511"><ele>133.0</ele><time>2026-04-11T11:53:18.584Z</time></trkpt><trkpt lat="43.7930195" lon="11.405236"><ele>133.0</ele><time>2026-04-11T11:53:19.583Z</time></trkpt><trkpt lat="43.7930563" lon="11.4053649"><ele>134.33333333333334</ele><time>2026-04-11T11:53:20.583Z</time></trkpt><trkpt lat="43.7930937" lon="11.4054976"><ele>135.66666666666669</ele><time>2026-04-11T11:53:21.583Z</time></trkpt><trkpt lat="43.7931267" lon="11.4056215"><ele>137.0</ele><time>2026-04-11T11:53:22.583Z</time></trkpt><trkpt lat="43.7931615" lon="11.4057272"><ele>138.33333333333334</ele><time>2026-04-11T11:53:23.584Z</time></trkpt><trkpt lat="43.7931694" lon="11.4058373"><ele>139.66666666666666</ele><time>2026-04-11T11:53:24.582Z</time></trkpt><trkpt lat="43.7931581" lon="11.4059379"><ele>141.0</ele><time>2026-04-11T11:53:25.584Z</time></trkpt><trkpt lat="43.7931358" lon="11.4060208"><ele>141.0</ele><time>2026-04-11T11:53:26.583Z</time></trkpt><trkpt lat="43.7931087" lon="11.4061115"><ele>141.0</ele><time>2026-04-11T11:53:28.584Z</time></trkpt><trkpt lat="43.7931603" lon="11.4062037"><ele>141.0</ele><time>2026-04-11T11:53:33.584Z</time></trkpt><trkpt lat="43.793195" lon="11.4062876"><ele>141.0</ele><time>2026-04-11T11:53:36.584Z</time></trkpt><trkpt lat="43.7932318" lon="11.4063685"><ele>141.0</ele><time>2026-04-11T11:53:38.584Z</time></trkpt><trkpt lat="43.7932778" lon="11.4064696"><ele>141.0</ele><time>2026-04-11T11:53:40.583Z</time></trkpt><trkpt lat="43.7933325" lon="11.4065712"><ele>142.5</ele><time>2026-04-11T11:53:42.583Z</time></trkpt><trkpt lat="43.7933813" lon="11.4066865"><ele>144.0</ele><time>2026-04-11T11:53:44.582Z</time></trkpt><trkpt lat="43.7934471" lon="11.4068039"><ele>145.5</ele><time>2026-04-11T11:53:46.584Z</time></trkpt><trkpt lat="43.7934953" lon="11.4068714"><ele>147.0</ele><time>2026-04-11T11:53:47.584Z</time></trkpt><trkpt lat="43.7935614" lon="11.4069368"><ele>148.5</ele><time>2026-04-11T11:53:48.584Z</time></trkpt><trkpt lat="43.7936372" lon="11.4070048"><ele>150.0</ele><time>2026-04-11T11:53:49.583Z</time></trkpt><trkpt lat="43.7937155" lon="11.4070837"><ele>150.0</ele><time>2026-04-11T11:53:50.582Z</time></trkpt><trkpt lat="43.7937917" lon="11.4071599"><ele>150.0</ele><time>2026-04-11T11:53:51.584Z</time></trkpt><trkpt lat="43.7938548" lon="11.4072506"><ele>150.0</ele><time>2026-04-11T11:53:52.584Z</time></trkpt><trkpt lat="43.793906" lon="11.4073587"><ele>150.0</ele><time>2026-04-11T11:53:53.583Z</time></trkpt><trkpt lat="43.7939516" lon="11.4074682"><ele>150.0</ele><time>2026-04-11T11:53:54.584Z</time></trkpt><trkpt lat="43.7939825" lon="11.4075774"><ele>151.66666666666666</ele><time>2026-04-11T11:53:55.583Z</time></trkpt><trkpt lat="43.7940095" lon="11.4076693"><ele>153.33333333333334</ele><time>2026-04-11T11:53:56.584Z</time></trkpt><trkpt lat="43.7939705" lon="11.4077868"><ele>155.0</ele><time>2026-04-11T11:53:58.584Z</time></trkpt><trkpt lat="43.7938868" lon="11.4077576"><ele>156.66666666666669</ele><time>2026-04-11T11:54:00.583Z</time></trkpt><trkpt lat="43.7938414" lon="11.40769"><ele>158.33333333333334</ele><time>2026-04-11T11:54:01.584Z</time></trkpt><trkpt lat="43.7937918" lon="11.4076042"><ele>160.0</ele><time>2026-04-11T11:54:02.584Z</time></trkpt><trkpt lat="43.7937377" lon="11.4075219"><ele>160.0</ele><time>2026-04-11T11:54:03.584Z</time></trkpt><trkpt lat="43.7936847" lon="11.407446"><ele>160.0</ele><time>2026-04-11T11:54:04.583Z</time></trkpt><trkpt lat="43.793622" lon="11.4073866"><ele>160.0</ele><time>2026-04-11T11:54:05.584Z</time></trkpt><trkpt lat="43.7935415" lon="11.4073546"><ele>160.0</ele><time>2026-04-11T11:54:06.584Z</time></trkpt><trkpt lat="43.79344" lon="11.4073874"><ele>160.0</ele><time>2026-04-11T11:54:07.583Z</time></trkpt><trkpt lat="43.7933483" lon="11.4073886"><ele>160.0</ele><time>2026-04-11T11:54:08.584Z</time></trkpt><trkpt lat="43.7932523" lon="11.4074401"><ele>163.5</ele><time>2026-04-11T11:54:09.584Z</time></trkpt><trkpt lat="43.7931207" lon="11.4074781"><ele>167.0</ele><time>2026-04-11T11:54:10.584Z</time></trkpt><trkpt lat="43.7929872" lon="11.4075595"><ele>170.5</ele><time>2026-04-11T11:54:11.584Z</time></trkpt><trkpt lat="43.7928561" lon="11.4076242"><ele>174.0</ele><time>2026-04-11T11:54:12.584Z</time></trkpt><trkpt lat="43.7927557" lon="11.4076453"><ele>174.0</ele><time>2026-04-11T11:54:13.583Z</time></trkpt><trkpt lat="43.7926936" lon="11.4077323"><ele>174.0</ele><time>2026-04-11T11:54:14.584Z</time></trkpt><trkpt lat="43.7926156" lon="11.4077899"><ele>174.0</ele><time>2026-04-11T11:54:15.584Z</time></trkpt><trkpt lat="43.7925311" lon="11.4078846"><ele>174.0</ele><time>2026-04-11T11:54:17.584Z</time></trkpt><trkpt lat="43.792609" lon="11.4079379"><ele>174.0</ele><time>2026-04-11T11:54:18.584Z</time></trkpt><trkpt lat="43.7927516" lon="11.4080007"><ele>177.25</ele><time>2026-04-11T11:54:20.584Z</time></trkpt><trkpt lat="43.7928626" lon="11.4080117"><ele>180.5</ele><time>2026-04-11T11:54:21.584Z</time></trkpt><trkpt lat="43.792977" lon="11.4080326"><ele>183.75</ele><time>2026-04-11T11:54:22.584Z</time></trkpt><trkpt lat="43.7930882" lon="11.4080706"><ele>187.0</ele><time>2026-04-11T11:54:23.584Z</time></trkpt><trkpt lat="43.7931888" lon="11.4081419"><ele>187.0</ele><time>2026-04-11T11:54:24.584Z</time></trkpt><trkpt lat="43.793278" lon="11.4082445"><ele>187.0</ele><time>2026-04-11T11:54:25.584Z</time></trkpt><trkpt lat="43.7933757" lon="11.4083625"><ele>187.0</ele><time>2026-04-11T11:54:26.584Z</time></trkpt><trkpt lat="43.793467" lon="11.408504"><ele>187.0</ele><time>2026-04-11T11:54:27.583Z</time></trkpt><trkpt lat="43.7935425" lon="11.408631"><ele>185.2</ele><time>2026-04-11T11:54:28.584Z</time></trkpt><trkpt lat="43.793608" lon="11.4087577"><ele>183.39999999999998</ele><time>2026-04-11T11:54:29.584Z</time></trkpt><trkpt lat="43.7936548" lon="11.4088791"><ele>181.60000000000002</ele><time>2026-04-11T11:54:30.584Z</time></trkpt><trkpt lat="43.7936599" lon="11.4090068"><ele>179.8</ele><time>2026-04-11T11:54:31.584Z</time></trkpt><trkpt lat="43.7936774" lon="11.4091151"><ele>178.0</ele><time>2026-04-11T11:54:32.583Z</time></trkpt><trkpt lat="43.7936593" lon="11.4092709"><ele>178.0</ele><time>2026-04-11T11:54:33.583Z</time></trkpt><trkpt lat="43.7936453" lon="11.4094007"><ele>178.0</ele><time>2026-04-11T11:54:34.584Z</time></trkpt><trkpt lat="43.793634" lon="11.40954"><ele>178.0</ele><time>2026-04-11T11:54:35.583Z</time></trkpt><trkpt lat="43.7936339" lon="11.40969"><ele>178.0</ele><time>2026-04-11T11:54:36.584Z</time></trkpt><trkpt lat="43.7936527" lon="11.4098257"><ele>178.0</ele><time>2026-04-11T11:54:37.583Z</time></trkpt><trkpt lat="43.793682" lon="11.4099604"><ele>180.4</ele><time>2026-04-11T11:54:38.584Z</time></trkpt><trkpt lat="43.7937195" lon="11.4100699"><ele>182.8</ele><time>2026-04-11T11:54:39.584Z</time></trkpt><trkpt lat="43.7937713" lon="11.4101785"><ele>185.2</ele><time>2026-04-11T11:54:40.584Z</time></trkpt><trkpt lat="43.7938279" lon="11.4102866"><ele>187.6</ele><time>2026-04-11T11:54:41.583Z</time></trkpt><trkpt lat="43.7938912" lon="11.4103942"><ele>190.0</ele><time>2026-04-11T11:54:42.584Z</time></trkpt><trkpt lat="43.7939585" lon="11.410489"><ele>191.25</ele><time>2026-04-11T11:54:43.583Z</time></trkpt><trkpt lat="43.7940381" lon="11.4105736"><ele>192.5</ele><time>2026-04-11T11:54:44.584Z</time></trkpt><trkpt lat="43.7941345" lon="11.4106495"><ele>193.75</ele><time>2026-04-11T11:54:45.584Z</time></trkpt><trkpt lat="43.7942362" lon="11.4107239"><ele>195.0</ele><time>2026-04-11T11:54:46.583Z</time></trkpt><trkpt lat="43.7943522" lon="11.4107954"><ele>196.0</ele><time>2026-04-11T11:54:47.584Z</time></trkpt><trkpt lat="43.7944727" lon="11.4108752"><ele>197.0</ele><time>2026-04-11T11:54:48.582Z</time></trkpt><trkpt lat="43.7946005" lon="11.410953"><ele>198.0</ele><time>2026-04-11T11:54:49.583Z</time></trkpt><trkpt lat="43.794735" lon="11.4110283"><ele>199.0</ele><time>2026-04-11T11:54:50.583Z</time></trkpt><trkpt lat="43.7948834" lon="11.4110961"><ele>199.0</ele><time>2026-04-11T11:54:51.584Z</time></trkpt><trkpt lat="43.7950295" lon="11.4111767"><ele>199.0</ele><time>2026-04-11T11:54:52.584Z</time></trkpt><trkpt lat="43.7951681" lon="11.4112486"><ele>199.0</ele><time>2026-04-11T11:54:53.584Z</time></trkpt><trkpt lat="43.7952994" lon="11.4113187"><ele>199.0</ele><time>2026-04-11T11:54:54.584Z</time></trkpt><trkpt lat="43.7954445" lon="11.4113864"><ele>203.75</ele><time>2026-04-11T11:54:55.584Z</time></trkpt><trkpt lat="43.7955875" lon="11.411447"><ele>208.5</ele><time>2026-04-11T11:54:56.583Z</time></trkpt><trkpt lat="43.7957136" lon="11.4115061"><ele>213.25</ele><time>2026-04-11T11:54:57.583Z</time></trkpt><trkpt lat="43.7958346" lon="11.4115617"><ele>218.0</ele><time>2026-04-11T11:54:58.584Z</time></trkpt><trkpt lat="43.7959574" lon="11.4116187"><ele>218.8</ele><time>2026-04-11T11:54:59.583Z</time></trkpt><trkpt lat="43.7960548" lon="11.4116696"><ele>219.60000000000002</ele><time>2026-04-11T11:55:00.584Z</time></trkpt><trkpt lat="43.7961556" lon="11.4117184"><ele>220.39999999999998</ele><time>2026-04-11T11:55:01.583Z</time></trkpt><trkpt lat="43.7961495" lon="11.4118575"><ele>221.2</ele><time>2026-04-11T11:55:03.584Z</time></trkpt><trkpt lat="43.7961074" lon="11.4119409"><ele>222.0</ele><time>2026-04-11T11:55:05.584Z</time></trkpt><trkpt lat="43.7960131" lon="11.4119096"><ele>221.33333333333334</ele><time>2026-04-11T11:55:06.584Z</time></trkpt><trkpt lat="43.7959175" lon="11.4118719"><ele>220.66666666666669</ele><time>2026-04-11T11:55:07.583Z</time></trkpt><trkpt lat="43.7958511" lon="11.4118426"><ele>220.0</ele><time>2026-04-11T11:55:08.584Z</time></trkpt><trkpt lat="43.7957809" lon="11.4118558"><ele>219.33333333333334</ele><time>2026-04-11T11:55:09.584Z</time></trkpt><trkpt lat="43.7957222" lon="11.4119617"><ele>218.66666666666669</ele><time>2026-04-11T11:55:11.584Z</time></trkpt><trkpt lat="43.7957509" lon="11.4120436"><ele>218.0</ele><time>2026-04-11T11:55:12.584Z</time></trkpt><trkpt lat="43.795794" lon="11.4121106"><ele>219.60000000000002</ele><time>2026-04-11T11:55:13.584Z</time></trkpt><trkpt lat="43.795854" lon="11.4121819"><ele>221.20000000000002</ele><time>2026-04-11T11:55:14.583Z</time></trkpt><trkpt lat="43.7959256" lon="11.4122655"><ele>222.8</ele><time>2026-04-11T11:55:15.583Z</time></trkpt><trkpt lat="43.7959936" lon="11.4123551"><ele>224.4</ele><time>2026-04-11T11:55:16.584Z</time></trkpt><trkpt lat="43.7960816" lon="11.4124379"><ele>226.0</ele><time>2026-04-11T11:55:17.584Z</time></trkpt><trkpt lat="43.7961502" lon="11.4125129"><ele>226.83333333333331</ele><time>2026-04-11T11:55:18.584Z</time></trkpt><trkpt lat="43.7962209" lon="11.412555"><ele>227.66666666666666</ele><time>2026-04-11T11:55:19.584Z</time></trkpt><trkpt lat="43.796277" lon="11.4125996"><ele>228.5</ele><time>2026-04-11T11:55:20.583Z</time></trkpt><trkpt lat="43.7963654" lon="11.4126726"><ele>229.33333333333331</ele><time>2026-04-11T11:55:22.584Z</time></trkpt><trkpt lat="43.7963993" lon="11.4127753"><ele>230.16666666666666</ele><time>2026-04-11T11:55:24.584Z</time></trkpt><trkpt lat="43.7963676" lon="11.4128511"><ele>231.0</ele><time>2026-04-11T11:55:25.584Z</time></trkpt><trkpt lat="43.7963153" lon="11.4129904"><ele>232.4</ele><time>2026-04-11T11:55:27.584Z</time></trkpt><trkpt lat="43.7962863" lon="11.4130697"><ele>233.8</ele><time>2026-04-11T11:55:28.584Z</time></trkpt><trkpt lat="43.7962737" lon="11.4131631"><ele>235.20000000000002</ele><time>2026-04-11T11:55:29.584Z</time></trkpt><trkpt lat="43.7962375" lon="11.4133131"><ele>236.60000000000002</ele><time>2026-04-11T11:55:31.584Z</time></trkpt><trkpt lat="43.7962626" lon="11.4134725"><ele>238.0</ele><time>2026-04-11T11:55:33.583Z</time></trkpt><trkpt lat="43.7963213" lon="11.4136499"><ele>237.99999999999997</ele><time>2026-04-11T11:55:35.584Z</time></trkpt><trkpt lat="43.7963464" lon="11.4137422"><ele>238.0</ele><time>2026-04-11T11:55:36.584Z</time></trkpt><trkpt lat="43.7963704" lon="11.4138466"><ele>238.0</ele><time>2026-04-11T11:55:37.583Z</time></trkpt><trkpt lat="43.7964026" lon="11.4139519"><ele>238.0</ele><time>2026-04-11T11:55:38.583Z</time></trkpt><trkpt lat="43.7964369" lon="11.4140618"><ele>237.99999999999997</ele><time>2026-04-11T11:55:39.584Z</time></trkpt><trkpt lat="43.7964497" lon="11.4141747"><ele>238.0</ele><time>2026-04-11T11:55:40.584Z</time></trkpt><trkpt lat="43.7964479" lon="11.414296"><ele>239.60000000000002</ele><time>2026-04-11T11:55:41.584Z</time></trkpt><trkpt lat="43.796431" lon="11.4144483"><ele>241.20000000000002</ele><time>2026-04-11T11:55:42.583Z</time></trkpt><trkpt lat="43.7964006" lon="11.4146123"><ele>242.8</ele><time>2026-04-11T11:55:43.584Z</time></trkpt><trkpt lat="43.7963737" lon="11.4147528"><ele>244.4</ele><time>2026-04-11T11:55:44.584Z</time></trkpt><trkpt lat="43.7963545" lon="11.4148736"><ele>246.0</ele><time>2026-04-11T11:55:45.584Z</time></trkpt><trkpt lat="43.7963397" lon="11.4149936"><ele>248.0</ele><time>2026-04-11T11:55:46.584Z</time></trkpt><trkpt lat="43.7963167" lon="11.4151149"><ele>250.0</ele><time>2026-04-11T11:55:47.583Z</time></trkpt><trkpt lat="43.7962959" lon="11.4152435"><ele>252.0</ele><time>2026-04-11T11:55:48.584Z</time></trkpt><trkpt lat="43.7962668" lon="11.415356"><ele>254.0</ele><time>2026-04-11T11:55:49.583Z</time></trkpt><trkpt lat="43.796237" lon="11.4154664"><ele>256.0</ele><time>2026-04-11T11:55:50.584Z</time></trkpt><trkpt lat="43.7962157" lon="11.4155629"><ele>258.0</ele><time>2026-04-11T11:55:51.584Z</time></trkpt><trkpt lat="43.7963034" lon="11.4156389"><ele>258.8</ele><time>2026-04-11T11:56:08.583Z</time></trkpt><trkpt lat="43.7964059" lon="11.4156826"><ele>259.6</ele><time>2026-04-11T11:56:10.584Z</time></trkpt><trkpt lat="43.7964963" lon="11.4157311"><ele>260.4</ele><time>2026-04-11T11:56:12.583Z</time></trkpt><trkpt lat="43.7966157" lon="11.4157862"><ele>261.2</ele><time>2026-04-11T11:56:14.584Z</time></trkpt><trkpt lat="43.7966949" lon="11.4158235"><ele>262.0</ele><time>2026-04-11T11:56:15.584Z</time></trkpt><trkpt lat="43.7967636" lon="11.415857"><ele>263.0</ele><time>2026-04-11T11:56:16.584Z</time></trkpt><trkpt lat="43.7968704" lon="11.4159045"><ele>264.0</ele><time>2026-04-11T11:56:18.584Z</time></trkpt><trkpt lat="43.796942" lon="11.4159418"><ele>265.0</ele><time>2026-04-11T11:56:20.584Z</time></trkpt><trkpt lat="43.7970416" lon="11.4159893"><ele>266.0</ele><time>2026-04-11T11:56:22.584Z</time></trkpt><trkpt lat="43.7971467" lon="11.4160581"><ele>267.0</ele><time>2026-04-11T11:56:24.584Z</time></trkpt><trkpt lat="43.797227" lon="11.4161276"><ele>267.0</ele><time>2026-04-11T11:56:26.583Z</time></trkpt><trkpt lat="43.7972784" lon="11.4161781"><ele>267.0</ele><time>2026-04-11T11:56:27.584Z</time></trkpt><trkpt lat="43.7973813" lon="11.416265"><ele>267.0</ele><time>2026-04-11T11:56:29.584Z</time></trkpt><trkpt lat="43.7974717" lon="11.4163493"><ele>267.0</ele><time>2026-04-11T11:56:31.583Z</time></trkpt><trkpt lat="43.7975797" lon="11.4164394"><ele>267.0</ele><time>2026-04-11T11:56:33.584Z</time></trkpt><trkpt lat="43.7976383" lon="11.4164921"><ele>264.0</ele><time>2026-04-11T11:56:34.583Z</time></trkpt><trkpt lat="43.7976963" lon="11.4165415"><ele>261.0</ele><time>2026-04-11T11:56:35.583Z</time></trkpt><trkpt lat="43.7977874" lon="11.4166184"><ele>258.0</ele><time>2026-04-11T11:56:37.584Z</time></trkpt><trkpt lat="43.7978419" lon="11.4166658"><ele>255.0</ele><time>2026-04-11T11:56:38.584Z</time></trkpt><trkpt lat="43.7979243" lon="11.4167699"><ele>252.0</ele><time>2026-04-11T11:56:40.583Z</time></trkpt><trkpt lat="43.7979953" lon="11.4168956"><ele>252.0</ele><time>2026-04-11T11:56:42.583Z</time></trkpt><trkpt lat="43.7980167" lon="11.4169846"><ele>252.0</ele><time>2026-04-11T11:56:43.584Z</time></trkpt><trkpt lat="43.7980395" lon="11.4170803"><ele>252.0</ele><time>2026-04-11T11:56:44.584Z</time></trkpt><trkpt lat="43.7980678" lon="11.417159"><ele>252.0</ele><time>2026-04-11T11:56:45.583Z</time></trkpt><trkpt lat="43.7981163" lon="11.4172726"><ele>252.0</ele><time>2026-04-11T11:56:47.583Z</time></trkpt><trkpt lat="43.7981647" lon="11.4174088"><ele>252.0</ele><time>2026-04-11T11:56:49.583Z</time></trkpt><trkpt lat="43.7981773" lon="11.4175037"><ele>252.39999999999998</ele><time>2026-04-11T11:56:50.584Z</time></trkpt><trkpt lat="43.7981938" lon="11.4175903"><ele>252.79999999999998</ele><time>2026-04-11T11:56:51.583Z</time></trkpt><trkpt lat="43.7982298" lon="11.4177349"><ele>253.2</ele><time>2026-04-11T11:56:53.584Z</time></trkpt><trkpt lat="43.7981983" lon="11.4178749"><ele>253.6</ele><time>2026-04-11T11:56:55.584Z</time></trkpt><trkpt lat="43.7981493" lon="11.417939"><ele>254.0</ele><time>2026-04-11T11:56:56.584Z</time></trkpt><trkpt lat="43.7980567" lon="11.4180355"><ele>254.6</ele><time>2026-04-11T11:56:58.584Z</time></trkpt><trkpt lat="43.7979677" lon="11.4181352"><ele>255.2</ele><time>2026-04-11T11:57:00.584Z</time></trkpt><trkpt lat="43.7978905" lon="11.4182387"><ele>255.79999999999998</ele><time>2026-04-11T11:57:02.584Z</time></trkpt><trkpt lat="43.7978628" lon="11.4183454"><ele>256.4</ele><time>2026-04-11T11:57:04.584Z</time></trkpt><trkpt lat="43.7978575" lon="11.4184363"><ele>257.0</ele><time>2026-04-11T11:57:05.584Z</time></trkpt><trkpt lat="43.7978647" lon="11.4185487"><ele>257.0</ele><time>2026-04-11T11:57:06.584Z</time></trkpt><trkpt lat="43.7978783" lon="11.4186791"><ele>257.0</ele><time>2026-04-11T11:57:07.584Z</time></trkpt><trkpt lat="43.7978935" lon="11.4188136"><ele>257.0</ele><time>2026-04-11T11:57:08.584Z</time></trkpt><trkpt lat="43.7979104" lon="11.4189486"><ele>257.0</ele><time>2026-04-11T11:57:09.584Z</time></trkpt><trkpt lat="43.7979189" lon="11.4190833"><ele>257.0</ele><time>2026-04-11T11:57:10.584Z</time></trkpt><trkpt lat="43.797921" lon="11.4192151"><ele>256.6</ele><time>2026-04-11T11:57:11.583Z</time></trkpt><trkpt lat="43.7979188" lon="11.4193546"><ele>256.2</ele><time>2026-04-11T11:57:12.583Z</time></trkpt><trkpt lat="43.7979066" lon="11.4194992"><ele>255.8</ele><time>2026-04-11T11:57:13.583Z</time></trkpt><trkpt lat="43.7978836" lon="11.4196424"><ele>255.4</ele><time>2026-04-11T11:57:14.584Z</time></trkpt><trkpt lat="43.7978493" lon="11.4197813"><ele>255.0</ele><time>2026-04-11T11:57:15.584Z</time></trkpt><trkpt lat="43.7978084" lon="11.4199245"><ele>254.2</ele><time>2026-04-11T11:57:16.584Z</time></trkpt><trkpt lat="43.797759" lon="11.4200655"><ele>253.4</ele><time>2026-04-11T11:57:17.583Z</time></trkpt><trkpt lat="43.7977054" lon="11.4201965"><ele>252.60000000000002</ele><time>2026-04-11T11:57:18.584Z</time></trkpt><trkpt lat="43.7976471" lon="11.4203173"><ele>251.8</ele><time>2026-04-11T11:57:19.584Z</time></trkpt><trkpt lat="43.7975766" lon="11.4204217"><ele>251.0</ele><time>2026-04-11T11:57:20.584Z</time></trkpt><trkpt lat="43.7975055" lon="11.420536"><ele>248.60000000000002</ele><time>2026-04-11T11:57:21.584Z</time></trkpt><trkpt lat="43.7974388" lon="11.4206584"><ele>246.20000000000002</ele><time>2026-04-11T11:57:22.583Z</time></trkpt><trkpt lat="43.7973822" lon="11.4207826"><ele>243.79999999999998</ele><time>2026-04-11T11:57:23.583Z</time></trkpt><trkpt lat="43.7973238" lon="11.4209025"><ele>241.39999999999998</ele><time>2026-04-11T11:57:24.584Z</time></trkpt><trkpt lat="43.7972713" lon="11.421016"><ele>239.0</ele><time>2026-04-11T11:57:25.584Z</time></trkpt><trkpt lat="43.7972206" lon="11.4211258"><ele>239.0</ele><time>2026-04-11T11:57:26.583Z</time></trkpt><trkpt lat="43.7971765" lon="11.4212267"><ele>238.99999999999997</ele><time>2026-04-11T11:57:27.583Z</time></trkpt><trkpt lat="43.7971317" lon="11.4213379"><ele>238.99999999999997</ele><time>2026-04-11T11:57:28.584Z</time></trkpt><trkpt lat="43.7970887" lon="11.4214634"><ele>239.0</ele><time>2026-04-11T11:57:29.584Z</time></trkpt><trkpt lat="43.7970459" lon="11.4215925"><ele>239.0</ele><time>2026-04-11T11:57:30.584Z</time></trkpt><trkpt lat="43.7970073" lon="11.4217117"><ele>239.79999999999998</ele><time>2026-04-11T11:57:31.583Z</time></trkpt><trkpt lat="43.7969678" lon="11.4218253"><ele>240.59999999999997</ele><time>2026-04-11T11:57:32.584Z</time></trkpt><trkpt lat="43.796931" lon="11.4219265"><ele>241.4</ele><time>2026-04-11T11:57:33.583Z</time></trkpt><trkpt lat="43.7968983" lon="11.4220165"><ele>242.2</ele><time>2026-04-11T11:57:34.584Z</time></trkpt><trkpt lat="43.7968541" lon="11.4221627"><ele>243.0</ele><time>2026-04-11T11:57:36.584Z</time></trkpt><trkpt lat="43.7968489" lon="11.4223195"><ele>243.16666666666666</ele><time>2026-04-11T11:57:38.584Z</time></trkpt><trkpt lat="43.7968721" lon="11.4224987"><ele>243.33333333333331</ele><time>2026-04-11T11:57:40.584Z</time></trkpt><trkpt lat="43.7968847" lon="11.4226047"><ele>243.5</ele><time>2026-04-11T11:57:41.583Z</time></trkpt><trkpt lat="43.7968824" lon="11.4227088"><ele>243.66666666666666</ele><time>2026-04-11T11:57:42.584Z</time></trkpt><trkpt lat="43.7968655" lon="11.4228144"><ele>243.83333333333331</ele><time>2026-04-11T11:57:43.584Z</time></trkpt><trkpt lat="43.7968339" lon="11.4229044"><ele>244.0</ele><time>2026-04-11T11:57:44.584Z</time></trkpt><trkpt lat="43.7967791" lon="11.4229877"><ele>239.79999999999998</ele><time>2026-04-11T11:57:45.583Z</time></trkpt><trkpt lat="43.796718" lon="11.4230619"><ele>235.59999999999997</ele><time>2026-04-11T11:57:46.584Z</time></trkpt><trkpt lat="43.796657" lon="11.4231427"><ele>231.4</ele><time>2026-04-11T11:57:47.583Z</time></trkpt><trkpt lat="43.7966041" lon="11.4232365"><ele>227.2</ele><time>2026-04-11T11:57:48.584Z</time></trkpt><trkpt lat="43.7965615" lon="11.4233557"><ele>223.0</ele><time>2026-04-11T11:57:49.584Z</time></trkpt><trkpt lat="43.7965287" lon="11.4235031"><ele>223.0</ele><time>2026-04-11T11:57:50.584Z</time></trkpt><trkpt lat="43.7964993" lon="11.4236658"><ele>223.0</ele><time>2026-04-11T11:57:51.584Z</time></trkpt><trkpt lat="43.7964693" lon="11.4238263"><ele>223.0</ele><time>2026-04-11T11:57:52.583Z</time></trkpt><trkpt lat="43.7964419" lon="11.4239872"><ele>223.0</ele><time>2026-04-11T11:57:53.583Z</time></trkpt><trkpt lat="43.796413" lon="11.42414"><ele>224.0</ele><time>2026-04-11T11:57:54.583Z</time></trkpt><trkpt lat="43.7963801" lon="11.4242687"><ele>225.0</ele><time>2026-04-11T11:57:55.584Z</time></trkpt><trkpt lat="43.796344" lon="11.4243836"><ele>226.0</ele><time>2026-04-11T11:57:56.583Z</time></trkpt><trkpt lat="43.7962975" lon="11.4244811"><ele>227.0</ele><time>2026-04-11T11:57:57.584Z</time></trkpt><trkpt lat="43.79626" lon="11.4245824"><ele>228.0</ele><time>2026-04-11T11:57:58.584Z</time></trkpt><trkpt lat="43.7962306" lon="11.4247087"><ele>228.66666666666666</ele><time>2026-04-11T11:57:59.584Z</time></trkpt><trkpt lat="43.7962254" lon="11.42484"><ele>229.33333333333331</ele><time>2026-04-11T11:58:00.583Z</time></trkpt><trkpt lat="43.7962238" lon="11.4249647"><ele>230.0</ele><time>2026-04-11T11:58:01.583Z</time></trkpt><trkpt lat="43.7962233" lon="11.4250797"><ele>230.66666666666666</ele><time>2026-04-11T11:58:02.583Z</time></trkpt><trkpt lat="43.7961991" lon="11.4251611"><ele>231.33333333333331</ele><time>2026-04-11T11:58:03.584Z</time></trkpt><trkpt lat="43.7961088" lon="11.4252601"><ele>232.0</ele><time>2026-04-11T11:58:05.584Z</time></trkpt><trkpt lat="43.7959617" lon="11.4252254"><ele>228.6</ele><time>2026-04-11T11:58:07.584Z</time></trkpt><trkpt lat="43.7958912" lon="11.4251873"><ele>225.2</ele><time>2026-04-11T11:58:08.584Z</time></trkpt><trkpt lat="43.7958064" lon="11.4251523"><ele>221.8</ele><time>2026-04-11T11:58:09.584Z</time></trkpt><trkpt lat="43.7957052" lon="11.4250979"><ele>218.4</ele><time>2026-04-11T11:58:10.584Z</time></trkpt><trkpt lat="43.7956049" lon="11.4250794"><ele>215.0</ele><time>2026-04-11T11:58:11.583Z</time></trkpt><trkpt lat="43.7954942" lon="11.4250668"><ele>215.0</ele><time>2026-04-11T11:58:12.584Z</time></trkpt><trkpt lat="43.795395" lon="11.4250449"><ele>215.0</ele><time>2026-04-11T11:58:13.584Z</time></trkpt><trkpt lat="43.7952843" lon="11.4250013"><ele>215.0</ele><time>2026-04-11T11:58:14.584Z</time></trkpt><trkpt lat="43.7951725" lon="11.4249387"><ele>215.0</ele><time>2026-04-11T11:58:15.584Z</time></trkpt><trkpt lat="43.7950624" lon="11.4248773"><ele>215.8</ele><time>2026-04-11T11:58:16.584Z</time></trkpt><trkpt lat="43.7949591" lon="11.4248247"><ele>216.6</ele><time>2026-04-11T11:58:17.583Z</time></trkpt><trkpt lat="43.7948588" lon="11.4247838"><ele>217.39999999999998</ele><time>2026-04-11T11:58:18.583Z</time></trkpt><trkpt lat="43.794759" lon="11.4247302"><ele>218.2</ele><time>2026-04-11T11:58:19.584Z</time></trkpt><trkpt lat="43.7946671" lon="11.4246609"><ele>219.0</ele><time>2026-04-11T11:58:20.584Z</time></trkpt><trkpt lat="43.7945929" lon="11.4245807"><ele>216.83333333333334</ele><time>2026-04-11T11:58:21.584Z</time></trkpt><trkpt lat="43.7945228" lon="11.4244857"><ele>214.66666666666669</ele><time>2026-04-11T11:58:22.583Z</time></trkpt><trkpt lat="43.7944798" lon="11.4243752"><ele>212.5</ele><time>2026-04-11T11:58:23.583Z</time></trkpt><trkpt lat="43.7944589" lon="11.4242651"><ele>210.33333333333334</ele><time>2026-04-11T11:58:24.584Z</time></trkpt><trkpt lat="43.7944631" lon="11.4241381"><ele>208.16666666666669</ele><time>2026-04-11T11:58:25.584Z</time></trkpt><trkpt lat="43.7944791" lon="11.4240232"><ele>206.0</ele><time>2026-04-11T11:58:26.584Z</time></trkpt><trkpt lat="43.7944898" lon="11.4239198"><ele>206.00000000000003</ele><time>2026-04-11T11:58:27.584Z</time></trkpt><trkpt lat="43.794485" lon="11.4238283"><ele>206.0</ele><time>2026-04-11T11:58:28.584Z</time></trkpt><trkpt lat="43.7944721" lon="11.4237375"><ele>206.0</ele><time>2026-04-11T11:58:29.584Z</time></trkpt><trkpt lat="43.794409" lon="11.4236082"><ele>206.0</ele><time>2026-04-11T11:58:31.583Z</time></trkpt><trkpt lat="43.7943288" lon="11.4235174"><ele>206.00000000000003</ele><time>2026-04-11T11:58:33.584Z</time></trkpt><trkpt lat="43.7942771" lon="11.4234608"><ele>206.0</ele><time>2026-04-11T11:58:35.584Z</time></trkpt><trkpt lat="43.7941891" lon="11.4234363"><ele>206.33333333333334</ele><time>2026-04-11T11:58:53.582Z</time></trkpt><trkpt lat="43.7940678" lon="11.42346"><ele>206.66666666666669</ele><time>2026-04-11T11:58:55.584Z</time></trkpt><trkpt lat="43.7939944" lon="11.4234763"><ele>207.0</ele><time>2026-04-11T11:58:56.584Z</time></trkpt><trkpt lat="43.7939226" lon="11.423484"><ele>207.33333333333331</ele><time>2026-04-11T11:58:57.584Z</time></trkpt><trkpt lat="43.7938436" lon="11.4234906"><ele>207.66666666666666</ele><time>2026-04-11T11:58:58.584Z</time></trkpt><trkpt lat="43.7937601" lon="11.4234838"><ele>208.0</ele><time>2026-04-11T11:58:59.584Z</time></trkpt><trkpt lat="43.7936808" lon="11.423464"><ele>208.0</ele><time>2026-04-11T11:59:00.583Z</time></trkpt><trkpt lat="43.7935953" lon="11.4234287"><ele>208.0</ele><time>2026-04-11T11:59:01.584Z</time></trkpt><trkpt lat="43.7935053" lon="11.4233782"><ele>208.0</ele><time>2026-04-11T11:59:02.584Z</time></trkpt><trkpt lat="43.7934138" lon="11.4233206"><ele>208.0</ele><time>2026-04-11T11:59:03.584Z</time></trkpt><trkpt lat="43.7933272" lon="11.4232524"><ele>208.0</ele><time>2026-04-11T11:59:04.584Z</time></trkpt><trkpt lat="43.7932444" lon="11.4231709"><ele>209.4</ele><time>2026-04-11T11:59:05.584Z</time></trkpt><trkpt lat="43.7931693" lon="11.423086"><ele>210.8</ele><time>2026-04-11T11:59:06.583Z</time></trkpt><trkpt lat="43.7930888" lon="11.4230196"><ele>212.2</ele><time>2026-04-11T11:59:07.584Z</time></trkpt><trkpt lat="43.793001" lon="11.422981"><ele>213.6</ele><time>2026-04-11T11:59:08.584Z</time></trkpt><trkpt lat="43.7928982" lon="11.4229563"><ele>215.0</ele><time>2026-04-11T11:59:09.584Z</time></trkpt><trkpt lat="43.7927907" lon="11.4229284"><ele>213.6</ele><time>2026-04-11T11:59:10.582Z</time></trkpt><trkpt lat="43.7926772" lon="11.4228739"><ele>212.2</ele><time>2026-04-11T11:59:11.584Z</time></trkpt><trkpt lat="43.7925748" lon="11.4228173"><ele>210.8</ele><time>2026-04-11T11:59:12.584Z</time></trkpt><trkpt lat="43.7924766" lon="11.4227665"><ele>209.4</ele><time>2026-04-11T11:59:13.584Z</time></trkpt><trkpt lat="43.7924032" lon="11.4227789"><ele>208.0</ele><time>2026-04-11T11:59:14.584Z</time></trkpt><trkpt lat="43.7923187" lon="11.4228132"><ele>207.99999999999997</ele><time>2026-04-11T11:59:15.584Z</time></trkpt><trkpt lat="43.7922345" lon="11.422862"><ele>208.0</ele><time>2026-04-11T11:59:16.584Z</time></trkpt><trkpt lat="43.7921455" lon="11.4229048"><ele>208.0</ele><time>2026-04-11T11:59:17.583Z</time></trkpt><trkpt lat="43.792069" lon="11.4229391"><ele>208.0</ele><time>2026-04-11T11:59:18.583Z</time></trkpt><trkpt lat="43.7919966" lon="11.4229352"><ele>207.99999999999997</ele><time>2026-04-11T11:59:19.584Z</time></trkpt><trkpt lat="43.7919345" lon="11.4228871"><ele>208.0</ele><time>2026-04-11T11:59:20.584Z</time></trkpt><trkpt lat="43.7919027" lon="11.4228046"><ele>208.0</ele><time>2026-04-11T11:59:21.584Z</time></trkpt><trkpt lat="43.7918812" lon="11.4227016"><ele>208.0</ele><time>2026-04-11T11:59:22.582Z</time></trkpt><trkpt lat="43.791909" lon="11.4225596"><ele>208.0</ele><time>2026-04-11T11:59:23.584Z</time></trkpt><trkpt lat="43.7919049" lon="11.4224171"><ele>208.0</ele><time>2026-04-11T11:59:24.584Z</time></trkpt><trkpt lat="43.7918801" lon="11.4222483"><ele>208.0</ele><time>2026-04-11T11:59:25.584Z</time></trkpt><trkpt lat="43.7918393" lon="11.4220774"><ele>209.2</ele><time>2026-04-11T11:59:26.584Z</time></trkpt><trkpt lat="43.7917983" lon="11.4219407"><ele>210.4</ele><time>2026-04-11T11:59:27.584Z</time></trkpt><trkpt lat="43.7917555" lon="11.4218509"><ele>211.59999999999997</ele><time>2026-04-11T11:59:28.584Z</time></trkpt><trkpt lat="43.7916949" lon="11.4218011"><ele>212.79999999999998</ele><time>2026-04-11T11:59:29.584Z</time></trkpt><trkpt lat="43.7916055" lon="11.4217628"><ele>214.0</ele><time>2026-04-11T11:59:30.584Z</time></trkpt><trkpt lat="43.7914851" lon="11.4217242"><ele>214.0</ele><time>2026-04-11T11:59:31.583Z</time></trkpt><trkpt lat="43.7913781" lon="11.4216845"><ele>213.99999999999997</ele><time>2026-04-11T11:59:32.584Z</time></trkpt><trkpt lat="43.7912767" lon="11.4216432"><ele>213.99999999999997</ele><time>2026-04-11T11:59:33.583Z</time></trkpt><trkpt lat="43.7911865" lon="11.4215993"><ele>214.0</ele><time>2026-04-11T11:59:34.584Z</time></trkpt><trkpt lat="43.7910973" lon="11.4215356"><ele>214.0</ele><time>2026-04-11T11:59:35.584Z</time></trkpt><trkpt lat="43.7910207" lon="11.4214448"><ele>213.83333333333331</ele><time>2026-04-11T11:59:36.583Z</time></trkpt><trkpt lat="43.7909614" lon="11.4213267"><ele>213.66666666666666</ele><time>2026-04-11T11:59:37.584Z</time></trkpt><trkpt lat="43.7909116" lon="11.4212312"><ele>213.5</ele><time>2026-04-11T11:59:38.583Z</time></trkpt><trkpt lat="43.7908528" lon="11.4211592"><ele>213.33333333333331</ele><time>2026-04-11T11:59:39.583Z</time></trkpt><trkpt lat="43.7907913" lon="11.4211115"><ele>213.16666666666666</ele><time>2026-04-11T11:59:40.584Z</time></trkpt><trkpt lat="43.7907249" lon="11.4210821"><ele>213.0</ele><time>2026-04-11T11:59:41.584Z</time></trkpt><trkpt lat="43.7906547" lon="11.4210861"><ele>213.0</ele><time>2026-04-11T11:59:42.583Z</time></trkpt><trkpt lat="43.7905711" lon="11.4211184"><ele>213.0</ele><time>2026-04-11T11:59:43.584Z</time></trkpt><trkpt lat="43.7904704" lon="11.4211757"><ele>213.0</ele><time>2026-04-11T11:59:44.583Z</time></trkpt><trkpt lat="43.79036" lon="11.4212466"><ele>213.0</ele><time>2026-04-11T11:59:45.584Z</time></trkpt><trkpt lat="43.7902565" lon="11.4213158"><ele>213.0</ele><time>2026-04-11T11:59:46.584Z</time></trkpt><trkpt lat="43.7901542" lon="11.4213793"><ele>216.2</ele><time>2026-04-11T11:59:47.584Z</time></trkpt><trkpt lat="43.7900487" lon="11.4214449"><ele>219.4</ele><time>2026-04-11T11:59:48.582Z</time></trkpt><trkpt lat="43.7899544" lon="11.4215033"><ele>222.59999999999997</ele><time>2026-04-11T11:59:49.583Z</time></trkpt><trkpt lat="43.7898691" lon="11.4215534"><ele>225.79999999999998</ele><time>2026-04-11T11:59:50.584Z</time></trkpt><trkpt lat="43.789792" lon="11.4215729"><ele>229.0</ele><time>2026-04-11T11:59:51.583Z</time></trkpt><trkpt lat="43.7897195" lon="11.4215561"><ele>229.0</ele><time>2026-04-11T11:59:52.583Z</time></trkpt><trkpt lat="43.789645" lon="11.4215163"><ele>228.99999999999997</ele><time>2026-04-11T11:59:53.583Z</time></trkpt><trkpt lat="43.7895754" lon="11.4214406"><ele>228.99999999999997</ele><time>2026-04-11T11:59:54.583Z</time></trkpt><trkpt lat="43.7894978" lon="11.4213294"><ele>229.0</ele><time>2026-04-11T11:59:55.584Z</time></trkpt><trkpt lat="43.7894207" lon="11.4212152"><ele>229.0</ele><time>2026-04-11T11:59:56.584Z</time></trkpt><trkpt lat="43.7893456" lon="11.4210956"><ele>229.0</ele><time>2026-04-11T11:59:57.584Z</time></trkpt><trkpt lat="43.789275" lon="11.4210152"><ele>228.99999999999997</ele><time>2026-04-11T11:59:58.583Z</time></trkpt><trkpt lat="43.7891943" lon="11.4209536"><ele>228.99999999999997</ele><time>2026-04-11T11:59:59.584Z</time></trkpt><trkpt lat="43.7891032" lon="11.4208949"><ele>229.0</ele><time>2026-04-11T12:00:00.582Z</time></trkpt><trkpt lat="43.7889973" lon="11.4208335"><ele>229.0</ele><time>2026-04-11T12:00:01.584Z</time></trkpt><trkpt lat="43.7888754" lon="11.4207633"><ele>229.0</ele><time>2026-04-11T12:00:02.584Z</time></trkpt><trkpt lat="43.788752" lon="11.4206967"><ele>229.0</ele><time>2026-04-11T12:00:03.584Z</time></trkpt><trkpt lat="43.7886181" lon="11.4206407"><ele>229.0</ele><time>2026-04-11T12:00:04.584Z</time></trkpt><trkpt lat="43.7884805" lon="11.4205933"><ele>229.0</ele><time>2026-04-11T12:00:05.584Z</time></trkpt><trkpt lat="43.7883529" lon="11.4205528"><ele>228.6</ele><time>2026-04-11T12:00:06.583Z</time></trkpt><trkpt lat="43.7882368" lon="11.4205138"><ele>228.2</ele><time>2026-04-11T12:00:07.584Z</time></trkpt><trkpt lat="43.788145" lon="11.4204571"><ele>227.79999999999998</ele><time>2026-04-11T12:00:08.584Z</time></trkpt><trkpt lat="43.788074" lon="11.4204083"><ele>227.39999999999998</ele><time>2026-04-11T12:00:09.583Z</time></trkpt><trkpt lat="43.7879867" lon="11.4203752"><ele>227.0</ele><time>2026-04-11T12:00:11.583Z</time></trkpt><trkpt lat="43.7879831" lon="11.4204926"><ele>228.83333333333334</ele><time>2026-04-11T12:00:14.583Z</time></trkpt><trkpt lat="43.7880256" lon="11.4205729"><ele>230.66666666666669</ele><time>2026-04-11T12:00:15.584Z</time></trkpt><trkpt lat="43.7880715" lon="11.4206633"><ele>232.5</ele><time>2026-04-11T12:00:16.583Z</time></trkpt><trkpt lat="43.7881159" lon="11.420749"><ele>234.33333333333331</ele><time>2026-04-11T12:00:17.584Z</time></trkpt><trkpt lat="43.7881654" lon="11.4208431"><ele>236.16666666666666</ele><time>2026-04-11T12:00:18.584Z</time></trkpt><trkpt lat="43.7881987" lon="11.4209453"><ele>238.0</ele><time>2026-04-11T12:00:19.583Z</time></trkpt><trkpt lat="43.7882258" lon="11.4210243"><ele>238.0</ele><time>2026-04-11T12:00:20.584Z</time></trkpt><trkpt lat="43.788264" lon="11.4211508"><ele>238.0</ele><time>2026-04-11T12:00:22.584Z</time></trkpt><trkpt lat="43.7883133" lon="11.4213239"><ele>238.0</ele><time>2026-04-11T12:00:24.583Z</time></trkpt><trkpt lat="43.7883383" lon="11.4214233"><ele>238.0</ele><time>2026-04-11T12:00:25.584Z</time></trkpt><trkpt lat="43.7883609" lon="11.4215339"><ele>238.0</ele><time>2026-04-11T12:00:26.583Z</time></trkpt><trkpt lat="43.7883914" lon="11.4216573"><ele>239.4</ele><time>2026-04-11T12:00:27.583Z</time></trkpt><trkpt lat="43.7884245" lon="11.4217883"><ele>240.8</ele><time>2026-04-11T12:00:28.583Z</time></trkpt><trkpt lat="43.7884572" lon="11.4219127"><ele>242.2</ele><time>2026-04-11T12:00:29.583Z</time></trkpt><trkpt lat="43.7884946" lon="11.422029"><ele>243.6</ele><time>2026-04-11T12:00:30.583Z</time></trkpt><trkpt lat="43.7885253" lon="11.4221573"><ele>245.0</ele><time>2026-04-11T12:00:31.584Z</time></trkpt><trkpt lat="43.7885553" lon="11.4222684"><ele>245.16666666666669</ele><time>2026-04-11T12:00:32.583Z</time></trkpt><trkpt lat="43.7885706" lon="11.4223817"><ele>245.33333333333334</ele><time>2026-04-11T12:00:33.584Z</time></trkpt><trkpt lat="43.7885719" lon="11.4225008"><ele>245.5</ele><time>2026-04-11T12:00:34.584Z</time></trkpt><trkpt lat="43.7885634" lon="11.422619"><ele>245.66666666666669</ele><time>2026-04-11T12:00:35.584Z</time></trkpt><trkpt lat="43.7885589" lon="11.4227315"><ele>245.83333333333334</ele><time>2026-04-11T12:00:36.583Z</time></trkpt><trkpt lat="43.7885433" lon="11.4228755"><ele>246.0</ele><time>2026-04-11T12:00:38.584Z</time></trkpt><trkpt lat="43.7884403" lon="11.4229274"><ele>247.20000000000002</ele><time>2026-04-11T12:00:41.583Z</time></trkpt><trkpt lat="43.7883415" lon="11.4229601"><ele>248.40000000000003</ele><time>2026-04-11T12:00:43.583Z</time></trkpt><trkpt lat="43.788233" lon="11.4229868"><ele>249.6</ele><time>2026-04-11T12:00:45.584Z</time></trkpt><trkpt lat="43.7881214" lon="11.423016"><ele>250.8</ele><time>2026-04-11T12:00:47.584Z</time></trkpt><trkpt lat="43.7880089" lon="11.4230464"><ele>252.0</ele><time>2026-04-11T12:00:49.584Z</time></trkpt><trkpt lat="43.7878828" lon="11.4230742"><ele>252.57142857142856</ele><time>2026-04-11T12:00:51.584Z</time></trkpt><trkpt lat="43.7878159" lon="11.4230977"><ele>253.14285714285714</ele><time>2026-04-11T12:00:52.584Z</time></trkpt><trkpt lat="43.7877462" lon="11.4231173"><ele>253.71428571428572</ele><time>2026-04-11T12:00:53.582Z</time></trkpt><trkpt lat="43.7876739" lon="11.4231417"><ele>254.28571428571428</ele><time>2026-04-11T12:00:54.584Z</time></trkpt><trkpt lat="43.7875986" lon="11.4231619"><ele>254.85714285714283</ele><time>2026-04-11T12:00:55.583Z</time></trkpt><trkpt lat="43.7875236" lon="11.423186"><ele>255.42857142857142</ele><time>2026-04-11T12:00:56.584Z</time></trkpt><trkpt lat="43.7874493" lon="11.4232115"><ele>256.0</ele><time>2026-04-11T12:00:57.584Z</time></trkpt><trkpt lat="43.7873763" lon="11.4232245"><ele>252.8</ele><time>2026-04-11T12:00:58.584Z</time></trkpt><trkpt lat="43.7873125" lon="11.4232432"><ele>249.60000000000002</ele><time>2026-04-11T12:00:59.583Z</time></trkpt><trkpt lat="43.7872059" lon="11.4232785"><ele>246.4</ele><time>2026-04-11T12:01:01.583Z</time></trkpt><trkpt lat="43.7871186" lon="11.4233289"><ele>243.2</ele><time>2026-04-11T12:01:03.584Z</time></trkpt><trkpt lat="43.78702" lon="11.4233579"><ele>240.0</ele><time>2026-04-11T12:01:05.584Z</time></trkpt><trkpt lat="43.7869026" lon="11.423413"><ele>237.42857142857144</ele><time>2026-04-11T12:01:07.584Z</time></trkpt><trkpt lat="43.7868376" lon="11.4234404"><ele>234.85714285714283</ele><time>2026-04-11T12:01:08.584Z</time></trkpt><trkpt lat="43.7867702" lon="11.4234622"><ele>232.28571428571428</ele><time>2026-04-11T12:01:09.583Z</time></trkpt><trkpt lat="43.7867024" lon="11.4234845"><ele>229.71428571428572</ele><time>2026-04-11T12:01:10.584Z</time></trkpt><trkpt lat="43.7866363" lon="11.4235067"><ele>227.14285714285717</ele><time>2026-04-11T12:01:11.584Z</time></trkpt><trkpt lat="43.7865406" lon="11.4235533"><ele>224.57142857142856</ele><time>2026-04-11T12:01:13.583Z</time></trkpt><trkpt lat="43.786478" lon="11.4235885"><ele>222.0</ele><time>2026-04-11T12:01:15.584Z</time></trkpt><trkpt lat="43.7864015" lon="11.4235914"><ele>222.0</ele><time>2026-04-11T12:01:29.584Z</time></trkpt><trkpt lat="43.7863251" lon="11.4235725"><ele>222.0</ele><time>2026-04-11T12:01:33.583Z</time></trkpt><trkpt lat="43.786276" lon="11.4236632"><ele>222.0</ele><time>2026-04-11T12:02:22.584Z</time></trkpt><trkpt lat="43.7861839" lon="11.4237502"><ele>222.0</ele><time>2026-04-11T12:02:24.583Z</time></trkpt><trkpt lat="43.7861299" lon="11.4238199"><ele>222.0</ele><time>2026-04-11T12:02:25.584Z</time></trkpt><trkpt lat="43.7860606" lon="11.4238992"><ele>222.0</ele><time>2026-04-11T12:02:26.584Z</time></trkpt><trkpt lat="43.7859876" lon="11.4239849"><ele>219.8</ele><time>2026-04-11T12:02:27.584Z</time></trkpt><trkpt lat="43.785917" lon="11.4240771"><ele>217.6</ele><time>2026-04-11T12:02:28.584Z</time></trkpt><trkpt lat="43.7858515" lon="11.4241656"><ele>215.4</ele><time>2026-04-11T12:02:29.583Z</time></trkpt><trkpt lat="43.7857899" lon="11.4242524"><ele>213.20000000000002</ele><time>2026-04-11T12:02:30.584Z</time></trkpt><trkpt lat="43.7857224" lon="11.4243519"><ele>211.0</ele><time>2026-04-11T12:02:31.583Z</time></trkpt><trkpt lat="43.7856497" lon="11.4244601"><ele>211.0</ele><time>2026-04-11T12:02:32.583Z</time></trkpt><trkpt lat="43.7855678" lon="11.4245611"><ele>211.0</ele><time>2026-04-11T12:02:33.584Z</time></trkpt><trkpt lat="43.7854718" lon="11.4246662"><ele>211.0</ele><time>2026-04-11T12:02:34.583Z</time></trkpt><trkpt lat="43.7853823" lon="11.4247614"><ele>211.0</ele><time>2026-04-11T12:02:35.583Z</time></trkpt><trkpt lat="43.7853163" lon="11.4248693"><ele>211.0</ele><time>2026-04-11T12:02:36.584Z</time></trkpt><trkpt lat="43.7852662" lon="11.4249896"><ele>211.33333333333331</ele><time>2026-04-11T12:02:37.584Z</time></trkpt><trkpt lat="43.7852764" lon="11.4251184"><ele>211.66666666666666</ele><time>2026-04-11T12:02:38.584Z</time></trkpt><trkpt lat="43.7852474" lon="11.4252342"><ele>212.0</ele><time>2026-04-11T12:02:39.584Z</time></trkpt><trkpt lat="43.7851938" lon="11.4253348"><ele>212.33333333333331</ele><time>2026-04-11T12:02:40.583Z</time></trkpt><trkpt lat="43.7851271" lon="11.4253997"><ele>212.66666666666666</ele><time>2026-04-11T12:02:41.584Z</time></trkpt><trkpt lat="43.7850454" lon="11.4254177"><ele>213.0</ele><time>2026-04-11T12:02:42.584Z</time></trkpt><trkpt lat="43.7849407" lon="11.4254275"><ele>211.60000000000002</ele><time>2026-04-11T12:02:43.583Z</time></trkpt><trkpt lat="43.7848191" lon="11.4254391"><ele>210.20000000000002</ele><time>2026-04-11T12:02:44.583Z</time></trkpt><trkpt lat="43.7847086" lon="11.4254493"><ele>208.8</ele><time>2026-04-11T12:02:45.584Z</time></trkpt><trkpt lat="43.7846043" lon="11.4254587"><ele>207.4</ele><time>2026-04-11T12:02:46.583Z</time></trkpt><trkpt lat="43.784504" lon="11.4254963"><ele>206.0</ele><time>2026-04-11T12:02:47.584Z</time></trkpt><trkpt lat="43.7844044" lon="11.4255615"><ele>204.25</ele><time>2026-04-11T12:02:48.584Z</time></trkpt><trkpt lat="43.784304" lon="11.4256403"><ele>202.5</ele><time>2026-04-11T12:02:49.584Z</time></trkpt><trkpt lat="43.7841847" lon="11.4257401"><ele>200.75</ele><time>2026-04-11T12:02:50.584Z</time></trkpt><trkpt lat="43.7840721" lon="11.4258324"><ele>199.0</ele><time>2026-04-11T12:02:51.584Z</time></trkpt><trkpt lat="43.7839641" lon="11.4259079"><ele>199.0</ele><time>2026-04-11T12:02:52.584Z</time></trkpt><trkpt lat="43.7838671" lon="11.4259639"><ele>199.0</ele><time>2026-04-11T12:02:53.583Z</time></trkpt><trkpt lat="43.783741" lon="11.425993"><ele>199.0</ele><time>2026-04-11T12:02:54.584Z</time></trkpt><trkpt lat="43.7836131" lon="11.426009"><ele>199.0</ele><time>2026-04-11T12:02:55.584Z</time></trkpt><trkpt lat="43.7834878" lon="11.4260134"><ele>197.25</ele><time>2026-04-11T12:02:56.584Z</time></trkpt><trkpt lat="43.7833662" lon="11.4260151"><ele>195.5</ele><time>2026-04-11T12:02:57.583Z</time></trkpt><trkpt lat="43.7832437" lon="11.4260149"><ele>193.75</ele><time>2026-04-11T12:02:58.584Z</time></trkpt><trkpt lat="43.7831192" lon="11.4260164"><ele>192.0</ele><time>2026-04-11T12:02:59.583Z</time></trkpt><trkpt lat="43.7829941" lon="11.4260177"><ele>192.0</ele><time>2026-04-11T12:03:00.584Z</time></trkpt><trkpt lat="43.7828721" lon="11.4260117"><ele>192.0</ele><time>2026-04-11T12:03:01.584Z</time></trkpt><trkpt lat="43.7827496" lon="11.4260112"><ele>192.0</ele><time>2026-04-11T12:03:02.584Z</time></trkpt><trkpt lat="43.7826317" lon="11.4260133"><ele>192.0</ele><time>2026-04-11T12:03:03.583Z</time></trkpt><trkpt lat="43.7825068" lon="11.4260146"><ele>189.75</ele><time>2026-04-11T12:03:04.584Z</time></trkpt><trkpt lat="43.7823754" lon="11.4260106"><ele>187.5</ele><time>2026-04-11T12:03:05.584Z</time></trkpt><trkpt lat="43.7822419" lon="11.4260016"><ele>185.25</ele><time>2026-04-11T12:03:06.584Z</time></trkpt><trkpt lat="43.7821148" lon="11.4259905"><ele>183.0</ele><time>2026-04-11T12:03:07.583Z</time></trkpt><trkpt lat="43.7819917" lon="11.4259844"><ele>183.0</ele><time>2026-04-11T12:03:08.584Z</time></trkpt><trkpt lat="43.7818703" lon="11.4259847"><ele>183.0</ele><time>2026-04-11T12:03:09.583Z</time></trkpt><trkpt lat="43.7817544" lon="11.4259927"><ele>183.0</ele><time>2026-04-11T12:03:10.584Z</time></trkpt><trkpt lat="43.7816426" lon="11.4260036"><ele>183.0</ele><time>2026-04-11T12:03:11.584Z</time></trkpt><trkpt lat="43.7815289" lon="11.4260109"><ele>182.2</ele><time>2026-04-11T12:03:12.584Z</time></trkpt><trkpt lat="43.7814204" lon="11.4260304"><ele>181.4</ele><time>2026-04-11T12:03:13.583Z</time></trkpt><trkpt lat="43.7813089" lon="11.426057"><ele>180.6</ele><time>2026-04-11T12:03:14.584Z</time></trkpt><trkpt lat="43.7812013" lon="11.4260894"><ele>179.79999999999998</ele><time>2026-04-11T12:03:15.583Z</time></trkpt><trkpt lat="43.7810976" lon="11.4261286"><ele>179.0</ele><time>2026-04-11T12:03:16.583Z</time></trkpt><trkpt lat="43.7809994" lon="11.4261787"><ele>177.25</ele><time>2026-04-11T12:03:17.584Z</time></trkpt><trkpt lat="43.7809112" lon="11.4262542"><ele>175.5</ele><time>2026-04-11T12:03:18.584Z</time></trkpt><trkpt lat="43.7808368" lon="11.4263673"><ele>173.75</ele><time>2026-04-11T12:03:19.584Z</time></trkpt><trkpt lat="43.7807708" lon="11.4265185"><ele>172.0</ele><time>2026-04-11T12:03:20.584Z</time></trkpt><trkpt lat="43.7807127" lon="11.4267147"><ele>172.0</ele><time>2026-04-11T12:03:21.584Z</time></trkpt><trkpt lat="43.7806682" lon="11.4269023"><ele>172.0</ele><time>2026-04-11T12:03:22.584Z</time></trkpt><trkpt lat="43.7806141" lon="11.4270674"><ele>172.0</ele><time>2026-04-11T12:03:23.583Z</time></trkpt><trkpt lat="43.7805593" lon="11.4272527"><ele>172.0</ele><time>2026-04-11T12:03:24.584Z</time></trkpt><trkpt lat="43.7804905" lon="11.4274494"><ele>172.66666666666669</ele><time>2026-04-11T12:03:25.584Z</time></trkpt><trkpt lat="43.7804203" lon="11.4276592"><ele>173.33333333333334</ele><time>2026-04-11T12:03:26.583Z</time></trkpt><trkpt lat="43.7803564" lon="11.4278717"><ele>174.0</ele><time>2026-04-11T12:03:27.584Z</time></trkpt><trkpt lat="43.7802998" lon="11.4280794"><ele>174.0</ele><time>2026-04-11T12:03:28.584Z</time></trkpt><trkpt lat="43.7802396" lon="11.4282741"><ele>174.0</ele><time>2026-04-11T12:03:29.584Z</time></trkpt><trkpt lat="43.7801828" lon="11.4284547"><ele>174.0</ele><time>2026-04-11T12:03:30.583Z</time></trkpt><trkpt lat="43.7801342" lon="11.4286289"><ele>174.0</ele><time>2026-04-11T12:03:31.584Z</time></trkpt><trkpt lat="43.7800877" lon="11.4288161"><ele>166.0</ele><time>2026-04-11T12:03:32.583Z</time></trkpt><trkpt lat="43.7800377" lon="11.4290219"><ele>158.0</ele><time>2026-04-11T12:03:33.584Z</time></trkpt><trkpt lat="43.7799803" lon="11.429233"><ele>150.0</ele><time>2026-04-11T12:03:34.583Z</time></trkpt><trkpt lat="43.7799203" lon="11.4294457"><ele>149.66666666666666</ele><time>2026-04-11T12:03:35.584Z</time></trkpt><trkpt lat="43.7798639" lon="11.4296556"><ele>149.33333333333331</ele><time>2026-04-11T12:03:36.584Z</time></trkpt><trkpt lat="43.7798069" lon="11.429852"><ele>149.0</ele><time>2026-04-11T12:03:37.583Z</time></trkpt><trkpt lat="43.7797491" lon="11.4300403"><ele>149.0</ele><time>2026-04-11T12:03:38.584Z</time></trkpt><trkpt lat="43.7796816" lon="11.4302173"><ele>149.0</ele><time>2026-04-11T12:03:39.584Z</time></trkpt><trkpt lat="43.7795849" lon="11.4304115"><ele>149.0</ele><time>2026-04-11T12:03:40.584Z</time></trkpt><trkpt lat="43.7794757" lon="11.4306091"><ele>150.66666666666666</ele><time>2026-04-11T12:03:41.582Z</time></trkpt><trkpt lat="43.7793557" lon="11.4308165"><ele>152.33333333333334</ele><time>2026-04-11T12:03:42.584Z</time></trkpt><trkpt lat="43.7792513" lon="11.4309964"><ele>154.0</ele><time>2026-04-11T12:03:43.583Z</time></trkpt><trkpt lat="43.7791544" lon="11.4311617"><ele>153.0</ele><time>2026-04-11T12:03:44.584Z</time></trkpt><trkpt lat="43.7790533" lon="11.4313271"><ele>152.0</ele><time>2026-04-11T12:03:45.584Z</time></trkpt><trkpt lat="43.7789469" lon="11.4315058"><ele>151.0</ele><time>2026-04-11T12:03:46.584Z</time></trkpt><trkpt lat="43.778855" lon="11.4316636"><ele>151.0</ele><time>2026-04-11T12:03:47.584Z</time></trkpt><trkpt lat="43.7787706" lon="11.4318025"><ele>151.0</ele><time>2026-04-11T12:03:48.584Z</time></trkpt><trkpt lat="43.7786888" lon="11.4319347"><ele>151.0</ele><time>2026-04-11T12:03:49.583Z</time></trkpt><trkpt lat="43.7786093" lon="11.4320671"><ele>151.0</ele><time>2026-04-11T12:03:50.584Z</time></trkpt><trkpt lat="43.7785381" lon="11.4321998"><ele>148.8</ele><time>2026-04-11T12:03:51.584Z</time></trkpt><trkpt lat="43.7784745" lon="11.4323221"><ele>146.6</ele><time>2026-04-11T12:03:52.584Z</time></trkpt><trkpt lat="43.7784185" lon="11.4324212"><ele>144.4</ele><time>2026-04-11T12:03:53.584Z</time></trkpt><trkpt lat="43.7783622" lon="11.43252"><ele>142.2</ele><time>2026-04-11T12:03:54.584Z</time></trkpt><trkpt lat="43.778299" lon="11.4326143"><ele>140.0</ele><time>2026-04-11T12:03:55.582Z</time></trkpt><trkpt lat="43.7782338" lon="11.4327018"><ele>140.0</ele><time>2026-04-11T12:03:56.584Z</time></trkpt><trkpt lat="43.77817" lon="11.4327945"><ele>140.0</ele><time>2026-04-11T12:03:57.584Z</time></trkpt><trkpt lat="43.778107" lon="11.43289"><ele>140.0</ele><time>2026-04-11T12:03:58.584Z</time></trkpt><trkpt lat="43.7780432" lon="11.4329834"><ele>140.0</ele><time>2026-04-11T12:03:59.584Z</time></trkpt><trkpt lat="43.7779745" lon="11.4330743"><ele>140.0</ele><time>2026-04-11T12:04:00.584Z</time></trkpt><trkpt lat="43.7779052" lon="11.4331641"><ele>140.4</ele><time>2026-04-11T12:04:01.583Z</time></trkpt><trkpt lat="43.777835" lon="11.4332596"><ele>140.8</ele><time>2026-04-11T12:04:02.584Z</time></trkpt><trkpt lat="43.7777554" lon="11.4333726"><ele>141.2</ele><time>2026-04-11T12:04:03.584Z</time></trkpt><trkpt lat="43.7776762" lon="11.4334851"><ele>141.6</ele><time>2026-04-11T12:04:04.583Z</time></trkpt><trkpt lat="43.7775978" lon="11.4335962"><ele>142.0</ele><time>2026-04-11T12:04:05.584Z</time></trkpt><trkpt lat="43.7775173" lon="11.4337015"><ele>139.2</ele><time>2026-04-11T12:04:06.584Z</time></trkpt><trkpt lat="43.7774389" lon="11.4338036"><ele>136.39999999999998</ele><time>2026-04-11T12:04:07.584Z</time></trkpt><trkpt lat="43.7773611" lon="11.4338974"><ele>133.60000000000002</ele><time>2026-04-11T12:04:08.583Z</time></trkpt><trkpt lat="43.7772844" lon="11.4339836"><ele>130.8</ele><time>2026-04-11T12:04:09.584Z</time></trkpt><trkpt lat="43.777209" lon="11.4340649"><ele>128.0</ele><time>2026-04-11T12:04:10.582Z</time></trkpt><trkpt lat="43.7771363" lon="11.4341435"><ele>128.0</ele><time>2026-04-11T12:04:11.584Z</time></trkpt><trkpt lat="43.7770643" lon="11.434223"><ele>128.0</ele><time>2026-04-11T12:04:12.584Z</time></trkpt><trkpt lat="43.7769892" lon="11.434303"><ele>128.0</ele><time>2026-04-11T12:04:13.584Z</time></trkpt><trkpt lat="43.7769155" lon="11.4343842"><ele>128.0</ele><time>2026-04-11T12:04:14.583Z</time></trkpt><trkpt lat="43.7768433" lon="11.4344678"><ele>128.0</ele><time>2026-04-11T12:04:15.584Z</time></trkpt><trkpt lat="43.7767721" lon="11.4345531"><ele>125.66666666666666</ele><time>2026-04-11T12:04:16.583Z</time></trkpt><trkpt lat="43.7766984" lon="11.4346308"><ele>123.33333333333333</ele><time>2026-04-11T12:04:17.584Z</time></trkpt><trkpt lat="43.7766319" lon="11.4347101"><ele>121.0</ele><time>2026-04-11T12:04:18.583Z</time></trkpt><trkpt lat="43.7765676" lon="11.4347869"><ele>118.66666666666666</ele><time>2026-04-11T12:04:19.584Z</time></trkpt><trkpt lat="43.7765002" lon="11.4348585"><ele>116.33333333333333</ele><time>2026-04-11T12:04:20.583Z</time></trkpt><trkpt lat="43.7764349" lon="11.4349206"><ele>114.0</ele><time>2026-04-11T12:04:21.584Z</time></trkpt><trkpt lat="43.7763687" lon="11.4349814"><ele>113.66666666666667</ele><time>2026-04-11T12:04:22.584Z</time></trkpt><trkpt lat="43.77631" lon="11.4350548"><ele>113.33333333333334</ele><time>2026-04-11T12:04:23.584Z</time></trkpt><trkpt lat="43.7762561" lon="11.435136"><ele>113.0</ele><time>2026-04-11T12:04:24.583Z</time></trkpt><trkpt lat="43.776203" lon="11.4352251"><ele>112.66666666666667</ele><time>2026-04-11T12:04:25.584Z</time></trkpt><trkpt lat="43.7761418" lon="11.4353077"><ele>112.33333333333334</ele><time>2026-04-11T12:04:26.584Z</time></trkpt><trkpt lat="43.7760763" lon="11.4353876"><ele>112.0</ele><time>2026-04-11T12:04:27.583Z</time></trkpt><trkpt lat="43.7760195" lon="11.4354799"><ele>110.33333333333334</ele><time>2026-04-11T12:04:28.584Z</time></trkpt><trkpt lat="43.7759716" lon="11.4355811"><ele>108.66666666666667</ele><time>2026-04-11T12:04:29.584Z</time></trkpt><trkpt lat="43.7759338" lon="11.4356877"><ele>107.0</ele><time>2026-04-11T12:04:30.583Z</time></trkpt><trkpt lat="43.775896" lon="11.4357908"><ele>105.33333333333334</ele><time>2026-04-11T12:04:31.584Z</time></trkpt><trkpt lat="43.7758622" lon="11.4358787"><ele>103.66666666666667</ele><time>2026-04-11T12:04:32.584Z</time></trkpt><trkpt lat="43.7758066" lon="11.435941"><ele>102.0</ele><time>2026-04-11T12:04:33.583Z</time></trkpt><trkpt lat="43.7756904" lon="11.4359288"><ele>102.0</ele><time>2026-04-11T12:04:35.584Z</time></trkpt><trkpt lat="43.7755823" lon="11.4359481"><ele>102.0</ele><time>2026-04-11T12:04:37.583Z</time></trkpt><trkpt lat="43.7755076" lon="11.4359627"><ele>102.0</ele><time>2026-04-11T12:04:39.584Z</time></trkpt><trkpt lat="43.7754399" lon="11.4359911"><ele>102.0</ele><time>2026-04-11T12:04:42.584Z</time></trkpt><trkpt lat="43.7753736" lon="11.4360627"><ele>102.0</ele><time>2026-04-11T12:04:45.584Z</time></trkpt><trkpt lat="43.7753436" lon="11.4361406"><ele>102.0</ele><time>2026-04-11T12:04:47.584Z</time></trkpt><trkpt lat="43.7752917" lon="11.4362125"><ele>102.0</ele><time>2026-04-11T12:04:49.583Z</time></trkpt><trkpt lat="43.7752186" lon="11.4362009"><ele>102.0</ele><time>2026-04-11T12:04:51.582Z</time></trkpt><trkpt lat="43.7751341" lon="11.4361354"><ele>102.0</ele><time>2026-04-11T12:04:53.584Z</time></trkpt><trkpt lat="43.7750466" lon="11.4360825"><ele>102.0</ele><time>2026-04-11T12:04:55.583Z</time></trkpt><trkpt lat="43.7749731" lon="11.4360402"><ele>102.0</ele><time>2026-04-11T12:04:58.584Z</time></trkpt><trkpt lat="43.7749099" lon="11.436017"><ele>102.0</ele><time>2026-04-11T12:05:04.583Z</time></trkpt><trkpt lat="43.7748743" lon="11.4361043"><ele>100.6</ele><time>2026-04-11T12:05:06.584Z</time></trkpt><trkpt lat="43.7748652" lon="11.4362485"><ele>99.19999999999999</ele><time>2026-04-11T12:05:07.582Z</time></trkpt><trkpt lat="43.7748523" lon="11.4364081"><ele>97.8</ele><time>2026-04-11T12:05:08.583Z</time></trkpt><trkpt lat="43.7748288" lon="11.4365684"><ele>96.4</ele><time>2026-04-11T12:05:09.583Z</time></trkpt><trkpt lat="43.7748066" lon="11.4367185"><ele>95.0</ele><time>2026-04-11T12:05:10.583Z</time></trkpt><trkpt lat="43.7747934" lon="11.4368599"><ele>95.0</ele><time>2026-04-11T12:05:11.584Z</time></trkpt><trkpt lat="43.7747825" lon="11.4369955"><ele>95.0</ele><time>2026-04-11T12:05:12.584Z</time></trkpt><trkpt lat="43.774771" lon="11.4371225"><ele>95.0</ele><time>2026-04-11T12:05:13.583Z</time></trkpt><trkpt lat="43.7747606" lon="11.4372488"><ele>95.0</ele><time>2026-04-11T12:05:14.584Z</time></trkpt><trkpt lat="43.7747487" lon="11.4373624"><ele>95.0</ele><time>2026-04-11T12:05:15.584Z</time></trkpt><trkpt lat="43.7747387" lon="11.4374738"><ele>95.0</ele><time>2026-04-11T12:05:16.584Z</time></trkpt><trkpt lat="43.7747288" lon="11.437577"><ele>95.0</ele><time>2026-04-11T12:05:17.584Z</time></trkpt><trkpt lat="43.7747199" lon="11.4376742"><ele>95.0</ele><time>2026-04-11T12:05:18.584Z</time></trkpt><trkpt lat="43.7747117" lon="11.437779"><ele>95.0</ele><time>2026-04-11T12:05:19.584Z</time></trkpt><trkpt lat="43.7747056" lon="11.4378811"><ele>95.0</ele><time>2026-04-11T12:05:20.583Z</time></trkpt><trkpt lat="43.7747031" lon="11.4379784"><ele>95.0</ele><time>2026-04-11T12:05:21.583Z</time></trkpt><trkpt lat="43.7746991" lon="11.4380773"><ele>95.0</ele><time>2026-04-11T12:05:22.583Z</time></trkpt><trkpt lat="43.7746944" lon="11.4381831"><ele>95.0</ele><time>2026-04-11T12:05:23.584Z</time></trkpt><trkpt lat="43.7746917" lon="11.4382926"><ele>95.66666666666667</ele><time>2026-04-11T12:05:24.584Z</time></trkpt><trkpt lat="43.7746869" lon="11.4384051"><ele>96.33333333333334</ele><time>2026-04-11T12:05:25.584Z</time></trkpt><trkpt lat="43.7746823" lon="11.4385197"><ele>97.0</ele><time>2026-04-11T12:05:26.584Z</time></trkpt><trkpt lat="43.7746787" lon="11.4386378"><ele>97.66666666666667</ele><time>2026-04-11T12:05:27.584Z</time></trkpt><trkpt lat="43.7746735" lon="11.4387551"><ele>98.33333333333333</ele><time>2026-04-11T12:05:28.583Z</time></trkpt><trkpt lat="43.7746697" lon="11.438866"><ele>99.0</ele><time>2026-04-11T12:05:29.583Z</time></trkpt><trkpt lat="43.7746664" lon="11.438985"><ele>99.0</ele><time>2026-04-11T12:05:30.583Z</time></trkpt><trkpt lat="43.7746596" lon="11.4391015"><ele>99.0</ele><time>2026-04-11T12:05:31.584Z</time></trkpt><trkpt lat="43.7746599" lon="11.4392209"><ele>99.0</ele><time>2026-04-11T12:05:32.584Z</time></trkpt><trkpt lat="43.7746682" lon="11.4393319"><ele>99.0</ele><time>2026-04-11T12:05:33.584Z</time></trkpt><trkpt lat="43.7746639" lon="11.4394564"><ele>99.0</ele><time>2026-04-11T12:05:34.583Z</time></trkpt><trkpt lat="43.7746595" lon="11.4395822"><ele>99.0</ele><time>2026-04-11T12:05:35.584Z</time></trkpt><trkpt lat="43.774658" lon="11.4397047"><ele>98.83333333333333</ele><time>2026-04-11T12:05:36.584Z</time></trkpt><trkpt lat="43.7746443" lon="11.4398181"><ele>98.66666666666666</ele><time>2026-04-11T12:05:37.584Z</time></trkpt><trkpt lat="43.7746394" lon="11.4399052"><ele>98.5</ele><time>2026-04-11T12:05:38.583Z</time></trkpt><trkpt lat="43.7746299" lon="11.4400363"><ele>98.33333333333333</ele><time>2026-04-11T12:05:40.583Z</time></trkpt><trkpt lat="43.7746234" lon="11.4401441"><ele>98.16666666666666</ele><time>2026-04-11T12:05:43.584Z</time></trkpt><trkpt lat="43.774683" lon="11.4400817"><ele>98.0</ele><time>2026-04-11T12:05:54.584Z</time></trkpt><trkpt lat="43.7746793" lon="11.4399503"><ele>97.99999999999999</ele><time>2026-04-11T12:05:56.584Z</time></trkpt><trkpt lat="43.7747204" lon="11.4398832"><ele>98.0</ele><time>2026-04-11T12:06:16.583Z</time></trkpt><trkpt lat="43.7747912" lon="11.4398816"><ele>98.0</ele><time>2026-04-11T12:06:18.584Z</time></trkpt><trkpt lat="43.7748538" lon="11.4398987"><ele>98.0</ele><time>2026-04-11T12:06:21.584Z</time></trkpt><trkpt lat="43.7748703" lon="11.4400219"><ele>97.99999999999999</ele><time>2026-04-11T12:06:23.584Z</time></trkpt><trkpt lat="43.7748712" lon="11.4401799"><ele>98.0</ele><time>2026-04-11T12:06:25.583Z</time></trkpt><trkpt lat="43.7748831" lon="11.4402819"><ele>97.99999999999999</ele><time>2026-04-11T12:06:26.583Z</time></trkpt><trkpt lat="43.7749042" lon="11.4403979"><ele>98.0</ele><time>2026-04-11T12:06:27.584Z</time></trkpt><trkpt lat="43.774913" lon="11.4405047"><ele>98.0</ele><time>2026-04-11T12:06:28.584Z</time></trkpt><trkpt lat="43.7749276" lon="11.4406044"><ele>98.0</ele><time>2026-04-11T12:06:29.584Z</time></trkpt><trkpt lat="43.7749733" lon="11.4407602"><ele>97.99999999999999</ele><time>2026-04-11T12:06:31.583Z</time></trkpt><trkpt lat="43.7750141" lon="11.4408448"><ele>98.0</ele><time>2026-04-11T12:06:32.583Z</time></trkpt><trkpt lat="43.7750648" lon="11.4409227"><ele>97.66666666666666</ele><time>2026-04-11T12:06:33.583Z</time></trkpt><trkpt lat="43.7751199" lon="11.4409976"><ele>97.33333333333333</ele><time>2026-04-11T12:06:34.584Z</time></trkpt><trkpt lat="43.7751866" lon="11.4410733"><ele>97.0</ele><time>2026-04-11T12:06:35.584Z</time></trkpt><trkpt lat="43.7752564" lon="11.4411564"><ele>96.66666666666666</ele><time>2026-04-11T12:06:36.584Z</time></trkpt><trkpt lat="43.7753196" lon="11.4412265"><ele>96.33333333333333</ele><time>2026-04-11T12:06:37.584Z</time></trkpt><trkpt lat="43.7753739" lon="11.4412896"><ele>96.0</ele><time>2026-04-11T12:06:38.584Z</time></trkpt><trkpt lat="43.7754524" lon="11.4413698"><ele>96.0</ele><time>2026-04-11T12:06:40.583Z</time></trkpt><trkpt lat="43.7755465" lon="11.4413861"><ele>96.0</ele><time>2026-04-11T12:06:43.583Z</time></trkpt><trkpt lat="43.7756259" lon="11.4413814"><ele>96.0</ele><time>2026-04-11T12:06:45.584Z</time></trkpt><trkpt lat="43.7757362" lon="11.4413433"><ele>96.0</ele><time>2026-04-11T12:06:47.584Z</time></trkpt><trkpt lat="43.7758589" lon="11.441313"><ele>96.0</ele><time>2026-04-11T12:06:49.584Z</time></trkpt><trkpt lat="43.7759413" lon="11.4412674"><ele>96.19999999999999</ele><time>2026-04-11T12:06:51.584Z</time></trkpt><trkpt lat="43.7761511" lon="11.4413535"><ele>96.39999999999999</ele><time>2026-04-11T12:06:58.584Z</time></trkpt><trkpt lat="43.7762008" lon="11.4414165"><ele>96.6</ele><time>2026-04-11T12:08:10.583Z</time></trkpt><trkpt lat="43.7762616" lon="11.4414802"><ele>96.8</ele><time>2026-04-11T12:08:15.584Z</time></trkpt><trkpt lat="43.7763131" lon="11.4415344"><ele>97.0</ele><time>2026-04-11T12:08:16.584Z</time></trkpt><trkpt lat="43.7763698" lon="11.4415848"><ele>97.0</ele><time>2026-04-11T12:08:17.584Z</time></trkpt><trkpt lat="43.7764339" lon="11.4416498"><ele>97.0</ele><time>2026-04-11T12:08:18.583Z</time></trkpt><trkpt lat="43.7764944" lon="11.4417046"><ele>97.0</ele><time>2026-04-11T12:08:19.584Z</time></trkpt><trkpt lat="43.776551" lon="11.4417695"><ele>97.0</ele><time>2026-04-11T12:08:20.583Z</time></trkpt><trkpt lat="43.7766623" lon="11.4418664"><ele>97.0</ele><time>2026-04-11T12:08:22.584Z</time></trkpt><trkpt lat="43.776763" lon="11.4419606"><ele>97.00000000000001</ele><time>2026-04-11T12:08:24.584Z</time></trkpt><trkpt lat="43.7768163" lon="11.4420207"><ele>97.0</ele><time>2026-04-11T12:08:25.583Z</time></trkpt><trkpt lat="43.7768388" lon="11.4421166"><ele>97.0</ele><time>2026-04-11T12:08:26.584Z</time></trkpt><trkpt lat="43.7768839" lon="11.4421907"><ele>97.0</ele><time>2026-04-11T12:08:27.584Z</time></trkpt><trkpt lat="43.776979" lon="11.4422528"><ele>97.00000000000001</ele><time>2026-04-11T12:08:29.584Z</time></trkpt><trkpt lat="43.7770328" lon="11.4423881"><ele>97.0</ele><time>2026-04-11T12:08:31.583Z</time></trkpt><trkpt lat="43.7770687" lon="11.4424804"><ele>97.50000000000001</ele><time>2026-04-11T12:08:32.584Z</time></trkpt><trkpt lat="43.7771513" lon="11.4425055"><ele>98.0</ele><time>2026-04-11T12:08:33.584Z</time></trkpt><trkpt lat="43.7772143" lon="11.4426088"><ele>98.5</ele><time>2026-04-11T12:08:35.582Z</time></trkpt><trkpt lat="43.7772605" lon="11.4426711"><ele>99.0</ele><time>2026-04-11T12:08:36.584Z</time></trkpt><trkpt lat="43.7773288" lon="11.4427456"><ele>99.50000000000001</ele><time>2026-04-11T12:08:38.584Z</time></trkpt><trkpt lat="43.7774094" lon="11.4428104"><ele>100.0</ele><time>2026-04-11T12:08:40.583Z</time></trkpt><trkpt lat="43.7775072" lon="11.4428918"><ele>100.00000000000001</ele><time>2026-04-11T12:08:42.584Z</time></trkpt><trkpt lat="43.7776079" lon="11.4429448"><ele>100.0</ele><time>2026-04-11T12:08:44.583Z</time></trkpt><trkpt lat="43.7777019" lon="11.4430421"><ele>100.0</ele><time>2026-04-11T12:08:46.584Z</time></trkpt><trkpt lat="43.7777609" lon="11.4430862"><ele>100.0</ele><time>2026-04-11T12:08:47.584Z</time></trkpt><trkpt lat="43.7778252" lon="11.4431253"><ele>100.00000000000001</ele><time>2026-04-11T12:08:48.584Z</time></trkpt><trkpt lat="43.7778955" lon="11.4431633"><ele>100.0</ele><time>2026-04-11T12:08:49.584Z</time></trkpt><trkpt lat="43.7779734" lon="11.4432237"><ele>98.66666666666667</ele><time>2026-04-11T12:08:51.584Z</time></trkpt><trkpt lat="43.7780668" lon="11.4432809"><ele>97.33333333333334</ele><time>2026-04-11T12:08:53.584Z</time></trkpt><trkpt lat="43.7781587" lon="11.4433162"><ele>96.0</ele><time>2026-04-11T12:08:55.583Z</time></trkpt><trkpt lat="43.7782252" lon="11.4433498"><ele>94.66666666666667</ele><time>2026-04-11T12:08:57.584Z</time></trkpt><trkpt lat="43.778287" lon="11.4433799"><ele>93.33333333333334</ele><time>2026-04-11T12:08:59.583Z</time></trkpt><trkpt lat="43.7783708" lon="11.443459"><ele>92.0</ele><time>2026-04-11T12:09:03.583Z</time></trkpt><trkpt lat="43.7784324" lon="11.4435346"><ele>92.0</ele><time>2026-04-11T12:09:05.584Z</time></trkpt><trkpt lat="43.7785049" lon="11.4436036"><ele>92.0</ele><time>2026-04-11T12:09:07.584Z</time></trkpt><trkpt lat="43.7785758" lon="11.443588"><ele>92.0</ele><time>2026-04-11T12:09:19.583Z</time></trkpt><trkpt lat="43.7786487" lon="11.4435804"><ele>92.0</ele><time>2026-04-11T12:09:22.583Z</time></trkpt><trkpt lat="43.7787263" lon="11.4435814"><ele>92.0</ele><time>2026-04-11T12:09:24.582Z</time></trkpt><trkpt lat="43.778837" lon="11.4436429"><ele>92.0</ele><time>2026-04-11T12:09:26.583Z</time></trkpt><trkpt lat="43.7789061" lon="11.4436747"><ele>92.0</ele><time>2026-04-11T12:09:27.582Z</time></trkpt><trkpt lat="43.778982" lon="11.4437029"><ele>92.0</ele><time>2026-04-11T12:09:28.583Z</time></trkpt><trkpt lat="43.7790529" lon="11.4437579"><ele>92.0</ele><time>2026-04-11T12:09:29.583Z</time></trkpt><trkpt lat="43.7791323" lon="11.4438012"><ele>92.0</ele><time>2026-04-11T12:09:30.583Z</time></trkpt><trkpt lat="43.7792112" lon="11.4438543"><ele>92.0</ele><time>2026-04-11T12:09:31.583Z</time></trkpt><trkpt lat="43.7792847" lon="11.4439298"><ele>92.0</ele><time>2026-04-11T12:09:32.582Z</time></trkpt><trkpt lat="43.7793516" lon="11.4440068"><ele>92.0</ele><time>2026-04-11T12:09:33.583Z</time></trkpt><trkpt lat="43.7794166" lon="11.4440824"><ele>92.0</ele><time>2026-04-11T12:09:34.583Z</time></trkpt><trkpt lat="43.7794755" lon="11.444171"><ele>92.0</ele><time>2026-04-11T12:09:35.583Z</time></trkpt><trkpt lat="43.7795196" lon="11.4442769"><ele>92.0</ele><time>2026-04-11T12:09:36.583Z</time></trkpt><trkpt lat="43.7795661" lon="11.4444045"><ele>92.0</ele><time>2026-04-11T12:09:37.583Z</time></trkpt><trkpt lat="43.77962" lon="11.4445316"><ele>91.0</ele><time>2026-04-11T12:09:38.583Z</time></trkpt><trkpt lat="43.7796796" lon="11.4446646"><ele>90.0</ele><time>2026-04-11T12:09:39.583Z</time></trkpt><trkpt lat="43.7797397" lon="11.4447912"><ele>89.0</ele><time>2026-04-11T12:09:40.583Z</time></trkpt><trkpt lat="43.7798112" lon="11.4449193"><ele>88.0</ele><time>2026-04-11T12:09:41.582Z</time></trkpt><trkpt lat="43.7799082" lon="11.4450679"><ele>88.0</ele><time>2026-04-11T12:09:42.582Z</time></trkpt><trkpt lat="43.7799932" lon="11.4452007"><ele>88.0</ele><time>2026-04-11T12:09:43.582Z</time></trkpt><trkpt lat="43.7800798" lon="11.4453443"><ele>88.0</ele><time>2026-04-11T12:09:44.582Z</time></trkpt><trkpt lat="43.7801235" lon="11.4454586"><ele>88.0</ele><time>2026-04-11T12:09:45.583Z</time></trkpt><trkpt lat="43.7801989" lon="11.4455858"><ele>87.4</ele><time>2026-04-11T12:09:46.582Z</time></trkpt><trkpt lat="43.7802775" lon="11.4457113"><ele>86.80000000000001</ele><time>2026-04-11T12:09:47.583Z</time></trkpt><trkpt lat="43.7803538" lon="11.4458293"><ele>86.2</ele><time>2026-04-11T12:09:48.582Z</time></trkpt><trkpt lat="43.7804255" lon="11.4459312"><ele>85.6</ele><time>2026-04-11T12:09:49.583Z</time></trkpt><trkpt lat="43.7805047" lon="11.4460294"><ele>85.0</ele><time>2026-04-11T12:09:50.582Z</time></trkpt><trkpt lat="43.7805366" lon="11.4461721"><ele>85.0</ele><time>2026-04-11T12:09:51.583Z</time></trkpt><trkpt lat="43.7805891" lon="11.4462618"><ele>85.0</ele><time>2026-04-11T12:09:52.582Z</time></trkpt><trkpt lat="43.7806542" lon="11.4463479"><ele>85.0</ele><time>2026-04-11T12:09:53.583Z</time></trkpt><trkpt lat="43.7807174" lon="11.4464244"><ele>85.0</ele><time>2026-04-11T12:09:54.581Z</time></trkpt><trkpt lat="43.7807726" lon="11.4464903"><ele>85.0</ele><time>2026-04-11T12:09:55.583Z</time></trkpt><trkpt lat="43.780868" lon="11.4465714"><ele>85.0</ele><time>2026-04-11T12:09:57.582Z</time></trkpt><trkpt lat="43.7809542" lon="11.4464431"><ele>84.5</ele><time>2026-04-11T12:09:59.583Z</time></trkpt><trkpt lat="43.7810009" lon="11.4463069"><ele>84.0</ele><time>2026-04-11T12:10:01.582Z</time></trkpt><trkpt lat="43.7810259" lon="11.4462121"><ele>83.5</ele><time>2026-04-11T12:10:02.583Z</time></trkpt><trkpt lat="43.7810555" lon="11.4461277"><ele>83.0</ele><time>2026-04-11T12:10:03.582Z</time></trkpt><trkpt lat="43.7811049" lon="11.4460257"><ele>82.5</ele><time>2026-04-11T12:10:05.583Z</time></trkpt><trkpt lat="43.7811681" lon="11.4459745"><ele>82.0</ele><time>2026-04-11T12:10:08.582Z</time></trkpt><trkpt lat="43.7812305" lon="11.4458888"><ele>83.6</ele><time>2026-04-11T12:10:11.582Z</time></trkpt><trkpt lat="43.7813078" lon="11.4458556"><ele>85.19999999999999</ele><time>2026-04-11T12:10:13.583Z</time></trkpt><trkpt lat="43.7813708" lon="11.4458712"><ele>86.8</ele><time>2026-04-11T12:10:14.582Z</time></trkpt><trkpt lat="43.7814627" lon="11.4459184"><ele>88.4</ele><time>2026-04-11T12:10:15.583Z</time></trkpt><trkpt lat="43.7815577" lon="11.4459751"><ele>90.0</ele><time>2026-04-11T12:10:16.583Z</time></trkpt><trkpt lat="43.78166" lon="11.4460338"><ele>90.0</ele><time>2026-04-11T12:10:17.583Z</time></trkpt><trkpt lat="43.7817515" lon="11.4460936"><ele>90.0</ele><time>2026-04-11T12:10:18.582Z</time></trkpt><trkpt lat="43.7818391" lon="11.446145"><ele>90.0</ele><time>2026-04-11T12:10:19.583Z</time></trkpt><trkpt lat="43.7819259" lon="11.4461936"><ele>90.0</ele><time>2026-04-11T12:10:20.583Z</time></trkpt><trkpt lat="43.7820098" lon="11.4462466"><ele>90.0</ele><time>2026-04-11T12:10:21.583Z</time></trkpt><trkpt lat="43.7820934" lon="11.4463001"><ele>90.0</ele><time>2026-04-11T12:10:22.583Z</time></trkpt><trkpt lat="43.7821732" lon="11.4463482"><ele>90.0</ele><time>2026-04-11T12:10:23.582Z</time></trkpt><trkpt lat="43.7822463" lon="11.4463897"><ele>90.0</ele><time>2026-04-11T12:10:24.583Z</time></trkpt><trkpt lat="43.7823135" lon="11.4464343"><ele>90.0</ele><time>2026-04-11T12:10:25.583Z</time></trkpt><trkpt lat="43.7823761" lon="11.4464788"><ele>90.0</ele><time>2026-04-11T12:10:26.583Z</time></trkpt><trkpt lat="43.7824379" lon="11.4465334"><ele>90.0</ele><time>2026-04-11T12:10:27.583Z</time></trkpt><trkpt lat="43.7824933" lon="11.4466022"><ele>90.0</ele><time>2026-04-11T12:10:28.583Z</time></trkpt><trkpt lat="43.7825399" lon="11.4466724"><ele>90.0</ele><time>2026-04-11T12:10:29.583Z</time></trkpt><trkpt lat="43.7825844" lon="11.4467472"><ele>90.0</ele><time>2026-04-11T12:10:30.583Z</time></trkpt><trkpt lat="43.7826561" lon="11.4468726"><ele>90.0</ele><time>2026-04-11T12:10:32.583Z</time></trkpt><trkpt lat="43.7827316" lon="11.4470233"><ele>90.0</ele><time>2026-04-11T12:10:34.583Z</time></trkpt><trkpt lat="43.7827905" lon="11.4471452"><ele>89.8</ele><time>2026-04-11T12:10:35.583Z</time></trkpt><trkpt lat="43.7828554" lon="11.4472593"><ele>89.6</ele><time>2026-04-11T12:10:36.583Z</time></trkpt><trkpt lat="43.7829342" lon="11.4473656"><ele>89.4</ele><time>2026-04-11T12:10:37.581Z</time></trkpt><trkpt lat="43.7830188" lon="11.4474537"><ele>89.2</ele><time>2026-04-11T12:10:38.582Z</time></trkpt><trkpt lat="43.7831039" lon="11.4475422"><ele>89.0</ele><time>2026-04-11T12:10:39.583Z</time></trkpt><trkpt lat="43.7831969" lon="11.447623"><ele>89.0</ele><time>2026-04-11T12:10:40.581Z</time></trkpt><trkpt lat="43.7832911" lon="11.4476901"><ele>89.0</ele><time>2026-04-11T12:10:41.583Z</time></trkpt><trkpt lat="43.7833824" lon="11.4477451"><ele>89.0</ele><time>2026-04-11T12:10:42.583Z</time></trkpt><trkpt lat="43.7834691" lon="11.4477976"><ele>89.0</ele><time>2026-04-11T12:10:43.583Z</time></trkpt><trkpt lat="43.7835566" lon="11.4478628"><ele>89.0</ele><time>2026-04-11T12:10:44.583Z</time></trkpt><trkpt lat="43.7836342" lon="11.4479544"><ele>89.2</ele><time>2026-04-11T12:10:45.583Z</time></trkpt><trkpt lat="43.7837084" lon="11.44806"><ele>89.4</ele><time>2026-04-11T12:10:46.583Z</time></trkpt><trkpt lat="43.7837778" lon="11.4481569"><ele>89.6</ele><time>2026-04-11T12:10:47.583Z</time></trkpt><trkpt lat="43.7838401" lon="11.4482495"><ele>89.8</ele><time>2026-04-11T12:10:48.582Z</time></trkpt><trkpt lat="43.7839035" lon="11.4483525"><ele>90.0</ele><time>2026-04-11T12:10:49.583Z</time></trkpt><trkpt lat="43.7839752" lon="11.448465"><ele>90.0</ele><time>2026-04-11T12:10:50.583Z</time></trkpt><trkpt lat="43.784041" lon="11.448577"><ele>90.0</ele><time>2026-04-11T12:10:51.583Z</time></trkpt><trkpt lat="43.7841187" lon="11.4486746"><ele>90.0</ele><time>2026-04-11T12:10:52.583Z</time></trkpt><trkpt lat="43.7842036" lon="11.4487644"><ele>90.0</ele><time>2026-04-11T12:10:53.583Z</time></trkpt><trkpt lat="43.7842956" lon="11.4488363"><ele>90.0</ele><time>2026-04-11T12:10:54.583Z</time></trkpt><trkpt lat="43.7843826" lon="11.4489151"><ele>90.2</ele><time>2026-04-11T12:10:55.583Z</time></trkpt><trkpt lat="43.7844692" lon="11.4489944"><ele>90.4</ele><time>2026-04-11T12:10:56.582Z</time></trkpt><trkpt lat="43.7845545" lon="11.449074"><ele>90.6</ele><time>2026-04-11T12:10:57.583Z</time></trkpt><trkpt lat="43.7846367" lon="11.4491592"><ele>90.8</ele><time>2026-04-11T12:10:58.583Z</time></trkpt><trkpt lat="43.7847173" lon="11.4492417"><ele>91.0</ele><time>2026-04-11T12:10:59.582Z</time></trkpt><trkpt lat="43.784797" lon="11.449334"><ele>91.0</ele><time>2026-04-11T12:11:00.582Z</time></trkpt><trkpt lat="43.7848775" lon="11.4494363"><ele>91.0</ele><time>2026-04-11T12:11:01.583Z</time></trkpt><trkpt lat="43.7849583" lon="11.4495485"><ele>91.0</ele><time>2026-04-11T12:11:02.582Z</time></trkpt><trkpt lat="43.7850369" lon="11.4496655"><ele>91.0</ele><time>2026-04-11T12:11:03.582Z</time></trkpt><trkpt lat="43.7851129" lon="11.4497891"><ele>91.8</ele><time>2026-04-11T12:11:04.582Z</time></trkpt><trkpt lat="43.7851901" lon="11.4499127"><ele>92.6</ele><time>2026-04-11T12:11:05.583Z</time></trkpt><trkpt lat="43.7852769" lon="11.450027"><ele>93.4</ele><time>2026-04-11T12:11:06.583Z</time></trkpt><trkpt lat="43.7853484" lon="11.4501195"><ele>94.2</ele><time>2026-04-11T12:11:07.583Z</time></trkpt><trkpt lat="43.7854007" lon="11.4501713"><ele>95.0</ele><time>2026-04-11T12:11:08.582Z</time></trkpt><trkpt lat="43.7854775" lon="11.4501651"><ele>95.0</ele><time>2026-04-11T12:11:10.583Z</time></trkpt><trkpt lat="43.7855648" lon="11.4501012"><ele>95.0</ele><time>2026-04-11T12:11:12.583Z</time></trkpt><trkpt lat="43.7856301" lon="11.4500636"><ele>95.0</ele><time>2026-04-11T12:11:13.583Z</time></trkpt><trkpt lat="43.785704" lon="11.4500264"><ele>95.0</ele><time>2026-04-11T12:11:14.583Z</time></trkpt><trkpt lat="43.7857852" lon="11.4499838"><ele>95.0</ele><time>2026-04-11T12:11:15.583Z</time></trkpt><trkpt lat="43.7858695" lon="11.4499417"><ele>95.0</ele><time>2026-04-11T12:11:16.583Z</time></trkpt><trkpt lat="43.7859563" lon="11.4498894"><ele>96.2</ele><time>2026-04-11T12:11:17.582Z</time></trkpt><trkpt lat="43.7860439" lon="11.4498276"><ele>97.4</ele><time>2026-04-11T12:11:18.583Z</time></trkpt><trkpt lat="43.7861272" lon="11.4497655"><ele>98.6</ele><time>2026-04-11T12:11:19.583Z</time></trkpt><trkpt lat="43.7862098" lon="11.4497316"><ele>99.8</ele><time>2026-04-11T12:11:20.583Z</time></trkpt><trkpt lat="43.7863014" lon="11.4496822"><ele>101.0</ele><time>2026-04-11T12:11:21.583Z</time></trkpt><trkpt lat="43.7863984" lon="11.4497021"><ele>101.0</ele><time>2026-04-11T12:11:22.583Z</time></trkpt><trkpt lat="43.7864982" lon="11.4497071"><ele>101.0</ele><time>2026-04-11T12:11:23.582Z</time></trkpt><trkpt lat="43.7866032" lon="11.449729"><ele>101.0</ele><time>2026-04-11T12:11:24.583Z</time></trkpt><trkpt lat="43.7867042" lon="11.4497576"><ele>101.0</ele><time>2026-04-11T12:11:25.583Z</time></trkpt><trkpt lat="43.7868141" lon="11.4498114"><ele>101.0</ele><time>2026-04-11T12:11:26.582Z</time></trkpt><trkpt lat="43.786933" lon="11.4498765"><ele>105.0</ele><time>2026-04-11T12:11:27.583Z</time></trkpt><trkpt lat="43.787059" lon="11.4499459"><ele>109.0</ele><time>2026-04-11T12:11:28.583Z</time></trkpt><trkpt lat="43.7871937" lon="11.4500167"><ele>113.0</ele><time>2026-04-11T12:11:29.583Z</time></trkpt><trkpt lat="43.7873058" lon="11.450081"><ele>117.0</ele><time>2026-04-11T12:11:30.583Z</time></trkpt><trkpt lat="43.7873974" lon="11.4501586"><ele>117.0</ele><time>2026-04-11T12:11:31.582Z</time></trkpt><trkpt lat="43.7874564" lon="11.4502515"><ele>117.0</ele><time>2026-04-11T12:11:32.583Z</time></trkpt><trkpt lat="43.7875013" lon="11.450389"><ele>117.0</ele><time>2026-04-11T12:11:33.583Z</time></trkpt><trkpt lat="43.7875522" lon="11.4505601"><ele>117.0</ele><time>2026-04-11T12:11:34.583Z</time></trkpt><trkpt lat="43.7876246" lon="11.4507471"><ele>121.0</ele><time>2026-04-11T12:11:35.583Z</time></trkpt><trkpt lat="43.7877183" lon="11.4509406"><ele>125.0</ele><time>2026-04-11T12:11:36.582Z</time></trkpt><trkpt lat="43.7878198" lon="11.4511392"><ele>129.0</ele><time>2026-04-11T12:11:37.582Z</time></trkpt><trkpt lat="43.7879248" lon="11.4513121"><ele>129.0</ele><time>2026-04-11T12:11:38.583Z</time></trkpt><trkpt lat="43.7880155" lon="11.4514882"><ele>129.0</ele><time>2026-04-11T12:11:39.583Z</time></trkpt><trkpt lat="43.7881057" lon="11.4516478"><ele>129.0</ele><time>2026-04-11T12:11:40.583Z</time></trkpt><trkpt lat="43.7882064" lon="11.4518067"><ele>129.0</ele><time>2026-04-11T12:11:41.583Z</time></trkpt><trkpt lat="43.7883193" lon="11.4519583"><ele>129.0</ele><time>2026-04-11T12:11:42.582Z</time></trkpt><trkpt lat="43.788443" lon="11.4521077"><ele>129.0</ele><time>2026-04-11T12:11:43.582Z</time></trkpt><trkpt lat="43.7885786" lon="11.45227"><ele>132.66666666666666</ele><time>2026-04-11T12:11:44.582Z</time></trkpt><trkpt lat="43.7887075" lon="11.4524488"><ele>136.33333333333331</ele><time>2026-04-11T12:11:45.583Z</time></trkpt><trkpt lat="43.7888392" lon="11.452649"><ele>140.0</ele><time>2026-04-11T12:11:46.582Z</time></trkpt><trkpt lat="43.7889795" lon="11.4528587"><ele>141.66666666666666</ele><time>2026-04-11T12:11:47.583Z</time></trkpt><trkpt lat="43.7891193" lon="11.453075"><ele>143.33333333333334</ele><time>2026-04-11T12:11:48.583Z</time></trkpt><trkpt lat="43.7892414" lon="11.4532778"><ele>145.0</ele><time>2026-04-11T12:11:49.582Z</time></trkpt><trkpt lat="43.7893486" lon="11.4534667"><ele>145.0</ele><time>2026-04-11T12:11:50.583Z</time></trkpt><trkpt lat="43.7894435" lon="11.4536146"><ele>145.0</ele><time>2026-04-11T12:11:51.583Z</time></trkpt><trkpt lat="43.7895284" lon="11.4537354"><ele>145.0</ele><time>2026-04-11T12:11:52.583Z</time></trkpt><trkpt lat="43.7896219" lon="11.4538154"><ele>145.0</ele><time>2026-04-11T12:11:53.583Z</time></trkpt><trkpt lat="43.7897251" lon="11.4538696"><ele>146.0</ele><time>2026-04-11T12:11:54.583Z</time></trkpt><trkpt lat="43.7898329" lon="11.4539097"><ele>147.0</ele><time>2026-04-11T12:11:55.583Z</time></trkpt><trkpt lat="43.7899596" lon="11.4539377"><ele>148.0</ele><time>2026-04-11T12:11:56.583Z</time></trkpt><trkpt lat="43.7900919" lon="11.4539672"><ele>149.0</ele><time>2026-04-11T12:11:57.582Z</time></trkpt><trkpt lat="43.790227" lon="11.4539991"><ele>149.0</ele><time>2026-04-11T12:11:58.583Z</time></trkpt><trkpt lat="43.7903582" lon="11.4540306"><ele>149.0</ele><time>2026-04-11T12:11:59.583Z</time></trkpt><trkpt lat="43.7904904" lon="11.4540517"><ele>149.0</ele><time>2026-04-11T12:12:00.581Z</time></trkpt><trkpt lat="43.790622" lon="11.4540585"><ele>149.0</ele><time>2026-04-11T12:12:01.583Z</time></trkpt><trkpt lat="43.7907522" lon="11.4540513"><ele>149.0</ele><time>2026-04-11T12:12:02.583Z</time></trkpt><trkpt lat="43.7908848" lon="11.454033"><ele>149.0</ele><time>2026-04-11T12:12:03.583Z</time></trkpt><trkpt lat="43.7910138" lon="11.4540075"><ele>149.0</ele><time>2026-04-11T12:12:04.581Z</time></trkpt><trkpt lat="43.791149" lon="11.45398"><ele>149.0</ele><time>2026-04-11T12:12:05.583Z</time></trkpt><trkpt lat="43.7912864" lon="11.4539506"><ele>150.25</ele><time>2026-04-11T12:12:06.583Z</time></trkpt><trkpt lat="43.7914165" lon="11.4539111"><ele>151.5</ele><time>2026-04-11T12:12:07.583Z</time></trkpt><trkpt lat="43.7915248" lon="11.45386"><ele>152.75</ele><time>2026-04-11T12:12:08.583Z</time></trkpt><trkpt lat="43.7916173" lon="11.4537885"><ele>154.0</ele><time>2026-04-11T12:12:09.583Z</time></trkpt><trkpt lat="43.7916917" lon="11.4536773"><ele>155.75</ele><time>2026-04-11T12:12:10.583Z</time></trkpt><trkpt lat="43.7917475" lon="11.4535351"><ele>157.5</ele><time>2026-04-11T12:12:11.581Z</time></trkpt><trkpt lat="43.7917803" lon="11.4533671"><ele>159.25</ele><time>2026-04-11T12:12:12.581Z</time></trkpt><trkpt lat="43.791795" lon="11.4531909"><ele>161.0</ele><time>2026-04-11T12:12:13.583Z</time></trkpt><trkpt lat="43.7917987" lon="11.4530085"><ele>163.25</ele><time>2026-04-11T12:12:14.583Z</time></trkpt><trkpt lat="43.7917726" lon="11.4528465"><ele>165.5</ele><time>2026-04-11T12:12:15.583Z</time></trkpt><trkpt lat="43.7917124" lon="11.4526963"><ele>167.75</ele><time>2026-04-11T12:12:16.583Z</time></trkpt><trkpt lat="43.7916267" lon="11.452561"><ele>170.0</ele><time>2026-04-11T12:12:17.583Z</time></trkpt><trkpt lat="43.7915315" lon="11.452429"><ele>170.0</ele><time>2026-04-11T12:12:18.583Z</time></trkpt><trkpt lat="43.7914395" lon="11.4523052"><ele>170.0</ele><time>2026-04-11T12:12:19.582Z</time></trkpt><trkpt lat="43.7913568" lon="11.4521952"><ele>170.0</ele><time>2026-04-11T12:12:20.582Z</time></trkpt><trkpt lat="43.7912773" lon="11.4520767"><ele>170.0</ele><time>2026-04-11T12:12:21.582Z</time></trkpt><trkpt lat="43.7912147" lon="11.4519481"><ele>172.0</ele><time>2026-04-11T12:12:22.582Z</time></trkpt><trkpt lat="43.7911699" lon="11.4518367"><ele>174.0</ele><time>2026-04-11T12:12:23.583Z</time></trkpt><trkpt lat="43.7911563" lon="11.4517267"><ele>176.0</ele><time>2026-04-11T12:12:24.583Z</time></trkpt><trkpt lat="43.7911799" lon="11.4516415"><ele>178.0</ele><time>2026-04-11T12:12:25.583Z</time></trkpt><trkpt lat="43.7912971" lon="11.4515933"><ele>180.0</ele><time>2026-04-11T12:12:27.583Z</time></trkpt><trkpt lat="43.7913632" lon="11.4516118"><ele>182.0</ele><time>2026-04-11T12:12:28.583Z</time></trkpt><trkpt lat="43.7914472" lon="11.451634"><ele>182.0</ele><time>2026-04-11T12:12:29.582Z</time></trkpt><trkpt lat="43.7915522" lon="11.4516516"><ele>182.0</ele><time>2026-04-11T12:12:30.583Z</time></trkpt><trkpt lat="43.7916712" lon="11.4516575"><ele>182.0</ele><time>2026-04-11T12:12:31.583Z</time></trkpt><trkpt lat="43.7918025" lon="11.4516572"><ele>182.0</ele><time>2026-04-11T12:12:32.582Z</time></trkpt><trkpt lat="43.7919485" lon="11.4516444"><ele>184.0</ele><time>2026-04-11T12:12:33.583Z</time></trkpt><trkpt lat="43.7920846" lon="11.4516243"><ele>186.0</ele><time>2026-04-11T12:12:34.582Z</time></trkpt><trkpt lat="43.7922412" lon="11.4516346"><ele>188.0</ele><time>2026-04-11T12:12:35.583Z</time></trkpt><trkpt lat="43.7923981" lon="11.4516291"><ele>188.0</ele><time>2026-04-11T12:12:36.583Z</time></trkpt><trkpt lat="43.7925606" lon="11.4516231"><ele>188.0</ele><time>2026-04-11T12:12:37.583Z</time></trkpt><trkpt lat="43.7927479" lon="11.4516135"><ele>188.0</ele><time>2026-04-11T12:12:38.582Z</time></trkpt><trkpt lat="43.7929331" lon="11.4516162"><ele>190.33333333333331</ele><time>2026-04-11T12:12:39.582Z</time></trkpt><trkpt lat="43.7931313" lon="11.4516351"><ele>192.66666666666666</ele><time>2026-04-11T12:12:40.583Z</time></trkpt><trkpt lat="43.7933288" lon="11.4516499"><ele>195.0</ele><time>2026-04-11T12:12:41.583Z</time></trkpt><trkpt lat="43.7935296" lon="11.4516697"><ele>198.0</ele><time>2026-04-11T12:12:42.583Z</time></trkpt><trkpt lat="43.7937073" lon="11.4516948"><ele>201.0</ele><time>2026-04-11T12:12:43.583Z</time></trkpt><trkpt lat="43.7938718" lon="11.451716"><ele>204.0</ele><time>2026-04-11T12:12:44.583Z</time></trkpt><trkpt lat="43.7940168" lon="11.451739"><ele>204.0</ele><time>2026-04-11T12:12:45.583Z</time></trkpt><trkpt lat="43.7941429" lon="11.4517622"><ele>204.0</ele><time>2026-04-11T12:12:46.581Z</time></trkpt><trkpt lat="43.7942522" lon="11.4517762"><ele>204.0</ele><time>2026-04-11T12:12:47.583Z</time></trkpt><trkpt lat="43.7943423" lon="11.4517801"><ele>204.0</ele><time>2026-04-11T12:12:48.583Z</time></trkpt><trkpt lat="43.7944391" lon="11.4517524"><ele>204.0</ele><time>2026-04-11T12:12:49.583Z</time></trkpt><trkpt lat="43.7945229" lon="11.4517194"><ele>206.0</ele><time>2026-04-11T12:12:50.583Z</time></trkpt><trkpt lat="43.7945991" lon="11.451659"><ele>208.0</ele><time>2026-04-11T12:12:51.583Z</time></trkpt><trkpt lat="43.7946749" lon="11.4515577"><ele>209.99999999999997</ele><time>2026-04-11T12:12:52.583Z</time></trkpt><trkpt lat="43.7947542" lon="11.4514443"><ele>212.0</ele><time>2026-04-11T12:12:53.583Z</time></trkpt><trkpt lat="43.7948322" lon="11.4513736"><ele>214.0</ele><time>2026-04-11T12:12:54.583Z</time></trkpt><trkpt lat="43.7949058" lon="11.4513117"><ele>214.0</ele><time>2026-04-11T12:12:55.582Z</time></trkpt><trkpt lat="43.7949992" lon="11.4513238"><ele>213.99999999999997</ele><time>2026-04-11T12:12:56.583Z</time></trkpt><trkpt lat="43.7950454" lon="11.4514364"><ele>213.99999999999997</ele><time>2026-04-11T12:12:57.583Z</time></trkpt><trkpt lat="43.7950709" lon="11.4515828"><ele>214.0</ele><time>2026-04-11T12:12:58.582Z</time></trkpt><trkpt lat="43.7951111" lon="11.4517425"><ele>214.0</ele><time>2026-04-11T12:12:59.583Z</time></trkpt><trkpt lat="43.795161" lon="11.4519003"><ele>216.5</ele><time>2026-04-11T12:13:00.583Z</time></trkpt><trkpt lat="43.7952473" lon="11.4520624"><ele>219.0</ele><time>2026-04-11T12:13:01.582Z</time></trkpt><trkpt lat="43.795318" lon="11.4522181"><ele>221.5</ele><time>2026-04-11T12:13:02.582Z</time></trkpt><trkpt lat="43.7953823" lon="11.4523447"><ele>224.0</ele><time>2026-04-11T12:13:03.583Z</time></trkpt><trkpt lat="43.7954549" lon="11.452464"><ele>224.0</ele><time>2026-04-11T12:13:04.582Z</time></trkpt><trkpt lat="43.7955529" lon="11.4525592"><ele>224.0</ele><time>2026-04-11T12:13:05.582Z</time></trkpt><trkpt lat="43.7956695" lon="11.4526429"><ele>224.0</ele><time>2026-04-11T12:13:06.582Z</time></trkpt><trkpt lat="43.7958003" lon="11.4526951"><ele>224.0</ele><time>2026-04-11T12:13:07.583Z</time></trkpt><trkpt lat="43.7959195" lon="11.4527241"><ele>225.75</ele><time>2026-04-11T12:13:08.582Z</time></trkpt><trkpt lat="43.7960433" lon="11.4527432"><ele>227.5</ele><time>2026-04-11T12:13:09.583Z</time></trkpt><trkpt lat="43.7961733" lon="11.4527675"><ele>229.25</ele><time>2026-04-11T12:13:10.583Z</time></trkpt><trkpt lat="43.796297" lon="11.4527768"><ele>231.0</ele><time>2026-04-11T12:13:11.583Z</time></trkpt><trkpt lat="43.7964213" lon="11.4527815"><ele>231.0</ele><time>2026-04-11T12:13:12.583Z</time></trkpt><trkpt lat="43.796517" lon="11.4527617"><ele>231.0</ele><time>2026-04-11T12:13:13.583Z</time></trkpt><trkpt lat="43.7964876" lon="11.4526689"><ele>231.0</ele><time>2026-04-11T12:13:14.583Z</time></trkpt><trkpt lat="43.7965717" lon="11.4526011"><ele>231.0</ele><time>2026-04-11T12:13:16.583Z</time></trkpt><trkpt lat="43.7966565" lon="11.4525632"><ele>231.0</ele><time>2026-04-11T12:13:18.582Z</time></trkpt><trkpt lat="43.7967387" lon="11.4525531"><ele>231.0</ele><time>2026-04-11T12:13:20.583Z</time></trkpt><trkpt lat="43.7968134" lon="11.4525783"><ele>234.4</ele><time>2026-04-11T12:13:22.582Z</time></trkpt><trkpt lat="43.7969054" lon="11.452629"><ele>237.8</ele><time>2026-04-11T12:13:31.583Z</time></trkpt><trkpt lat="43.7969979" lon="11.4527069"><ele>241.20000000000002</ele><time>2026-04-11T12:13:33.583Z</time></trkpt><trkpt lat="43.797102" lon="11.4527995"><ele>244.60000000000002</ele><time>2026-04-11T12:13:35.582Z</time></trkpt><trkpt lat="43.7971676" lon="11.4528472"><ele>248.0</ele><time>2026-04-11T12:13:36.583Z</time></trkpt><trkpt lat="43.7972236" lon="11.4528951"><ele>248.00000000000003</ele><time>2026-04-11T12:13:37.583Z</time></trkpt><trkpt lat="43.7972872" lon="11.4529487"><ele>248.0</ele><time>2026-04-11T12:13:38.582Z</time></trkpt><trkpt lat="43.7973513" lon="11.4530021"><ele>248.0</ele><time>2026-04-11T12:13:39.583Z</time></trkpt><trkpt lat="43.7974199" lon="11.4530593"><ele>248.0</ele><time>2026-04-11T12:13:40.583Z</time></trkpt><trkpt lat="43.7974985" lon="11.4531053"><ele>248.00000000000003</ele><time>2026-04-11T12:13:41.583Z</time></trkpt><trkpt lat="43.7975825" lon="11.4531452"><ele>248.0</ele><time>2026-04-11T12:13:42.583Z</time></trkpt><trkpt lat="43.7976573" lon="11.4531859"><ele>249.00000000000003</ele><time>2026-04-11T12:13:43.583Z</time></trkpt><trkpt lat="43.7977354" lon="11.4532407"><ele>250.0</ele><time>2026-04-11T12:13:44.581Z</time></trkpt><trkpt lat="43.797814" lon="11.4532891"><ele>251.0</ele><time>2026-04-11T12:13:45.583Z</time></trkpt><trkpt lat="43.7978818" lon="11.4533449"><ele>252.0</ele><time>2026-04-11T12:13:46.583Z</time></trkpt><trkpt lat="43.797948" lon="11.453391"><ele>253.00000000000003</ele><time>2026-04-11T12:13:47.582Z</time></trkpt><trkpt lat="43.7980081" lon="11.4534429"><ele>254.0</ele><time>2026-04-11T12:13:48.583Z</time></trkpt><trkpt lat="43.7980593" lon="11.4535091"><ele>254.0</ele><time>2026-04-11T12:13:49.582Z</time></trkpt><trkpt lat="43.7981302" lon="11.4535721"><ele>253.99999999999997</ele><time>2026-04-11T12:13:50.582Z</time></trkpt><trkpt lat="43.7981839" lon="11.4536543"><ele>253.99999999999997</ele><time>2026-04-11T12:13:51.583Z</time></trkpt><trkpt lat="43.7982408" lon="11.4537405"><ele>254.0</ele><time>2026-04-11T12:13:52.583Z</time></trkpt><trkpt lat="43.7982846" lon="11.4538039"><ele>254.0</ele><time>2026-04-11T12:13:53.583Z</time></trkpt><trkpt lat="43.7983811" lon="11.453944"><ele>254.66666666666669</ele><time>2026-04-11T12:13:55.583Z</time></trkpt><trkpt lat="43.7984207" lon="11.4540452"><ele>255.33333333333334</ele><time>2026-04-11T12:13:56.583Z</time></trkpt><trkpt lat="43.798467" lon="11.4541348"><ele>256.0</ele><time>2026-04-11T12:13:57.583Z</time></trkpt><trkpt lat="43.7985045" lon="11.4542176"><ele>256.6666666666667</ele><time>2026-04-11T12:13:58.583Z</time></trkpt><trkpt lat="43.7986003" lon="11.4542826"><ele>257.3333333333333</ele><time>2026-04-11T12:14:00.582Z</time></trkpt><trkpt lat="43.7986834" lon="11.4543276"><ele>258.0</ele><time>2026-04-11T12:14:01.583Z</time></trkpt><trkpt lat="43.7987712" lon="11.454369"><ele>258.0</ele><time>2026-04-11T12:14:02.582Z</time></trkpt><trkpt lat="43.7988597" lon="11.4544167"><ele>258.0</ele><time>2026-04-11T12:14:03.581Z</time></trkpt><trkpt lat="43.7989387" lon="11.4544662"><ele>258.0</ele><time>2026-04-11T12:14:04.583Z</time></trkpt><trkpt lat="43.7990203" lon="11.4545109"><ele>258.0</ele><time>2026-04-11T12:14:05.583Z</time></trkpt><trkpt lat="43.7991128" lon="11.4545445"><ele>258.0</ele><time>2026-04-11T12:14:06.583Z</time></trkpt><trkpt lat="43.7991991" lon="11.4545848"><ele>256.4</ele><time>2026-04-11T12:14:07.583Z</time></trkpt><trkpt lat="43.7992922" lon="11.4546262"><ele>254.8</ele><time>2026-04-11T12:14:08.582Z</time></trkpt><trkpt lat="43.7993885" lon="11.4546721"><ele>253.2</ele><time>2026-04-11T12:14:09.582Z</time></trkpt><trkpt lat="43.7994905" lon="11.4546985"><ele>251.6</ele><time>2026-04-11T12:14:10.583Z</time></trkpt><trkpt lat="43.7995806" lon="11.4547432"><ele>250.0</ele><time>2026-04-11T12:14:11.583Z</time></trkpt><trkpt lat="43.7996517" lon="11.45479"><ele>249.99999999999997</ele><time>2026-04-11T12:14:12.583Z</time></trkpt><trkpt lat="43.7997341" lon="11.4548232"><ele>250.0</ele><time>2026-04-11T12:14:13.582Z</time></trkpt><trkpt lat="43.7998424" lon="11.4548554"><ele>250.0</ele><time>2026-04-11T12:14:15.583Z</time></trkpt><trkpt lat="43.7999186" lon="11.4548679"><ele>250.0</ele><time>2026-04-11T12:14:16.583Z</time></trkpt><trkpt lat="43.7999889" lon="11.4548954"><ele>249.99999999999997</ele><time>2026-04-11T12:14:17.583Z</time></trkpt><trkpt lat="43.8000626" lon="11.4549346"><ele>250.0</ele><time>2026-04-11T12:14:18.583Z</time></trkpt><trkpt lat="43.8001298" lon="11.4549908"><ele>252.33333333333331</ele><time>2026-04-11T12:14:19.583Z</time></trkpt><trkpt lat="43.800206" lon="11.4550712"><ele>254.66666666666666</ele><time>2026-04-11T12:14:20.582Z</time></trkpt><trkpt lat="43.8002736" lon="11.455144"><ele>257.0</ele><time>2026-04-11T12:14:21.583Z</time></trkpt><trkpt lat="43.8003374" lon="11.4552153"><ele>259.3333333333333</ele><time>2026-04-11T12:14:22.583Z</time></trkpt><trkpt lat="43.8004026" lon="11.4552885"><ele>261.6666666666667</ele><time>2026-04-11T12:14:23.582Z</time></trkpt><trkpt lat="43.8004693" lon="11.4553592"><ele>264.0</ele><time>2026-04-11T12:14:24.582Z</time></trkpt><trkpt lat="43.8005344" lon="11.4554348"><ele>262.5</ele><time>2026-04-11T12:14:25.582Z</time></trkpt><trkpt lat="43.8006026" lon="11.4555051"><ele>261.0</ele><time>2026-04-11T12:14:26.583Z</time></trkpt><trkpt lat="43.8006709" lon="11.4555875"><ele>259.5</ele><time>2026-04-11T12:14:27.583Z</time></trkpt><trkpt lat="43.8007411" lon="11.4556577"><ele>258.0</ele><time>2026-04-11T12:14:28.582Z</time></trkpt><trkpt lat="43.8008127" lon="11.4557272"><ele>256.5</ele><time>2026-04-11T12:14:29.582Z</time></trkpt><trkpt lat="43.8008809" lon="11.4557968"><ele>255.0</ele><time>2026-04-11T12:14:30.583Z</time></trkpt><trkpt lat="43.8009481" lon="11.4558645"><ele>257.0</ele><time>2026-04-11T12:14:31.583Z</time></trkpt><trkpt lat="43.8010128" lon="11.4559238"><ele>259.0</ele><time>2026-04-11T12:14:32.583Z</time></trkpt><trkpt lat="43.8010758" lon="11.4559833"><ele>261.0</ele><time>2026-04-11T12:14:33.581Z</time></trkpt><trkpt lat="43.8011415" lon="11.4560414"><ele>263.0</ele><time>2026-04-11T12:14:34.583Z</time></trkpt><trkpt lat="43.8012135" lon="11.4560748"><ele>265.0</ele><time>2026-04-11T12:14:35.583Z</time></trkpt><trkpt lat="43.8012814" lon="11.4561138"><ele>267.0</ele><time>2026-04-11T12:14:36.582Z</time></trkpt><trkpt lat="43.8013363" lon="11.4561623"><ele>269.0</ele><time>2026-04-11T12:14:38.583Z</time></trkpt><trkpt lat="43.8013884" lon="11.4562331"><ele>266.33333333333337</ele><time>2026-04-11T12:14:47.582Z</time></trkpt><trkpt lat="43.8013891" lon="11.456328"><ele>263.6666666666667</ele><time>2026-04-11T12:14:50.583Z</time></trkpt><trkpt lat="43.8013595" lon="11.4564097"><ele>261.0</ele><time>2026-04-11T12:14:52.583Z</time></trkpt><trkpt lat="43.801303" lon="11.4565045"><ele>258.3333333333333</ele><time>2026-04-11T12:14:54.582Z</time></trkpt><trkpt lat="43.8012287" lon="11.4566319"><ele>255.66666666666666</ele><time>2026-04-11T12:14:56.583Z</time></trkpt><trkpt lat="43.8011704" lon="11.4567387"><ele>253.0</ele><time>2026-04-11T12:14:58.583Z</time></trkpt><trkpt lat="43.801122" lon="11.4568328"><ele>253.00000000000003</ele><time>2026-04-11T12:15:00.583Z</time></trkpt><trkpt lat="43.8010676" lon="11.4569252"><ele>253.0</ele><time>2026-04-11T12:15:02.583Z</time></trkpt><trkpt lat="43.8010224" lon="11.4570045"><ele>253.00000000000003</ele><time>2026-04-11T12:15:04.582Z</time></trkpt><trkpt lat="43.8010277" lon="11.4571081"><ele>253.00000000000003</ele><time>2026-04-11T12:15:08.582Z</time></trkpt><trkpt lat="43.8010884" lon="11.4571558"><ele>253.0</ele><time>2026-04-11T12:15:11.583Z</time></trkpt><trkpt lat="43.8011536" lon="11.4571565"><ele>253.00000000000003</ele><time>2026-04-11T12:15:16.583Z</time></trkpt><trkpt lat="43.8012121" lon="11.4571987"><ele>253.00000000000003</ele><time>2026-04-11T12:15:22.582Z</time></trkpt><trkpt lat="43.8011411" lon="11.4571433"><ele>252.99999999999997</ele><time>2026-04-11T12:15:53.582Z</time></trkpt><trkpt lat="43.8010716" lon="11.4571394"><ele>253.0</ele><time>2026-04-11T12:15:59.583Z</time></trkpt><trkpt lat="43.8010042" lon="11.4570716"><ele>253.0</ele><time>2026-04-11T12:16:03.583Z</time></trkpt><trkpt lat="43.801044" lon="11.4569612"><ele>253.0</ele><time>2026-04-11T12:16:06.583Z</time></trkpt><trkpt lat="43.8011021" lon="11.4568579"><ele>252.99999999999997</ele><time>2026-04-11T12:16:08.582Z</time></trkpt><trkpt lat="43.8011594" lon="11.4567576"><ele>253.0</ele><time>2026-04-11T12:16:10.583Z</time></trkpt><trkpt lat="43.8012205" lon="11.4566577"><ele>253.0</ele><time>2026-04-11T12:16:12.583Z</time></trkpt><trkpt lat="43.8012856" lon="11.4565479"><ele>253.0</ele><time>2026-04-11T12:16:14.582Z</time></trkpt><trkpt lat="43.8013419" lon="11.4564495"><ele>253.0</ele><time>2026-04-11T12:16:16.582Z</time></trkpt><trkpt lat="43.8013831" lon="11.4563553"><ele>253.0</ele><time>2026-04-11T12:16:19.582Z</time></trkpt><trkpt lat="43.8014469" lon="11.4562458"><ele>253.0</ele><time>2026-04-11T12:16:22.583Z</time></trkpt><trkpt lat="43.8015184" lon="11.4561974"><ele>255.28571428571433</ele><time>2026-04-11T12:16:24.583Z</time></trkpt><trkpt lat="43.801619" lon="11.4562119"><ele>257.57142857142856</ele><time>2026-04-11T12:16:26.582Z</time></trkpt><trkpt lat="43.8016873" lon="11.4562149"><ele>259.8571428571429</ele><time>2026-04-11T12:16:27.583Z</time></trkpt><trkpt lat="43.8017551" lon="11.456214"><ele>262.14285714285717</ele><time>2026-04-11T12:16:28.582Z</time></trkpt><trkpt lat="43.8018203" lon="11.4562084"><ele>264.42857142857144</ele><time>2026-04-11T12:16:29.583Z</time></trkpt><trkpt lat="43.8018865" lon="11.4561981"><ele>266.7142857142857</ele><time>2026-04-11T12:16:30.583Z</time></trkpt><trkpt lat="43.8019564" lon="11.4561923"><ele>269.0</ele><time>2026-04-11T12:16:31.583Z</time></trkpt><trkpt lat="43.8020306" lon="11.4561919"><ele>270.2857142857143</ele><time>2026-04-11T12:16:32.582Z</time></trkpt><trkpt lat="43.8021002" lon="11.4561886"><ele>271.5714285714286</ele><time>2026-04-11T12:16:33.582Z</time></trkpt><trkpt lat="43.8021662" lon="11.4561783"><ele>272.8571428571429</ele><time>2026-04-11T12:16:34.581Z</time></trkpt><trkpt lat="43.8022372" lon="11.4561688"><ele>274.14285714285717</ele><time>2026-04-11T12:16:35.583Z</time></trkpt><trkpt lat="43.8023065" lon="11.4561554"><ele>275.42857142857144</ele><time>2026-04-11T12:16:36.583Z</time></trkpt><trkpt lat="43.8023843" lon="11.4561392"><ele>276.7142857142857</ele><time>2026-04-11T12:16:37.583Z</time></trkpt><trkpt lat="43.8024583" lon="11.4561256"><ele>278.0</ele><time>2026-04-11T12:16:38.583Z</time></trkpt><trkpt lat="43.8025322" lon="11.4561122"><ele>278.0</ele><time>2026-04-11T12:16:39.583Z</time></trkpt><trkpt lat="43.8025962" lon="11.4561033"><ele>278.0</ele><time>2026-04-11T12:16:40.582Z</time></trkpt><trkpt lat="43.8026707" lon="11.4560914"><ele>278.0</ele><time>2026-04-11T12:16:41.582Z</time></trkpt><trkpt lat="43.8027462" lon="11.4560778"><ele>278.0</ele><time>2026-04-11T12:16:42.583Z</time></trkpt><trkpt lat="43.8028153" lon="11.4560695"><ele>278.0</ele><time>2026-04-11T12:16:43.583Z</time></trkpt><trkpt lat="43.8028817" lon="11.456068"><ele>278.0</ele><time>2026-04-11T12:16:44.583Z</time></trkpt><trkpt lat="43.8029529" lon="11.4560713"><ele>278.0</ele><time>2026-04-11T12:16:45.581Z</time></trkpt><trkpt lat="43.8030165" lon="11.4560718"><ele>279.8</ele><time>2026-04-11T12:16:46.583Z</time></trkpt><trkpt lat="43.8031321" lon="11.4560851"><ele>281.6</ele><time>2026-04-11T12:16:48.583Z</time></trkpt><trkpt lat="43.8032149" lon="11.4560896"><ele>283.4</ele><time>2026-04-11T12:16:50.583Z</time></trkpt><trkpt lat="43.8033189" lon="11.4561669"><ele>285.2</ele><time>2026-04-11T12:16:52.582Z</time></trkpt><trkpt lat="43.8033784" lon="11.4562351"><ele>287.0</ele><time>2026-04-11T12:16:53.583Z</time></trkpt><trkpt lat="43.8034453" lon="11.4563153"><ele>286.8</ele><time>2026-04-11T12:16:54.583Z</time></trkpt><trkpt lat="43.803518" lon="11.4563975"><ele>286.6</ele><time>2026-04-11T12:16:55.583Z</time></trkpt><trkpt lat="43.803598" lon="11.4564908"><ele>286.40000000000003</ele><time>2026-04-11T12:16:56.582Z</time></trkpt><trkpt lat="43.8036946" lon="11.4565988"><ele>286.2</ele><time>2026-04-11T12:16:57.582Z</time></trkpt><trkpt lat="43.8037845" lon="11.4567054"><ele>286.0</ele><time>2026-04-11T12:16:58.583Z</time></trkpt><trkpt lat="43.8038631" lon="11.4567999"><ele>286.0</ele><time>2026-04-11T12:16:59.583Z</time></trkpt><trkpt lat="43.8039331" lon="11.4568842"><ele>286.0</ele><time>2026-04-11T12:17:00.583Z</time></trkpt><trkpt lat="43.8039923" lon="11.4569593"><ele>286.0</ele><time>2026-04-11T12:17:01.582Z</time></trkpt><trkpt lat="43.804047" lon="11.4570213"><ele>286.0</ele><time>2026-04-11T12:17:02.582Z</time></trkpt><trkpt lat="43.8040967" lon="11.4570852"><ele>286.0</ele><time>2026-04-11T12:17:03.583Z</time></trkpt><trkpt lat="43.8041518" lon="11.457162"><ele>286.0</ele><time>2026-04-11T12:17:04.582Z</time></trkpt><trkpt lat="43.8042107" lon="11.4572403"><ele>286.3333333333333</ele><time>2026-04-11T12:17:05.582Z</time></trkpt><trkpt lat="43.8042694" lon="11.4573193"><ele>286.66666666666663</ele><time>2026-04-11T12:17:06.582Z</time></trkpt><trkpt lat="43.8043259" lon="11.4574051"><ele>287.0</ele><time>2026-04-11T12:17:07.581Z</time></trkpt><trkpt lat="43.8043796" lon="11.4575"><ele>287.3333333333333</ele><time>2026-04-11T12:17:08.582Z</time></trkpt><trkpt lat="43.8044335" lon="11.4575985"><ele>287.6666666666667</ele><time>2026-04-11T12:17:09.583Z</time></trkpt><trkpt lat="43.8044876" lon="11.4577032"><ele>288.0</ele><time>2026-04-11T12:17:10.583Z</time></trkpt><trkpt lat="43.804543" lon="11.4578133"><ele>288.0</ele><time>2026-04-11T12:17:11.582Z</time></trkpt><trkpt lat="43.8045974" lon="11.4579147"><ele>288.0</ele><time>2026-04-11T12:17:12.583Z</time></trkpt><trkpt lat="43.8046399" lon="11.4580094"><ele>288.0</ele><time>2026-04-11T12:17:13.583Z</time></trkpt><trkpt lat="43.8046828" lon="11.4581012"><ele>288.0</ele><time>2026-04-11T12:17:14.582Z</time></trkpt><trkpt lat="43.8047258" lon="11.458191"><ele>288.0</ele><time>2026-04-11T12:17:15.583Z</time></trkpt><trkpt lat="43.8047628" lon="11.4582717"><ele>288.0</ele><time>2026-04-11T12:17:16.583Z</time></trkpt><trkpt lat="43.8048075" lon="11.458382"><ele>288.14285714285717</ele><time>2026-04-11T12:17:18.583Z</time></trkpt><trkpt lat="43.8047962" lon="11.4584973"><ele>288.2857142857143</ele><time>2026-04-11T12:17:23.583Z</time></trkpt><trkpt lat="43.8047708" lon="11.4585894"><ele>288.42857142857144</ele><time>2026-04-11T12:17:25.583Z</time></trkpt><trkpt lat="43.8047287" lon="11.4586696"><ele>288.57142857142856</ele><time>2026-04-11T12:17:27.582Z</time></trkpt><trkpt lat="43.8046847" lon="11.4587453"><ele>288.7142857142857</ele><time>2026-04-11T12:17:29.583Z</time></trkpt><trkpt lat="43.8046311" lon="11.458803"><ele>288.8571428571429</ele><time>2026-04-11T12:17:31.583Z</time></trkpt><trkpt lat="43.8045703" lon="11.4588396"><ele>289.0</ele><time>2026-04-11T12:17:33.583Z</time></trkpt><trkpt lat="43.8045004" lon="11.4588568"><ele>289.0</ele><time>2026-04-11T12:17:35.583Z</time></trkpt><trkpt lat="43.8044306" lon="11.4588763"><ele>289.0</ele><time>2026-04-11T12:17:37.582Z</time></trkpt><trkpt lat="43.8043659" lon="11.4588996"><ele>289.0</ele><time>2026-04-11T12:17:39.583Z</time></trkpt><trkpt lat="43.8042954" lon="11.458905"><ele>289.0</ele><time>2026-04-11T12:17:43.582Z</time></trkpt><trkpt lat="43.8042214" lon="11.4589336"><ele>289.0</ele><time>2026-04-11T12:17:45.583Z</time></trkpt><trkpt lat="43.8041476" lon="11.4589451"><ele>289.0</ele><time>2026-04-11T12:17:47.582Z</time></trkpt><trkpt lat="43.8040752" lon="11.4589642"><ele>289.0</ele><time>2026-04-11T12:17:50.583Z</time></trkpt><trkpt lat="43.8040708" lon="11.459104"><ele>285.0</ele><time>2026-04-11T12:17:53.582Z</time></trkpt><trkpt lat="43.8040884" lon="11.4592528"><ele>281.0</ele><time>2026-04-11T12:17:55.582Z</time></trkpt><trkpt lat="43.8041078" lon="11.459417"><ele>277.0</ele><time>2026-04-11T12:17:57.583Z</time></trkpt><trkpt lat="43.8041143" lon="11.459514"><ele>273.0</ele><time>2026-04-11T12:17:58.583Z</time></trkpt><trkpt lat="43.8041227" lon="11.4596168"><ele>269.0</ele><time>2026-04-11T12:17:59.583Z</time></trkpt><trkpt lat="43.8041315" lon="11.4597273"><ele>269.0</ele><time>2026-04-11T12:18:00.583Z</time></trkpt><trkpt lat="43.804144" lon="11.459844"><ele>269.0</ele><time>2026-04-11T12:18:01.582Z</time></trkpt><trkpt lat="43.8041548" lon="11.4599581"><ele>269.0</ele><time>2026-04-11T12:18:02.583Z</time></trkpt><trkpt lat="43.8041631" lon="11.4600531"><ele>269.0</ele><time>2026-04-11T12:18:03.583Z</time></trkpt><trkpt lat="43.8041858" lon="11.4601983"><ele>269.0</ele><time>2026-04-11T12:18:05.582Z</time></trkpt><trkpt lat="43.8042316" lon="11.4602815"><ele>269.0</ele><time>2026-04-11T12:18:08.583Z</time></trkpt><trkpt lat="43.8042947" lon="11.4603364"><ele>271.0</ele><time>2026-04-11T12:18:10.583Z</time></trkpt><trkpt lat="43.8044234" lon="11.4604088"><ele>273.0</ele><time>2026-04-11T12:18:12.583Z</time></trkpt><trkpt lat="43.8045446" lon="11.4605057"><ele>275.0</ele><time>2026-04-11T12:18:14.583Z</time></trkpt><trkpt lat="43.8046213" lon="11.4605466"><ele>277.0</ele><time>2026-04-11T12:18:15.582Z</time></trkpt><trkpt lat="43.8047068" lon="11.4606059"><ele>277.0</ele><time>2026-04-11T12:18:16.583Z</time></trkpt><trkpt lat="43.8047925" lon="11.4606556"><ele>277.0</ele><time>2026-04-11T12:18:17.583Z</time></trkpt><trkpt lat="43.8048654" lon="11.4607039"><ele>277.0</ele><time>2026-04-11T12:18:18.583Z</time></trkpt><trkpt lat="43.8049385" lon="11.4607555"><ele>277.0</ele><time>2026-04-11T12:18:19.582Z</time></trkpt><trkpt lat="43.8050057" lon="11.4607967"><ele>277.0</ele><time>2026-04-11T12:18:20.582Z</time></trkpt><trkpt lat="43.8050647" lon="11.4608529"><ele>277.0</ele><time>2026-04-11T12:18:21.582Z</time></trkpt><trkpt lat="43.8051389" lon="11.4609187"><ele>278.0</ele><time>2026-04-11T12:18:22.583Z</time></trkpt><trkpt lat="43.805215" lon="11.4609944"><ele>279.0</ele><time>2026-04-11T12:18:23.583Z</time></trkpt><trkpt lat="43.8052851" lon="11.4610595"><ele>280.0</ele><time>2026-04-11T12:18:24.582Z</time></trkpt><trkpt lat="43.8053568" lon="11.4611299"><ele>281.0</ele><time>2026-04-11T12:18:25.582Z</time></trkpt><trkpt lat="43.8054322" lon="11.4611995"><ele>282.0</ele><time>2026-04-11T12:18:26.583Z</time></trkpt><trkpt lat="43.8055024" lon="11.4612621"><ele>283.0</ele><time>2026-04-11T12:18:27.583Z</time></trkpt><trkpt lat="43.8055516" lon="11.4613259"><ele>280.0</ele><time>2026-04-11T12:18:28.583Z</time></trkpt><trkpt lat="43.8056569" lon="11.4614036"><ele>277.0</ele><time>2026-04-11T12:18:30.583Z</time></trkpt><trkpt lat="43.805753" lon="11.4614784"><ele>274.0</ele><time>2026-04-11T12:18:32.582Z</time></trkpt><trkpt lat="43.8058574" lon="11.4614988"><ele>271.0</ele><time>2026-04-11T12:18:34.582Z</time></trkpt><trkpt lat="43.8059356" lon="11.4613886"><ele>268.0</ele><time>2026-04-11T12:18:36.582Z</time></trkpt><trkpt lat="43.8060055" lon="11.4612764"><ele>268.0</ele><time>2026-04-11T12:18:38.583Z</time></trkpt><trkpt lat="43.8060768" lon="11.4611697"><ele>268.0</ele><time>2026-04-11T12:18:40.583Z</time></trkpt><trkpt lat="43.8060972" lon="11.4610605"><ele>268.0</ele><time>2026-04-11T12:18:42.583Z</time></trkpt><trkpt lat="43.8061487" lon="11.4609968"><ele>268.0</ele><time>2026-04-11T12:18:44.583Z</time></trkpt><trkpt lat="43.8062095" lon="11.46097"><ele>268.0</ele><time>2026-04-11T12:18:46.583Z</time></trkpt><trkpt lat="43.8062758" lon="11.4609846"><ele>268.0</ele><time>2026-04-11T12:18:48.583Z</time></trkpt><trkpt lat="43.8062263" lon="11.4610826"><ele>268.0</ele><time>2026-04-11T12:19:11.581Z</time></trkpt><trkpt lat="43.8061901" lon="11.4611959"><ele>268.0</ele><time>2026-04-11T12:19:13.581Z</time></trkpt><trkpt lat="43.8061549" lon="11.461296"><ele>268.0</ele><time>2026-04-11T12:19:14.583Z</time></trkpt><trkpt lat="43.8061407" lon="11.4613924"><ele>268.0</ele><time>2026-04-11T12:19:15.583Z</time></trkpt><trkpt lat="43.8061178" lon="11.4614876"><ele>268.0</ele><time>2026-04-11T12:19:16.582Z</time></trkpt><trkpt lat="43.8060933" lon="11.4615728"><ele>268.0</ele><time>2026-04-11T12:19:17.583Z</time></trkpt><trkpt lat="43.8060645" lon="11.4617074"><ele>264.0</ele><time>2026-04-11T12:19:19.583Z</time></trkpt><trkpt lat="43.806121" lon="11.4617892"><ele>260.0</ele><time>2026-04-11T12:19:22.583Z</time></trkpt><trkpt lat="43.8061689" lon="11.461723"><ele>256.0</ele><time>2026-04-11T12:19:24.583Z</time></trkpt><trkpt lat="43.8062271" lon="11.4616474"><ele>252.0</ele><time>2026-04-11T12:19:26.583Z</time></trkpt><trkpt lat="43.8062978" lon="11.4615663"><ele>248.0</ele><time>2026-04-11T12:19:28.582Z</time></trkpt><trkpt lat="43.806437" lon="11.4615359"><ele>248.0</ele><time>2026-04-11T12:19:30.582Z</time></trkpt><trkpt lat="43.8065648" lon="11.461447"><ele>248.0</ele><time>2026-04-11T12:19:32.583Z</time></trkpt><trkpt lat="43.806627" lon="11.4614096"><ele>248.0</ele><time>2026-04-11T12:19:33.582Z</time></trkpt><trkpt lat="43.8066801" lon="11.4613604"><ele>248.0</ele><time>2026-04-11T12:19:34.583Z</time></trkpt><trkpt lat="43.806782" lon="11.4612439"><ele>248.0</ele><time>2026-04-11T12:19:36.583Z</time></trkpt><trkpt lat="43.806831" lon="11.4611814"><ele>246.8</ele><time>2026-04-11T12:19:37.583Z</time></trkpt><trkpt lat="43.8069104" lon="11.461086"><ele>245.60000000000002</ele><time>2026-04-11T12:19:39.582Z</time></trkpt><trkpt lat="43.8069854" lon="11.4610585"><ele>244.39999999999998</ele><time>2026-04-11T12:19:41.583Z</time></trkpt><trkpt lat="43.8070583" lon="11.4611597"><ele>243.2</ele><time>2026-04-11T12:19:43.583Z</time></trkpt><trkpt lat="43.8071117" lon="11.4612769"><ele>242.0</ele><time>2026-04-11T12:19:45.583Z</time></trkpt><trkpt lat="43.8071597" lon="11.4614148"><ele>242.00000000000003</ele><time>2026-04-11T12:19:47.582Z</time></trkpt><trkpt lat="43.8072406" lon="11.4615266"><ele>242.0</ele><time>2026-04-11T12:19:49.583Z</time></trkpt><trkpt lat="43.8072817" lon="11.4616048"><ele>242.0</ele><time>2026-04-11T12:19:50.583Z</time></trkpt><trkpt lat="43.8073583" lon="11.4615783"><ele>242.0</ele><time>2026-04-11T12:19:51.583Z</time></trkpt><trkpt lat="43.8074029" lon="11.4617175"><ele>242.00000000000003</ele><time>2026-04-11T12:19:53.582Z</time></trkpt><trkpt lat="43.8074114" lon="11.4618191"><ele>242.0</ele><time>2026-04-11T12:19:55.583Z</time></trkpt><trkpt lat="43.8074008" lon="11.4619156"><ele>242.0</ele><time>2026-04-11T12:19:57.583Z</time></trkpt><trkpt lat="43.8074117" lon="11.4620433"><ele>242.0</ele><time>2026-04-11T12:19:59.582Z</time></trkpt><trkpt lat="43.8074441" lon="11.4622055"><ele>242.0</ele><time>2026-04-11T12:20:01.583Z</time></trkpt><trkpt lat="43.807478" lon="11.4623769"><ele>242.0</ele><time>2026-04-11T12:20:03.582Z</time></trkpt><trkpt lat="43.807495" lon="11.4624675"><ele>242.0</ele><time>2026-04-11T12:20:04.583Z</time></trkpt><trkpt lat="43.8075194" lon="11.4625655"><ele>240.50000000000003</ele><time>2026-04-11T12:20:05.582Z</time></trkpt><trkpt lat="43.8075346" lon="11.4626547"><ele>239.0</ele><time>2026-04-11T12:20:06.583Z</time></trkpt><trkpt lat="43.8075491" lon="11.4627474"><ele>237.5</ele><time>2026-04-11T12:20:07.583Z</time></trkpt><trkpt lat="43.8075821" lon="11.4629129"><ele>236.0</ele><time>2026-04-11T12:20:09.583Z</time></trkpt><trkpt lat="43.8075898" lon="11.4630101"><ele>234.50000000000003</ele><time>2026-04-11T12:20:10.583Z</time></trkpt><trkpt lat="43.8075971" lon="11.4631036"><ele>233.0</ele><time>2026-04-11T12:20:11.582Z</time></trkpt><trkpt lat="43.8075918" lon="11.4632569"><ele>232.16666666666669</ele><time>2026-04-11T12:20:13.583Z</time></trkpt><trkpt lat="43.8075607" lon="11.4633829"><ele>231.33333333333334</ele><time>2026-04-11T12:20:15.583Z</time></trkpt><trkpt lat="43.8075551" lon="11.4635484"><ele>230.5</ele><time>2026-04-11T12:20:17.581Z</time></trkpt><trkpt lat="43.8075498" lon="11.4636433"><ele>229.66666666666669</ele><time>2026-04-11T12:20:18.583Z</time></trkpt><trkpt lat="43.8075488" lon="11.4637321"><ele>228.83333333333334</ele><time>2026-04-11T12:20:19.583Z</time></trkpt><trkpt lat="43.8075491" lon="11.4638395"><ele>228.0</ele><time>2026-04-11T12:20:20.582Z</time></trkpt><trkpt lat="43.8075496" lon="11.4639499"><ele>226.83333333333334</ele><time>2026-04-11T12:20:21.583Z</time></trkpt><trkpt lat="43.8075531" lon="11.4640581"><ele>225.66666666666669</ele><time>2026-04-11T12:20:22.583Z</time></trkpt><trkpt lat="43.8075578" lon="11.4641677"><ele>224.5</ele><time>2026-04-11T12:20:23.583Z</time></trkpt><trkpt lat="43.807568" lon="11.4642747"><ele>223.33333333333334</ele><time>2026-04-11T12:20:24.583Z</time></trkpt><trkpt lat="43.8075784" lon="11.464387"><ele>222.16666666666669</ele><time>2026-04-11T12:20:25.583Z</time></trkpt><trkpt lat="43.8075846" lon="11.4645113"><ele>221.0</ele><time>2026-04-11T12:20:26.583Z</time></trkpt><trkpt lat="43.807589" lon="11.4646404"><ele>220.66666666666669</ele><time>2026-04-11T12:20:27.583Z</time></trkpt><trkpt lat="43.8075907" lon="11.4647576"><ele>220.33333333333334</ele><time>2026-04-11T12:20:28.583Z</time></trkpt><trkpt lat="43.807595" lon="11.4648654"><ele>220.0</ele><time>2026-04-11T12:20:29.583Z</time></trkpt><trkpt lat="43.8076053" lon="11.4649749"><ele>219.66666666666669</ele><time>2026-04-11T12:20:30.583Z</time></trkpt><trkpt lat="43.8076139" lon="11.4650654"><ele>219.33333333333334</ele><time>2026-04-11T12:20:31.583Z</time></trkpt><trkpt lat="43.807635" lon="11.4652361"><ele>219.0</ele><time>2026-04-11T12:20:33.583Z</time></trkpt><trkpt lat="43.807646" lon="11.4654062"><ele>218.66666666666666</ele><time>2026-04-11T12:20:35.583Z</time></trkpt><trkpt lat="43.8076388" lon="11.4655662"><ele>218.33333333333331</ele><time>2026-04-11T12:20:37.582Z</time></trkpt><trkpt lat="43.8076469" lon="11.4656913"><ele>218.0</ele><time>2026-04-11T12:20:39.583Z</time></trkpt><trkpt lat="43.8076588" lon="11.465777"><ele>217.66666666666666</ele><time>2026-04-11T12:20:42.583Z</time></trkpt><trkpt lat="43.8077227" lon="11.4657945"><ele>217.33333333333331</ele><time>2026-04-11T12:21:10.583Z</time></trkpt><trkpt lat="43.8078056" lon="11.4657388"><ele>217.0</ele><time>2026-04-11T12:21:13.583Z</time></trkpt><trkpt lat="43.8078711" lon="11.465716"><ele>219.83333333333331</ele><time>2026-04-11T12:21:15.582Z</time></trkpt><trkpt lat="43.8079307" lon="11.465672"><ele>222.66666666666666</ele><time>2026-04-11T12:21:19.583Z</time></trkpt><trkpt lat="43.8079997" lon="11.4657234"><ele>225.5</ele><time>2026-04-11T12:21:23.582Z</time></trkpt><trkpt lat="43.8080792" lon="11.4657833"><ele>228.33333333333331</ele><time>2026-04-11T12:21:26.582Z</time></trkpt><trkpt lat="43.8081514" lon="11.4658331"><ele>231.16666666666666</ele><time>2026-04-11T12:21:28.583Z</time></trkpt><trkpt lat="43.808215" lon="11.4658858"><ele>234.0</ele><time>2026-04-11T12:21:30.582Z</time></trkpt><trkpt lat="43.808283" lon="11.4659703"><ele>234.0</ele><time>2026-04-11T12:21:32.583Z</time></trkpt><trkpt lat="43.8083603" lon="11.466007"><ele>234.0</ele><time>2026-04-11T12:21:34.582Z</time></trkpt><trkpt lat="43.8084301" lon="11.4660759"><ele>234.0</ele><time>2026-04-11T12:21:36.583Z</time></trkpt><trkpt lat="43.8085054" lon="11.4661278"><ele>234.0</ele><time>2026-04-11T12:21:39.583Z</time></trkpt><trkpt lat="43.8085662" lon="11.4661548"><ele>234.0</ele><time>2026-04-11T12:21:42.582Z</time></trkpt><trkpt lat="43.8086513" lon="11.4662024"><ele>234.0</ele><time>2026-04-11T12:21:45.582Z</time></trkpt><trkpt lat="43.8087299" lon="11.4662757"><ele>232.0</ele><time>2026-04-11T12:21:47.583Z</time></trkpt><trkpt lat="43.8088115" lon="11.466343"><ele>230.0</ele><time>2026-04-11T12:21:50.583Z</time></trkpt><trkpt lat="43.8088804" lon="11.4663805"><ele>228.0</ele><time>2026-04-11T12:21:52.583Z</time></trkpt><trkpt lat="43.8089413" lon="11.4664207"><ele>226.0</ele><time>2026-04-11T12:21:54.583Z</time></trkpt><trkpt lat="43.8090012" lon="11.4664985"><ele>224.0</ele><time>2026-04-11T12:21:57.583Z</time></trkpt><trkpt lat="43.8090608" lon="11.4665585"><ele>222.0</ele><time>2026-04-11T12:22:00.583Z</time></trkpt><trkpt lat="43.8091111" lon="11.4666203"><ele>222.0</ele><time>2026-04-11T12:22:03.583Z</time></trkpt><trkpt lat="43.8091524" lon="11.4667247"><ele>222.0</ele><time>2026-04-11T12:22:06.583Z</time></trkpt><trkpt lat="43.8092013" lon="11.4667938"><ele>222.0</ele><time>2026-04-11T12:22:08.583Z</time></trkpt><trkpt lat="43.8092548" lon="11.4669073"><ele>222.0</ele><time>2026-04-11T12:22:11.583Z</time></trkpt><trkpt lat="43.8092899" lon="11.4670142"><ele>222.0</ele><time>2026-04-11T12:22:13.581Z</time></trkpt><trkpt lat="43.8093181" lon="11.4671005"><ele>222.0</ele><time>2026-04-11T12:22:15.583Z</time></trkpt><trkpt lat="43.8093436" lon="11.4671943"><ele>222.57142857142856</ele><time>2026-04-11T12:22:17.582Z</time></trkpt><trkpt lat="43.8093676" lon="11.4672796"><ele>223.14285714285717</ele><time>2026-04-11T12:22:20.582Z</time></trkpt><trkpt lat="43.8093927" lon="11.4673662"><ele>223.71428571428572</ele><time>2026-04-11T12:22:22.583Z</time></trkpt><trkpt lat="43.8094376" lon="11.4674563"><ele>224.28571428571428</ele><time>2026-04-11T12:22:24.583Z</time></trkpt><trkpt lat="43.8094834" lon="11.4675333"><ele>224.85714285714283</ele><time>2026-04-11T12:22:26.582Z</time></trkpt><trkpt lat="43.8095397" lon="11.4675949"><ele>225.42857142857144</ele><time>2026-04-11T12:22:28.583Z</time></trkpt><trkpt lat="43.809587" lon="11.4676548"><ele>226.0</ele><time>2026-04-11T12:22:30.583Z</time></trkpt><trkpt lat="43.8096155" lon="11.4677327"><ele>225.99999999999997</ele><time>2026-04-11T12:22:32.583Z</time></trkpt><trkpt lat="43.809652" lon="11.4678494"><ele>226.0</ele><time>2026-04-11T12:22:35.583Z</time></trkpt><trkpt lat="43.8096953" lon="11.4679452"><ele>226.0</ele><time>2026-04-11T12:22:38.583Z</time></trkpt><trkpt lat="43.8097576" lon="11.468057"><ele>226.0</ele><time>2026-04-11T12:22:41.583Z</time></trkpt><trkpt lat="43.8098103" lon="11.4681233"><ele>225.99999999999997</ele><time>2026-04-11T12:22:44.583Z</time></trkpt><trkpt lat="43.8098818" lon="11.4681347"><ele>226.0</ele><time>2026-04-11T12:28:33.581Z</time></trkpt><trkpt lat="43.8099564" lon="11.4681211"><ele>221.83333333333331</ele><time>2026-04-11T12:28:36.582Z</time></trkpt><trkpt lat="43.8100475" lon="11.4681358"><ele>217.66666666666666</ele><time>2026-04-11T12:28:38.582Z</time></trkpt><trkpt lat="43.8101459" lon="11.4681762"><ele>213.5</ele><time>2026-04-11T12:28:40.582Z</time></trkpt><trkpt lat="43.8101951" lon="11.4682402"><ele>209.33333333333331</ele><time>2026-04-11T12:28:44.582Z</time></trkpt><trkpt lat="43.8102753" lon="11.4682609"><ele>205.16666666666666</ele><time>2026-04-11T12:28:50.581Z</time></trkpt><trkpt lat="43.8103412" lon="11.4683131"><ele>201.0</ele><time>2026-04-11T12:28:54.581Z</time></trkpt><trkpt lat="43.8104064" lon="11.4683556"><ele>201.0</ele><time>2026-04-11T12:28:59.581Z</time></trkpt><trkpt lat="43.8104672" lon="11.4683797"><ele>201.0</ele><time>2026-04-11T12:29:03.582Z</time></trkpt><trkpt lat="43.810528" lon="11.4684198"><ele>201.0</ele><time>2026-04-11T12:29:42.58Z</time></trkpt><trkpt lat="43.8105729" lon="11.4684825"><ele>201.0</ele><time>2026-04-11T12:29:46.581Z</time></trkpt><trkpt lat="43.8106293" lon="11.4685626"><ele>201.0</ele><time>2026-04-11T12:29:50.581Z</time></trkpt><trkpt lat="43.8106714" lon="11.4686468"><ele>201.0</ele><time>2026-04-11T12:29:54.582Z</time></trkpt><trkpt lat="43.8107094" lon="11.4687275"><ele>201.0</ele><time>2026-04-11T12:29:57.582Z</time></trkpt><trkpt lat="43.8107632" lon="11.4687833"><ele>199.33333333333334</ele><time>2026-04-11T12:30:00.582Z</time></trkpt><trkpt lat="43.8108362" lon="11.4688371"><ele>197.66666666666666</ele><time>2026-04-11T12:30:48.582Z</time></trkpt><trkpt lat="43.8109005" lon="11.4688356"><ele>196.0</ele><time>2026-04-11T12:30:50.582Z</time></trkpt><trkpt lat="43.8109813" lon="11.4688671"><ele>194.33333333333331</ele><time>2026-04-11T12:30:53.582Z</time></trkpt><trkpt lat="43.8110615" lon="11.4688837"><ele>192.66666666666666</ele><time>2026-04-11T12:30:57.581Z</time></trkpt><trkpt lat="43.8111256" lon="11.4688911"><ele>191.0</ele><time>2026-04-11T12:31:00.582Z</time></trkpt><trkpt lat="43.8117384" lon="11.4689817"><ele>191.60000000000002</ele><time>2026-04-11T12:31:02.582Z</time></trkpt><trkpt lat="43.8118405" lon="11.4690223"><ele>192.2</ele><time>2026-04-11T12:31:05.582Z</time></trkpt><trkpt lat="43.8119338" lon="11.4689964"><ele>192.8</ele><time>2026-04-11T12:31:07.582Z</time></trkpt><trkpt lat="43.8120207" lon="11.4689781"><ele>193.39999999999998</ele><time>2026-04-11T12:31:09.582Z</time></trkpt><trkpt lat="43.8120969" lon="11.4690054"><ele>194.0</ele><time>2026-04-11T12:31:11.582Z</time></trkpt><trkpt lat="43.8121958" lon="11.4690335"><ele>194.0</ele><time>2026-04-11T12:31:13.582Z</time></trkpt><trkpt lat="43.8122678" lon="11.4690388"><ele>194.0</ele><time>2026-04-11T12:31:15.582Z</time></trkpt><trkpt lat="43.8123465" lon="11.4690405"><ele>194.0</ele><time>2026-04-11T12:31:18.582Z</time></trkpt><trkpt lat="43.8123904" lon="11.4689438"><ele>194.0</ele><time>2026-04-11T12:31:21.581Z</time></trkpt><trkpt lat="43.8124224" lon="11.4688637"><ele>194.0</ele><time>2026-04-11T12:31:25.582Z</time></trkpt><trkpt lat="43.8124823" lon="11.4688336"><ele>194.0</ele><time>2026-04-11T12:32:05.581Z</time></trkpt><trkpt lat="43.8125496" lon="11.4687647"><ele>194.0</ele><time>2026-04-11T12:32:08.582Z</time></trkpt><trkpt lat="43.8125829" lon="11.4686536"><ele>194.79999999999998</ele><time>2026-04-11T12:32:11.58Z</time></trkpt><trkpt lat="43.8126479" lon="11.4685977"><ele>195.6</ele><time>2026-04-11T12:32:13.582Z</time></trkpt><trkpt lat="43.812724" lon="11.4684863"><ele>196.4</ele><time>2026-04-11T12:32:15.582Z</time></trkpt><trkpt lat="43.8128116" lon="11.468376"><ele>197.2</ele><time>2026-04-11T12:32:17.582Z</time></trkpt><trkpt lat="43.8129116" lon="11.4682869"><ele>198.0</ele><time>2026-04-11T12:32:19.582Z</time></trkpt><trkpt lat="43.8130304" lon="11.4682453"><ele>198.0</ele><time>2026-04-11T12:32:21.582Z</time></trkpt><trkpt lat="43.8131044" lon="11.4682269"><ele>198.0</ele><time>2026-04-11T12:32:22.581Z</time></trkpt><trkpt lat="43.8131671" lon="11.4682147"><ele>198.0</ele><time>2026-04-11T12:32:23.582Z</time></trkpt><trkpt lat="43.8132951" lon="11.4681925"><ele>198.0</ele><time>2026-04-11T12:32:25.581Z</time></trkpt><trkpt lat="43.8133574" lon="11.4681798"><ele>198.0</ele><time>2026-04-11T12:32:26.582Z</time></trkpt><trkpt lat="43.813425" lon="11.4681712"><ele>198.0</ele><time>2026-04-11T12:32:27.581Z</time></trkpt><trkpt lat="43.8135032" lon="11.4681619"><ele>197.5</ele><time>2026-04-11T12:32:28.582Z</time></trkpt><trkpt lat="43.813583" lon="11.4681489"><ele>197.0</ele><time>2026-04-11T12:32:29.582Z</time></trkpt><trkpt lat="43.8136656" lon="11.4681331"><ele>196.5</ele><time>2026-04-11T12:32:30.582Z</time></trkpt><trkpt lat="43.8137527" lon="11.4681182"><ele>196.0</ele><time>2026-04-11T12:32:31.582Z</time></trkpt><trkpt lat="43.8138475" lon="11.4681056"><ele>195.5</ele><time>2026-04-11T12:32:32.582Z</time></trkpt><trkpt lat="43.8139274" lon="11.4680918"><ele>195.0</ele><time>2026-04-11T12:32:33.581Z</time></trkpt><trkpt lat="43.8139934" lon="11.4680847"><ele>195.0</ele><time>2026-04-11T12:32:34.582Z</time></trkpt><trkpt lat="43.8140603" lon="11.4680755"><ele>195.0</ele><time>2026-04-11T12:32:35.582Z</time></trkpt><trkpt lat="43.8141673" lon="11.4680493"><ele>195.0</ele><time>2026-04-11T12:32:37.582Z</time></trkpt><trkpt lat="43.8142712" lon="11.4680345"><ele>195.0</ele><time>2026-04-11T12:32:39.582Z</time></trkpt><trkpt lat="43.8143684" lon="11.4680145"><ele>195.0</ele><time>2026-04-11T12:32:41.582Z</time></trkpt><trkpt lat="43.8144376" lon="11.46801"><ele>195.0</ele><time>2026-04-11T12:32:43.581Z</time></trkpt><trkpt lat="43.8145046" lon="11.4680126"><ele>192.83333333333334</ele><time>2026-04-11T12:32:47.582Z</time></trkpt><trkpt lat="43.8145372" lon="11.468098"><ele>190.66666666666666</ele><time>2026-04-11T12:32:53.582Z</time></trkpt><trkpt lat="43.8145392" lon="11.4682073"><ele>188.5</ele><time>2026-04-11T12:32:56.581Z</time></trkpt><trkpt lat="43.8145504" lon="11.4683351"><ele>186.33333333333331</ele><time>2026-04-11T12:32:59.581Z</time></trkpt><trkpt lat="43.8145337" lon="11.468422"><ele>184.16666666666666</ele><time>2026-04-11T12:33:01.581Z</time></trkpt><trkpt lat="43.8145128" lon="11.4685055"><ele>182.0</ele><time>2026-04-11T12:33:03.58Z</time></trkpt><trkpt lat="43.8145088" lon="11.4686227"><ele>182.0</ele><time>2026-04-11T12:33:06.581Z</time></trkpt><trkpt lat="43.8145917" lon="11.4686182"><ele>182.0</ele><time>2026-04-11T12:33:10.58Z</time></trkpt><trkpt lat="43.8146783" lon="11.4686048"><ele>182.0</ele><time>2026-04-11T12:33:13.581Z</time></trkpt><trkpt lat="43.8147619" lon="11.4685872"><ele>182.0</ele><time>2026-04-11T12:33:16.58Z</time></trkpt><trkpt lat="43.8148269" lon="11.4685763"><ele>182.0</ele><time>2026-04-11T12:33:18.581Z</time></trkpt><trkpt lat="43.8148901" lon="11.4685642"><ele>182.0</ele><time>2026-04-11T12:33:20.581Z</time></trkpt><trkpt lat="43.8149692" lon="11.4685597"><ele>182.0</ele><time>2026-04-11T12:33:24.581Z</time></trkpt><trkpt lat="43.8150294" lon="11.4685264"><ele>182.0</ele><time>2026-04-11T12:33:27.581Z</time></trkpt><trkpt lat="43.8150729" lon="11.4684312"><ele>182.0</ele><time>2026-04-11T12:33:29.58Z</time></trkpt><trkpt lat="43.8151239" lon="11.4683217"><ele>182.0</ele><time>2026-04-11T12:33:31.581Z</time></trkpt><trkpt lat="43.8151887" lon="11.4681934"><ele>182.0</ele><time>2026-04-11T12:33:33.581Z</time></trkpt><trkpt lat="43.8152549" lon="11.4680702"><ele>179.6</ele><time>2026-04-11T12:33:35.581Z</time></trkpt><trkpt lat="43.8153258" lon="11.4679616"><ele>177.2</ele><time>2026-04-11T12:33:37.58Z</time></trkpt><trkpt lat="43.8153992" lon="11.4678829"><ele>174.8</ele><time>2026-04-11T12:33:39.581Z</time></trkpt><trkpt lat="43.8154772" lon="11.467792"><ele>172.4</ele><time>2026-04-11T12:33:41.581Z</time></trkpt><trkpt lat="43.8155469" lon="11.4676938"><ele>170.0</ele><time>2026-04-11T12:33:43.581Z</time></trkpt><trkpt lat="43.8156033" lon="11.4676153"><ele>170.0</ele><time>2026-04-11T12:33:45.58Z</time></trkpt><trkpt lat="43.8156603" lon="11.4675395"><ele>170.0</ele><time>2026-04-11T12:33:52.581Z</time></trkpt><trkpt lat="43.8157039" lon="11.4674723"><ele>170.0</ele><time>2026-04-11T12:33:54.581Z</time></trkpt><trkpt lat="43.8157572" lon="11.4673961"><ele>170.0</ele><time>2026-04-11T12:33:56.581Z</time></trkpt><trkpt lat="43.8158073" lon="11.467318"><ele>170.0</ele><time>2026-04-11T12:33:58.581Z</time></trkpt><trkpt lat="43.8158701" lon="11.4672581"><ele>170.0</ele><time>2026-04-11T12:34:01.581Z</time></trkpt><trkpt lat="43.815956" lon="11.4672928"><ele>169.5</ele><time>2026-04-11T12:34:05.581Z</time></trkpt><trkpt lat="43.8160179" lon="11.4673594"><ele>169.0</ele><time>2026-04-11T12:34:07.581Z</time></trkpt><trkpt lat="43.8160981" lon="11.4674394"><ele>168.5</ele><time>2026-04-11T12:34:09.58Z</time></trkpt><trkpt lat="43.816168" lon="11.4675065"><ele>168.0</ele><time>2026-04-11T12:34:11.581Z</time></trkpt><trkpt lat="43.8162309" lon="11.4675566"><ele>167.5</ele><time>2026-04-11T12:34:13.58Z</time></trkpt><trkpt lat="43.8162921" lon="11.4676089"><ele>167.0</ele><time>2026-04-11T12:34:15.581Z</time></trkpt><trkpt lat="43.8163479" lon="11.4676611"><ele>167.0</ele><time>2026-04-11T12:34:17.579Z</time></trkpt><trkpt lat="43.8164065" lon="11.4677187"><ele>167.0</ele><time>2026-04-11T12:34:19.58Z</time></trkpt><trkpt lat="43.8164791" lon="11.4677843"><ele>167.0</ele><time>2026-04-11T12:34:22.581Z</time></trkpt><trkpt lat="43.8164866" lon="11.467892"><ele>167.0</ele><time>2026-04-11T12:34:28.581Z</time></trkpt><trkpt lat="43.8164352" lon="11.4680028"><ele>167.0</ele><time>2026-04-11T12:34:31.58Z</time></trkpt><trkpt lat="43.8163802" lon="11.4680715"><ele>167.0</ele><time>2026-04-11T12:34:33.58Z</time></trkpt><trkpt lat="43.8163768" lon="11.4681614"><ele>166.33333333333331</ele><time>2026-04-11T12:34:35.581Z</time></trkpt><trkpt lat="43.8164243" lon="11.4682526"><ele>165.66666666666666</ele><time>2026-04-11T12:34:38.581Z</time></trkpt><trkpt lat="43.8164997" lon="11.4682652"><ele>165.0</ele><time>2026-04-11T12:34:42.581Z</time></trkpt><trkpt lat="43.8165726" lon="11.4682164"><ele>164.33333333333334</ele><time>2026-04-11T12:34:45.581Z</time></trkpt><trkpt lat="43.8166398" lon="11.4682673"><ele>163.66666666666669</ele><time>2026-04-11T12:35:20.581Z</time></trkpt><trkpt lat="43.8166918" lon="11.4683445"><ele>163.0</ele><time>2026-04-11T12:35:22.58Z</time></trkpt><trkpt lat="43.816785" lon="11.4684362"><ele>164.16666666666669</ele><time>2026-04-11T12:35:24.581Z</time></trkpt><trkpt lat="43.8168819" lon="11.4684834"><ele>165.33333333333334</ele><time>2026-04-11T12:35:26.581Z</time></trkpt><trkpt lat="43.8169386" lon="11.4685524"><ele>166.5</ele><time>2026-04-11T12:35:28.58Z</time></trkpt><trkpt lat="43.8169858" lon="11.4686693"><ele>167.66666666666666</ele><time>2026-04-11T12:35:31.58Z</time></trkpt><trkpt lat="43.8170061" lon="11.468805"><ele>168.83333333333331</ele><time>2026-04-11T12:35:33.581Z</time></trkpt><trkpt lat="43.8170227" lon="11.4689058"><ele>170.0</ele><time>2026-04-11T12:35:34.58Z</time></trkpt><trkpt lat="43.8170381" lon="11.4690166"><ele>170.0</ele><time>2026-04-11T12:35:35.581Z</time></trkpt><trkpt lat="43.8170595" lon="11.4691386"><ele>170.0</ele><time>2026-04-11T12:35:36.58Z</time></trkpt><trkpt lat="43.8170776" lon="11.4692675"><ele>170.0</ele><time>2026-04-11T12:35:37.58Z</time></trkpt><trkpt lat="43.8170954" lon="11.4693954"><ele>170.0</ele><time>2026-04-11T12:35:38.581Z</time></trkpt><trkpt lat="43.8171169" lon="11.4695166"><ele>170.0</ele><time>2026-04-11T12:35:39.58Z</time></trkpt><trkpt lat="43.8171349" lon="11.4696196"><ele>170.0</ele><time>2026-04-11T12:35:40.581Z</time></trkpt><trkpt lat="43.8171529" lon="11.4697142"><ele>169.8</ele><time>2026-04-11T12:35:41.58Z</time></trkpt><trkpt lat="43.8171631" lon="11.4698071"><ele>169.6</ele><time>2026-04-11T12:35:42.581Z</time></trkpt><trkpt lat="43.8171808" lon="11.4699887"><ele>169.39999999999998</ele><time>2026-04-11T12:35:44.581Z</time></trkpt><trkpt lat="43.8171983" lon="11.4701033"><ele>169.2</ele><time>2026-04-11T12:35:45.58Z</time></trkpt><trkpt lat="43.8172199" lon="11.4702354"><ele>169.0</ele><time>2026-04-11T12:35:46.581Z</time></trkpt><trkpt lat="43.8172409" lon="11.4703644"><ele>168.5</ele><time>2026-04-11T12:35:47.581Z</time></trkpt><trkpt lat="43.8172613" lon="11.4704786"><ele>168.0</ele><time>2026-04-11T12:35:48.581Z</time></trkpt><trkpt lat="43.817283" lon="11.4705983"><ele>167.5</ele><time>2026-04-11T12:35:49.581Z</time></trkpt><trkpt lat="43.8173038" lon="11.4707141"><ele>167.0</ele><time>2026-04-11T12:35:50.581Z</time></trkpt><trkpt lat="43.8173244" lon="11.4708373"><ele>166.5</ele><time>2026-04-11T12:35:51.58Z</time></trkpt><trkpt lat="43.8173423" lon="11.4709503"><ele>166.0</ele><time>2026-04-11T12:35:52.581Z</time></trkpt><trkpt lat="43.8173657" lon="11.471073"><ele>166.0</ele><time>2026-04-11T12:35:53.581Z</time></trkpt><trkpt lat="43.8173904" lon="11.471193"><ele>166.0</ele><time>2026-04-11T12:35:54.581Z</time></trkpt><trkpt lat="43.8174153" lon="11.4713012"><ele>166.0</ele><time>2026-04-11T12:35:55.581Z</time></trkpt><trkpt lat="43.8174412" lon="11.4714021"><ele>166.0</ele><time>2026-04-11T12:35:56.581Z</time></trkpt><trkpt lat="43.8174651" lon="11.4714911"><ele>166.0</ele><time>2026-04-11T12:35:57.581Z</time></trkpt><trkpt lat="43.8174943" lon="11.4715983"><ele>166.0</ele><time>2026-04-11T12:35:58.58Z</time></trkpt><trkpt lat="43.8175198" lon="11.4716908"><ele>165.33333333333334</ele><time>2026-04-11T12:35:59.581Z</time></trkpt><trkpt lat="43.8175385" lon="11.4717753"><ele>164.66666666666669</ele><time>2026-04-11T12:36:00.579Z</time></trkpt><trkpt lat="43.8175393" lon="11.471871"><ele>164.0</ele><time>2026-04-11T12:36:01.581Z</time></trkpt><trkpt lat="43.8175246" lon="11.4719829"><ele>163.33333333333334</ele><time>2026-04-11T12:36:02.581Z</time></trkpt><trkpt lat="43.8174985" lon="11.4720967"><ele>162.66666666666666</ele><time>2026-04-11T12:36:03.579Z</time></trkpt><trkpt lat="43.8174714" lon="11.4722065"><ele>162.0</ele><time>2026-04-11T12:36:04.58Z</time></trkpt><trkpt lat="43.8174428" lon="11.4723268"><ele>161.16666666666666</ele><time>2026-04-11T12:36:05.579Z</time></trkpt><trkpt lat="43.8174166" lon="11.4724435"><ele>160.33333333333334</ele><time>2026-04-11T12:36:06.581Z</time></trkpt><trkpt lat="43.8173897" lon="11.4725651"><ele>159.5</ele><time>2026-04-11T12:36:07.581Z</time></trkpt><trkpt lat="43.8173654" lon="11.4726725"><ele>158.66666666666669</ele><time>2026-04-11T12:36:08.581Z</time></trkpt><trkpt lat="43.8173391" lon="11.4727746"><ele>157.83333333333334</ele><time>2026-04-11T12:36:09.58Z</time></trkpt><trkpt lat="43.8173069" lon="11.4728864"><ele>157.0</ele><time>2026-04-11T12:36:10.581Z</time></trkpt><trkpt lat="43.8172738" lon="11.4729862"><ele>156.6</ele><time>2026-04-11T12:36:11.58Z</time></trkpt><trkpt lat="43.8172402" lon="11.4730753"><ele>156.2</ele><time>2026-04-11T12:36:12.581Z</time></trkpt><trkpt lat="43.8172097" lon="11.4731541"><ele>155.8</ele><time>2026-04-11T12:36:13.58Z</time></trkpt><trkpt lat="43.8171317" lon="11.4732985"><ele>155.4</ele><time>2026-04-11T12:36:15.581Z</time></trkpt><trkpt lat="43.8170513" lon="11.4734095"><ele>155.0</ele><time>2026-04-11T12:36:17.58Z</time></trkpt><trkpt lat="43.8170067" lon="11.4735244"><ele>155.0</ele><time>2026-04-11T12:36:19.581Z</time></trkpt><trkpt lat="43.8170425" lon="11.4736275"><ele>155.0</ele><time>2026-04-11T12:36:22.581Z</time></trkpt><trkpt lat="43.817118" lon="11.473703"><ele>155.0</ele><time>2026-04-11T12:36:25.58Z</time></trkpt><trkpt lat="43.8171909" lon="11.4736867"><ele>155.0</ele><time>2026-04-11T12:36:29.58Z</time></trkpt><trkpt lat="43.8172504" lon="11.4736401"><ele>155.0</ele><time>2026-04-11T12:36:32.58Z</time></trkpt><trkpt lat="43.8172989" lon="11.4735783"><ele>155.0</ele><time>2026-04-11T12:36:35.581Z</time></trkpt><trkpt lat="43.8174054" lon="11.4735125"><ele>155.0</ele><time>2026-04-11T12:36:44.58Z</time></trkpt><trkpt lat="43.8174693" lon="11.4734511"><ele>155.0</ele><time>2026-04-11T12:36:45.58Z</time></trkpt><trkpt lat="43.8175461" lon="11.4733754"><ele>155.0</ele><time>2026-04-11T12:36:46.58Z</time></trkpt><trkpt lat="43.8176266" lon="11.4732844"><ele>155.0</ele><time>2026-04-11T12:36:47.581Z</time></trkpt><trkpt lat="43.817709" lon="11.4731807"><ele>155.0</ele><time>2026-04-11T12:36:48.581Z</time></trkpt><trkpt lat="43.8177783" lon="11.4730817"><ele>154.83333333333331</ele><time>2026-04-11T12:36:49.579Z</time></trkpt><trkpt lat="43.8178398" lon="11.4729871"><ele>154.66666666666666</ele><time>2026-04-11T12:36:50.581Z</time></trkpt><trkpt lat="43.8178938" lon="11.4729151"><ele>154.5</ele><time>2026-04-11T12:36:51.581Z</time></trkpt><trkpt lat="43.8179679" lon="11.4728176"><ele>154.33333333333334</ele><time>2026-04-11T12:36:53.581Z</time></trkpt><trkpt lat="43.8180492" lon="11.4727879"><ele>154.16666666666669</ele><time>2026-04-11T12:37:04.58Z</time></trkpt><trkpt lat="43.8179739" lon="11.4728281"><ele>154.0</ele><time>2026-04-11T12:37:13.581Z</time></trkpt><trkpt lat="43.8179236" lon="11.4728887"><ele>154.0</ele><time>2026-04-11T12:37:14.581Z</time></trkpt><trkpt lat="43.8178664" lon="11.4729696"><ele>154.0</ele><time>2026-04-11T12:37:15.581Z</time></trkpt><trkpt lat="43.8178061" lon="11.4730566"><ele>154.0</ele><time>2026-04-11T12:37:16.58Z</time></trkpt><trkpt lat="43.8177458" lon="11.4731448"><ele>154.0</ele><time>2026-04-11T12:37:17.581Z</time></trkpt><trkpt lat="43.8176818" lon="11.473228"><ele>154.0</ele><time>2026-04-11T12:37:18.581Z</time></trkpt><trkpt lat="43.8176208" lon="11.473301"><ele>154.0</ele><time>2026-04-11T12:37:19.581Z</time></trkpt><trkpt lat="43.817562" lon="11.4733614"><ele>154.16666666666669</ele><time>2026-04-11T12:37:20.581Z</time></trkpt><trkpt lat="43.8175095" lon="11.4734103"><ele>154.33333333333334</ele><time>2026-04-11T12:37:21.58Z</time></trkpt><trkpt lat="43.8174524" lon="11.4734655"><ele>154.5</ele><time>2026-04-11T12:37:22.58Z</time></trkpt><trkpt lat="43.8173549" lon="11.4735504"><ele>154.66666666666666</ele><time>2026-04-11T12:37:24.58Z</time></trkpt><trkpt lat="43.8172512" lon="11.4736166"><ele>154.83333333333331</ele><time>2026-04-11T12:37:26.58Z</time></trkpt><trkpt lat="43.8171797" lon="11.4736765"><ele>155.0</ele><time>2026-04-11T12:37:28.579Z</time></trkpt><trkpt lat="43.8171651" lon="11.4737706"><ele>153.8</ele><time>2026-04-11T12:37:31.581Z</time></trkpt><trkpt lat="43.8171961" lon="11.473867"><ele>152.6</ele><time>2026-04-11T12:37:33.581Z</time></trkpt><trkpt lat="43.81723" lon="11.4739971"><ele>151.4</ele><time>2026-04-11T12:37:35.581Z</time></trkpt><trkpt lat="43.8172693" lon="11.4741512"><ele>150.2</ele><time>2026-04-11T12:37:37.581Z</time></trkpt><trkpt lat="43.8173037" lon="11.474299"><ele>149.0</ele><time>2026-04-11T12:37:39.58Z</time></trkpt><trkpt lat="43.8173388" lon="11.4744345"><ele>149.0</ele><time>2026-04-11T12:37:41.579Z</time></trkpt><trkpt lat="43.8173701" lon="11.4745821"><ele>149.0</ele><time>2026-04-11T12:37:43.58Z</time></trkpt><trkpt lat="43.8174046" lon="11.4747343"><ele>149.0</ele><time>2026-04-11T12:37:45.581Z</time></trkpt><trkpt lat="43.8174402" lon="11.4748842"><ele>149.0</ele><time>2026-04-11T12:37:47.58Z</time></trkpt><trkpt lat="43.8174616" lon="11.4749757"><ele>149.0</ele><time>2026-04-11T12:37:48.581Z</time></trkpt><trkpt lat="43.8174874" lon="11.4750773"><ele>148.14285714285714</ele><time>2026-04-11T12:37:49.581Z</time></trkpt><trkpt lat="43.8175147" lon="11.4751789"><ele>147.28571428571428</ele><time>2026-04-11T12:37:50.58Z</time></trkpt><trkpt lat="43.8175369" lon="11.4752787"><ele>146.42857142857142</ele><time>2026-04-11T12:37:51.581Z</time></trkpt><trkpt lat="43.8175598" lon="11.4753721"><ele>145.57142857142856</ele><time>2026-04-11T12:37:52.58Z</time></trkpt><trkpt lat="43.8175851" lon="11.4754592"><ele>144.71428571428572</ele><time>2026-04-11T12:37:53.581Z</time></trkpt><trkpt lat="43.8176101" lon="11.4755413"><ele>143.85714285714283</ele><time>2026-04-11T12:37:54.581Z</time></trkpt><trkpt lat="43.8176378" lon="11.4756323"><ele>143.0</ele><time>2026-04-11T12:37:55.581Z</time></trkpt><trkpt lat="43.8176613" lon="11.4757222"><ele>142.0</ele><time>2026-04-11T12:37:56.58Z</time></trkpt><trkpt lat="43.8176829" lon="11.4758106"><ele>141.0</ele><time>2026-04-11T12:37:57.581Z</time></trkpt><trkpt lat="43.8177002" lon="11.475898"><ele>140.0</ele><time>2026-04-11T12:37:58.58Z</time></trkpt><trkpt lat="43.817714" lon="11.4760467"><ele>139.0</ele><time>2026-04-11T12:38:00.579Z</time></trkpt><trkpt lat="43.817734" lon="11.4761378"><ele>138.0</ele><time>2026-04-11T12:38:02.581Z</time></trkpt><trkpt lat="43.8177924" lon="11.4762062"><ele>137.0</ele><time>2026-04-11T12:38:05.581Z</time></trkpt><trkpt lat="43.8178624" lon="11.4762476"><ele>135.79999999999998</ele><time>2026-04-11T12:38:09.581Z</time></trkpt><trkpt lat="43.8179184" lon="11.4763151"><ele>134.6</ele><time>2026-04-11T12:38:12.58Z</time></trkpt><trkpt lat="43.8179951" lon="11.4763753"><ele>133.39999999999998</ele><time>2026-04-11T12:38:15.581Z</time></trkpt><trkpt lat="43.818074" lon="11.4764278"><ele>132.2</ele><time>2026-04-11T12:38:17.581Z</time></trkpt><trkpt lat="43.8181759" lon="11.4764594"><ele>131.0</ele><time>2026-04-11T12:38:19.581Z</time></trkpt><trkpt lat="43.8183066" lon="11.4764645"><ele>131.0</ele><time>2026-04-11T12:38:21.581Z</time></trkpt><trkpt lat="43.8183909" lon="11.4764535"><ele>131.0</ele><time>2026-04-11T12:38:22.581Z</time></trkpt><trkpt lat="43.8184855" lon="11.4764381"><ele>131.0</ele><time>2026-04-11T12:38:23.581Z</time></trkpt><trkpt lat="43.8185926" lon="11.4764213"><ele>131.0</ele><time>2026-04-11T12:38:24.581Z</time></trkpt><trkpt lat="43.8186981" lon="11.4764252"><ele>131.0</ele><time>2026-04-11T12:38:25.58Z</time></trkpt><trkpt lat="43.8187941" lon="11.4764655"><ele>131.4</ele><time>2026-04-11T12:38:26.58Z</time></trkpt><trkpt lat="43.8188872" lon="11.4765266"><ele>131.8</ele><time>2026-04-11T12:38:27.58Z</time></trkpt><trkpt lat="43.8189806" lon="11.4765916"><ele>132.20000000000002</ele><time>2026-04-11T12:38:28.581Z</time></trkpt><trkpt lat="43.8190601" lon="11.4766454"><ele>132.6</ele><time>2026-04-11T12:38:29.58Z</time></trkpt><trkpt lat="43.8191362" lon="11.47668"><ele>133.0</ele><time>2026-04-11T12:38:30.58Z</time></trkpt><trkpt lat="43.8192194" lon="11.4766973"><ele>133.0</ele><time>2026-04-11T12:38:31.58Z</time></trkpt><trkpt lat="43.8193003" lon="11.4766791"><ele>133.0</ele><time>2026-04-11T12:38:32.581Z</time></trkpt><trkpt lat="43.8193853" lon="11.4766429"><ele>133.0</ele><time>2026-04-11T12:38:33.581Z</time></trkpt><trkpt lat="43.819463" lon="11.4766"><ele>133.0</ele><time>2026-04-11T12:38:34.581Z</time></trkpt><trkpt lat="43.8195455" lon="11.4765553"><ele>133.0</ele><time>2026-04-11T12:38:35.581Z</time></trkpt><trkpt lat="43.8196309" lon="11.4764994"><ele>133.0</ele><time>2026-04-11T12:38:36.58Z</time></trkpt><trkpt lat="43.8197056" lon="11.4764476"><ele>132.20000000000002</ele><time>2026-04-11T12:38:37.581Z</time></trkpt><trkpt lat="43.8197822" lon="11.4763966"><ele>131.4</ele><time>2026-04-11T12:38:38.58Z</time></trkpt><trkpt lat="43.8198684" lon="11.4763364"><ele>130.60000000000002</ele><time>2026-04-11T12:38:39.581Z</time></trkpt><trkpt lat="43.8199573" lon="11.4762883"><ele>129.8</ele><time>2026-04-11T12:38:40.581Z</time></trkpt><trkpt lat="43.8200476" lon="11.4762515"><ele>129.0</ele><time>2026-04-11T12:38:41.581Z</time></trkpt><trkpt lat="43.8201435" lon="11.4762269"><ele>130.0</ele><time>2026-04-11T12:38:42.58Z</time></trkpt><trkpt lat="43.8202427" lon="11.4762149"><ele>131.0</ele><time>2026-04-11T12:38:43.581Z</time></trkpt><trkpt lat="43.8203432" lon="11.4762218"><ele>132.0</ele><time>2026-04-11T12:38:44.58Z</time></trkpt><trkpt lat="43.8204437" lon="11.4762343"><ele>133.0</ele><time>2026-04-11T12:38:45.581Z</time></trkpt><trkpt lat="43.820542" lon="11.4762503"><ele>134.0</ele><time>2026-04-11T12:38:46.581Z</time></trkpt><trkpt lat="43.8206388" lon="11.4762722"><ele>134.0</ele><time>2026-04-11T12:38:47.581Z</time></trkpt><trkpt lat="43.8207326" lon="11.4762996"><ele>134.0</ele><time>2026-04-11T12:38:48.581Z</time></trkpt><trkpt lat="43.8208293" lon="11.4763276"><ele>134.0</ele><time>2026-04-11T12:38:49.58Z</time></trkpt><trkpt lat="43.8209219" lon="11.4763501"><ele>134.0</ele><time>2026-04-11T12:38:50.581Z</time></trkpt><trkpt lat="43.8210098" lon="11.4763724"><ele>134.0</ele><time>2026-04-11T12:38:51.581Z</time></trkpt><trkpt lat="43.8210932" lon="11.4764098"><ele>134.0</ele><time>2026-04-11T12:38:52.58Z</time></trkpt><trkpt lat="43.8211856" lon="11.476439"><ele>134.0</ele><time>2026-04-11T12:38:53.58Z</time></trkpt><trkpt lat="43.8212862" lon="11.4764696"><ele>134.0</ele><time>2026-04-11T12:38:54.581Z</time></trkpt><trkpt lat="43.821394" lon="11.4765038"><ele>134.0</ele><time>2026-04-11T12:38:55.581Z</time></trkpt><trkpt lat="43.8215027" lon="11.4765349"><ele>134.0</ele><time>2026-04-11T12:38:56.58Z</time></trkpt><trkpt lat="43.8216107" lon="11.4765629"><ele>134.0</ele><time>2026-04-11T12:38:57.581Z</time></trkpt><trkpt lat="43.8217204" lon="11.47659"><ele>134.0</ele><time>2026-04-11T12:38:58.581Z</time></trkpt><trkpt lat="43.8218282" lon="11.476624"><ele>134.0</ele><time>2026-04-11T12:38:59.581Z</time></trkpt><trkpt lat="43.8219491" lon="11.4766655"><ele>134.0</ele><time>2026-04-11T12:39:00.581Z</time></trkpt><trkpt lat="43.8220863" lon="11.4767108"><ele>134.0</ele><time>2026-04-11T12:39:01.581Z</time></trkpt><trkpt lat="43.8222294" lon="11.4767573"><ele>134.0</ele><time>2026-04-11T12:39:02.581Z</time></trkpt><trkpt lat="43.822374" lon="11.4767862"><ele>134.0</ele><time>2026-04-11T12:39:03.581Z</time></trkpt><trkpt lat="43.8225304" lon="11.4768013"><ele>134.66666666666666</ele><time>2026-04-11T12:39:04.581Z</time></trkpt><trkpt lat="43.8227042" lon="11.4768161"><ele>135.33333333333334</ele><time>2026-04-11T12:39:05.58Z</time></trkpt><trkpt lat="43.822856" lon="11.4768313"><ele>136.0</ele><time>2026-04-11T12:39:06.581Z</time></trkpt><trkpt lat="43.823002" lon="11.4768466"><ele>136.0</ele><time>2026-04-11T12:39:07.581Z</time></trkpt><trkpt lat="43.8231366" lon="11.476865"><ele>136.0</ele><time>2026-04-11T12:39:08.581Z</time></trkpt><trkpt lat="43.8232595" lon="11.4768897"><ele>136.0</ele><time>2026-04-11T12:39:09.581Z</time></trkpt><trkpt lat="43.8233737" lon="11.476918"><ele>136.0</ele><time>2026-04-11T12:39:10.58Z</time></trkpt><trkpt lat="43.8234744" lon="11.4770084"><ele>134.0</ele><time>2026-04-11T12:39:11.581Z</time></trkpt><trkpt lat="43.8235939" lon="11.4771093"><ele>132.0</ele><time>2026-04-11T12:39:12.58Z</time></trkpt><trkpt lat="43.8237393" lon="11.4772034"><ele>130.0</ele><time>2026-04-11T12:39:13.581Z</time></trkpt><trkpt lat="43.8239141" lon="11.4772925"><ele>130.0</ele><time>2026-04-11T12:39:14.581Z</time></trkpt><trkpt lat="43.8240718" lon="11.4773725"><ele>130.0</ele><time>2026-04-11T12:39:15.581Z</time></trkpt><trkpt lat="43.8242245" lon="11.4774396"><ele>130.0</ele><time>2026-04-11T12:39:16.581Z</time></trkpt><trkpt lat="43.8243938" lon="11.477514"><ele>130.66666666666669</ele><time>2026-04-11T12:39:17.581Z</time></trkpt><trkpt lat="43.824583" lon="11.4776042"><ele>131.33333333333334</ele><time>2026-04-11T12:39:18.581Z</time></trkpt><trkpt lat="43.8247517" lon="11.4776804"><ele>132.0</ele><time>2026-04-11T12:39:19.58Z</time></trkpt><trkpt lat="43.8249147" lon="11.4777501"><ele>132.0</ele><time>2026-04-11T12:39:20.581Z</time></trkpt><trkpt lat="43.8250673" lon="11.4778146"><ele>132.0</ele><time>2026-04-11T12:39:21.581Z</time></trkpt><trkpt lat="43.8252085" lon="11.4778743"><ele>132.0</ele><time>2026-04-11T12:39:22.581Z</time></trkpt><trkpt lat="43.8253364" lon="11.4779334"><ele>132.0</ele><time>2026-04-11T12:39:23.581Z</time></trkpt><trkpt lat="43.8254505" lon="11.4779872"><ele>129.5</ele><time>2026-04-11T12:39:24.581Z</time></trkpt><trkpt lat="43.8255681" lon="11.478046"><ele>127.0</ele><time>2026-04-11T12:39:25.58Z</time></trkpt><trkpt lat="43.82568" lon="11.4781079"><ele>124.5</ele><time>2026-04-11T12:39:26.58Z</time></trkpt><trkpt lat="43.8257868" lon="11.4781736"><ele>122.0</ele><time>2026-04-11T12:39:27.581Z</time></trkpt><trkpt lat="43.825891" lon="11.4782476"><ele>120.19999999999999</ele><time>2026-04-11T12:39:28.581Z</time></trkpt><trkpt lat="43.8259873" lon="11.4783252"><ele>118.39999999999999</ele><time>2026-04-11T12:39:29.581Z</time></trkpt><trkpt lat="43.8260787" lon="11.4783862"><ele>116.60000000000001</ele><time>2026-04-11T12:39:30.581Z</time></trkpt><trkpt lat="43.8261768" lon="11.4784247"><ele>114.80000000000001</ele><time>2026-04-11T12:39:31.581Z</time></trkpt><trkpt lat="43.8262916" lon="11.4784452"><ele>113.0</ele><time>2026-04-11T12:39:32.581Z</time></trkpt><trkpt lat="43.8264197" lon="11.4784352"><ele>113.0</ele><time>2026-04-11T12:39:33.581Z</time></trkpt><trkpt lat="43.8265617" lon="11.4784297"><ele>113.0</ele><time>2026-04-11T12:39:34.581Z</time></trkpt><trkpt lat="43.8267021" lon="11.478425"><ele>113.0</ele><time>2026-04-11T12:39:35.58Z</time></trkpt><trkpt lat="43.826829" lon="11.4784212"><ele>113.0</ele><time>2026-04-11T12:39:36.58Z</time></trkpt><trkpt lat="43.8269367" lon="11.4784454"><ele>112.5</ele><time>2026-04-11T12:39:37.58Z</time></trkpt><trkpt lat="43.8270366" lon="11.4784984"><ele>112.0</ele><time>2026-04-11T12:39:38.581Z</time></trkpt><trkpt lat="43.8271466" lon="11.478572"><ele>111.5</ele><time>2026-04-11T12:39:39.581Z</time></trkpt><trkpt lat="43.8272683" lon="11.4786628"><ele>111.0</ele><time>2026-04-11T12:39:40.581Z</time></trkpt><trkpt lat="43.8273988" lon="11.4787637"><ele>111.0</ele><time>2026-04-11T12:39:41.579Z</time></trkpt><trkpt lat="43.8275285" lon="11.4788723"><ele>111.0</ele><time>2026-04-11T12:39:42.581Z</time></trkpt><trkpt lat="43.8276473" lon="11.4789672"><ele>111.0</ele><time>2026-04-11T12:39:43.581Z</time></trkpt><trkpt lat="43.8277569" lon="11.4790533"><ele>111.0</ele><time>2026-04-11T12:39:44.581Z</time></trkpt><trkpt lat="43.827856" lon="11.4791371"><ele>110.75</ele><time>2026-04-11T12:39:45.581Z</time></trkpt><trkpt lat="43.8279575" lon="11.4792418"><ele>110.5</ele><time>2026-04-11T12:39:46.581Z</time></trkpt><trkpt lat="43.8280548" lon="11.4793628"><ele>110.25</ele><time>2026-04-11T12:39:47.579Z</time></trkpt><trkpt lat="43.8281484" lon="11.4795041"><ele>110.0</ele><time>2026-04-11T12:39:48.581Z</time></trkpt><trkpt lat="43.8282404" lon="11.4796723"><ele>110.0</ele><time>2026-04-11T12:39:49.58Z</time></trkpt><trkpt lat="43.8283358" lon="11.4798524"><ele>110.0</ele><time>2026-04-11T12:39:50.581Z</time></trkpt><trkpt lat="43.8284351" lon="11.4800514"><ele>110.0</ele><time>2026-04-11T12:39:51.581Z</time></trkpt><trkpt lat="43.8285361" lon="11.4802508"><ele>110.0</ele><time>2026-04-11T12:39:52.581Z</time></trkpt><trkpt lat="43.8286262" lon="11.480432"><ele>110.0</ele><time>2026-04-11T12:39:53.581Z</time></trkpt><trkpt lat="43.8287131" lon="11.480605"><ele>110.0</ele><time>2026-04-11T12:39:54.58Z</time></trkpt><trkpt lat="43.8287997" lon="11.4807812"><ele>110.0</ele><time>2026-04-11T12:39:55.581Z</time></trkpt><trkpt lat="43.8288891" lon="11.4809574"><ele>110.0</ele><time>2026-04-11T12:39:56.581Z</time></trkpt><trkpt lat="43.8289731" lon="11.481126"><ele>110.0</ele><time>2026-04-11T12:39:57.581Z</time></trkpt><trkpt lat="43.8290579" lon="11.481286"><ele>110.0</ele><time>2026-04-11T12:39:58.581Z</time></trkpt><trkpt lat="43.8291464" lon="11.4814363"><ele>110.0</ele><time>2026-04-11T12:39:59.58Z</time></trkpt><trkpt lat="43.829234" lon="11.4815643"><ele>110.0</ele><time>2026-04-11T12:40:00.581Z</time></trkpt><trkpt lat="43.8293226" lon="11.4816719"><ele>110.0</ele><time>2026-04-11T12:40:01.581Z</time></trkpt><trkpt lat="43.8294145" lon="11.4817441"><ele>110.0</ele><time>2026-04-11T12:40:02.581Z</time></trkpt><trkpt lat="43.8295047" lon="11.4817713"><ele>110.0</ele><time>2026-04-11T12:40:03.58Z</time></trkpt><trkpt lat="43.8295853" lon="11.4817644"><ele>110.4</ele><time>2026-04-11T12:40:04.58Z</time></trkpt><trkpt lat="43.8296547" lon="11.4817512"><ele>110.8</ele><time>2026-04-11T12:40:05.581Z</time></trkpt><trkpt lat="43.8297638" lon="11.4818028"><ele>111.19999999999999</ele><time>2026-04-11T12:40:07.581Z</time></trkpt><trkpt lat="43.8298196" lon="11.4819147"><ele>111.6</ele><time>2026-04-11T12:40:09.58Z</time></trkpt><trkpt lat="43.8298606" lon="11.4820606"><ele>112.0</ele><time>2026-04-11T12:40:11.581Z</time></trkpt><trkpt lat="43.8299101" lon="11.4822214"><ele>112.00000000000001</ele><time>2026-04-11T12:40:13.581Z</time></trkpt><trkpt lat="43.8299345" lon="11.4823096"><ele>112.0</ele><time>2026-04-11T12:40:14.581Z</time></trkpt><trkpt lat="43.8299612" lon="11.482403"><ele>112.0</ele><time>2026-04-11T12:40:15.581Z</time></trkpt><trkpt lat="43.8299923" lon="11.4825029"><ele>112.0</ele><time>2026-04-11T12:40:16.58Z</time></trkpt><trkpt lat="43.830027" lon="11.4826116"><ele>112.00000000000001</ele><time>2026-04-11T12:40:17.581Z</time></trkpt><trkpt lat="43.830066" lon="11.4827335"><ele>112.0</ele><time>2026-04-11T12:40:18.581Z</time></trkpt><trkpt lat="43.8301079" lon="11.4828665"><ele>114.75</ele><time>2026-04-11T12:40:19.581Z</time></trkpt><trkpt lat="43.8301499" lon="11.4830081"><ele>117.5</ele><time>2026-04-11T12:40:20.58Z</time></trkpt><trkpt lat="43.8301933" lon="11.483151"><ele>120.25</ele><time>2026-04-11T12:40:21.581Z</time></trkpt><trkpt lat="43.8302403" lon="11.4833046"><ele>123.0</ele><time>2026-04-11T12:40:22.581Z</time></trkpt><trkpt lat="43.8302857" lon="11.4834695"><ele>123.0</ele><time>2026-04-11T12:40:23.581Z</time></trkpt><trkpt lat="43.8303336" lon="11.4836444"><ele>123.0</ele><time>2026-04-11T12:40:24.58Z</time></trkpt><trkpt lat="43.8303822" lon="11.4837969"><ele>123.0</ele><time>2026-04-11T12:40:25.579Z</time></trkpt><trkpt lat="43.8304488" lon="11.4839152"><ele>123.0</ele><time>2026-04-11T12:40:26.581Z</time></trkpt><trkpt lat="43.8305168" lon="11.4840239"><ele>123.80000000000001</ele><time>2026-04-11T12:40:27.581Z</time></trkpt><trkpt lat="43.8305879" lon="11.4841288"><ele>124.60000000000001</ele><time>2026-04-11T12:40:28.58Z</time></trkpt><trkpt lat="43.8306627" lon="11.4842234"><ele>125.39999999999999</ele><time>2026-04-11T12:40:29.581Z</time></trkpt><trkpt lat="43.830726" lon="11.4843107"><ele>126.19999999999999</ele><time>2026-04-11T12:40:30.58Z</time></trkpt><trkpt lat="43.8307739" lon="11.4843991"><ele>127.0</ele><time>2026-04-11T12:40:31.581Z</time></trkpt><trkpt lat="43.8308066" lon="11.4845025"><ele>127.19999999999999</ele><time>2026-04-11T12:40:32.581Z</time></trkpt><trkpt lat="43.8308457" lon="11.48461"><ele>127.39999999999999</ele><time>2026-04-11T12:40:33.58Z</time></trkpt><trkpt lat="43.8308592" lon="11.4847406"><ele>127.60000000000001</ele><time>2026-04-11T12:40:34.581Z</time></trkpt><trkpt lat="43.8308271" lon="11.4848819"><ele>127.80000000000001</ele><time>2026-04-11T12:40:35.58Z</time></trkpt><trkpt lat="43.8308208" lon="11.4850131"><ele>128.0</ele><time>2026-04-11T12:40:36.581Z</time></trkpt><trkpt lat="43.8308057" lon="11.4851437"><ele>127.99999999999999</ele><time>2026-04-11T12:40:37.58Z</time></trkpt><trkpt lat="43.8307865" lon="11.4852669"><ele>128.0</ele><time>2026-04-11T12:40:38.581Z</time></trkpt><trkpt lat="43.8307637" lon="11.4853806"><ele>128.0</ele><time>2026-04-11T12:40:39.581Z</time></trkpt><trkpt lat="43.8307353" lon="11.4855038"><ele>128.0</ele><time>2026-04-11T12:40:40.58Z</time></trkpt><trkpt lat="43.8307073" lon="11.4856204"><ele>127.99999999999999</ele><time>2026-04-11T12:40:41.581Z</time></trkpt><trkpt lat="43.8306782" lon="11.4857377"><ele>128.0</ele><time>2026-04-11T12:40:42.58Z</time></trkpt><trkpt lat="43.830652" lon="11.4858575"><ele>127.83333333333333</ele><time>2026-04-11T12:40:43.581Z</time></trkpt><trkpt lat="43.8306262" lon="11.4859648"><ele>127.66666666666666</ele><time>2026-04-11T12:40:44.581Z</time></trkpt><trkpt lat="43.8306029" lon="11.4860653"><ele>127.5</ele><time>2026-04-11T12:40:45.58Z</time></trkpt><trkpt lat="43.8305866" lon="11.4861603"><ele>127.33333333333334</ele><time>2026-04-11T12:40:46.581Z</time></trkpt><trkpt lat="43.8305806" lon="11.4862532"><ele>127.16666666666667</ele><time>2026-04-11T12:40:47.581Z</time></trkpt><trkpt lat="43.8305991" lon="11.4864173"><ele>127.0</ele><time>2026-04-11T12:40:49.581Z</time></trkpt><trkpt lat="43.8306401" lon="11.486549"><ele>126.6</ele><time>2026-04-11T12:40:51.581Z</time></trkpt><trkpt lat="43.8306268" lon="11.486666"><ele>126.19999999999999</ele><time>2026-04-11T12:40:53.58Z</time></trkpt><trkpt lat="43.83053" lon="11.4867553"><ele>125.8</ele><time>2026-04-11T12:40:55.581Z</time></trkpt><trkpt lat="43.8304521" lon="11.4868093"><ele>125.4</ele><time>2026-04-11T12:40:56.581Z</time></trkpt><trkpt lat="43.8303628" lon="11.4868675"><ele>125.0</ele><time>2026-04-11T12:40:57.581Z</time></trkpt><trkpt lat="43.8302825" lon="11.4869225"><ele>124.99999999999999</ele><time>2026-04-11T12:40:58.58Z</time></trkpt><trkpt lat="43.8302051" lon="11.4869744"><ele>125.0</ele><time>2026-04-11T12:40:59.581Z</time></trkpt><trkpt lat="43.8301295" lon="11.487023"><ele>125.0</ele><time>2026-04-11T12:41:00.581Z</time></trkpt><trkpt lat="43.8300627" lon="11.4870608"><ele>125.0</ele><time>2026-04-11T12:41:01.58Z</time></trkpt><trkpt lat="43.8299952" lon="11.4871086"><ele>124.99999999999999</ele><time>2026-04-11T12:41:02.581Z</time></trkpt><trkpt lat="43.8299276" lon="11.4871527"><ele>125.0</ele><time>2026-04-11T12:41:03.581Z</time></trkpt><trkpt lat="43.8298788" lon="11.4872568"><ele>123.99999999999999</ele><time>2026-04-11T12:41:05.581Z</time></trkpt><trkpt lat="43.8298488" lon="11.4873451"><ele>123.0</ele><time>2026-04-11T12:41:07.581Z</time></trkpt><trkpt lat="43.8298253" lon="11.487431"><ele>122.0</ele><time>2026-04-11T12:41:09.581Z</time></trkpt><trkpt lat="43.8297926" lon="11.4875441"><ele>121.0</ele><time>2026-04-11T12:41:11.581Z</time></trkpt><trkpt lat="43.8297554" lon="11.4876738"><ele>119.99999999999999</ele><time>2026-04-11T12:41:13.58Z</time></trkpt><trkpt lat="43.8296925" lon="11.487793"><ele>119.0</ele><time>2026-04-11T12:41:15.58Z</time></trkpt><trkpt lat="43.8295606" lon="11.487832"><ele>119.0</ele><time>2026-04-11T12:41:17.581Z</time></trkpt><trkpt lat="43.8294925" lon="11.4878546"><ele>119.0</ele><time>2026-04-11T12:41:18.581Z</time></trkpt><trkpt lat="43.8294209" lon="11.4878795"><ele>119.0</ele><time>2026-04-11T12:41:19.581Z</time></trkpt><trkpt lat="43.8293506" lon="11.4879022"><ele>119.0</ele><time>2026-04-11T12:41:20.58Z</time></trkpt><trkpt lat="43.8292788" lon="11.4879157"><ele>119.0</ele><time>2026-04-11T12:41:21.58Z</time></trkpt><trkpt lat="43.829209" lon="11.487918"><ele>119.0</ele><time>2026-04-11T12:41:22.581Z</time></trkpt><trkpt lat="43.8291447" lon="11.4879145"><ele>119.0</ele><time>2026-04-11T12:41:23.581Z</time></trkpt><trkpt lat="43.8290183" lon="11.4879114"><ele>118.28571428571428</ele><time>2026-04-11T12:41:25.58Z</time></trkpt><trkpt lat="43.8289489" lon="11.4879099"><ele>117.57142857142857</ele><time>2026-04-11T12:41:26.581Z</time></trkpt><trkpt lat="43.8288767" lon="11.4879033"><ele>116.85714285714286</ele><time>2026-04-11T12:41:27.581Z</time></trkpt><trkpt lat="43.828809" lon="11.487903"><ele>116.14285714285714</ele><time>2026-04-11T12:41:28.581Z</time></trkpt><trkpt lat="43.8287433" lon="11.4878982"><ele>115.42857142857142</ele><time>2026-04-11T12:41:29.581Z</time></trkpt><trkpt lat="43.8286788" lon="11.4878913"><ele>114.71428571428571</ele><time>2026-04-11T12:41:30.58Z</time></trkpt><trkpt lat="43.8286144" lon="11.4878905"><ele>114.0</ele><time>2026-04-11T12:41:31.58Z</time></trkpt><trkpt lat="43.8285502" lon="11.4878928"><ele>114.0</ele><time>2026-04-11T12:41:32.581Z</time></trkpt><trkpt lat="43.8284812" lon="11.48789"><ele>114.0</ele><time>2026-04-11T12:41:33.581Z</time></trkpt><trkpt lat="43.8284071" lon="11.4878932"><ele>114.0</ele><time>2026-04-11T12:41:34.581Z</time></trkpt><trkpt lat="43.8283448" lon="11.487906"><ele>114.0</ele><time>2026-04-11T12:41:35.58Z</time></trkpt><trkpt lat="43.8282577" lon="11.4879276"><ele>114.0</ele><time>2026-04-11T12:41:37.58Z</time></trkpt><trkpt lat="43.8281889" lon="11.4879857"><ele>114.0</ele><time>2026-04-11T12:41:38.581Z</time></trkpt><trkpt lat="43.8281183" lon="11.4880511"><ele>114.0</ele><time>2026-04-11T12:41:39.581Z</time></trkpt><trkpt lat="43.8280453" lon="11.4881378"><ele>114.0</ele><time>2026-04-11T12:41:41.103Z</time></trkpt><trkpt lat="43.8278837" lon="11.4883596"><ele>114.0</ele><time>2026-04-11T12:41:42.58Z</time></trkpt><trkpt lat="43.8277854" lon="11.4884906"><ele>114.0</ele><time>2026-04-11T12:41:43.58Z</time></trkpt><trkpt lat="43.8276795" lon="11.488619"><ele>114.0</ele><time>2026-04-11T12:41:44.58Z</time></trkpt><trkpt lat="43.8275861" lon="11.4887339"><ele>114.0</ele><time>2026-04-11T12:41:45.578Z</time></trkpt><trkpt lat="43.8274993" lon="11.4888378"><ele>114.0</ele><time>2026-04-11T12:41:46.579Z</time></trkpt><trkpt lat="43.8274247" lon="11.4889315"><ele>114.4</ele><time>2026-04-11T12:41:47.58Z</time></trkpt><trkpt lat="43.8273482" lon="11.4890181"><ele>114.80000000000001</ele><time>2026-04-11T12:41:48.58Z</time></trkpt><trkpt lat="43.8272621" lon="11.4890888"><ele>115.19999999999999</ele><time>2026-04-11T12:41:49.578Z</time></trkpt><trkpt lat="43.8271855" lon="11.4891722"><ele>115.6</ele><time>2026-04-11T12:41:50.58Z</time></trkpt><trkpt lat="43.8271024" lon="11.4892078"><ele>116.0</ele><time>2026-04-11T12:41:52.58Z</time></trkpt><trkpt lat="43.8270902" lon="11.4893067"><ele>116.0</ele><time>2026-04-11T12:42:06.58Z</time></trkpt><trkpt lat="43.8271156" lon="11.4894204"><ele>116.0</ele><time>2026-04-11T12:42:07.579Z</time></trkpt><trkpt lat="43.8271788" lon="11.4895974"><ele>116.0</ele><time>2026-04-11T12:42:09.579Z</time></trkpt><trkpt lat="43.8272124" lon="11.4897076"><ele>116.0</ele><time>2026-04-11T12:42:10.58Z</time></trkpt><trkpt lat="43.8272463" lon="11.489829"><ele>116.0</ele><time>2026-04-11T12:42:11.58Z</time></trkpt><trkpt lat="43.8272754" lon="11.4899305"><ele>116.33333333333333</ele><time>2026-04-11T12:42:12.579Z</time></trkpt><trkpt lat="43.8273073" lon="11.4900248"><ele>116.66666666666666</ele><time>2026-04-11T12:42:13.58Z</time></trkpt><trkpt lat="43.8273281" lon="11.4901296"><ele>117.0</ele><time>2026-04-11T12:42:14.58Z</time></trkpt><trkpt lat="43.8273421" lon="11.4902311"><ele>117.33333333333334</ele><time>2026-04-11T12:42:15.58Z</time></trkpt><trkpt lat="43.8273115" lon="11.4903279"><ele>117.66666666666667</ele><time>2026-04-11T12:42:16.579Z</time></trkpt><trkpt lat="43.8272871" lon="11.4904186"><ele>118.0</ele><time>2026-04-11T12:42:17.58Z</time></trkpt><trkpt lat="43.8272176" lon="11.4905251"><ele>118.2</ele><time>2026-04-11T12:42:19.58Z</time></trkpt><trkpt lat="43.8271509" lon="11.4905311"><ele>118.4</ele><time>2026-04-11T12:42:20.58Z</time></trkpt><trkpt lat="43.8270422" lon="11.4905821"><ele>118.60000000000001</ele><time>2026-04-11T12:42:22.579Z</time></trkpt><trkpt lat="43.8269098" lon="11.490578"><ele>118.80000000000001</ele><time>2026-04-11T12:42:24.58Z</time></trkpt><trkpt lat="43.8268449" lon="11.4905877"><ele>119.0</ele><time>2026-04-11T12:42:25.579Z</time></trkpt><trkpt lat="43.8267234" lon="11.4906112"><ele>118.99999999999999</ele><time>2026-04-11T12:42:27.58Z</time></trkpt><trkpt lat="43.8266115" lon="11.4906442"><ele>119.0</ele><time>2026-04-11T12:42:29.58Z</time></trkpt><trkpt lat="43.8265251" lon="11.4906744"><ele>119.0</ele><time>2026-04-11T12:42:31.578Z</time></trkpt><trkpt lat="43.8264443" lon="11.4907112"><ele>119.0</ele><time>2026-04-11T12:42:34.58Z</time></trkpt><trkpt lat="43.8265248" lon="11.4907254"><ele>118.99999999999999</ele><time>2026-04-11T12:43:00.58Z</time></trkpt><trkpt lat="43.8265917" lon="11.4906821"><ele>119.0</ele><time>2026-04-11T12:43:02.58Z</time></trkpt><trkpt lat="43.8265531" lon="11.4906086"><ele>118.99999999999999</ele><time>2026-04-11T12:43:06.58Z</time></trkpt><trkpt lat="43.8265035" lon="11.4906703"><ele>119.0</ele><time>2026-04-11T12:58:50.579Z</time></trkpt><trkpt lat="43.8264343" lon="11.4907033"><ele>119.0</ele><time>2026-04-11T12:58:53.577Z</time></trkpt><trkpt lat="43.8263203" lon="11.4907297"><ele>119.0</ele><time>2026-04-11T12:58:55.578Z</time></trkpt><trkpt lat="43.8262439" lon="11.4907517"><ele>118.99999999999999</ele><time>2026-04-11T12:58:56.577Z</time></trkpt><trkpt lat="43.8261782" lon="11.490778"><ele>119.0</ele><time>2026-04-11T12:58:57.579Z</time></trkpt><trkpt lat="43.826099" lon="11.4907993"><ele>118.99999999999999</ele><time>2026-04-11T12:58:58.579Z</time></trkpt><trkpt lat="43.8260175" lon="11.4908214"><ele>119.0</ele><time>2026-04-11T12:58:59.579Z</time></trkpt><trkpt lat="43.8259325" lon="11.4908485"><ele>119.0</ele><time>2026-04-11T12:59:00.579Z</time></trkpt><trkpt lat="43.8258579" lon="11.4908746"><ele>119.0</ele><time>2026-04-11T12:59:01.577Z</time></trkpt><trkpt lat="43.8257919" lon="11.4908901"><ele>118.99999999999999</ele><time>2026-04-11T12:59:02.579Z</time></trkpt><trkpt lat="43.8257054" lon="11.4909386"><ele>119.0</ele><time>2026-04-11T12:59:04.578Z</time></trkpt><trkpt lat="43.8256425" lon="11.4909967"><ele>119.4</ele><time>2026-04-11T12:59:06.578Z</time></trkpt><trkpt lat="43.8256092" lon="11.4911954"><ele>119.80000000000001</ele><time>2026-04-11T12:59:08.578Z</time></trkpt><trkpt lat="43.8255672" lon="11.4913122"><ele>120.19999999999999</ele><time>2026-04-11T12:59:09.579Z</time></trkpt><trkpt lat="43.8255108" lon="11.4913981"><ele>120.6</ele><time>2026-04-11T12:59:10.579Z</time></trkpt><trkpt lat="43.8254355" lon="11.4914575"><ele>121.0</ele><time>2026-04-11T12:59:11.579Z</time></trkpt><trkpt lat="43.8253492" lon="11.491483"><ele>121.25</ele><time>2026-04-11T12:59:12.579Z</time></trkpt><trkpt lat="43.8252245" lon="11.4914955"><ele>121.5</ele><time>2026-04-11T12:59:13.579Z</time></trkpt><trkpt lat="43.8250768" lon="11.4915118"><ele>121.75</ele><time>2026-04-11T12:59:14.578Z</time></trkpt><trkpt lat="43.824903" lon="11.4915361"><ele>122.0</ele><time>2026-04-11T12:59:15.579Z</time></trkpt><trkpt lat="43.8247197" lon="11.491548"><ele>122.25</ele><time>2026-04-11T12:59:16.578Z</time></trkpt><trkpt lat="43.8245648" lon="11.4915519"><ele>122.5</ele><time>2026-04-11T12:59:17.579Z</time></trkpt><trkpt lat="43.824426" lon="11.491567"><ele>122.75</ele><time>2026-04-11T12:59:18.579Z</time></trkpt><trkpt lat="43.8242926" lon="11.4916231"><ele>123.0</ele><time>2026-04-11T12:59:19.579Z</time></trkpt><trkpt lat="43.8241392" lon="11.4917056"><ele>123.66666666666666</ele><time>2026-04-11T12:59:20.579Z</time></trkpt><trkpt lat="43.8239674" lon="11.4918043"><ele>124.33333333333333</ele><time>2026-04-11T12:59:21.579Z</time></trkpt><trkpt lat="43.8237959" lon="11.4918913"><ele>125.0</ele><time>2026-04-11T12:59:22.578Z</time></trkpt><trkpt lat="43.8236231" lon="11.4919781"><ele>125.33333333333333</ele><time>2026-04-11T12:59:23.578Z</time></trkpt><trkpt lat="43.823469" lon="11.4920572"><ele>125.66666666666666</ele><time>2026-04-11T12:59:24.578Z</time></trkpt><trkpt lat="43.8233279" lon="11.4921327"><ele>126.0</ele><time>2026-04-11T12:59:25.579Z</time></trkpt><trkpt lat="43.8232013" lon="11.4922072"><ele>126.0</ele><time>2026-04-11T12:59:26.578Z</time></trkpt><trkpt lat="43.8230905" lon="11.4922807"><ele>126.0</ele><time>2026-04-11T12:59:27.579Z</time></trkpt><trkpt lat="43.8229929" lon="11.4923556"><ele>126.0</ele><time>2026-04-11T12:59:28.579Z</time></trkpt><trkpt lat="43.822902" lon="11.4924395"><ele>126.0</ele><time>2026-04-11T12:59:29.579Z</time></trkpt><trkpt lat="43.8228052" lon="11.4925414"><ele>126.0</ele><time>2026-04-11T12:59:30.579Z</time></trkpt><trkpt lat="43.8227204" lon="11.4926497"><ele>126.0</ele><time>2026-04-11T12:59:31.578Z</time></trkpt><trkpt lat="43.8226432" lon="11.4927548"><ele>126.0</ele><time>2026-04-11T12:59:32.579Z</time></trkpt><trkpt lat="43.8225745" lon="11.4928463"><ele>126.0</ele><time>2026-04-11T12:59:33.578Z</time></trkpt><trkpt lat="43.8225189" lon="11.4929264"><ele>126.0</ele><time>2026-04-11T12:59:34.579Z</time></trkpt><trkpt lat="43.8224668" lon="11.4930109"><ele>127.8</ele><time>2026-04-11T12:59:35.579Z</time></trkpt><trkpt lat="43.8224156" lon="11.4931136"><ele>129.6</ele><time>2026-04-11T12:59:36.579Z</time></trkpt><trkpt lat="43.822364" lon="11.4932273"><ele>131.4</ele><time>2026-04-11T12:59:37.578Z</time></trkpt><trkpt lat="43.822313" lon="11.4933448"><ele>133.2</ele><time>2026-04-11T12:59:38.578Z</time></trkpt><trkpt lat="43.8222579" lon="11.4934667"><ele>135.0</ele><time>2026-04-11T12:59:39.579Z</time></trkpt><trkpt lat="43.8222034" lon="11.4936015"><ele>135.0</ele><time>2026-04-11T12:59:40.579Z</time></trkpt><trkpt lat="43.8221477" lon="11.4937438"><ele>135.0</ele><time>2026-04-11T12:59:41.579Z</time></trkpt><trkpt lat="43.8220895" lon="11.4938878"><ele>135.0</ele><time>2026-04-11T12:59:42.578Z</time></trkpt><trkpt lat="43.8220331" lon="11.4940327"><ele>135.0</ele><time>2026-04-11T12:59:43.579Z</time></trkpt><trkpt lat="43.8219784" lon="11.4941761"><ele>135.6</ele><time>2026-04-11T12:59:44.579Z</time></trkpt><trkpt lat="43.8219191" lon="11.4943156"><ele>136.2</ele><time>2026-04-11T12:59:45.579Z</time></trkpt><trkpt lat="43.8218605" lon="11.4944428"><ele>136.8</ele><time>2026-04-11T12:59:46.578Z</time></trkpt><trkpt lat="43.8218106" lon="11.4945573"><ele>137.4</ele><time>2026-04-11T12:59:47.579Z</time></trkpt><trkpt lat="43.8217708" lon="11.4946738"><ele>138.0</ele><time>2026-04-11T12:59:48.579Z</time></trkpt><trkpt lat="43.821742" lon="11.494804"><ele>138.25</ele><time>2026-04-11T12:59:49.579Z</time></trkpt><trkpt lat="43.8217455" lon="11.4949444"><ele>138.5</ele><time>2026-04-11T12:59:50.579Z</time></trkpt><trkpt lat="43.8217695" lon="11.4950903"><ele>138.75</ele><time>2026-04-11T12:59:51.579Z</time></trkpt><trkpt lat="43.8218019" lon="11.4952464"><ele>139.0</ele><time>2026-04-11T12:59:52.579Z</time></trkpt><trkpt lat="43.8218324" lon="11.4954134"><ele>143.0</ele><time>2026-04-11T12:59:53.578Z</time></trkpt><trkpt lat="43.8218672" lon="11.4955861"><ele>147.0</ele><time>2026-04-11T12:59:54.578Z</time></trkpt><trkpt lat="43.8219046" lon="11.4957603"><ele>151.0</ele><time>2026-04-11T12:59:55.579Z</time></trkpt><trkpt lat="43.8219455" lon="11.4959319"><ele>155.0</ele><time>2026-04-11T12:59:56.579Z</time></trkpt><trkpt lat="43.8219888" lon="11.4961003"><ele>160.0</ele><time>2026-04-11T12:59:57.578Z</time></trkpt><trkpt lat="43.8220185" lon="11.4962603"><ele>165.0</ele><time>2026-04-11T12:59:58.579Z</time></trkpt><trkpt lat="43.8220269" lon="11.496422"><ele>170.0</ele><time>2026-04-11T12:59:59.579Z</time></trkpt><trkpt lat="43.822016" lon="11.4965898"><ele>175.0</ele><time>2026-04-11T13:00:00.579Z</time></trkpt><trkpt lat="43.8219843" lon="11.4967331"><ele>175.0</ele><time>2026-04-11T13:00:01.579Z</time></trkpt><trkpt lat="43.8219329" lon="11.4968531"><ele>175.0</ele><time>2026-04-11T13:00:02.578Z</time></trkpt><trkpt lat="43.8218646" lon="11.4969655"><ele>175.0</ele><time>2026-04-11T13:00:03.579Z</time></trkpt><trkpt lat="43.8217878" lon="11.4970754"><ele>175.0</ele><time>2026-04-11T13:00:04.579Z</time></trkpt><trkpt lat="43.8217092" lon="11.4971869"><ele>175.0</ele><time>2026-04-11T13:00:05.579Z</time></trkpt><trkpt lat="43.8216443" lon="11.4972901"><ele>170.4</ele><time>2026-04-11T13:00:06.578Z</time></trkpt><trkpt lat="43.8216012" lon="11.497401"><ele>165.8</ele><time>2026-04-11T13:00:07.579Z</time></trkpt><trkpt lat="43.8215775" lon="11.4975363"><ele>161.2</ele><time>2026-04-11T13:00:08.578Z</time></trkpt><trkpt lat="43.821575" lon="11.4976872"><ele>156.6</ele><time>2026-04-11T13:00:09.579Z</time></trkpt><trkpt lat="43.8215934" lon="11.4978437"><ele>152.0</ele><time>2026-04-11T13:00:10.579Z</time></trkpt><trkpt lat="43.8216348" lon="11.4979989"><ele>152.0</ele><time>2026-04-11T13:00:11.579Z</time></trkpt><trkpt lat="43.8216816" lon="11.4981568"><ele>152.0</ele><time>2026-04-11T13:00:12.579Z</time></trkpt><trkpt lat="43.821726" lon="11.4983175"><ele>152.0</ele><time>2026-04-11T13:00:13.578Z</time></trkpt><trkpt lat="43.8217664" lon="11.4984805"><ele>152.0</ele><time>2026-04-11T13:00:14.579Z</time></trkpt><trkpt lat="43.8218077" lon="11.4986443"><ele>158.25</ele><time>2026-04-11T13:00:15.579Z</time></trkpt><trkpt lat="43.8218482" lon="11.4988037"><ele>164.5</ele><time>2026-04-11T13:00:16.579Z</time></trkpt><trkpt lat="43.8218903" lon="11.498964"><ele>170.75</ele><time>2026-04-11T13:00:17.579Z</time></trkpt><trkpt lat="43.8219338" lon="11.499121"><ele>177.0</ele><time>2026-04-11T13:00:18.578Z</time></trkpt><trkpt lat="43.8219765" lon="11.4992574"><ele>177.0</ele><time>2026-04-11T13:00:19.579Z</time></trkpt><trkpt lat="43.8220315" lon="11.4993675"><ele>177.0</ele><time>2026-04-11T13:00:20.578Z</time></trkpt><trkpt lat="43.8221089" lon="11.4994608"><ele>177.0</ele><time>2026-04-11T13:00:21.579Z</time></trkpt><trkpt lat="43.82221" lon="11.4995401"><ele>177.0</ele><time>2026-04-11T13:00:22.579Z</time></trkpt><trkpt lat="43.8223268" lon="11.4996135"><ele>177.0</ele><time>2026-04-11T13:00:23.578Z</time></trkpt><trkpt lat="43.822449" lon="11.4996908"><ele>179.75</ele><time>2026-04-11T13:00:24.578Z</time></trkpt><trkpt lat="43.8225608" lon="11.4997825"><ele>182.5</ele><time>2026-04-11T13:00:25.579Z</time></trkpt><trkpt lat="43.8226583" lon="11.4998888"><ele>185.25</ele><time>2026-04-11T13:00:26.578Z</time></trkpt><trkpt lat="43.822754" lon="11.4999896"><ele>188.0</ele><time>2026-04-11T13:00:27.578Z</time></trkpt><trkpt lat="43.8228172" lon="11.5001097"><ele>188.0</ele><time>2026-04-11T13:00:28.579Z</time></trkpt><trkpt lat="43.8228846" lon="11.5002443"><ele>188.0</ele><time>2026-04-11T13:00:29.579Z</time></trkpt><trkpt lat="43.8228316" lon="11.5004026"><ele>188.0</ele><time>2026-04-11T13:00:30.578Z</time></trkpt><trkpt lat="43.8228453" lon="11.5005544"><ele>188.0</ele><time>2026-04-11T13:00:31.579Z</time></trkpt><trkpt lat="43.8228604" lon="11.5007021"><ele>184.4</ele><time>2026-04-11T13:00:32.579Z</time></trkpt><trkpt lat="43.8228726" lon="11.5008531"><ele>180.8</ele><time>2026-04-11T13:00:33.579Z</time></trkpt><trkpt lat="43.8228852" lon="11.5010096"><ele>177.2</ele><time>2026-04-11T13:00:34.578Z</time></trkpt><trkpt lat="43.8228912" lon="11.5011684"><ele>173.6</ele><time>2026-04-11T13:00:35.579Z</time></trkpt><trkpt lat="43.8228932" lon="11.5013212"><ele>170.0</ele><time>2026-04-11T13:00:36.577Z</time></trkpt><trkpt lat="43.8229103" lon="11.5014691"><ele>167.75</ele><time>2026-04-11T13:00:37.578Z</time></trkpt><trkpt lat="43.8229383" lon="11.5016109"><ele>165.5</ele><time>2026-04-11T13:00:38.579Z</time></trkpt><trkpt lat="43.822994" lon="11.5017509"><ele>163.25</ele><time>2026-04-11T13:00:39.578Z</time></trkpt><trkpt lat="43.8230554" lon="11.5019"><ele>161.0</ele><time>2026-04-11T13:00:40.578Z</time></trkpt><trkpt lat="43.8231206" lon="11.5020386"><ele>159.75</ele><time>2026-04-11T13:00:41.579Z</time></trkpt><trkpt lat="43.8231962" lon="11.5021535"><ele>158.5</ele><time>2026-04-11T13:00:42.579Z</time></trkpt><trkpt lat="43.8232867" lon="11.5022595"><ele>157.25</ele><time>2026-04-11T13:00:43.579Z</time></trkpt><trkpt lat="43.8233912" lon="11.5023449"><ele>156.0</ele><time>2026-04-11T13:00:44.578Z</time></trkpt><trkpt lat="43.8234979" lon="11.5024246"><ele>159.0</ele><time>2026-04-11T13:00:45.579Z</time></trkpt><trkpt lat="43.8236124" lon="11.502505"><ele>162.0</ele><time>2026-04-11T13:00:46.579Z</time></trkpt><trkpt lat="43.8237292" lon="11.5025883"><ele>165.0</ele><time>2026-04-11T13:00:47.579Z</time></trkpt><trkpt lat="43.8238602" lon="11.5026883"><ele>168.0</ele><time>2026-04-11T13:00:48.579Z</time></trkpt><trkpt lat="43.8239989" lon="11.5027996"><ele>168.0</ele><time>2026-04-11T13:00:49.579Z</time></trkpt><trkpt lat="43.8241322" lon="11.50291"><ele>168.0</ele><time>2026-04-11T13:00:50.579Z</time></trkpt><trkpt lat="43.8242515" lon="11.5030152"><ele>168.0</ele><time>2026-04-11T13:00:51.579Z</time></trkpt><trkpt lat="43.8243687" lon="11.5031113"><ele>168.0</ele><time>2026-04-11T13:00:52.579Z</time></trkpt><trkpt lat="43.8244811" lon="11.5032101"><ele>169.0</ele><time>2026-04-11T13:00:53.578Z</time></trkpt><trkpt lat="43.8245871" lon="11.5033257"><ele>170.0</ele><time>2026-04-11T13:00:54.579Z</time></trkpt><trkpt lat="43.8246828" lon="11.5034545"><ele>171.0</ele><time>2026-04-11T13:00:55.579Z</time></trkpt><trkpt lat="43.8247705" lon="11.5035839"><ele>172.0</ele><time>2026-04-11T13:00:56.578Z</time></trkpt><trkpt lat="43.8248352" lon="11.5037654"><ele>172.0</ele><time>2026-04-11T13:00:57.578Z</time></trkpt><trkpt lat="43.8248934" lon="11.5039485"><ele>172.0</ele><time>2026-04-11T13:00:58.578Z</time></trkpt><trkpt lat="43.8249475" lon="11.5041496"><ele>172.0</ele><time>2026-04-11T13:00:59.578Z</time></trkpt><trkpt lat="43.8250003" lon="11.5043551"><ele>172.0</ele><time>2026-04-11T13:01:00.579Z</time></trkpt><trkpt lat="43.8250498" lon="11.5045582"><ele>172.0</ele><time>2026-04-11T13:01:01.579Z</time></trkpt><trkpt lat="43.825097" lon="11.5047518"><ele>172.0</ele><time>2026-04-11T13:01:02.577Z</time></trkpt><trkpt lat="43.8251394" lon="11.5049411"><ele>172.0</ele><time>2026-04-11T13:01:03.578Z</time></trkpt><trkpt lat="43.825177" lon="11.5051231"><ele>173.39999999999998</ele><time>2026-04-11T13:01:04.579Z</time></trkpt><trkpt lat="43.8252057" lon="11.5052979"><ele>174.79999999999998</ele><time>2026-04-11T13:01:05.578Z</time></trkpt><trkpt lat="43.8252138" lon="11.5054604"><ele>176.2</ele><time>2026-04-11T13:01:06.579Z</time></trkpt><trkpt lat="43.8252085" lon="11.5056011"><ele>177.6</ele><time>2026-04-11T13:01:07.579Z</time></trkpt><trkpt lat="43.8251846" lon="11.5057124"><ele>179.0</ele><time>2026-04-11T13:01:08.578Z</time></trkpt><trkpt lat="43.8251624" lon="11.5057981"><ele>179.0</ele><time>2026-04-11T13:01:09.579Z</time></trkpt><trkpt lat="43.825142" lon="11.5059032"><ele>179.0</ele><time>2026-04-11T13:01:11.579Z</time></trkpt><trkpt lat="43.8251628" lon="11.5059929"><ele>179.0</ele><time>2026-04-11T13:01:14.579Z</time></trkpt><trkpt lat="43.8252244" lon="11.5060576"><ele>179.0</ele><time>2026-04-11T13:01:16.579Z</time></trkpt><trkpt lat="43.8253256" lon="11.5061028"><ele>179.0</ele><time>2026-04-11T13:01:18.579Z</time></trkpt><trkpt lat="43.8254493" lon="11.5061312"><ele>179.0</ele><time>2026-04-11T13:01:20.579Z</time></trkpt><trkpt lat="43.8255646" lon="11.5061562"><ele>179.0</ele><time>2026-04-11T13:01:22.579Z</time></trkpt><trkpt lat="43.8256664" lon="11.5062019"><ele>179.0</ele><time>2026-04-11T13:01:24.579Z</time></trkpt><trkpt lat="43.8257248" lon="11.5062745"><ele>179.0</ele><time>2026-04-11T13:01:26.579Z</time></trkpt><trkpt lat="43.8257583" lon="11.5064135"><ele>179.0</ele><time>2026-04-11T13:01:29.579Z</time></trkpt><trkpt lat="43.8257387" lon="11.5065594"><ele>180.79999999999998</ele><time>2026-04-11T13:01:31.579Z</time></trkpt><trkpt lat="43.8257162" lon="11.5066492"><ele>182.6</ele><time>2026-04-11T13:01:32.579Z</time></trkpt><trkpt lat="43.825681" lon="11.5068247"><ele>184.4</ele><time>2026-04-11T13:01:34.579Z</time></trkpt><trkpt lat="43.8256404" lon="11.5069344"><ele>186.2</ele><time>2026-04-11T13:01:36.578Z</time></trkpt><trkpt lat="43.8256311" lon="11.5070212"><ele>188.0</ele><time>2026-04-11T13:01:40.579Z</time></trkpt><trkpt lat="43.8256611" lon="11.5068781"><ele>188.0</ele><time>2026-04-11T13:01:50.578Z</time></trkpt><trkpt lat="43.8256858" lon="11.5067813"><ele>188.0</ele><time>2026-04-11T13:01:52.579Z</time></trkpt><trkpt lat="43.8257128" lon="11.5066779"><ele>188.0</ele><time>2026-04-11T13:01:54.579Z</time></trkpt><trkpt lat="43.8257443" lon="11.5065385"><ele>188.0</ele><time>2026-04-11T13:01:56.579Z</time></trkpt><trkpt lat="43.825762" lon="11.5064156"><ele>188.0</ele><time>2026-04-11T13:01:58.577Z</time></trkpt><trkpt lat="43.8257454" lon="11.5063259"><ele>188.0</ele><time>2026-04-11T13:02:00.578Z</time></trkpt><trkpt lat="43.8257513" lon="11.5062198"><ele>186.5</ele><time>2026-04-11T13:02:03.579Z</time></trkpt><trkpt lat="43.8257835" lon="11.5061346"><ele>185.0</ele><time>2026-04-11T13:02:05.578Z</time></trkpt><trkpt lat="43.8258173" lon="11.5060562"><ele>183.5</ele><time>2026-04-11T13:02:09.579Z</time></trkpt><trkpt lat="43.8258616" lon="11.5059487"><ele>182.0</ele><time>2026-04-11T13:02:36.579Z</time></trkpt><trkpt lat="43.8259204" lon="11.505807"><ele>180.5</ele><time>2026-04-11T13:02:38.579Z</time></trkpt><trkpt lat="43.8259566" lon="11.5057314"><ele>179.0</ele><time>2026-04-11T13:02:39.577Z</time></trkpt><trkpt lat="43.8260087" lon="11.5056165"><ele>183.0</ele><time>2026-04-11T13:02:41.579Z</time></trkpt><trkpt lat="43.8260574" lon="11.5055007"><ele>187.0</ele><time>2026-04-11T13:02:43.579Z</time></trkpt><trkpt lat="43.8260971" lon="11.5054048"><ele>191.0</ele><time>2026-04-11T13:02:45.578Z</time></trkpt><trkpt lat="43.8261382" lon="11.5053008"><ele>195.0</ele><time>2026-04-11T13:02:47.578Z</time></trkpt><trkpt lat="43.826187" lon="11.5051913"><ele>199.00000000000003</ele><time>2026-04-11T13:02:49.579Z</time></trkpt><trkpt lat="43.8262221" lon="11.5050945"><ele>203.0</ele><time>2026-04-11T13:02:55.579Z</time></trkpt><trkpt lat="43.8262301" lon="11.5049652"><ele>203.00000000000003</ele><time>2026-04-11T13:02:57.579Z</time></trkpt><trkpt lat="43.8262381" lon="11.5048366"><ele>203.0</ele><time>2026-04-11T13:02:59.579Z</time></trkpt><trkpt lat="43.8262588" lon="11.5047461"><ele>203.0</ele><time>2026-04-11T13:03:01.578Z</time></trkpt><trkpt lat="43.8262933" lon="11.5046406"><ele>203.0</ele><time>2026-04-11T13:03:03.579Z</time></trkpt><trkpt lat="43.82634" lon="11.5045383"><ele>203.00000000000003</ele><time>2026-04-11T13:03:05.579Z</time></trkpt><trkpt lat="43.826402" lon="11.5044906"><ele>203.0</ele><time>2026-04-11T13:03:09.578Z</time></trkpt><trkpt lat="43.8264544" lon="11.5045613"><ele>203.00000000000003</ele><time>2026-04-11T13:03:40.579Z</time></trkpt><trkpt lat="43.8265015" lon="11.5046277"><ele>203.0</ele><time>2026-04-11T13:04:17.579Z</time></trkpt><trkpt lat="43.8265954" lon="11.5046669"><ele>203.0</ele><time>2026-04-11T13:04:19.579Z</time></trkpt><trkpt lat="43.8267035" lon="11.5047239"><ele>203.0</ele><time>2026-04-11T13:04:21.579Z</time></trkpt><trkpt lat="43.8267618" lon="11.5047586"><ele>203.00000000000003</ele><time>2026-04-11T13:04:22.578Z</time></trkpt><trkpt lat="43.8268603" lon="11.5048031"><ele>203.0</ele><time>2026-04-11T13:04:24.578Z</time></trkpt><trkpt lat="43.8269391" lon="11.5048042"><ele>208.14285714285714</ele><time>2026-04-11T13:04:26.578Z</time></trkpt><trkpt lat="43.8270018" lon="11.5047849"><ele>213.28571428571428</ele><time>2026-04-11T13:04:28.579Z</time></trkpt><trkpt lat="43.8270745" lon="11.5047396"><ele>218.42857142857144</ele><time>2026-04-11T13:04:31.579Z</time></trkpt><trkpt lat="43.827156" lon="11.5047586"><ele>223.57142857142858</ele><time>2026-04-11T13:04:34.578Z</time></trkpt><trkpt lat="43.827228" lon="11.5047863"><ele>228.71428571428572</ele><time>2026-04-11T13:04:38.579Z</time></trkpt><trkpt lat="43.8272903" lon="11.5048236"><ele>233.8571428571429</ele><time>2026-04-11T13:04:41.579Z</time></trkpt><trkpt lat="43.8273413" lon="11.5048919"><ele>239.00000000000003</ele><time>2026-04-11T13:04:44.578Z</time></trkpt><trkpt lat="43.8273974" lon="11.5049615"><ele>239.00000000000003</ele><time>2026-04-11T13:04:48.578Z</time></trkpt><trkpt lat="43.8274498" lon="11.5050307"><ele>239.0</ele><time>2026-04-11T13:04:52.578Z</time></trkpt><trkpt lat="43.8274609" lon="11.5051171"><ele>239.00000000000003</ele><time>2026-04-11T13:05:15.579Z</time></trkpt><trkpt lat="43.8275067" lon="11.5051991"><ele>239.00000000000003</ele><time>2026-04-11T13:05:18.579Z</time></trkpt><trkpt lat="43.8275626" lon="11.5052519"><ele>239.0</ele><time>2026-04-11T13:05:21.579Z</time></trkpt><trkpt lat="43.8276107" lon="11.5053189"><ele>239.00000000000003</ele><time>2026-04-11T13:06:14.579Z</time></trkpt><trkpt lat="43.8276633" lon="11.5053911"><ele>239.00000000000003</ele><time>2026-04-11T13:06:17.577Z</time></trkpt><trkpt lat="43.8277188" lon="11.5054453"><ele>271.0</ele><time>2026-04-11T13:06:20.579Z</time></trkpt><trkpt lat="43.8277915" lon="11.5055505"><ele>271.0</ele><time>2026-04-11T13:06:23.579Z</time></trkpt></trkseg><trkseg><trkpt lat="43.8282498" lon="11.5060062"><ele>271.0</ele><time>2026-04-11T13:32:29.578Z</time></trkpt><trkpt lat="43.8282799" lon="11.5059257"><ele>271.0</ele><time>2026-04-11T13:32:41.577Z</time></trkpt><trkpt lat="43.8283138" lon="11.505849"><ele>271.0</ele><time>2026-04-11T13:32:48.576Z</time></trkpt></trkseg><trkseg><trkpt lat="43.8278123" lon="11.5055699"><ele>296.9</ele><time>2026-04-11T13:55:02.576Z</time></trkpt></trkseg><trkseg><trkpt lat="43.8278354" lon="11.5056509"><ele>271.0</ele><time>2026-04-11T14:08:59.577Z</time></trkpt><trkpt lat="43.8279046" lon="11.5057339"><ele>271.0</ele><time>2026-04-11T14:09:02.576Z</time></trkpt><trkpt lat="43.8279883" lon="11.5057849"><ele>271.0</ele><time>2026-04-11T14:09:05.577Z</time></trkpt><trkpt lat="43.8280248" lon="11.5058731"><ele>271.0</ele><time>2026-04-11T14:09:08.577Z</time></trkpt><trkpt lat="43.8280147" lon="11.5059662"><ele>271.0</ele><time>2026-04-11T14:09:11.576Z</time></trkpt><trkpt lat="43.8280412" lon="11.5060707"><ele>271.0</ele><time>2026-04-11T14:09:16.577Z</time></trkpt><trkpt lat="43.8280815" lon="11.5061497"><ele>271.7142857142857</ele><time>2026-04-11T14:09:23.577Z</time></trkpt><trkpt lat="43.8280743" lon="11.5062486"><ele>272.42857142857144</ele><time>2026-04-11T14:09:26.576Z</time></trkpt><trkpt lat="43.8280781" lon="11.5063484"><ele>273.14285714285717</ele><time>2026-04-11T14:09:29.577Z</time></trkpt><trkpt lat="43.8280793" lon="11.506436"><ele>273.8571428571429</ele><time>2026-04-11T14:09:32.576Z</time></trkpt><trkpt lat="43.8280981" lon="11.5065403"><ele>274.5714285714286</ele><time>2026-04-11T14:09:35.577Z</time></trkpt><trkpt lat="43.8281377" lon="11.5066206"><ele>275.2857142857143</ele><time>2026-04-11T14:12:29.577Z</time></trkpt><trkpt lat="43.8281997" lon="11.5066648"><ele>276.0</ele><time>2026-04-11T14:12:33.577Z</time></trkpt><trkpt lat="43.8282736" lon="11.5066252"><ele>276.0</ele><time>2026-04-11T14:12:35.577Z</time></trkpt><trkpt lat="43.8283411" lon="11.5065278"><ele>276.0</ele><time>2026-04-11T14:12:38.577Z</time></trkpt><trkpt lat="43.8284024" lon="11.5064501"><ele>276.0</ele><time>2026-04-11T14:12:40.577Z</time></trkpt><trkpt lat="43.8284521" lon="11.5063056"><ele>276.0</ele><time>2026-04-11T14:12:42.577Z</time></trkpt><trkpt lat="43.8284691" lon="11.5062104"><ele>276.0</ele><time>2026-04-11T14:12:43.577Z</time></trkpt><trkpt lat="43.8285047" lon="11.5060426"><ele>275.6666666666667</ele><time>2026-04-11T14:12:45.577Z</time></trkpt><trkpt lat="43.8285459" lon="11.505917"><ele>275.3333333333333</ele><time>2026-04-11T14:12:47.577Z</time></trkpt><trkpt lat="43.8285646" lon="11.5058026"><ele>275.0</ele><time>2026-04-11T14:12:49.577Z</time></trkpt><trkpt lat="43.8285854" lon="11.5056862"><ele>274.66666666666663</ele><time>2026-04-11T14:12:52.577Z</time></trkpt><trkpt lat="43.8286039" lon="11.5055784"><ele>274.3333333333333</ele><time>2026-04-11T14:12:55.576Z</time></trkpt><trkpt lat="43.8286278" lon="11.5054746"><ele>274.0</ele><time>2026-04-11T14:12:58.576Z</time></trkpt><trkpt lat="43.8285217" lon="11.5051834"><ele>274.0</ele><time>2026-04-11T14:13:03.125Z</time></trkpt><trkpt lat="43.8285541" lon="11.505275"><ele>274.0</ele><time>2026-04-11T14:14:31.576Z</time></trkpt><trkpt lat="43.8285616" lon="11.5053715"><ele>274.0</ele><time>2026-04-11T14:14:33.576Z</time></trkpt><trkpt lat="43.8285762" lon="11.5055157"><ele>274.0</ele><time>2026-04-11T14:14:35.576Z</time></trkpt><trkpt lat="43.8285921" lon="11.5056067"><ele>274.0</ele><time>2026-04-11T14:14:36.576Z</time></trkpt><trkpt lat="43.8286078" lon="11.5057042"><ele>274.0</ele><time>2026-04-11T14:14:37.575Z</time></trkpt><trkpt lat="43.828619" lon="11.5057957"><ele>275.0</ele><time>2026-04-11T14:14:38.576Z</time></trkpt><trkpt lat="43.8286293" lon="11.5058881"><ele>276.0</ele><time>2026-04-11T14:14:39.574Z</time></trkpt><trkpt lat="43.8286361" lon="11.5059783"><ele>277.0</ele><time>2026-04-11T14:14:40.576Z</time></trkpt><trkpt lat="43.828639" lon="11.5061228"><ele>278.0</ele><time>2026-04-11T14:14:42.576Z</time></trkpt><trkpt lat="43.8286601" lon="11.5062373"><ele>279.0</ele><time>2026-04-11T14:14:44.576Z</time></trkpt><trkpt lat="43.8287187" lon="11.5063122"><ele>280.0</ele><time>2026-04-11T14:14:46.576Z</time></trkpt><trkpt lat="43.8287527" lon="11.5064126"><ele>281.5</ele><time>2026-04-11T14:14:49.574Z</time></trkpt><trkpt lat="43.8287358" lon="11.5065116"><ele>283.0</ele><time>2026-04-11T14:14:51.576Z</time></trkpt><trkpt lat="43.8287285" lon="11.5066068"><ele>284.5</ele><time>2026-04-11T14:14:53.576Z</time></trkpt><trkpt lat="43.8287322" lon="11.5067063"><ele>286.0</ele><time>2026-04-11T14:14:56.575Z</time></trkpt><trkpt lat="43.8287429" lon="11.5068166"><ele>287.5</ele><time>2026-04-11T14:15:16.576Z</time></trkpt><trkpt lat="43.8287736" lon="11.5069569"><ele>289.0</ele><time>2026-04-11T14:15:18.576Z</time></trkpt><trkpt lat="43.8288102" lon="11.5071262"><ele>290.5</ele><time>2026-04-11T14:15:20.576Z</time></trkpt><trkpt lat="43.828823" lon="11.5072457"><ele>292.0</ele><time>2026-04-11T14:15:22.576Z</time></trkpt><trkpt lat="43.828826" lon="11.5073489"><ele>293.5</ele><time>2026-04-11T14:15:24.575Z</time></trkpt><trkpt lat="43.8288186" lon="11.5074441"><ele>295.0</ele><time>2026-04-11T14:15:26.576Z</time></trkpt><trkpt lat="43.8288351" lon="11.5075376"><ele>296.5</ele><time>2026-04-11T14:15:28.576Z</time></trkpt><trkpt lat="43.8288442" lon="11.5076411"><ele>298.0</ele><time>2026-04-11T14:15:30.576Z</time></trkpt><trkpt lat="43.8288547" lon="11.5077444"><ele>298.0</ele><time>2026-04-11T14:15:32.575Z</time></trkpt><trkpt lat="43.828838" lon="11.5078346"><ele>298.0</ele><time>2026-04-11T14:15:34.575Z</time></trkpt><trkpt lat="43.8287924" lon="11.5079526"><ele>298.0</ele><time>2026-04-11T14:15:36.576Z</time></trkpt><trkpt lat="43.8287806" lon="11.5080402"><ele>298.0</ele><time>2026-04-11T14:15:38.576Z</time></trkpt><trkpt lat="43.8287644" lon="11.508147"><ele>298.0</ele><time>2026-04-11T14:15:41.576Z</time></trkpt><trkpt lat="43.8287342" lon="11.5082516"><ele>298.0</ele><time>2026-04-11T14:17:02.576Z</time></trkpt><trkpt lat="43.8287416" lon="11.5083551"><ele>299.66666666666663</ele><time>2026-04-11T14:17:03.574Z</time></trkpt><trkpt lat="43.8287712" lon="11.5084572"><ele>301.3333333333333</ele><time>2026-04-11T14:17:05.576Z</time></trkpt><trkpt lat="43.8287772" lon="11.5085571"><ele>303.0</ele><time>2026-04-11T14:17:07.576Z</time></trkpt><trkpt lat="43.8287546" lon="11.5086572"><ele>304.6666666666667</ele><time>2026-04-11T14:17:09.576Z</time></trkpt><trkpt lat="43.8287716" lon="11.5087932"><ele>306.33333333333337</ele><time>2026-04-11T14:17:11.576Z</time></trkpt><trkpt lat="43.8288297" lon="11.5089082"><ele>308.0</ele><time>2026-04-11T14:17:13.576Z</time></trkpt><trkpt lat="43.828887" lon="11.5089704"><ele>310.33333333333337</ele><time>2026-04-11T14:17:16.575Z</time></trkpt><trkpt lat="43.8289327" lon="11.5090901"><ele>312.6666666666667</ele><time>2026-04-11T14:17:24.576Z</time></trkpt><trkpt lat="43.8289785" lon="11.5091823"><ele>315.0</ele><time>2026-04-11T14:17:27.576Z</time></trkpt><trkpt lat="43.8290049" lon="11.5092782"><ele>317.3333333333333</ele><time>2026-04-11T14:17:29.575Z</time></trkpt><trkpt lat="43.8290363" lon="11.509363"><ele>319.66666666666663</ele><time>2026-04-11T14:17:32.576Z</time></trkpt><trkpt lat="43.8289924" lon="11.5092692"><ele>322.0</ele><time>2026-04-11T14:17:49.576Z</time></trkpt><trkpt lat="43.8289632" lon="11.5091632"><ele>322.0</ele><time>2026-04-11T14:17:51.576Z</time></trkpt><trkpt lat="43.8289259" lon="11.5090531"><ele>322.0</ele><time>2026-04-11T14:17:53.576Z</time></trkpt><trkpt lat="43.828891" lon="11.5089641"><ele>322.0</ele><time>2026-04-11T14:17:55.576Z</time></trkpt><trkpt lat="43.8288394" lon="11.5089123"><ele>322.0</ele><time>2026-04-11T14:17:59.575Z</time></trkpt><trkpt lat="43.8288521" lon="11.5089986"><ele>322.0</ele><time>2026-04-11T14:19:48.575Z</time></trkpt><trkpt lat="43.8289338" lon="11.509114"><ele>322.0</ele><time>2026-04-11T14:19:51.575Z</time></trkpt><trkpt lat="43.8289988" lon="11.5092695"><ele>322.0</ele><time>2026-04-11T14:19:53.576Z</time></trkpt><trkpt lat="43.82903" lon="11.5093648"><ele>322.0</ele><time>2026-04-11T14:19:54.575Z</time></trkpt><trkpt lat="43.8290668" lon="11.5094563"><ele>322.0</ele><time>2026-04-11T14:19:55.575Z</time></trkpt><trkpt lat="43.8291054" lon="11.5095367"><ele>322.0</ele><time>2026-04-11T14:19:56.576Z</time></trkpt><trkpt lat="43.8291546" lon="11.5096075"><ele>322.0</ele><time>2026-04-11T14:19:57.576Z</time></trkpt><trkpt lat="43.8292071" lon="11.5096599"><ele>322.0</ele><time>2026-04-11T14:19:58.576Z</time></trkpt><trkpt lat="43.8292943" lon="11.5096935"><ele>322.0</ele><time>2026-04-11T14:20:00.576Z</time></trkpt><trkpt lat="43.8294196" lon="11.5096817"><ele>324.40000000000003</ele><time>2026-04-11T14:20:02.576Z</time></trkpt><trkpt lat="43.8294866" lon="11.5096469"><ele>326.8</ele><time>2026-04-11T14:20:03.576Z</time></trkpt><trkpt lat="43.829573" lon="11.5096145"><ele>329.2</ele><time>2026-04-11T14:20:04.576Z</time></trkpt><trkpt lat="43.8296824" lon="11.5096301"><ele>331.6</ele><time>2026-04-11T14:20:06.575Z</time></trkpt><trkpt lat="43.8297684" lon="11.5097242"><ele>334.0</ele><time>2026-04-11T14:20:08.576Z</time></trkpt><trkpt lat="43.8298456" lon="11.5098431"><ele>334.0</ele><time>2026-04-11T14:20:10.576Z</time></trkpt><trkpt lat="43.8299348" lon="11.5099352"><ele>334.0</ele><time>2026-04-11T14:20:12.576Z</time></trkpt><trkpt lat="43.829986" lon="11.510013"><ele>334.0</ele><time>2026-04-11T14:20:13.575Z</time></trkpt><trkpt lat="43.8300404" lon="11.5101013"><ele>334.0</ele><time>2026-04-11T14:20:14.574Z</time></trkpt><trkpt lat="43.8300866" lon="11.5102077"><ele>334.0</ele><time>2026-04-11T14:20:15.576Z</time></trkpt><trkpt lat="43.8301297" lon="11.510327"><ele>335.5</ele><time>2026-04-11T14:20:16.575Z</time></trkpt><trkpt lat="43.8301669" lon="11.5104222"><ele>337.0</ele><time>2026-04-11T14:20:17.576Z</time></trkpt><trkpt lat="43.830208" lon="11.5105062"><ele>338.5</ele><time>2026-04-11T14:20:18.576Z</time></trkpt><trkpt lat="43.8302744" lon="11.5105315"><ele>340.0</ele><time>2026-04-11T14:20:19.576Z</time></trkpt><trkpt lat="43.8304093" lon="11.5105175"><ele>341.5</ele><time>2026-04-11T14:20:21.575Z</time></trkpt><trkpt lat="43.8304633" lon="11.5104464"><ele>343.0</ele><time>2026-04-11T14:20:22.574Z</time></trkpt><trkpt lat="43.8305145" lon="11.5103583"><ele>343.0</ele><time>2026-04-11T14:20:23.576Z</time></trkpt><trkpt lat="43.8306132" lon="11.5103095"><ele>343.0</ele><time>2026-04-11T14:20:25.576Z</time></trkpt><trkpt lat="43.8307189" lon="11.5103437"><ele>343.0</ele><time>2026-04-11T14:20:27.576Z</time></trkpt><trkpt lat="43.8307719" lon="11.510401"><ele>343.0</ele><time>2026-04-11T14:20:28.575Z</time></trkpt><trkpt lat="43.8308236" lon="11.5104766"><ele>343.0</ele><time>2026-04-11T14:20:29.575Z</time></trkpt><trkpt lat="43.8308589" lon="11.5105725"><ele>343.0</ele><time>2026-04-11T14:20:30.575Z</time></trkpt><trkpt lat="43.8308888" lon="11.5106683"><ele>343.0</ele><time>2026-04-11T14:20:31.575Z</time></trkpt><trkpt lat="43.8309456" lon="11.5107614"><ele>343.0</ele><time>2026-04-11T14:20:32.575Z</time></trkpt><trkpt lat="43.8310174" lon="11.5108381"><ele>343.0</ele><time>2026-04-11T14:20:33.575Z</time></trkpt><trkpt lat="43.8310938" lon="11.5109047"><ele>343.0</ele><time>2026-04-11T14:20:34.575Z</time></trkpt><trkpt lat="43.8311519" lon="11.5109737"><ele>343.0</ele><time>2026-04-11T14:20:35.576Z</time></trkpt><trkpt lat="43.831212" lon="11.5110629"><ele>343.0</ele><time>2026-04-11T14:20:36.576Z</time></trkpt><trkpt lat="43.8312682" lon="11.5111518"><ele>343.79999999999995</ele><time>2026-04-11T14:20:37.576Z</time></trkpt><trkpt lat="43.8313234" lon="11.511225"><ele>344.6</ele><time>2026-04-11T14:20:38.576Z</time></trkpt><trkpt lat="43.8314148" lon="11.5112762"><ele>345.4</ele><time>2026-04-11T14:20:40.576Z</time></trkpt><trkpt lat="43.8315276" lon="11.5112166"><ele>346.20000000000005</ele><time>2026-04-11T14:20:42.576Z</time></trkpt><trkpt lat="43.8315909" lon="11.5111801"><ele>347.0</ele><time>2026-04-11T14:20:43.575Z</time></trkpt><trkpt lat="43.8317042" lon="11.5111891"><ele>347.0</ele><time>2026-04-11T14:20:45.576Z</time></trkpt><trkpt lat="43.8317886" lon="11.5112743"><ele>347.0</ele><time>2026-04-11T14:20:47.576Z</time></trkpt><trkpt lat="43.8318388" lon="11.5114296"><ele>347.0</ele><time>2026-04-11T14:20:49.576Z</time></trkpt><trkpt lat="43.8318531" lon="11.5115412"><ele>347.0</ele><time>2026-04-11T14:20:50.576Z</time></trkpt><trkpt lat="43.8318731" lon="11.5116402"><ele>347.0</ele><time>2026-04-11T14:20:51.575Z</time></trkpt><trkpt lat="43.8319052" lon="11.511729"><ele>343.83333333333337</ele><time>2026-04-11T14:20:52.576Z</time></trkpt><trkpt lat="43.8319621" lon="11.5118755"><ele>340.6666666666667</ele><time>2026-04-11T14:20:54.576Z</time></trkpt><trkpt lat="43.8320351" lon="11.5118991"><ele>337.5</ele><time>2026-04-11T14:20:56.576Z</time></trkpt><trkpt lat="43.8320975" lon="11.5118287"><ele>334.3333333333333</ele><time>2026-04-11T14:20:58.575Z</time></trkpt><trkpt lat="43.8321552" lon="11.5117304"><ele>331.16666666666663</ele><time>2026-04-11T14:21:00.576Z</time></trkpt><trkpt lat="43.8322166" lon="11.5116953"><ele>328.0</ele><time>2026-04-11T14:21:03.576Z</time></trkpt><trkpt lat="43.8322822" lon="11.5116884"><ele>328.0</ele><time>2026-04-11T14:21:12.576Z</time></trkpt><trkpt lat="43.8323692" lon="11.5116645"><ele>328.0</ele><time>2026-04-11T14:21:14.576Z</time></trkpt><trkpt lat="43.8324661" lon="11.5116901"><ele>328.0</ele><time>2026-04-11T14:21:16.576Z</time></trkpt><trkpt lat="43.8325773" lon="11.5117463"><ele>328.0</ele><time>2026-04-11T14:21:18.576Z</time></trkpt><trkpt lat="43.8326919" lon="11.5117777"><ele>328.0</ele><time>2026-04-11T14:21:20.576Z</time></trkpt><trkpt lat="43.8328167" lon="11.5117851"><ele>327.5</ele><time>2026-04-11T14:21:22.575Z</time></trkpt><trkpt lat="43.8328912" lon="11.5117642"><ele>327.0</ele><time>2026-04-11T14:21:23.575Z</time></trkpt><trkpt lat="43.8329689" lon="11.5117433"><ele>326.5</ele><time>2026-04-11T14:21:24.575Z</time></trkpt><trkpt lat="43.8330423" lon="11.5117241"><ele>326.0</ele><time>2026-04-11T14:21:25.576Z</time></trkpt><trkpt lat="43.8331266" lon="11.511698"><ele>325.5</ele><time>2026-04-11T14:21:26.575Z</time></trkpt><trkpt lat="43.8332074" lon="11.511673"><ele>325.0</ele><time>2026-04-11T14:21:27.576Z</time></trkpt><trkpt lat="43.8332924" lon="11.5116511"><ele>325.0</ele><time>2026-04-11T14:21:28.576Z</time></trkpt><trkpt lat="43.8333803" lon="11.5116225"><ele>325.0</ele><time>2026-04-11T14:21:29.575Z</time></trkpt><trkpt lat="43.8334678" lon="11.5115989"><ele>325.0</ele><time>2026-04-11T14:21:30.576Z</time></trkpt><trkpt lat="43.8335487" lon="11.5115747"><ele>325.0</ele><time>2026-04-11T14:21:31.576Z</time></trkpt><trkpt lat="43.8336176" lon="11.5115431"><ele>325.0</ele><time>2026-04-11T14:21:32.575Z</time></trkpt><trkpt lat="43.8336835" lon="11.5115168"><ele>325.0</ele><time>2026-04-11T14:21:33.575Z</time></trkpt><trkpt lat="43.8337727" lon="11.5115265"><ele>325.0</ele><time>2026-04-11T14:21:35.576Z</time></trkpt><trkpt lat="43.8338292" lon="11.511607"><ele>325.0</ele><time>2026-04-11T14:21:37.576Z</time></trkpt><trkpt lat="43.8338797" lon="11.5116627"><ele>325.0</ele><time>2026-04-11T14:21:41.575Z</time></trkpt><trkpt lat="43.8338174" lon="11.5117357"><ele>325.0</ele><time>2026-04-11T14:22:01.576Z</time></trkpt><trkpt lat="43.8338047" lon="11.5118675"><ele>325.0</ele><time>2026-04-11T14:22:03.575Z</time></trkpt><trkpt lat="43.8338048" lon="11.5119561"><ele>325.0</ele><time>2026-04-11T14:22:04.576Z</time></trkpt><trkpt lat="43.8338028" lon="11.5120554"><ele>325.2857142857143</ele><time>2026-04-11T14:22:05.575Z</time></trkpt><trkpt lat="43.8338036" lon="11.512151"><ele>325.5714285714286</ele><time>2026-04-11T14:22:06.576Z</time></trkpt><trkpt lat="43.8337975" lon="11.5123201"><ele>325.8571428571429</ele><time>2026-04-11T14:22:08.576Z</time></trkpt><trkpt lat="43.8337923" lon="11.5124074"><ele>326.1428571428571</ele><time>2026-04-11T14:22:09.575Z</time></trkpt><trkpt lat="43.8337869" lon="11.5124962"><ele>326.42857142857144</ele><time>2026-04-11T14:22:10.576Z</time></trkpt><trkpt lat="43.833783" lon="11.5125862"><ele>326.7142857142857</ele><time>2026-04-11T14:22:11.576Z</time></trkpt><trkpt lat="43.8337787" lon="11.512676"><ele>327.0</ele><time>2026-04-11T14:22:12.576Z</time></trkpt><trkpt lat="43.8337724" lon="11.5127825"><ele>327.0</ele><time>2026-04-11T14:22:13.576Z</time></trkpt><trkpt lat="43.8337661" lon="11.5128874"><ele>327.0</ele><time>2026-04-11T14:22:14.576Z</time></trkpt><trkpt lat="43.8337457" lon="11.512997"><ele>327.0</ele><time>2026-04-11T14:22:15.575Z</time></trkpt><trkpt lat="43.8337164" lon="11.5131064"><ele>327.0</ele><time>2026-04-11T14:22:16.574Z</time></trkpt><trkpt lat="43.8336719" lon="11.513195"><ele>327.0</ele><time>2026-04-11T14:22:17.576Z</time></trkpt><trkpt lat="43.833622" lon="11.5132798"><ele>327.0</ele><time>2026-04-11T14:22:18.575Z</time></trkpt><trkpt lat="43.8335929" lon="11.5133619"><ele>327.85714285714283</ele><time>2026-04-11T14:22:19.576Z</time></trkpt><trkpt lat="43.8335782" lon="11.5134517"><ele>328.7142857142857</ele><time>2026-04-11T14:22:20.576Z</time></trkpt><trkpt lat="43.8335743" lon="11.5135476"><ele>329.57142857142856</ele><time>2026-04-11T14:22:21.576Z</time></trkpt><trkpt lat="43.8335887" lon="11.5136465"><ele>330.42857142857144</ele><time>2026-04-11T14:22:22.575Z</time></trkpt><trkpt lat="43.833604" lon="11.5137318"><ele>331.2857142857143</ele><time>2026-04-11T14:22:23.576Z</time></trkpt><trkpt lat="43.8336077" lon="11.5138231"><ele>332.14285714285717</ele><time>2026-04-11T14:22:24.575Z</time></trkpt><trkpt lat="43.833602" lon="11.5139155"><ele>333.0</ele><time>2026-04-11T14:22:25.576Z</time></trkpt><trkpt lat="43.8335629" lon="11.5140628"><ele>335.5</ele><time>2026-04-11T14:22:27.576Z</time></trkpt><trkpt lat="43.8335517" lon="11.5141957"><ele>338.0</ele><time>2026-04-11T14:22:29.576Z</time></trkpt><trkpt lat="43.8335454" lon="11.514288"><ele>340.5</ele><time>2026-04-11T14:22:53.575Z</time></trkpt><trkpt lat="43.83353" lon="11.5144233"><ele>343.0</ele><time>2026-04-11T14:22:56.575Z</time></trkpt><trkpt lat="43.8335204" lon="11.5145117"><ele>345.5</ele><time>2026-04-11T14:22:58.575Z</time></trkpt><trkpt lat="43.8335349" lon="11.5146054"><ele>348.0</ele><time>2026-04-11T14:23:00.575Z</time></trkpt><trkpt lat="43.8335577" lon="11.5147237"><ele>352.0</ele><time>2026-04-11T14:23:02.576Z</time></trkpt><trkpt lat="43.8335907" lon="11.5148557"><ele>356.0</ele><time>2026-04-11T14:23:04.576Z</time></trkpt><trkpt lat="43.833593" lon="11.5149767"><ele>360.0</ele><time>2026-04-11T14:23:06.575Z</time></trkpt><trkpt lat="43.8335641" lon="11.5150856"><ele>364.0</ele><time>2026-04-11T14:23:08.576Z</time></trkpt><trkpt lat="43.8335118" lon="11.5151959"><ele>368.0</ele><time>2026-04-11T14:23:10.575Z</time></trkpt><trkpt lat="43.8334871" lon="11.5153263"><ele>372.79999999999995</ele><time>2026-04-11T14:23:12.576Z</time></trkpt><trkpt lat="43.8334799" lon="11.5154273"><ele>377.6</ele><time>2026-04-11T14:23:14.575Z</time></trkpt><trkpt lat="43.8335222" lon="11.5155142"><ele>382.4</ele><time>2026-04-11T14:23:19.576Z</time></trkpt><trkpt lat="43.8336152" lon="11.5155585"><ele>387.20000000000005</ele><time>2026-04-11T14:23:21.575Z</time></trkpt><trkpt lat="43.8337124" lon="11.5155942"><ele>392.0</ele><time>2026-04-11T14:23:23.575Z</time></trkpt><trkpt lat="43.8338274" lon="11.5156419"><ele>392.0</ele><time>2026-04-11T14:23:25.575Z</time></trkpt><trkpt lat="43.8338912" lon="11.5156711"><ele>392.0</ele><time>2026-04-11T14:23:26.575Z</time></trkpt><trkpt lat="43.8339937" lon="11.5157323"><ele>392.0</ele><time>2026-04-11T14:23:28.574Z</time></trkpt><trkpt lat="43.8340752" lon="11.5157915"><ele>392.0</ele><time>2026-04-11T14:23:30.575Z</time></trkpt><trkpt lat="43.8341779" lon="11.5158343"><ele>392.0</ele><time>2026-04-11T14:23:32.575Z</time></trkpt><trkpt lat="43.8342838" lon="11.5158348"><ele>391.8</ele><time>2026-04-11T14:23:34.574Z</time></trkpt><trkpt lat="43.8343482" lon="11.5158445"><ele>391.6</ele><time>2026-04-11T14:23:35.574Z</time></trkpt><trkpt lat="43.8344781" lon="11.5158495"><ele>391.40000000000003</ele><time>2026-04-11T14:23:37.574Z</time></trkpt><trkpt lat="43.8345657" lon="11.5158538"><ele>391.20000000000005</ele><time>2026-04-11T14:23:39.575Z</time></trkpt><trkpt lat="43.834653" lon="11.5158769"><ele>391.0</ele><time>2026-04-11T14:23:41.575Z</time></trkpt><trkpt lat="43.8347616" lon="11.515928"><ele>391.0</ele><time>2026-04-11T14:23:43.575Z</time></trkpt><trkpt lat="43.8348308" lon="11.5159394"><ele>391.0</ele><time>2026-04-11T14:23:45.575Z</time></trkpt><trkpt lat="43.8349516" lon="11.515924"><ele>391.0</ele><time>2026-04-11T14:23:47.574Z</time></trkpt><trkpt lat="43.8350705" lon="11.5159057"><ele>391.0</ele><time>2026-04-11T14:23:49.575Z</time></trkpt><trkpt lat="43.8351541" lon="11.5158994"><ele>391.0</ele><time>2026-04-11T14:23:51.574Z</time></trkpt><trkpt lat="43.8352182" lon="11.5159105"><ele>389.83333333333337</ele><time>2026-04-11T14:23:53.574Z</time></trkpt><trkpt lat="43.8353064" lon="11.5159055"><ele>388.6666666666667</ele><time>2026-04-11T14:23:58.575Z</time></trkpt><trkpt lat="43.8353666" lon="11.515935"><ele>387.5</ele><time>2026-04-11T14:24:03.575Z</time></trkpt><trkpt lat="43.8352787" lon="11.5158882"><ele>386.33333333333337</ele><time>2026-04-11T14:24:11.575Z</time></trkpt><trkpt lat="43.8352095" lon="11.5158965"><ele>385.1666666666667</ele><time>2026-04-11T14:24:14.574Z</time></trkpt><trkpt lat="43.8352375" lon="11.5160137"><ele>384.0</ele><time>2026-04-11T14:24:54.575Z</time></trkpt><trkpt lat="43.8352834" lon="11.5160874"><ele>384.0</ele><time>2026-04-11T14:24:56.575Z</time></trkpt><trkpt lat="43.8353734" lon="11.5161109"><ele>384.0</ele><time>2026-04-11T14:24:58.575Z</time></trkpt><trkpt lat="43.8354757" lon="11.516154"><ele>384.0</ele><time>2026-04-11T14:25:00.575Z</time></trkpt><trkpt lat="43.8355583" lon="11.516188"><ele>384.0</ele><time>2026-04-11T14:25:02.575Z</time></trkpt><trkpt lat="43.8356206" lon="11.5162533"><ele>384.0</ele><time>2026-04-11T14:25:04.574Z</time></trkpt><trkpt lat="43.8356715" lon="11.5163105"><ele>384.0</ele><time>2026-04-11T14:25:06.575Z</time></trkpt><trkpt lat="43.8356966" lon="11.5164146"><ele>386.6666666666667</ele><time>2026-04-11T14:25:09.574Z</time></trkpt><trkpt lat="43.8356361" lon="11.5164455"><ele>389.33333333333337</ele><time>2026-04-11T14:25:14.575Z</time></trkpt><trkpt lat="43.8355764" lon="11.5163905"><ele>392.0</ele><time>2026-04-11T14:25:46.575Z</time></trkpt><trkpt lat="43.8355094" lon="11.5163786"><ele>394.6666666666667</ele><time>2026-04-11T14:25:48.575Z</time></trkpt><trkpt lat="43.835393" lon="11.5163404"><ele>397.33333333333337</ele><time>2026-04-11T14:25:50.573Z</time></trkpt><trkpt lat="43.8353247" lon="11.5163207"><ele>400.0</ele><time>2026-04-11T14:25:51.574Z</time></trkpt><trkpt lat="43.8352448" lon="11.5162993"><ele>400.0</ele><time>2026-04-11T14:25:52.575Z</time></trkpt><trkpt lat="43.8351537" lon="11.5162863"><ele>400.0</ele><time>2026-04-11T14:25:53.574Z</time></trkpt><trkpt lat="43.8350535" lon="11.5162774"><ele>400.0</ele><time>2026-04-11T14:25:54.575Z</time></trkpt><trkpt lat="43.8349608" lon="11.5162759"><ele>400.0</ele><time>2026-04-11T14:25:55.575Z</time></trkpt><trkpt lat="43.834871" lon="11.5162983"><ele>400.0</ele><time>2026-04-11T14:25:56.575Z</time></trkpt><trkpt lat="43.8347825" lon="11.516335"><ele>402.00000000000006</ele><time>2026-04-11T14:25:57.574Z</time></trkpt><trkpt lat="43.8346995" lon="11.5163757"><ele>404.0</ele><time>2026-04-11T14:25:58.575Z</time></trkpt><trkpt lat="43.8346245" lon="11.5164149"><ele>406.0</ele><time>2026-04-11T14:25:59.575Z</time></trkpt><trkpt lat="43.8345458" lon="11.5164216"><ele>408.0</ele><time>2026-04-11T14:26:00.575Z</time></trkpt><trkpt lat="43.8344681" lon="11.5164211"><ele>410.00000000000006</ele><time>2026-04-11T14:26:01.574Z</time></trkpt><trkpt lat="43.8343956" lon="11.5163443"><ele>412.0</ele><time>2026-04-11T14:26:02.575Z</time></trkpt><trkpt lat="43.8343062" lon="11.5163048"><ele>412.75</ele><time>2026-04-11T14:26:03.574Z</time></trkpt><trkpt lat="43.8342084" lon="11.5163122"><ele>413.5</ele><time>2026-04-11T14:26:04.575Z</time></trkpt><trkpt lat="43.8341025" lon="11.516336"><ele>414.25</ele><time>2026-04-11T14:26:05.575Z</time></trkpt><trkpt lat="43.833967" lon="11.516386"><ele>415.0</ele><time>2026-04-11T14:26:06.574Z</time></trkpt><trkpt lat="43.8338202" lon="11.5164432"><ele>415.0</ele><time>2026-04-11T14:26:07.575Z</time></trkpt><trkpt lat="43.8336978" lon="11.5165089"><ele>415.0</ele><time>2026-04-11T14:26:08.574Z</time></trkpt><trkpt lat="43.8335964" lon="11.5165818"><ele>415.0</ele><time>2026-04-11T14:26:09.575Z</time></trkpt><trkpt lat="43.833497" lon="11.5166874"><ele>415.0</ele><time>2026-04-11T14:26:10.575Z</time></trkpt><trkpt lat="43.8334012" lon="11.5167832"><ele>415.33333333333337</ele><time>2026-04-11T14:26:11.574Z</time></trkpt><trkpt lat="43.833303" lon="11.5168475"><ele>415.6666666666667</ele><time>2026-04-11T14:26:12.574Z</time></trkpt><trkpt lat="43.8332198" lon="11.5168848"><ele>416.0</ele><time>2026-04-11T14:26:13.575Z</time></trkpt><trkpt lat="43.8331365" lon="11.5168252"><ele>416.33333333333337</ele><time>2026-04-11T14:26:14.574Z</time></trkpt><trkpt lat="43.8331015" lon="11.5167268"><ele>416.6666666666667</ele><time>2026-04-11T14:26:15.574Z</time></trkpt><trkpt lat="43.8330585" lon="11.5166509"><ele>417.0</ele><time>2026-04-11T14:26:16.574Z</time></trkpt><trkpt lat="43.8330532" lon="11.5165067"><ele>417.0</ele><time>2026-04-11T14:26:17.575Z</time></trkpt><trkpt lat="43.833039" lon="11.5163632"><ele>417.0</ele><time>2026-04-11T14:26:18.575Z</time></trkpt><trkpt lat="43.8330061" lon="11.5162414"><ele>417.0</ele><time>2026-04-11T14:26:19.575Z</time></trkpt><trkpt lat="43.8329527" lon="11.5160948"><ele>417.0</ele><time>2026-04-11T14:26:20.575Z</time></trkpt><trkpt lat="43.8328797" lon="11.516045"><ele>417.0</ele><time>2026-04-11T14:26:21.575Z</time></trkpt><trkpt lat="43.8327915" lon="11.5159889"><ele>416.0</ele><time>2026-04-11T14:26:22.575Z</time></trkpt><trkpt lat="43.8326918" lon="11.5159594"><ele>415.0</ele><time>2026-04-11T14:26:23.575Z</time></trkpt><trkpt lat="43.8325847" lon="11.5159478"><ele>414.0</ele><time>2026-04-11T14:26:24.575Z</time></trkpt><trkpt lat="43.832479" lon="11.5159214"><ele>413.0</ele><time>2026-04-11T14:26:25.575Z</time></trkpt><trkpt lat="43.832374" lon="11.5158862"><ele>412.0</ele><time>2026-04-11T14:26:26.575Z</time></trkpt><trkpt lat="43.8322665" lon="11.5158488"><ele>412.0</ele><time>2026-04-11T14:26:27.574Z</time></trkpt><trkpt lat="43.8321592" lon="11.5158053"><ele>412.0</ele><time>2026-04-11T14:26:28.575Z</time></trkpt><trkpt lat="43.8320527" lon="11.5157503"><ele>412.0</ele><time>2026-04-11T14:26:29.575Z</time></trkpt><trkpt lat="43.8319482" lon="11.5156897"><ele>412.0</ele><time>2026-04-11T14:26:30.574Z</time></trkpt><trkpt lat="43.8318409" lon="11.5156445"><ele>413.6</ele><time>2026-04-11T14:26:31.574Z</time></trkpt><trkpt lat="43.8317361" lon="11.5156329"><ele>415.20000000000005</ele><time>2026-04-11T14:26:32.573Z</time></trkpt><trkpt lat="43.8316353" lon="11.5156615"><ele>416.8</ele><time>2026-04-11T14:26:33.573Z</time></trkpt><trkpt lat="43.8315267" lon="11.5157047"><ele>418.4</ele><time>2026-04-11T14:26:34.575Z</time></trkpt><trkpt lat="43.8314106" lon="11.5157202"><ele>420.0</ele><time>2026-04-11T14:26:35.575Z</time></trkpt><trkpt lat="43.831298" lon="11.5156788"><ele>420.0</ele><time>2026-04-11T14:26:36.575Z</time></trkpt><trkpt lat="43.8311867" lon="11.5156151"><ele>420.0</ele><time>2026-04-11T14:26:37.575Z</time></trkpt><trkpt lat="43.8310697" lon="11.5155344"><ele>420.0</ele><time>2026-04-11T14:26:38.574Z</time></trkpt><trkpt lat="43.8309491" lon="11.5154528"><ele>420.0</ele><time>2026-04-11T14:26:39.575Z</time></trkpt><trkpt lat="43.830828" lon="11.5153738"><ele>420.4</ele><time>2026-04-11T14:26:40.575Z</time></trkpt><trkpt lat="43.8307119" lon="11.5153008"><ele>420.8</ele><time>2026-04-11T14:26:41.575Z</time></trkpt><trkpt lat="43.8306076" lon="11.5152612"><ele>421.20000000000005</ele><time>2026-04-11T14:26:42.574Z</time></trkpt><trkpt lat="43.8305113" lon="11.5152685"><ele>421.6</ele><time>2026-04-11T14:26:43.575Z</time></trkpt><trkpt lat="43.8304318" lon="11.5153147"><ele>422.0</ele><time>2026-04-11T14:26:44.574Z</time></trkpt><trkpt lat="43.8303773" lon="11.5153841"><ele>423.0</ele><time>2026-04-11T14:26:45.574Z</time></trkpt><trkpt lat="43.8303305" lon="11.515482"><ele>424.0</ele><time>2026-04-11T14:26:46.575Z</time></trkpt><trkpt lat="43.8302847" lon="11.5156032"><ele>425.00000000000006</ele><time>2026-04-11T14:26:47.575Z</time></trkpt><trkpt lat="43.8302344" lon="11.5157304"><ele>426.0</ele><time>2026-04-11T14:26:48.575Z</time></trkpt><trkpt lat="43.8301916" lon="11.5158517"><ele>427.0</ele><time>2026-04-11T14:26:49.575Z</time></trkpt><trkpt lat="43.8301537" lon="11.5159473"><ele>428.40000000000003</ele><time>2026-04-11T14:26:50.575Z</time></trkpt><trkpt lat="43.8301209" lon="11.5160418"><ele>429.80000000000007</ele><time>2026-04-11T14:26:51.574Z</time></trkpt><trkpt lat="43.8300771" lon="11.5161792"><ele>431.2</ele><time>2026-04-11T14:26:53.575Z</time></trkpt><trkpt lat="43.8300267" lon="11.516313"><ele>432.6</ele><time>2026-04-11T14:26:55.573Z</time></trkpt><trkpt lat="43.8299491" lon="11.5164441"><ele>434.0</ele><time>2026-04-11T14:26:57.575Z</time></trkpt><trkpt lat="43.8299024" lon="11.5165069"><ele>436.3333333333333</ele><time>2026-04-11T14:26:58.574Z</time></trkpt><trkpt lat="43.8298238" lon="11.5166226"><ele>438.66666666666663</ele><time>2026-04-11T14:27:00.575Z</time></trkpt><trkpt lat="43.82975" lon="11.5167126"><ele>441.0</ele><time>2026-04-11T14:27:02.575Z</time></trkpt><trkpt lat="43.8296963" lon="11.5167703"><ele>443.33333333333337</ele><time>2026-04-11T14:27:03.575Z</time></trkpt><trkpt lat="43.8296489" lon="11.5168344"><ele>445.6666666666667</ele><time>2026-04-11T14:27:04.574Z</time></trkpt><trkpt lat="43.8295911" lon="11.5169258"><ele>448.0</ele><time>2026-04-11T14:27:05.575Z</time></trkpt><trkpt lat="43.8295429" lon="11.5169967"><ele>449.6666666666667</ele><time>2026-04-11T14:27:06.574Z</time></trkpt><trkpt lat="43.829468" lon="11.5171358"><ele>451.33333333333337</ele><time>2026-04-11T14:27:08.575Z</time></trkpt><trkpt lat="43.8294385" lon="11.517227"><ele>453.0</ele><time>2026-04-11T14:27:09.575Z</time></trkpt><trkpt lat="43.8294336" lon="11.5173316"><ele>454.66666666666663</ele><time>2026-04-11T14:27:10.574Z</time></trkpt><trkpt lat="43.8294411" lon="11.5174383"><ele>456.3333333333333</ele><time>2026-04-11T14:27:11.575Z</time></trkpt><trkpt lat="43.8294806" lon="11.5175246"><ele>458.0</ele><time>2026-04-11T14:27:12.574Z</time></trkpt><trkpt lat="43.8295454" lon="11.5176108"><ele>458.0</ele><time>2026-04-11T14:27:13.575Z</time></trkpt><trkpt lat="43.8296147" lon="11.5177118"><ele>458.0</ele><time>2026-04-11T14:27:14.575Z</time></trkpt><trkpt lat="43.8297166" lon="11.5177861"><ele>458.0</ele><time>2026-04-11T14:27:15.573Z</time></trkpt><trkpt lat="43.8298184" lon="11.5178837"><ele>458.0</ele><time>2026-04-11T14:27:16.575Z</time></trkpt><trkpt lat="43.8299048" lon="11.5179837"><ele>458.2</ele><time>2026-04-11T14:27:17.574Z</time></trkpt><trkpt lat="43.8299541" lon="11.51809"><ele>458.4</ele><time>2026-04-11T14:27:18.575Z</time></trkpt><trkpt lat="43.8299771" lon="11.5181939"><ele>458.59999999999997</ele><time>2026-04-11T14:27:19.575Z</time></trkpt><trkpt lat="43.8299874" lon="11.518311"><ele>458.79999999999995</ele><time>2026-04-11T14:27:20.575Z</time></trkpt><trkpt lat="43.8299906" lon="11.518441"><ele>459.0</ele><time>2026-04-11T14:27:21.575Z</time></trkpt><trkpt lat="43.8299751" lon="11.5186004"><ele>459.79999999999995</ele><time>2026-04-11T14:27:22.575Z</time></trkpt><trkpt lat="43.8299758" lon="11.5187382"><ele>460.59999999999997</ele><time>2026-04-11T14:27:23.575Z</time></trkpt><trkpt lat="43.8299515" lon="11.5188538"><ele>461.4</ele><time>2026-04-11T14:27:24.575Z</time></trkpt><trkpt lat="43.8299082" lon="11.5189496"><ele>462.2</ele><time>2026-04-11T14:27:25.574Z</time></trkpt><trkpt lat="43.8297978" lon="11.5190503"><ele>463.0</ele><time>2026-04-11T14:27:27.575Z</time></trkpt><trkpt lat="43.8297386" lon="11.5190986"><ele>463.0</ele><time>2026-04-11T14:27:28.575Z</time></trkpt><trkpt lat="43.8296745" lon="11.5191465"><ele>462.99999999999994</ele><time>2026-04-11T14:27:29.574Z</time></trkpt><trkpt lat="43.8296225" lon="11.5192079"><ele>463.0</ele><time>2026-04-11T14:27:30.575Z</time></trkpt><trkpt lat="43.8295773" lon="11.5192849"><ele>463.0</ele><time>2026-04-11T14:27:31.575Z</time></trkpt><trkpt lat="43.8295417" lon="11.519369"><ele>462.99999999999994</ele><time>2026-04-11T14:27:32.575Z</time></trkpt><trkpt lat="43.8295253" lon="11.5194638"><ele>463.0</ele><time>2026-04-11T14:27:33.575Z</time></trkpt><trkpt lat="43.829509" lon="11.5195643"><ele>463.0</ele><time>2026-04-11T14:27:34.574Z</time></trkpt><trkpt lat="43.8295022" lon="11.5196667"><ele>464.6666666666667</ele><time>2026-04-11T14:27:35.573Z</time></trkpt><trkpt lat="43.8295064" lon="11.5197727"><ele>466.33333333333337</ele><time>2026-04-11T14:27:36.575Z</time></trkpt><trkpt lat="43.8295133" lon="11.5198749"><ele>468.0</ele><time>2026-04-11T14:27:37.575Z</time></trkpt><trkpt lat="43.8295269" lon="11.5199674"><ele>469.66666666666663</ele><time>2026-04-11T14:27:38.575Z</time></trkpt><trkpt lat="43.8295342" lon="11.5200685"><ele>471.3333333333333</ele><time>2026-04-11T14:27:39.575Z</time></trkpt><trkpt lat="43.8295745" lon="11.5201858"><ele>473.0</ele><time>2026-04-11T14:27:40.574Z</time></trkpt><trkpt lat="43.8295928" lon="11.5203051"><ele>472.2</ele><time>2026-04-11T14:27:41.575Z</time></trkpt><trkpt lat="43.8296243" lon="11.5204172"><ele>471.4</ele><time>2026-04-11T14:27:42.575Z</time></trkpt><trkpt lat="43.8296633" lon="11.5205406"><ele>470.59999999999997</ele><time>2026-04-11T14:27:43.575Z</time></trkpt><trkpt lat="43.8297147" lon="11.5206646"><ele>469.79999999999995</ele><time>2026-04-11T14:27:44.574Z</time></trkpt><trkpt lat="43.8297701" lon="11.5207941"><ele>469.0</ele><time>2026-04-11T14:27:45.574Z</time></trkpt><trkpt lat="43.8298403" lon="11.5209209"><ele>469.0</ele><time>2026-04-11T14:27:46.575Z</time></trkpt><trkpt lat="43.829913" lon="11.5210569"><ele>469.0</ele><time>2026-04-11T14:27:47.575Z</time></trkpt><trkpt lat="43.8299761" lon="11.5211891"><ele>469.0</ele><time>2026-04-11T14:27:48.575Z</time></trkpt><trkpt lat="43.8299918" lon="11.5213281"><ele>469.0</ele><time>2026-04-11T14:27:49.575Z</time></trkpt><trkpt lat="43.83" lon="11.5214506"><ele>469.0</ele><time>2026-04-11T14:27:50.574Z</time></trkpt><trkpt lat="43.8299449" lon="11.5215435"><ele>467.75</ele><time>2026-04-11T14:27:51.575Z</time></trkpt><trkpt lat="43.829907" lon="11.5216477"><ele>466.5</ele><time>2026-04-11T14:27:52.574Z</time></trkpt><trkpt lat="43.8298914" lon="11.5217609"><ele>465.25</ele><time>2026-04-11T14:27:53.575Z</time></trkpt><trkpt lat="43.829939" lon="11.5220367"><ele>464.0</ele><time>2026-04-11T14:27:55.575Z</time></trkpt><trkpt lat="43.8300091" lon="11.5222023"><ele>462.5</ele><time>2026-04-11T14:27:56.574Z</time></trkpt><trkpt lat="43.8300988" lon="11.5223746"><ele>461.0</ele><time>2026-04-11T14:27:57.574Z</time></trkpt><trkpt lat="43.8301837" lon="11.5225362"><ele>459.5</ele><time>2026-04-11T14:27:58.573Z</time></trkpt><trkpt lat="43.8302708" lon="11.5226676"><ele>458.0</ele><time>2026-04-11T14:27:59.575Z</time></trkpt><trkpt lat="43.8303769" lon="11.5227699"><ele>461.66666666666663</ele><time>2026-04-11T14:28:00.575Z</time></trkpt><trkpt lat="43.8305054" lon="11.5228687"><ele>465.33333333333337</ele><time>2026-04-11T14:28:01.575Z</time></trkpt><trkpt lat="43.830648" lon="11.5229692"><ele>469.0</ele><time>2026-04-11T14:28:02.574Z</time></trkpt><trkpt lat="43.8307812" lon="11.5230672"><ele>469.0</ele><time>2026-04-11T14:28:03.574Z</time></trkpt><trkpt lat="43.8309029" lon="11.5231535"><ele>469.0</ele><time>2026-04-11T14:28:04.574Z</time></trkpt><trkpt lat="43.8310104" lon="11.5232362"><ele>469.0</ele><time>2026-04-11T14:28:05.575Z</time></trkpt><trkpt lat="43.8310962" lon="11.5233296"><ele>469.0</ele><time>2026-04-11T14:28:06.575Z</time></trkpt><trkpt lat="43.8311522" lon="11.5234485"><ele>469.4</ele><time>2026-04-11T14:28:07.575Z</time></trkpt><trkpt lat="43.8311767" lon="11.5235826"><ele>469.79999999999995</ele><time>2026-04-11T14:28:08.575Z</time></trkpt><trkpt lat="43.831162" lon="11.5237029"><ele>470.20000000000005</ele><time>2026-04-11T14:28:09.575Z</time></trkpt><trkpt lat="43.8311144" lon="11.5238391"><ele>470.6</ele><time>2026-04-11T14:28:10.575Z</time></trkpt><trkpt lat="43.8310651" lon="11.5239742"><ele>471.0</ele><time>2026-04-11T14:28:11.574Z</time></trkpt><trkpt lat="43.8309561" lon="11.5241232"><ele>471.0</ele><time>2026-04-11T14:28:12.575Z</time></trkpt><trkpt lat="43.8308702" lon="11.5242861"><ele>471.0</ele><time>2026-04-11T14:28:13.575Z</time></trkpt><trkpt lat="43.8307755" lon="11.5244615"><ele>471.0</ele><time>2026-04-11T14:28:14.574Z</time></trkpt><trkpt lat="43.8306893" lon="11.5246219"><ele>471.0</ele><time>2026-04-11T14:28:15.575Z</time></trkpt><trkpt lat="43.8306133" lon="11.5247692"><ele>474.5</ele><time>2026-04-11T14:28:16.575Z</time></trkpt><trkpt lat="43.830541" lon="11.524903"><ele>478.0</ele><time>2026-04-11T14:28:17.575Z</time></trkpt><trkpt lat="43.8304624" lon="11.525024"><ele>481.5</ele><time>2026-04-11T14:28:18.575Z</time></trkpt><trkpt lat="43.8303829" lon="11.5251567"><ele>485.0</ele><time>2026-04-11T14:28:19.574Z</time></trkpt><trkpt lat="43.8303064" lon="11.525297"><ele>481.5</ele><time>2026-04-11T14:28:20.575Z</time></trkpt><trkpt lat="43.8302324" lon="11.5254366"><ele>478.0</ele><time>2026-04-11T14:28:21.575Z</time></trkpt><trkpt lat="43.8301649" lon="11.5255801"><ele>474.5</ele><time>2026-04-11T14:28:22.575Z</time></trkpt><trkpt lat="43.8301038" lon="11.5257429"><ele>471.0</ele><time>2026-04-11T14:28:23.575Z</time></trkpt><trkpt lat="43.8300377" lon="11.5259078"><ele>471.0</ele><time>2026-04-11T14:28:24.575Z</time></trkpt><trkpt lat="43.8299898" lon="11.5260735"><ele>471.0</ele><time>2026-04-11T14:28:25.575Z</time></trkpt><trkpt lat="43.8299906" lon="11.5262241"><ele>471.0</ele><time>2026-04-11T14:28:26.575Z</time></trkpt><trkpt lat="43.8300271" lon="11.5263664"><ele>471.0</ele><time>2026-04-11T14:28:27.575Z</time></trkpt><trkpt lat="43.8300384" lon="11.5265054"><ele>471.0</ele><time>2026-04-11T14:28:28.575Z</time></trkpt><trkpt lat="43.8301113" lon="11.5266443"><ele>476.4</ele><time>2026-04-11T14:28:29.575Z</time></trkpt><trkpt lat="43.8301733" lon="11.526767"><ele>481.8</ele><time>2026-04-11T14:28:30.574Z</time></trkpt><trkpt lat="43.8302116" lon="11.5269115"><ele>487.19999999999993</ele><time>2026-04-11T14:28:31.575Z</time></trkpt><trkpt lat="43.830239" lon="11.5270589"><ele>492.59999999999997</ele><time>2026-04-11T14:28:32.575Z</time></trkpt><trkpt lat="43.8302604" lon="11.5272156"><ele>498.0</ele><time>2026-04-11T14:28:33.575Z</time></trkpt><trkpt lat="43.8302807" lon="11.5273704"><ele>498.0</ele><time>2026-04-11T14:28:34.575Z</time></trkpt><trkpt lat="43.8302986" lon="11.5275265"><ele>498.0</ele><time>2026-04-11T14:28:35.575Z</time></trkpt><trkpt lat="43.8303171" lon="11.5276881"><ele>498.0</ele><time>2026-04-11T14:28:36.575Z</time></trkpt><trkpt lat="43.8303358" lon="11.5278469"><ele>498.0</ele><time>2026-04-11T14:28:37.575Z</time></trkpt><trkpt lat="43.8303495" lon="11.5280054"><ele>498.2</ele><time>2026-04-11T14:28:38.574Z</time></trkpt><trkpt lat="43.8303562" lon="11.5281618"><ele>498.4</ele><time>2026-04-11T14:28:39.574Z</time></trkpt><trkpt lat="43.8303537" lon="11.5283168"><ele>498.59999999999997</ele><time>2026-04-11T14:28:40.574Z</time></trkpt><trkpt lat="43.8303445" lon="11.5284673"><ele>498.79999999999995</ele><time>2026-04-11T14:28:41.575Z</time></trkpt><trkpt lat="43.8303364" lon="11.528619"><ele>499.0</ele><time>2026-04-11T14:28:42.574Z</time></trkpt><trkpt lat="43.830323" lon="11.5287707"><ele>499.0</ele><time>2026-04-11T14:28:43.575Z</time></trkpt><trkpt lat="43.8302985" lon="11.5289181"><ele>499.0</ele><time>2026-04-11T14:28:44.574Z</time></trkpt><trkpt lat="43.8302514" lon="11.5290523"><ele>499.0</ele><time>2026-04-11T14:28:45.575Z</time></trkpt><trkpt lat="43.8301739" lon="11.5291572"><ele>499.0</ele><time>2026-04-11T14:28:46.575Z</time></trkpt><trkpt lat="43.8300713" lon="11.5292288"><ele>499.0</ele><time>2026-04-11T14:28:47.575Z</time></trkpt><trkpt lat="43.8299588" lon="11.529291"><ele>498.33333333333337</ele><time>2026-04-11T14:28:48.575Z</time></trkpt><trkpt lat="43.8298537" lon="11.5293443"><ele>497.6666666666667</ele><time>2026-04-11T14:28:49.574Z</time></trkpt><trkpt lat="43.829765" lon="11.5293998"><ele>497.0</ele><time>2026-04-11T14:28:50.574Z</time></trkpt><trkpt lat="43.8297008" lon="11.5294778"><ele>496.33333333333337</ele><time>2026-04-11T14:28:51.575Z</time></trkpt><trkpt lat="43.8296529" lon="11.5295561"><ele>495.6666666666667</ele><time>2026-04-11T14:28:52.574Z</time></trkpt><trkpt lat="43.8296204" lon="11.5296434"><ele>495.0</ele><time>2026-04-11T14:28:53.574Z</time></trkpt><trkpt lat="43.829594" lon="11.5297422"><ele>495.0</ele><time>2026-04-11T14:28:54.575Z</time></trkpt><trkpt lat="43.829562" lon="11.5298493"><ele>495.0</ele><time>2026-04-11T14:28:55.575Z</time></trkpt><trkpt lat="43.8295275" lon="11.529959"><ele>495.0</ele><time>2026-04-11T14:28:56.575Z</time></trkpt><trkpt lat="43.8294953" lon="11.5300707"><ele>495.0</ele><time>2026-04-11T14:28:57.575Z</time></trkpt><trkpt lat="43.829461" lon="11.530188"><ele>495.0</ele><time>2026-04-11T14:28:58.575Z</time></trkpt><trkpt lat="43.8294314" lon="11.5302985"><ele>495.0</ele><time>2026-04-11T14:28:59.575Z</time></trkpt><trkpt lat="43.8294063" lon="11.5303951"><ele>495.42857142857133</ele><time>2026-04-11T14:29:00.575Z</time></trkpt><trkpt lat="43.8293849" lon="11.530486"><ele>495.85714285714283</ele><time>2026-04-11T14:29:01.575Z</time></trkpt><trkpt lat="43.8293693" lon="11.5305859"><ele>496.2857142857142</ele><time>2026-04-11T14:29:02.574Z</time></trkpt><trkpt lat="43.829369" lon="11.5306778"><ele>496.71428571428567</ele><time>2026-04-11T14:29:03.575Z</time></trkpt><trkpt lat="43.8293762" lon="11.5307652"><ele>497.1428571428571</ele><time>2026-04-11T14:29:04.575Z</time></trkpt><trkpt lat="43.8293849" lon="11.5308585"><ele>497.57142857142856</ele><time>2026-04-11T14:29:05.574Z</time></trkpt><trkpt lat="43.8293913" lon="11.5309608"><ele>498.0</ele><time>2026-04-11T14:29:06.575Z</time></trkpt><trkpt lat="43.8293992" lon="11.5310689"><ele>498.0</ele><time>2026-04-11T14:29:07.575Z</time></trkpt><trkpt lat="43.8294017" lon="11.5311739"><ele>498.0</ele><time>2026-04-11T14:29:08.575Z</time></trkpt><trkpt lat="43.8293911" lon="11.5312909"><ele>498.0</ele><time>2026-04-11T14:29:09.575Z</time></trkpt><trkpt lat="43.8293671" lon="11.5314063"><ele>498.0</ele><time>2026-04-11T14:29:10.575Z</time></trkpt><trkpt lat="43.8293356" lon="11.5315109"><ele>498.0</ele><time>2026-04-11T14:29:11.575Z</time></trkpt><trkpt lat="43.8292999" lon="11.5316161"><ele>498.0</ele><time>2026-04-11T14:29:12.575Z</time></trkpt><trkpt lat="43.8292679" lon="11.5317014"><ele>497.0</ele><time>2026-04-11T14:29:13.574Z</time></trkpt><trkpt lat="43.8292377" lon="11.5317833"><ele>495.99999999999994</ele><time>2026-04-11T14:29:14.575Z</time></trkpt><trkpt lat="43.8291854" lon="11.5319264"><ele>494.99999999999994</ele><time>2026-04-11T14:29:16.574Z</time></trkpt><trkpt lat="43.829144" lon="11.5320376"><ele>494.0</ele><time>2026-04-11T14:29:18.575Z</time></trkpt><trkpt lat="43.8290862" lon="11.5321839"><ele>493.0</ele><time>2026-04-11T14:29:21.575Z</time></trkpt><trkpt lat="43.8291381" lon="11.5321192"><ele>492.33333333333337</ele><time>2026-04-11T14:29:43.575Z</time></trkpt><trkpt lat="43.8291753" lon="11.5320145"><ele>491.6666666666667</ele><time>2026-04-11T14:29:45.574Z</time></trkpt><trkpt lat="43.8292007" lon="11.5319339"><ele>491.0</ele><time>2026-04-11T14:29:46.575Z</time></trkpt><trkpt lat="43.8292342" lon="11.5318409"><ele>490.33333333333337</ele><time>2026-04-11T14:29:47.575Z</time></trkpt><trkpt lat="43.8292763" lon="11.5317304"><ele>489.6666666666667</ele><time>2026-04-11T14:29:48.574Z</time></trkpt><trkpt lat="43.8293234" lon="11.5316148"><ele>489.0</ele><time>2026-04-11T14:29:49.575Z</time></trkpt><trkpt lat="43.8293633" lon="11.5314968"><ele>490.79999999999995</ele><time>2026-04-11T14:29:50.575Z</time></trkpt><trkpt lat="43.8293901" lon="11.5313761"><ele>492.59999999999997</ele><time>2026-04-11T14:29:51.574Z</time></trkpt><trkpt lat="43.8294017" lon="11.5312499"><ele>494.4</ele><time>2026-04-11T14:29:52.574Z</time></trkpt><trkpt lat="43.8294002" lon="11.5311151"><ele>496.2</ele><time>2026-04-11T14:29:53.574Z</time></trkpt><trkpt lat="43.8293952" lon="11.5309752"><ele>498.0</ele><time>2026-04-11T14:29:54.575Z</time></trkpt><trkpt lat="43.8293879" lon="11.5308305"><ele>498.0</ele><time>2026-04-11T14:29:55.575Z</time></trkpt><trkpt lat="43.8293818" lon="11.5306965"><ele>498.0</ele><time>2026-04-11T14:29:56.575Z</time></trkpt><trkpt lat="43.8293872" lon="11.530573"><ele>498.0</ele><time>2026-04-11T14:29:57.575Z</time></trkpt><trkpt lat="43.8294043" lon="11.5304701"><ele>498.0</ele><time>2026-04-11T14:29:58.575Z</time></trkpt><trkpt lat="43.8294257" lon="11.5303791"><ele>498.0</ele><time>2026-04-11T14:29:59.575Z</time></trkpt><trkpt lat="43.8294645" lon="11.5302312"><ele>498.0</ele><time>2026-04-11T14:30:01.575Z</time></trkpt><trkpt lat="43.8295037" lon="11.5300995"><ele>497.5</ele><time>2026-04-11T14:30:03.574Z</time></trkpt><trkpt lat="43.8295386" lon="11.5299696"><ele>497.0</ele><time>2026-04-11T14:30:05.575Z</time></trkpt><trkpt lat="43.829558" lon="11.5298865"><ele>496.5</ele><time>2026-04-11T14:30:06.573Z</time></trkpt><trkpt lat="43.8295826" lon="11.5297945"><ele>496.0</ele><time>2026-04-11T14:30:07.575Z</time></trkpt><trkpt lat="43.8296091" lon="11.5297046"><ele>495.5</ele><time>2026-04-11T14:30:08.575Z</time></trkpt><trkpt lat="43.8296635" lon="11.5295698"><ele>495.0</ele><time>2026-04-11T14:30:10.573Z</time></trkpt><trkpt lat="43.8297052" lon="11.5295022"><ele>495.0</ele><time>2026-04-11T14:30:14.574Z</time></trkpt><trkpt lat="43.8296297" lon="11.5295922"><ele>495.0</ele><time>2026-04-11T14:30:58.574Z</time></trkpt><trkpt lat="43.8295969" lon="11.5296934"><ele>495.0</ele><time>2026-04-11T14:30:59.575Z</time></trkpt><trkpt lat="43.8295583" lon="11.5298305"><ele>495.0</ele><time>2026-04-11T14:31:00.575Z</time></trkpt><trkpt lat="43.8295097" lon="11.5300061"><ele>495.0</ele><time>2026-04-11T14:31:01.575Z</time></trkpt><trkpt lat="43.829464" lon="11.53017"><ele>495.0</ele><time>2026-04-11T14:31:02.574Z</time></trkpt><trkpt lat="43.8294254" lon="11.530312"><ele>495.0</ele><time>2026-04-11T14:31:03.575Z</time></trkpt><trkpt lat="43.829393" lon="11.5304372"><ele>495.0</ele><time>2026-04-11T14:31:04.575Z</time></trkpt><trkpt lat="43.8293723" lon="11.530537"><ele>495.0</ele><time>2026-04-11T14:31:05.575Z</time></trkpt><trkpt lat="43.8293678" lon="11.5306987"><ele>495.0</ele><time>2026-04-11T14:31:07.575Z</time></trkpt><trkpt lat="43.8293728" lon="11.5308269"><ele>495.6</ele><time>2026-04-11T14:31:09.574Z</time></trkpt><trkpt lat="43.8293844" lon="11.5309752"><ele>496.2</ele><time>2026-04-11T14:31:11.575Z</time></trkpt><trkpt lat="43.8293954" lon="11.5310974"><ele>496.79999999999995</ele><time>2026-04-11T14:31:12.575Z</time></trkpt><trkpt lat="43.8293926" lon="11.5312329"><ele>497.4</ele><time>2026-04-11T14:31:13.575Z</time></trkpt><trkpt lat="43.8293741" lon="11.5313634"><ele>498.0</ele><time>2026-04-11T14:31:14.574Z</time></trkpt><trkpt lat="43.8293396" lon="11.5314954"><ele>497.0</ele><time>2026-04-11T14:31:15.574Z</time></trkpt><trkpt lat="43.8292962" lon="11.5316216"><ele>495.99999999999994</ele><time>2026-04-11T14:31:16.575Z</time></trkpt><trkpt lat="43.8292566" lon="11.5317299"><ele>494.99999999999994</ele><time>2026-04-11T14:31:17.575Z</time></trkpt><trkpt lat="43.8292222" lon="11.5318287"><ele>494.0</ele><time>2026-04-11T14:31:18.575Z</time></trkpt><trkpt lat="43.8291922" lon="11.5319199"><ele>493.0</ele><time>2026-04-11T14:31:19.575Z</time></trkpt><trkpt lat="43.8291416" lon="11.5320687"><ele>493.0</ele><time>2026-04-11T14:31:21.575Z</time></trkpt><trkpt lat="43.8291039" lon="11.5321723"><ele>492.99999999999994</ele><time>2026-04-11T14:31:23.575Z</time></trkpt><trkpt lat="43.8290635" lon="11.5322611"><ele>492.99999999999994</ele><time>2026-04-11T14:31:35.575Z</time></trkpt><trkpt lat="43.8291256" lon="11.532155"><ele>493.0</ele><time>2026-04-11T14:31:50.575Z</time></trkpt><trkpt lat="43.8291628" lon="11.5320335"><ele>493.0</ele><time>2026-04-11T14:31:52.575Z</time></trkpt><trkpt lat="43.8292177" lon="11.5318873"><ele>492.2</ele><time>2026-04-11T14:31:54.574Z</time></trkpt><trkpt lat="43.8292752" lon="11.5317323"><ele>491.4</ele><time>2026-04-11T14:31:56.575Z</time></trkpt><trkpt lat="43.8293242" lon="11.5315931"><ele>490.59999999999997</ele><time>2026-04-11T14:31:58.574Z</time></trkpt><trkpt lat="43.8293669" lon="11.5314884"><ele>489.79999999999995</ele><time>2026-04-11T14:32:00.575Z</time></trkpt><trkpt lat="43.8293959" lon="11.5313694"><ele>489.0</ele><time>2026-04-11T14:32:03.574Z</time></trkpt><trkpt lat="43.8294049" lon="11.5312536"><ele>490.5</ele><time>2026-04-11T14:32:06.575Z</time></trkpt><trkpt lat="43.8294125" lon="11.5311507"><ele>492.0</ele><time>2026-04-11T14:32:09.575Z</time></trkpt><trkpt lat="43.8294085" lon="11.5310424"><ele>493.5</ele><time>2026-04-11T14:32:13.575Z</time></trkpt><trkpt lat="43.82941" lon="11.5309492"><ele>495.0</ele><time>2026-04-11T14:32:15.575Z</time></trkpt><trkpt lat="43.8293989" lon="11.5308494"><ele>496.5</ele><time>2026-04-11T14:32:17.574Z</time></trkpt><trkpt lat="43.829388" lon="11.5307108"><ele>498.0</ele><time>2026-04-11T14:32:19.574Z</time></trkpt><trkpt lat="43.829392" lon="11.53054"><ele>497.4</ele><time>2026-04-11T14:32:21.574Z</time></trkpt><trkpt lat="43.8294198" lon="11.5303777"><ele>496.79999999999995</ele><time>2026-04-11T14:32:23.575Z</time></trkpt><trkpt lat="43.8294383" lon="11.5302886"><ele>496.2</ele><time>2026-04-11T14:32:24.573Z</time></trkpt><trkpt lat="43.8294678" lon="11.5301803"><ele>495.6</ele><time>2026-04-11T14:32:25.575Z</time></trkpt><trkpt lat="43.8295034" lon="11.5300498"><ele>495.0</ele><time>2026-04-11T14:32:26.575Z</time></trkpt><trkpt lat="43.8295451" lon="11.5298946"><ele>495.0</ele><time>2026-04-11T14:32:27.575Z</time></trkpt><trkpt lat="43.8295883" lon="11.5297436"><ele>495.0</ele><time>2026-04-11T14:32:28.574Z</time></trkpt><trkpt lat="43.8296322" lon="11.5296167"><ele>495.0</ele><time>2026-04-11T14:32:29.575Z</time></trkpt><trkpt lat="43.8296769" lon="11.5295423"><ele>495.0</ele><time>2026-04-11T14:32:30.575Z</time></trkpt><trkpt lat="43.8297572" lon="11.5295296"><ele>495.0</ele><time>2026-04-11T14:32:32.574Z</time></trkpt><trkpt lat="43.8298549" lon="11.5295678"><ele>495.0</ele><time>2026-04-11T14:32:34.575Z</time></trkpt><trkpt lat="43.8299163" lon="11.5295935"><ele>495.0</ele><time>2026-04-11T14:32:35.574Z</time></trkpt><trkpt lat="43.8299806" lon="11.5296137"><ele>495.0</ele><time>2026-04-11T14:32:36.575Z</time></trkpt><trkpt lat="43.8300329" lon="11.5296716"><ele>495.0</ele><time>2026-04-11T14:32:37.574Z</time></trkpt><trkpt lat="43.8300825" lon="11.5298108"><ele>495.0</ele><time>2026-04-11T14:32:39.574Z</time></trkpt><trkpt lat="43.8300771" lon="11.529921"><ele>495.0</ele><time>2026-04-11T14:32:41.575Z</time></trkpt><trkpt lat="43.8300561" lon="11.5300282"><ele>495.0</ele><time>2026-04-11T14:32:45.574Z</time></trkpt><trkpt lat="43.8300194" lon="11.5301289"><ele>495.0</ele><time>2026-04-11T14:33:21.575Z</time></trkpt><trkpt lat="43.8299992" lon="11.530256"><ele>495.0</ele><time>2026-04-11T14:33:23.575Z</time></trkpt><trkpt lat="43.8299878" lon="11.530342"><ele>495.0</ele><time>2026-04-11T14:33:24.575Z</time></trkpt><trkpt lat="43.8299864" lon="11.5304384"><ele>495.0</ele><time>2026-04-11T14:33:25.575Z</time></trkpt><trkpt lat="43.8299941" lon="11.5305531"><ele>495.0</ele><time>2026-04-11T14:33:26.574Z</time></trkpt><trkpt lat="43.8300071" lon="11.5306662"><ele>495.5</ele><time>2026-04-11T14:33:27.574Z</time></trkpt><trkpt lat="43.8300258" lon="11.5307646"><ele>496.0</ele><time>2026-04-11T14:33:28.574Z</time></trkpt><trkpt lat="43.8300596" lon="11.5308428"><ele>496.5</ele><time>2026-04-11T14:33:29.574Z</time></trkpt><trkpt lat="43.8301151" lon="11.5309139"><ele>497.0</ele><time>2026-04-11T14:33:30.575Z</time></trkpt><trkpt lat="43.8301861" lon="11.5309968"><ele>497.5</ele><time>2026-04-11T14:33:31.575Z</time></trkpt><trkpt lat="43.8302646" lon="11.5310885"><ele>498.0</ele><time>2026-04-11T14:33:32.575Z</time></trkpt><trkpt lat="43.8303391" lon="11.5311836"><ele>501.3333333333333</ele><time>2026-04-11T14:33:33.575Z</time></trkpt><trkpt lat="43.8303805" lon="11.5312753"><ele>504.66666666666663</ele><time>2026-04-11T14:33:34.574Z</time></trkpt><trkpt lat="43.8304119" lon="11.5313817"><ele>508.0</ele><time>2026-04-11T14:33:35.575Z</time></trkpt><trkpt lat="43.8304287" lon="11.5315042"><ele>511.3333333333333</ele><time>2026-04-11T14:33:36.575Z</time></trkpt><trkpt lat="43.8304248" lon="11.5316344"><ele>514.6666666666666</ele><time>2026-04-11T14:33:37.575Z</time></trkpt><trkpt lat="43.8303849" lon="11.5317643"><ele>518.0</ele><time>2026-04-11T14:33:38.575Z</time></trkpt><trkpt lat="43.8303236" lon="11.531885"><ele>518.0</ele><time>2026-04-11T14:33:39.575Z</time></trkpt><trkpt lat="43.8302421" lon="11.5319962"><ele>518.0</ele><time>2026-04-11T14:33:40.575Z</time></trkpt><trkpt lat="43.8301542" lon="11.532093"><ele>518.0</ele><time>2026-04-11T14:33:41.575Z</time></trkpt><trkpt lat="43.8300664" lon="11.5321883"><ele>518.0</ele><time>2026-04-11T14:33:42.574Z</time></trkpt><trkpt lat="43.8299904" lon="11.5322693"><ele>518.0</ele><time>2026-04-11T14:33:43.575Z</time></trkpt><trkpt lat="43.829938" lon="11.532355"><ele>516.8</ele><time>2026-04-11T14:33:44.575Z</time></trkpt><trkpt lat="43.8299069" lon="11.5324419"><ele>515.5999999999999</ele><time>2026-04-11T14:33:45.573Z</time></trkpt><trkpt lat="43.8298957" lon="11.5325359"><ele>514.4000000000001</ele><time>2026-04-11T14:33:46.575Z</time></trkpt><trkpt lat="43.8299594" lon="11.5326539"><ele>513.2</ele><time>2026-04-11T14:33:48.575Z</time></trkpt><trkpt lat="43.8300667" lon="11.5326445"><ele>512.0</ele><time>2026-04-11T14:33:50.575Z</time></trkpt><trkpt lat="43.8301753" lon="11.532533"><ele>515.6</ele><time>2026-04-11T14:33:52.575Z</time></trkpt><trkpt lat="43.830234" lon="11.5324781"><ele>519.2</ele><time>2026-04-11T14:33:53.574Z</time></trkpt><trkpt lat="43.8303639" lon="11.532439"><ele>522.8</ele><time>2026-04-11T14:33:55.574Z</time></trkpt><trkpt lat="43.8304641" lon="11.5324689"><ele>526.4</ele><time>2026-04-11T14:33:56.575Z</time></trkpt><trkpt lat="43.8305569" lon="11.5324704"><ele>530.0</ele><time>2026-04-11T14:33:57.575Z</time></trkpt><trkpt lat="43.8306549" lon="11.5324706"><ele>530.0</ele><time>2026-04-11T14:33:58.575Z</time></trkpt><trkpt lat="43.8307538" lon="11.5324698"><ele>530.0</ele><time>2026-04-11T14:33:59.575Z</time></trkpt><trkpt lat="43.8308531" lon="11.5324778"><ele>530.0</ele><time>2026-04-11T14:34:00.575Z</time></trkpt><trkpt lat="43.8309531" lon="11.532484"><ele>530.0</ele><time>2026-04-11T14:34:01.575Z</time></trkpt><trkpt lat="43.8310517" lon="11.5324764"><ele>530.0</ele><time>2026-04-11T14:34:02.574Z</time></trkpt><trkpt lat="43.8311611" lon="11.5324369"><ele>534.5</ele><time>2026-04-11T14:34:03.574Z</time></trkpt><trkpt lat="43.8312645" lon="11.5323814"><ele>539.0</ele><time>2026-04-11T14:34:04.575Z</time></trkpt><trkpt lat="43.8313685" lon="11.532296"><ele>543.5</ele><time>2026-04-11T14:34:05.575Z</time></trkpt><trkpt lat="43.8314743" lon="11.5322098"><ele>548.0</ele><time>2026-04-11T14:34:06.575Z</time></trkpt><trkpt lat="43.831586" lon="11.5321336"><ele>550.25</ele><time>2026-04-11T14:34:07.575Z</time></trkpt><trkpt lat="43.831705" lon="11.5320542"><ele>552.5</ele><time>2026-04-11T14:34:08.575Z</time></trkpt><trkpt lat="43.8318154" lon="11.5319628"><ele>554.75</ele><time>2026-04-11T14:34:09.575Z</time></trkpt><trkpt lat="43.831902" lon="11.5318823"><ele>557.0</ele><time>2026-04-11T14:34:10.575Z</time></trkpt><trkpt lat="43.831962" lon="11.5317914"><ele>557.0</ele><time>2026-04-11T14:34:11.574Z</time></trkpt><trkpt lat="43.8319901" lon="11.5316954"><ele>557.0</ele><time>2026-04-11T14:34:12.574Z</time></trkpt><trkpt lat="43.8320036" lon="11.5315805"><ele>557.0</ele><time>2026-04-11T14:34:13.574Z</time></trkpt><trkpt lat="43.8320137" lon="11.5314734"><ele>557.0</ele><time>2026-04-11T14:34:14.575Z</time></trkpt><trkpt lat="43.8320747" lon="11.5313703"><ele>557.0</ele><time>2026-04-11T14:34:16.575Z</time></trkpt><trkpt lat="43.8321552" lon="11.5314204"><ele>557.0</ele><time>2026-04-11T14:34:19.575Z</time></trkpt><trkpt lat="43.832162" lon="11.5315353"><ele>557.0</ele><time>2026-04-11T14:34:21.574Z</time></trkpt><trkpt lat="43.8321402" lon="11.5316273"><ele>557.0</ele><time>2026-04-11T14:34:22.575Z</time></trkpt><trkpt lat="43.8321078" lon="11.5317374"><ele>557.0</ele><time>2026-04-11T14:34:23.575Z</time></trkpt><trkpt lat="43.8320736" lon="11.5318705"><ele>557.0</ele><time>2026-04-11T14:34:24.575Z</time></trkpt><trkpt lat="43.8320307" lon="11.5320193"><ele>557.0</ele><time>2026-04-11T14:34:25.575Z</time></trkpt><trkpt lat="43.8319841" lon="11.5321825"><ele>561.0</ele><time>2026-04-11T14:34:26.574Z</time></trkpt><trkpt lat="43.8319395" lon="11.5323444"><ele>565.0</ele><time>2026-04-11T14:34:27.575Z</time></trkpt><trkpt lat="43.8318965" lon="11.5325039"><ele>569.0</ele><time>2026-04-11T14:34:28.575Z</time></trkpt><trkpt lat="43.8318539" lon="11.5326639"><ele>573.0</ele><time>2026-04-11T14:34:29.575Z</time></trkpt><trkpt lat="43.8318123" lon="11.5328158"><ele>570.0</ele><time>2026-04-11T14:34:30.575Z</time></trkpt><trkpt lat="43.8317709" lon="11.5329622"><ele>567.0</ele><time>2026-04-11T14:34:31.573Z</time></trkpt><trkpt lat="43.8317304" lon="11.5331029"><ele>564.0</ele><time>2026-04-11T14:34:32.575Z</time></trkpt><trkpt lat="43.8316859" lon="11.5332353"><ele>561.0</ele><time>2026-04-11T14:34:33.575Z</time></trkpt><trkpt lat="43.8316381" lon="11.5333514"><ele>558.0</ele><time>2026-04-11T14:34:34.575Z</time></trkpt><trkpt lat="43.8316028" lon="11.5334512"><ele>558.0</ele><time>2026-04-11T14:34:35.574Z</time></trkpt><trkpt lat="43.8315948" lon="11.5335409"><ele>558.0</ele><time>2026-04-11T14:34:36.575Z</time></trkpt><trkpt lat="43.8316565" lon="11.5336492"><ele>558.0</ele><time>2026-04-11T14:34:38.574Z</time></trkpt><trkpt lat="43.8317814" lon="11.5336335"><ele>558.0</ele><time>2026-04-11T14:34:40.575Z</time></trkpt><trkpt lat="43.8318446" lon="11.5335885"><ele>558.0</ele><time>2026-04-11T14:34:41.575Z</time></trkpt><trkpt lat="43.831897" lon="11.5335107"><ele>558.0</ele><time>2026-04-11T14:34:42.574Z</time></trkpt><trkpt lat="43.8319426" lon="11.5333984"><ele>561.0</ele><time>2026-04-11T14:34:43.574Z</time></trkpt><trkpt lat="43.8319991" lon="11.5332749"><ele>564.0</ele><time>2026-04-11T14:34:44.574Z</time></trkpt><trkpt lat="43.8320554" lon="11.5331564"><ele>567.0</ele><time>2026-04-11T14:34:45.574Z</time></trkpt><trkpt lat="43.8321149" lon="11.5330415"><ele>570.0</ele><time>2026-04-11T14:34:46.575Z</time></trkpt><trkpt lat="43.8321955" lon="11.5329343"><ele>573.0</ele><time>2026-04-11T14:34:47.575Z</time></trkpt><trkpt lat="43.8322687" lon="11.5328215"><ele>573.0</ele><time>2026-04-11T14:34:48.574Z</time></trkpt><trkpt lat="43.8323221" lon="11.5326782"><ele>573.0</ele><time>2026-04-11T14:34:49.574Z</time></trkpt><trkpt lat="43.8323813" lon="11.5325542"><ele>573.0</ele><time>2026-04-11T14:34:50.575Z</time></trkpt><trkpt lat="43.8324271" lon="11.5324319"><ele>573.0</ele><time>2026-04-11T14:34:51.575Z</time></trkpt><trkpt lat="43.832495" lon="11.5323294"><ele>573.0</ele><time>2026-04-11T14:34:52.575Z</time></trkpt><trkpt lat="43.8325644" lon="11.5322524"><ele>577.0</ele><time>2026-04-11T14:34:53.574Z</time></trkpt><trkpt lat="43.8326419" lon="11.5321968"><ele>581.0</ele><time>2026-04-11T14:34:54.575Z</time></trkpt><trkpt lat="43.8327196" lon="11.5321572"><ele>585.0</ele><time>2026-04-11T14:34:55.575Z</time></trkpt><trkpt lat="43.8328367" lon="11.5321803"><ele>589.0</ele><time>2026-04-11T14:34:56.575Z</time></trkpt><trkpt lat="43.8329448" lon="11.5321911"><ele>593.0</ele><time>2026-04-11T14:34:57.573Z</time></trkpt><trkpt lat="43.8330503" lon="11.5321921"><ele>593.0</ele><time>2026-04-11T14:34:58.575Z</time></trkpt><trkpt lat="43.8331377" lon="11.5321873"><ele>593.0</ele><time>2026-04-11T14:34:59.575Z</time></trkpt><trkpt lat="43.8331989" lon="11.5321591"><ele>593.0</ele><time>2026-04-11T14:35:00.574Z</time></trkpt><trkpt lat="43.8332665" lon="11.5320887"><ele>593.0</ele><time>2026-04-11T14:35:01.574Z</time></trkpt><trkpt lat="43.8333071" lon="11.5319881"><ele>593.0</ele><time>2026-04-11T14:35:02.575Z</time></trkpt><trkpt lat="43.8333559" lon="11.5318961"><ele>593.0</ele><time>2026-04-11T14:35:03.575Z</time></trkpt><trkpt lat="43.8333652" lon="11.531776"><ele>591.4</ele><time>2026-04-11T14:35:04.575Z</time></trkpt><trkpt lat="43.8333657" lon="11.5316326"><ele>589.8</ele><time>2026-04-11T14:35:05.575Z</time></trkpt><trkpt lat="43.8333302" lon="11.5314795"><ele>588.2</ele><time>2026-04-11T14:35:06.575Z</time></trkpt><trkpt lat="43.8333152" lon="11.5313343"><ele>586.6</ele><time>2026-04-11T14:35:07.575Z</time></trkpt><trkpt lat="43.8333238" lon="11.531217"><ele>585.0</ele><time>2026-04-11T14:35:08.575Z</time></trkpt><trkpt lat="43.8333501" lon="11.5310988"><ele>583.6666666666666</ele><time>2026-04-11T14:35:09.575Z</time></trkpt><trkpt lat="43.833382" lon="11.5309913"><ele>582.3333333333334</ele><time>2026-04-11T14:35:10.575Z</time></trkpt><trkpt lat="43.8334436" lon="11.5309202"><ele>581.0</ele><time>2026-04-11T14:35:11.575Z</time></trkpt><trkpt lat="43.8335099" lon="11.5308723"><ele>579.6666666666667</ele><time>2026-04-11T14:35:12.574Z</time></trkpt><trkpt lat="43.8335846" lon="11.5308216"><ele>578.3333333333334</ele><time>2026-04-11T14:35:13.574Z</time></trkpt><trkpt lat="43.8336935" lon="11.5308002"><ele>577.0</ele><time>2026-04-11T14:35:14.574Z</time></trkpt><trkpt lat="43.8338053" lon="11.5307647"><ele>579.6</ele><time>2026-04-11T14:35:15.575Z</time></trkpt><trkpt lat="43.8339096" lon="11.5307126"><ele>582.2</ele><time>2026-04-11T14:35:16.575Z</time></trkpt><trkpt lat="43.8339961" lon="11.5306402"><ele>584.8</ele><time>2026-04-11T14:35:17.574Z</time></trkpt><trkpt lat="43.8340671" lon="11.5305524"><ele>587.4</ele><time>2026-04-11T14:35:18.575Z</time></trkpt><trkpt lat="43.8341291" lon="11.5304414"><ele>590.0</ele><time>2026-04-11T14:35:19.575Z</time></trkpt><trkpt lat="43.8341971" lon="11.5303194"><ele>590.0</ele><time>2026-04-11T14:35:20.574Z</time></trkpt><trkpt lat="43.8342028" lon="11.5301589"><ele>590.0</ele><time>2026-04-11T14:35:21.575Z</time></trkpt><trkpt lat="43.8342152" lon="11.5300239"><ele>590.0</ele><time>2026-04-11T14:35:22.575Z</time></trkpt><trkpt lat="43.8342425" lon="11.5299213"><ele>590.0</ele><time>2026-04-11T14:35:23.575Z</time></trkpt><trkpt lat="43.834279" lon="11.5298317"><ele>590.0</ele><time>2026-04-11T14:35:24.575Z</time></trkpt><trkpt lat="43.83433" lon="11.5297442"><ele>590.0</ele><time>2026-04-11T14:35:25.575Z</time></trkpt><trkpt lat="43.8343885" lon="11.5296591"><ele>591.1666666666666</ele><time>2026-04-11T14:35:26.574Z</time></trkpt><trkpt lat="43.8344437" lon="11.5295692"><ele>592.3333333333333</ele><time>2026-04-11T14:35:27.574Z</time></trkpt><trkpt lat="43.8344842" lon="11.5294806"><ele>593.5</ele><time>2026-04-11T14:35:28.574Z</time></trkpt><trkpt lat="43.8345235" lon="11.5294084"><ele>594.6666666666666</ele><time>2026-04-11T14:35:29.574Z</time></trkpt><trkpt lat="43.8346083" lon="11.529324"><ele>595.8333333333334</ele><time>2026-04-11T14:35:31.574Z</time></trkpt><trkpt lat="43.8346663" lon="11.5294032"><ele>597.0</ele><time>2026-04-11T14:35:33.574Z</time></trkpt><trkpt lat="43.8346587" lon="11.5295241"><ele>599.0</ele><time>2026-04-11T14:35:36.575Z</time></trkpt><trkpt lat="43.8346229" lon="11.5296046"><ele>601.0</ele><time>2026-04-11T14:35:38.575Z</time></trkpt><trkpt lat="43.8345802" lon="11.5296945"><ele>603.0</ele><time>2026-04-11T14:35:40.575Z</time></trkpt><trkpt lat="43.8345374" lon="11.5297989"><ele>605.0</ele><time>2026-04-11T14:35:42.575Z</time></trkpt><trkpt lat="43.8345023" lon="11.5299125"><ele>607.0</ele><time>2026-04-11T14:35:44.574Z</time></trkpt><trkpt lat="43.8344731" lon="11.5300148"><ele>609.0</ele><time>2026-04-11T14:35:46.575Z</time></trkpt><trkpt lat="43.8344632" lon="11.5301127"><ele>609.0</ele><time>2026-04-11T14:36:04.575Z</time></trkpt><trkpt lat="43.8344943" lon="11.5299869"><ele>609.0</ele><time>2026-04-11T14:36:12.575Z</time></trkpt><trkpt lat="43.8345272" lon="11.5298606"><ele>609.0</ele><time>2026-04-11T14:36:14.574Z</time></trkpt><trkpt lat="43.8345682" lon="11.5297213"><ele>609.0</ele><time>2026-04-11T14:36:16.575Z</time></trkpt><trkpt lat="43.8346254" lon="11.5295968"><ele>609.0</ele><time>2026-04-11T14:36:18.575Z</time></trkpt><trkpt lat="43.8346621" lon="11.5294762"><ele>609.0</ele><time>2026-04-11T14:36:20.575Z</time></trkpt><trkpt lat="43.8346775" lon="11.5293772"><ele>609.0</ele><time>2026-04-11T14:36:22.575Z</time></trkpt><trkpt lat="43.8347367" lon="11.5293343"><ele>609.0</ele><time>2026-04-11T14:36:25.575Z</time></trkpt><trkpt lat="43.8348131" lon="11.5293328"><ele>609.0</ele><time>2026-04-11T14:36:28.575Z</time></trkpt><trkpt lat="43.8347468" lon="11.5293346"><ele>609.0</ele><time>2026-04-11T14:37:27.575Z</time></trkpt><trkpt lat="43.8346956" lon="11.5293882"><ele>609.0</ele><time>2026-04-11T14:37:31.575Z</time></trkpt><trkpt lat="43.834657" lon="11.5295076"><ele>609.0</ele><time>2026-04-11T14:37:34.575Z</time></trkpt><trkpt lat="43.8346162" lon="11.5295797"><ele>609.0</ele><time>2026-04-11T14:37:35.575Z</time></trkpt><trkpt lat="43.8345789" lon="11.5296541"><ele>609.0</ele><time>2026-04-11T14:37:36.574Z</time></trkpt><trkpt lat="43.8345406" lon="11.5297638"><ele>609.0</ele><time>2026-04-11T14:37:37.574Z</time></trkpt><trkpt lat="43.8345109" lon="11.5298759"><ele>609.0</ele><time>2026-04-11T14:37:38.574Z</time></trkpt><trkpt lat="43.8344856" lon="11.5299858"><ele>609.0</ele><time>2026-04-11T14:37:39.575Z</time></trkpt><trkpt lat="43.8344721" lon="11.5300988"><ele>609.0</ele><time>2026-04-11T14:37:40.575Z</time></trkpt><trkpt lat="43.8344764" lon="11.5302159"><ele>609.0</ele><time>2026-04-11T14:37:41.575Z</time></trkpt><trkpt lat="43.8344966" lon="11.5303372"><ele>609.0</ele><time>2026-04-11T14:37:42.574Z</time></trkpt><trkpt lat="43.8345185" lon="11.5304638"><ele>609.0</ele><time>2026-04-11T14:37:43.575Z</time></trkpt><trkpt lat="43.8345259" lon="11.5305953"><ele>609.0</ele><time>2026-04-11T14:37:44.575Z</time></trkpt><trkpt lat="43.8345111" lon="11.5307173"><ele>609.0</ele><time>2026-04-11T14:37:45.574Z</time></trkpt><trkpt lat="43.8344738" lon="11.5308209"><ele>610.2</ele><time>2026-04-11T14:37:46.575Z</time></trkpt><trkpt lat="43.8344246" lon="11.5309282"><ele>611.4</ele><time>2026-04-11T14:37:47.575Z</time></trkpt><trkpt lat="43.8343543" lon="11.5310373"><ele>612.6</ele><time>2026-04-11T14:37:48.575Z</time></trkpt><trkpt lat="43.8342857" lon="11.5311533"><ele>613.8</ele><time>2026-04-11T14:37:49.574Z</time></trkpt><trkpt lat="43.8342186" lon="11.5312881"><ele>615.0</ele><time>2026-04-11T14:37:50.575Z</time></trkpt><trkpt lat="43.8341464" lon="11.5314303"><ele>615.0</ele><time>2026-04-11T14:37:51.575Z</time></trkpt><trkpt lat="43.834068" lon="11.5315452"><ele>615.0</ele><time>2026-04-11T14:37:52.575Z</time></trkpt><trkpt lat="43.8339822" lon="11.531625"><ele>615.0</ele><time>2026-04-11T14:37:53.575Z</time></trkpt><trkpt lat="43.8339" lon="11.5316781"><ele>615.0</ele><time>2026-04-11T14:37:54.574Z</time></trkpt><trkpt lat="43.8338262" lon="11.5317198"><ele>615.0</ele><time>2026-04-11T14:37:55.575Z</time></trkpt><trkpt lat="43.8338173" lon="11.531864"><ele>615.0</ele><time>2026-04-11T14:37:57.575Z</time></trkpt><trkpt lat="43.833826" lon="11.5319679"><ele>615.0</ele><time>2026-04-11T14:37:58.575Z</time></trkpt><trkpt lat="43.8338312" lon="11.5320867"><ele>615.0</ele><time>2026-04-11T14:37:59.574Z</time></trkpt><trkpt lat="43.8338428" lon="11.5321967"><ele>615.0</ele><time>2026-04-11T14:38:00.574Z</time></trkpt><trkpt lat="43.8338742" lon="11.5322952"><ele>615.0</ele><time>2026-04-11T14:38:01.575Z</time></trkpt><trkpt lat="43.8339205" lon="11.5323921"><ele>615.0</ele><time>2026-04-11T14:38:02.575Z</time></trkpt><trkpt lat="43.833952" lon="11.532483"><ele>616.6</ele><time>2026-04-11T14:38:03.575Z</time></trkpt><trkpt lat="43.8339653" lon="11.5325835"><ele>618.2</ele><time>2026-04-11T14:38:04.575Z</time></trkpt><trkpt lat="43.8339563" lon="11.5327116"><ele>619.8</ele><time>2026-04-11T14:38:05.574Z</time></trkpt><trkpt lat="43.8339336" lon="11.5328597"><ele>621.4</ele><time>2026-04-11T14:38:06.574Z</time></trkpt><trkpt lat="43.8339126" lon="11.5330169"><ele>623.0</ele><time>2026-04-11T14:38:07.575Z</time></trkpt><trkpt lat="43.8339103" lon="11.5331622"><ele>624.6666666666666</ele><time>2026-04-11T14:38:08.575Z</time></trkpt><trkpt lat="43.8339225" lon="11.5333022"><ele>626.3333333333333</ele><time>2026-04-11T14:38:09.574Z</time></trkpt><trkpt lat="43.8339242" lon="11.5334435"><ele>628.0</ele><time>2026-04-11T14:38:10.575Z</time></trkpt><trkpt lat="43.8338941" lon="11.533554"><ele>629.6666666666666</ele><time>2026-04-11T14:38:11.575Z</time></trkpt><trkpt lat="43.8338426" lon="11.5336279"><ele>631.3333333333334</ele><time>2026-04-11T14:38:12.574Z</time></trkpt><trkpt lat="43.8337708" lon="11.5336898"><ele>633.0</ele><time>2026-04-11T14:38:13.574Z</time></trkpt><trkpt lat="43.8337345" lon="11.5337705"><ele>634.5</ele><time>2026-04-11T14:38:14.574Z</time></trkpt><trkpt lat="43.8337166" lon="11.5338568"><ele>636.0</ele><time>2026-04-11T14:38:15.574Z</time></trkpt><trkpt lat="43.8337176" lon="11.5339601"><ele>637.5</ele><time>2026-04-11T14:38:16.574Z</time></trkpt><trkpt lat="43.8337248" lon="11.5340845"><ele>639.0</ele><time>2026-04-11T14:38:17.574Z</time></trkpt><trkpt lat="43.8337133" lon="11.5342064"><ele>640.5</ele><time>2026-04-11T14:38:18.574Z</time></trkpt><trkpt lat="43.8336945" lon="11.5343462"><ele>642.0</ele><time>2026-04-11T14:38:19.574Z</time></trkpt><trkpt lat="43.8336471" lon="11.5344993"><ele>644.0</ele><time>2026-04-11T14:38:20.574Z</time></trkpt><trkpt lat="43.8336129" lon="11.5346463"><ele>646.0</ele><time>2026-04-11T14:38:21.573Z</time></trkpt><trkpt lat="43.8335808" lon="11.5347936"><ele>648.0</ele><time>2026-04-11T14:38:22.573Z</time></trkpt><trkpt lat="43.8335512" lon="11.5349455"><ele>650.0</ele><time>2026-04-11T14:38:23.574Z</time></trkpt><trkpt lat="43.8335196" lon="11.5350921"><ele>652.0</ele><time>2026-04-11T14:38:24.573Z</time></trkpt><trkpt lat="43.8334875" lon="11.5352297"><ele>648.6</ele><time>2026-04-11T14:38:25.574Z</time></trkpt><trkpt lat="43.8334512" lon="11.5353716"><ele>645.2</ele><time>2026-04-11T14:38:26.573Z</time></trkpt><trkpt lat="43.8334097" lon="11.5355083"><ele>641.8</ele><time>2026-04-11T14:38:27.573Z</time></trkpt><trkpt lat="43.8333701" lon="11.5356415"><ele>638.4</ele><time>2026-04-11T14:38:28.573Z</time></trkpt><trkpt lat="43.8333349" lon="11.5357731"><ele>635.0</ele><time>2026-04-11T14:38:29.573Z</time></trkpt><trkpt lat="43.8332997" lon="11.535904"><ele>635.0</ele><time>2026-04-11T14:38:30.573Z</time></trkpt><trkpt lat="43.8332563" lon="11.5360274"><ele>635.0</ele><time>2026-04-11T14:38:31.574Z</time></trkpt><trkpt lat="43.8331961" lon="11.5361259"><ele>635.0</ele><time>2026-04-11T14:38:32.574Z</time></trkpt><trkpt lat="43.8331189" lon="11.5362159"><ele>635.0</ele><time>2026-04-11T14:38:33.574Z</time></trkpt><trkpt lat="43.8330336" lon="11.5363037"><ele>635.0</ele><time>2026-04-11T14:38:34.574Z</time></trkpt><trkpt lat="43.8329327" lon="11.5363905"><ele>635.0</ele><time>2026-04-11T14:38:35.573Z</time></trkpt><trkpt lat="43.8328191" lon="11.5364685"><ele>635.0</ele><time>2026-04-11T14:38:36.573Z</time></trkpt><trkpt lat="43.8327058" lon="11.5365439"><ele>635.0</ele><time>2026-04-11T14:38:37.574Z</time></trkpt><trkpt lat="43.8326089" lon="11.5366332"><ele>635.0</ele><time>2026-04-11T14:38:38.573Z</time></trkpt><trkpt lat="43.832522" lon="11.5367402"><ele>635.0</ele><time>2026-04-11T14:38:39.574Z</time></trkpt><trkpt lat="43.8324345" lon="11.5368672"><ele>635.0</ele><time>2026-04-11T14:38:40.573Z</time></trkpt><trkpt lat="43.8323567" lon="11.5369901"><ele>635.0</ele><time>2026-04-11T14:38:41.574Z</time></trkpt><trkpt lat="43.8322958" lon="11.5371098"><ele>635.0</ele><time>2026-04-11T14:38:42.574Z</time></trkpt><trkpt lat="43.832251" lon="11.5372347"><ele>638.0</ele><time>2026-04-11T14:38:43.574Z</time></trkpt><trkpt lat="43.8322264" lon="11.5373762"><ele>641.0</ele><time>2026-04-11T14:38:44.574Z</time></trkpt><trkpt lat="43.8322205" lon="11.5375335"><ele>644.0</ele><time>2026-04-11T14:38:45.574Z</time></trkpt><trkpt lat="43.8322191" lon="11.5377029"><ele>647.0</ele><time>2026-04-11T14:38:46.573Z</time></trkpt><trkpt lat="43.8322025" lon="11.5378504"><ele>650.0</ele><time>2026-04-11T14:38:47.574Z</time></trkpt><trkpt lat="43.8321615" lon="11.5379687"><ele>652.0</ele><time>2026-04-11T14:38:48.574Z</time></trkpt><trkpt lat="43.8321207" lon="11.5380935"><ele>654.0</ele><time>2026-04-11T14:38:49.573Z</time></trkpt><trkpt lat="43.8320863" lon="11.5382185"><ele>656.0</ele><time>2026-04-11T14:38:50.574Z</time></trkpt><trkpt lat="43.8320656" lon="11.5383273"><ele>658.0</ele><time>2026-04-11T14:38:51.574Z</time></trkpt><trkpt lat="43.8320658" lon="11.5384508"><ele>660.0</ele><time>2026-04-11T14:38:52.573Z</time></trkpt><trkpt lat="43.8320824" lon="11.5385916"><ele>662.4</ele><time>2026-04-11T14:38:53.574Z</time></trkpt><trkpt lat="43.8321048" lon="11.5387224"><ele>664.8</ele><time>2026-04-11T14:38:54.574Z</time></trkpt><trkpt lat="43.8321145" lon="11.538841"><ele>667.2</ele><time>2026-04-11T14:38:55.573Z</time></trkpt><trkpt lat="43.83211" lon="11.5389365"><ele>669.6</ele><time>2026-04-11T14:38:56.574Z</time></trkpt><trkpt lat="43.8321066" lon="11.5390361"><ele>672.0</ele><time>2026-04-11T14:38:57.572Z</time></trkpt><trkpt lat="43.8319965" lon="11.5391533"><ele>672.0</ele><time>2026-04-11T14:38:59.574Z</time></trkpt><trkpt lat="43.8318727" lon="11.539165"><ele>672.0</ele><time>2026-04-11T14:39:00.574Z</time></trkpt><trkpt lat="43.8317768" lon="11.5392246"><ele>672.0</ele><time>2026-04-11T14:39:01.574Z</time></trkpt><trkpt lat="43.8316777" lon="11.539305"><ele>672.0</ele><time>2026-04-11T14:39:02.574Z</time></trkpt><trkpt lat="43.8315824" lon="11.5393793"><ele>671.6666666666666</ele><time>2026-04-11T14:39:03.573Z</time></trkpt><trkpt lat="43.8314912" lon="11.5394254"><ele>671.3333333333334</ele><time>2026-04-11T14:39:04.574Z</time></trkpt><trkpt lat="43.8314102" lon="11.5394699"><ele>671.0</ele><time>2026-04-11T14:39:05.573Z</time></trkpt><trkpt lat="43.8313602" lon="11.5395304"><ele>670.6666666666667</ele><time>2026-04-11T14:39:06.573Z</time></trkpt><trkpt lat="43.8313234" lon="11.5396044"><ele>670.3333333333334</ele><time>2026-04-11T14:39:09.574Z</time></trkpt><trkpt lat="43.8313498" lon="11.5396988"><ele>670.0</ele><time>2026-04-11T14:40:10.574Z</time></trkpt><trkpt lat="43.8314134" lon="11.5398041"><ele>670.0</ele><time>2026-04-11T14:40:12.573Z</time></trkpt><trkpt lat="43.8314813" lon="11.539809"><ele>670.0</ele><time>2026-04-11T14:40:13.574Z</time></trkpt><trkpt lat="43.8315416" lon="11.5397697"><ele>670.0</ele><time>2026-04-11T14:40:14.574Z</time></trkpt><trkpt lat="43.8316029" lon="11.5397011"><ele>670.0</ele><time>2026-04-11T14:40:15.573Z</time></trkpt><trkpt lat="43.8316649" lon="11.5396257"><ele>670.0</ele><time>2026-04-11T14:40:16.574Z</time></trkpt><trkpt lat="43.8317307" lon="11.5395076"><ele>670.0</ele><time>2026-04-11T14:40:17.573Z</time></trkpt><trkpt lat="43.8318203" lon="11.5394384"><ele>670.4</ele><time>2026-04-11T14:40:18.573Z</time></trkpt><trkpt lat="43.8319132" lon="11.5393836"><ele>670.8</ele><time>2026-04-11T14:40:19.574Z</time></trkpt><trkpt lat="43.8320043" lon="11.5393475"><ele>671.2</ele><time>2026-04-11T14:40:20.574Z</time></trkpt><trkpt lat="43.8320844" lon="11.5393327"><ele>671.6</ele><time>2026-04-11T14:40:21.574Z</time></trkpt><trkpt lat="43.8321783" lon="11.5393239"><ele>672.0</ele><time>2026-04-11T14:40:22.574Z</time></trkpt><trkpt lat="43.8322605" lon="11.5392951"><ele>672.0</ele><time>2026-04-11T14:40:23.574Z</time></trkpt><trkpt lat="43.8323349" lon="11.5392802"><ele>672.0</ele><time>2026-04-11T14:40:24.574Z</time></trkpt><trkpt lat="43.8323563" lon="11.5391742"><ele>672.0</ele><time>2026-04-11T14:40:25.574Z</time></trkpt><trkpt lat="43.8323742" lon="11.53909"><ele>672.0</ele><time>2026-04-11T14:40:26.573Z</time></trkpt><trkpt lat="43.8323843" lon="11.5389817"><ele>672.0</ele><time>2026-04-11T14:40:27.573Z</time></trkpt><trkpt lat="43.8323974" lon="11.5388555"><ele>672.0</ele><time>2026-04-11T14:40:28.574Z</time></trkpt><trkpt lat="43.8324233" lon="11.5387418"><ele>673.6666666666666</ele><time>2026-04-11T14:40:29.574Z</time></trkpt><trkpt lat="43.8324682" lon="11.5386408"><ele>675.3333333333334</ele><time>2026-04-11T14:40:30.574Z</time></trkpt><trkpt lat="43.8325316" lon="11.5385475"><ele>677.0</ele><time>2026-04-11T14:40:31.574Z</time></trkpt><trkpt lat="43.8326013" lon="11.5384698"><ele>678.6666666666667</ele><time>2026-04-11T14:40:32.574Z</time></trkpt><trkpt lat="43.832676" lon="11.5384146"><ele>680.3333333333334</ele><time>2026-04-11T14:40:33.574Z</time></trkpt><trkpt lat="43.8327512" lon="11.5383688"><ele>682.0</ele><time>2026-04-11T14:40:34.574Z</time></trkpt><trkpt lat="43.832826" lon="11.538316"><ele>682.0</ele><time>2026-04-11T14:40:35.573Z</time></trkpt><trkpt lat="43.8328853" lon="11.5382347"><ele>682.0</ele><time>2026-04-11T14:40:36.574Z</time></trkpt><trkpt lat="43.8329333" lon="11.5381371"><ele>682.0</ele><time>2026-04-11T14:40:37.574Z</time></trkpt><trkpt lat="43.8329839" lon="11.5380371"><ele>682.0</ele><time>2026-04-11T14:40:38.572Z</time></trkpt><trkpt lat="43.8330452" lon="11.5379475"><ele>682.0</ele><time>2026-04-11T14:40:39.574Z</time></trkpt><trkpt lat="43.8331239" lon="11.5378676"><ele>682.0</ele><time>2026-04-11T14:40:40.574Z</time></trkpt><trkpt lat="43.8332183" lon="11.5377977"><ele>682.5</ele><time>2026-04-11T14:40:41.574Z</time></trkpt><trkpt lat="43.8333204" lon="11.5377428"><ele>683.0</ele><time>2026-04-11T14:40:42.574Z</time></trkpt><trkpt lat="43.8334481" lon="11.5376887"><ele>683.5</ele><time>2026-04-11T14:40:43.574Z</time></trkpt><trkpt lat="43.8335983" lon="11.5376343"><ele>684.0</ele><time>2026-04-11T14:40:44.574Z</time></trkpt><trkpt lat="43.8337565" lon="11.5375731"><ele>684.0</ele><time>2026-04-11T14:40:45.573Z</time></trkpt><trkpt lat="43.8339146" lon="11.5375183"><ele>684.0</ele><time>2026-04-11T14:40:46.574Z</time></trkpt><trkpt lat="43.8340811" lon="11.5374647"><ele>684.0</ele><time>2026-04-11T14:40:47.573Z</time></trkpt><trkpt lat="43.8342395" lon="11.5374187"><ele>685.4000000000001</ele><time>2026-04-11T14:40:48.573Z</time></trkpt><trkpt lat="43.8343731" lon="11.5373569"><ele>686.8</ele><time>2026-04-11T14:40:49.574Z</time></trkpt><trkpt lat="43.8344029" lon="11.5372667"><ele>688.2</ele><time>2026-04-11T14:40:50.574Z</time></trkpt><trkpt lat="43.8344803" lon="11.5371667"><ele>689.5999999999999</ele><time>2026-04-11T14:40:51.574Z</time></trkpt><trkpt lat="43.8345421" lon="11.5370878"><ele>691.0</ele><time>2026-04-11T14:40:52.574Z</time></trkpt><trkpt lat="43.8346132" lon="11.5370381"><ele>691.0</ele><time>2026-04-11T14:40:53.574Z</time></trkpt><trkpt lat="43.8346924" lon="11.5369932"><ele>691.0</ele><time>2026-04-11T14:40:54.574Z</time></trkpt><trkpt lat="43.8347645" lon="11.5369426"><ele>691.0</ele><time>2026-04-11T14:40:55.573Z</time></trkpt><trkpt lat="43.834853" lon="11.5369004"><ele>691.0</ele><time>2026-04-11T14:40:56.574Z</time></trkpt><trkpt lat="43.8349471" lon="11.5368353"><ele>691.0</ele><time>2026-04-11T14:40:57.574Z</time></trkpt><trkpt lat="43.8350457" lon="11.5367631"><ele>692.25</ele><time>2026-04-11T14:40:58.574Z</time></trkpt><trkpt lat="43.8351464" lon="11.5366887"><ele>693.5</ele><time>2026-04-11T14:40:59.573Z</time></trkpt><trkpt lat="43.8352494" lon="11.5366121"><ele>694.75</ele><time>2026-04-11T14:41:00.573Z</time></trkpt><trkpt lat="43.835352" lon="11.5365335"><ele>696.0</ele><time>2026-04-11T14:41:01.573Z</time></trkpt><trkpt lat="43.8354459" lon="11.5364567"><ele>696.0</ele><time>2026-04-11T14:41:02.574Z</time></trkpt><trkpt lat="43.8355286" lon="11.536383"><ele>696.0</ele><time>2026-04-11T14:41:03.574Z</time></trkpt><trkpt lat="43.8356067" lon="11.5363327"><ele>696.0</ele><time>2026-04-11T14:41:04.574Z</time></trkpt><trkpt lat="43.8356785" lon="11.5362992"><ele>696.0</ele><time>2026-04-11T14:41:05.574Z</time></trkpt><trkpt lat="43.8357958" lon="11.536297"><ele>696.0</ele><time>2026-04-11T14:41:07.574Z</time></trkpt><trkpt lat="43.8359023" lon="11.5363601"><ele>690.8</ele><time>2026-04-11T14:41:09.574Z</time></trkpt><trkpt lat="43.8359789" lon="11.5364754"><ele>685.5999999999999</ele><time>2026-04-11T14:41:11.574Z</time></trkpt><trkpt lat="43.8360013" lon="11.5365671"><ele>680.4</ele><time>2026-04-11T14:41:12.574Z</time></trkpt><trkpt lat="43.8360179" lon="11.5366802"><ele>675.2</ele><time>2026-04-11T14:41:13.574Z</time></trkpt><trkpt lat="43.8360331" lon="11.5368126"><ele>670.0</ele><time>2026-04-11T14:41:14.574Z</time></trkpt><trkpt lat="43.8360461" lon="11.5369413"><ele>668.1666666666667</ele><time>2026-04-11T14:41:15.574Z</time></trkpt><trkpt lat="43.8360588" lon="11.537058"><ele>666.3333333333334</ele><time>2026-04-11T14:41:16.573Z</time></trkpt><trkpt lat="43.836059" lon="11.5371676"><ele>664.5</ele><time>2026-04-11T14:41:17.574Z</time></trkpt><trkpt lat="43.8360515" lon="11.5372859"><ele>662.6666666666666</ele><time>2026-04-11T14:41:18.573Z</time></trkpt><trkpt lat="43.836046" lon="11.5374147"><ele>660.8333333333333</ele><time>2026-04-11T14:41:19.573Z</time></trkpt><trkpt lat="43.8360322" lon="11.5375463"><ele>659.0</ele><time>2026-04-11T14:41:20.574Z</time></trkpt><trkpt lat="43.8360034" lon="11.5376757"><ele>667.75</ele><time>2026-04-11T14:41:21.574Z</time></trkpt><trkpt lat="43.8359647" lon="11.5378099"><ele>676.5</ele><time>2026-04-11T14:41:22.573Z</time></trkpt><trkpt lat="43.8359177" lon="11.5379589"><ele>685.25</ele><time>2026-04-11T14:41:23.574Z</time></trkpt><trkpt lat="43.8358577" lon="11.5381385"><ele>694.0</ele><time>2026-04-11T14:41:24.573Z</time></trkpt><trkpt lat="43.8358048" lon="11.5382997"><ele>694.0</ele><time>2026-04-11T14:41:25.574Z</time></trkpt><trkpt lat="43.835757" lon="11.5384479"><ele>694.0</ele><time>2026-04-11T14:41:26.574Z</time></trkpt><trkpt lat="43.8357094" lon="11.538581"><ele>694.0</ele><time>2026-04-11T14:41:27.574Z</time></trkpt><trkpt lat="43.8356701" lon="11.5387039"><ele>694.0</ele><time>2026-04-11T14:41:28.573Z</time></trkpt><trkpt lat="43.8356331" lon="11.5388014"><ele>694.0</ele><time>2026-04-11T14:41:29.573Z</time></trkpt><trkpt lat="43.8355937" lon="11.5388968"><ele>693.0</ele><time>2026-04-11T14:41:30.574Z</time></trkpt><trkpt lat="43.8355549" lon="11.5389946"><ele>692.0</ele><time>2026-04-11T14:41:31.574Z</time></trkpt><trkpt lat="43.8355138" lon="11.5390856"><ele>691.0</ele><time>2026-04-11T14:41:32.574Z</time></trkpt><trkpt lat="43.8354729" lon="11.539179"><ele>690.0</ele><time>2026-04-11T14:41:33.573Z</time></trkpt><trkpt lat="43.8354223" lon="11.539258"><ele>689.0</ele><time>2026-04-11T14:41:34.574Z</time></trkpt><trkpt lat="43.8353512" lon="11.5393915"><ele>688.0</ele><time>2026-04-11T14:41:36.574Z</time></trkpt><trkpt lat="43.8352691" lon="11.5395345"><ele>687.2</ele><time>2026-04-11T14:41:38.574Z</time></trkpt><trkpt lat="43.835221" lon="11.5396675"><ele>686.4</ele><time>2026-04-11T14:41:40.573Z</time></trkpt><trkpt lat="43.8352204" lon="11.5398118"><ele>685.6</ele><time>2026-04-11T14:41:42.574Z</time></trkpt><trkpt lat="43.8352431" lon="11.5399575"><ele>684.8000000000001</ele><time>2026-04-11T14:41:44.574Z</time></trkpt><trkpt lat="43.8352574" lon="11.5400554"><ele>684.0</ele><time>2026-04-11T14:41:45.574Z</time></trkpt><trkpt lat="43.8352717" lon="11.540158"><ele>684.0</ele><time>2026-04-11T14:41:46.572Z</time></trkpt><trkpt lat="43.8352848" lon="11.5402775"><ele>684.0</ele><time>2026-04-11T14:41:47.574Z</time></trkpt><trkpt lat="43.8352924" lon="11.5404033"><ele>684.0</ele><time>2026-04-11T14:41:48.574Z</time></trkpt><trkpt lat="43.8352849" lon="11.5405349"><ele>684.0</ele><time>2026-04-11T14:41:49.572Z</time></trkpt><trkpt lat="43.8352648" lon="11.5406782"><ele>684.0</ele><time>2026-04-11T14:41:50.574Z</time></trkpt><trkpt lat="43.835245" lon="11.5408199"><ele>683.4000000000001</ele><time>2026-04-11T14:41:51.573Z</time></trkpt><trkpt lat="43.8352253" lon="11.5409669"><ele>682.8</ele><time>2026-04-11T14:41:52.574Z</time></trkpt><trkpt lat="43.8352057" lon="11.5411163"><ele>682.2</ele><time>2026-04-11T14:41:53.574Z</time></trkpt><trkpt lat="43.8351861" lon="11.5412627"><ele>681.5999999999999</ele><time>2026-04-11T14:41:54.573Z</time></trkpt><trkpt lat="43.8351819" lon="11.541407"><ele>681.0</ele><time>2026-04-11T14:41:55.574Z</time></trkpt><trkpt lat="43.8352178" lon="11.5415598"><ele>682.1999999999999</ele><time>2026-04-11T14:41:56.573Z</time></trkpt><trkpt lat="43.8352425" lon="11.5417056"><ele>683.4</ele><time>2026-04-11T14:41:57.573Z</time></trkpt><trkpt lat="43.8352781" lon="11.5418491"><ele>684.6</ele><time>2026-04-11T14:41:58.574Z</time></trkpt><trkpt lat="43.8353239" lon="11.5419856"><ele>685.8</ele><time>2026-04-11T14:41:59.573Z</time></trkpt><trkpt lat="43.835366" lon="11.5421405"><ele>687.0</ele><time>2026-04-11T14:42:00.574Z</time></trkpt><trkpt lat="43.835397" lon="11.5422755"><ele>687.4000000000001</ele><time>2026-04-11T14:42:01.574Z</time></trkpt><trkpt lat="43.8354163" lon="11.5424092"><ele>687.8000000000001</ele><time>2026-04-11T14:42:02.574Z</time></trkpt><trkpt lat="43.8354358" lon="11.5425567"><ele>688.2</ele><time>2026-04-11T14:42:03.574Z</time></trkpt><trkpt lat="43.8354589" lon="11.5427036"><ele>688.6</ele><time>2026-04-11T14:42:04.573Z</time></trkpt><trkpt lat="43.8354599" lon="11.5428384"><ele>689.0</ele><time>2026-04-11T14:42:05.573Z</time></trkpt><trkpt lat="43.8354536" lon="11.5429523"><ele>689.0</ele><time>2026-04-11T14:42:06.574Z</time></trkpt><trkpt lat="43.8354331" lon="11.5430715"><ele>689.0</ele><time>2026-04-11T14:42:07.574Z</time></trkpt><trkpt lat="43.8354017" lon="11.5431958"><ele>689.0</ele><time>2026-04-11T14:42:08.574Z</time></trkpt><trkpt lat="43.8353748" lon="11.5433174"><ele>689.0</ele><time>2026-04-11T14:42:09.574Z</time></trkpt><trkpt lat="43.8353568" lon="11.5434382"><ele>689.0</ele><time>2026-04-11T14:42:10.574Z</time></trkpt><trkpt lat="43.8353616" lon="11.5435549"><ele>689.0</ele><time>2026-04-11T14:42:11.574Z</time></trkpt><trkpt lat="43.8353827" lon="11.5436837"><ele>688.2</ele><time>2026-04-11T14:42:12.573Z</time></trkpt><trkpt lat="43.8354112" lon="11.5438158"><ele>687.4000000000001</ele><time>2026-04-11T14:42:13.574Z</time></trkpt><trkpt lat="43.8354441" lon="11.5439411"><ele>686.6</ele><time>2026-04-11T14:42:14.573Z</time></trkpt><trkpt lat="43.8354603" lon="11.5440693"><ele>685.8</ele><time>2026-04-11T14:42:15.573Z</time></trkpt><trkpt lat="43.8354708" lon="11.544185"><ele>685.0</ele><time>2026-04-11T14:42:16.574Z</time></trkpt><trkpt lat="43.8354547" lon="11.544318"><ele>685.0</ele><time>2026-04-11T14:42:17.574Z</time></trkpt><trkpt lat="43.8354351" lon="11.5444658"><ele>685.0</ele><time>2026-04-11T14:42:18.574Z</time></trkpt><trkpt lat="43.8353979" lon="11.5446386"><ele>685.0</ele><time>2026-04-11T14:42:19.574Z</time></trkpt><trkpt lat="43.8353643" lon="11.5448213"><ele>685.0</ele><time>2026-04-11T14:42:20.573Z</time></trkpt><trkpt lat="43.8353343" lon="11.5449813"><ele>685.2</ele><time>2026-04-11T14:42:21.574Z</time></trkpt><trkpt lat="43.8353027" lon="11.5451315"><ele>685.4</ele><time>2026-04-11T14:42:22.574Z</time></trkpt><trkpt lat="43.8352749" lon="11.5452403"><ele>685.5999999999999</ele><time>2026-04-11T14:42:23.573Z</time></trkpt><trkpt lat="43.8352292" lon="11.5453428"><ele>685.8</ele><time>2026-04-11T14:42:24.574Z</time></trkpt><trkpt lat="43.8351773" lon="11.545447"><ele>686.0</ele><time>2026-04-11T14:42:25.574Z</time></trkpt><trkpt lat="43.8350686" lon="11.5454929"><ele>690.1999999999999</ele><time>2026-04-11T14:42:26.574Z</time></trkpt><trkpt lat="43.834986" lon="11.5455525"><ele>694.4</ele><time>2026-04-11T14:42:27.573Z</time></trkpt><trkpt lat="43.8348881" lon="11.545551"><ele>698.6</ele><time>2026-04-11T14:42:28.574Z</time></trkpt><trkpt lat="43.8347893" lon="11.5455724"><ele>702.8</ele><time>2026-04-11T14:42:29.573Z</time></trkpt><trkpt lat="43.8346955" lon="11.545579"><ele>707.0</ele><time>2026-04-11T14:42:30.574Z</time></trkpt><trkpt lat="43.834607" lon="11.5456167"><ele>707.0</ele><time>2026-04-11T14:42:31.573Z</time></trkpt><trkpt lat="43.8345226" lon="11.5456694"><ele>707.0</ele><time>2026-04-11T14:42:33.573Z</time></trkpt><trkpt lat="43.834555" lon="11.5458847"><ele>707.0</ele><time>2026-04-11T14:42:35.573Z</time></trkpt><trkpt lat="43.8345729" lon="11.5460015"><ele>707.0</ele><time>2026-04-11T14:42:36.574Z</time></trkpt><trkpt lat="43.8346095" lon="11.5462321"><ele>705.2</ele><time>2026-04-11T14:42:37.574Z</time></trkpt><trkpt lat="43.8346205" lon="11.5463864"><ele>703.4000000000001</ele><time>2026-04-11T14:42:38.574Z</time></trkpt><trkpt lat="43.8346374" lon="11.5465461"><ele>701.5999999999999</ele><time>2026-04-11T14:42:39.573Z</time></trkpt><trkpt lat="43.8346365" lon="11.5466764"><ele>699.8</ele><time>2026-04-11T14:42:40.574Z</time></trkpt><trkpt lat="43.8346339" lon="11.5468261"><ele>698.0</ele><time>2026-04-11T14:42:41.574Z</time></trkpt><trkpt lat="43.8346161" lon="11.5469861"><ele>700.0</ele><time>2026-04-11T14:42:42.574Z</time></trkpt><trkpt lat="43.8345927" lon="11.547143"><ele>702.0</ele><time>2026-04-11T14:42:43.574Z</time></trkpt><trkpt lat="43.8345532" lon="11.547256"><ele>704.0</ele><time>2026-04-11T14:42:44.574Z</time></trkpt><trkpt lat="43.8345284" lon="11.5473633"><ele>706.0</ele><time>2026-04-11T14:42:45.573Z</time></trkpt><trkpt lat="43.8344886" lon="11.5475177"><ele>708.0</ele><time>2026-04-11T14:42:47.574Z</time></trkpt><trkpt lat="43.8345664" lon="11.5476096"><ele>708.0</ele><time>2026-04-11T14:42:50.573Z</time></trkpt><trkpt lat="43.8346492" lon="11.5476534"><ele>708.0</ele><time>2026-04-11T14:42:53.573Z</time></trkpt><trkpt lat="43.8347565" lon="11.5476727"><ele>708.0</ele><time>2026-04-11T14:42:55.573Z</time></trkpt><trkpt lat="43.8348343" lon="11.5477357"><ele>708.0</ele><time>2026-04-11T14:42:56.574Z</time></trkpt><trkpt lat="43.8348939" lon="11.5477815"><ele>708.0</ele><time>2026-04-11T14:42:57.574Z</time></trkpt><trkpt lat="43.8349428" lon="11.5478386"><ele>708.0</ele><time>2026-04-11T14:42:58.574Z</time></trkpt><trkpt lat="43.8349973" lon="11.5479306"><ele>710.6666666666666</ele><time>2026-04-11T14:42:59.574Z</time></trkpt><trkpt lat="43.8350465" lon="11.5480315"><ele>713.3333333333334</ele><time>2026-04-11T14:43:00.574Z</time></trkpt><trkpt lat="43.8350887" lon="11.5481326"><ele>716.0</ele><time>2026-04-11T14:43:01.574Z</time></trkpt><trkpt lat="43.8351219" lon="11.5482325"><ele>718.6666666666667</ele><time>2026-04-11T14:43:02.574Z</time></trkpt><trkpt lat="43.8351254" lon="11.5483486"><ele>721.3333333333334</ele><time>2026-04-11T14:43:03.573Z</time></trkpt><trkpt lat="43.8351399" lon="11.548453"><ele>724.0</ele><time>2026-04-11T14:43:04.574Z</time></trkpt><trkpt lat="43.8351318" lon="11.5485573"><ele>724.0</ele><time>2026-04-11T14:43:05.574Z</time></trkpt><trkpt lat="43.8351303" lon="11.5486621"><ele>724.0</ele><time>2026-04-11T14:43:06.573Z</time></trkpt><trkpt lat="43.8351052" lon="11.5487871"><ele>724.0</ele><time>2026-04-11T14:43:07.573Z</time></trkpt><trkpt lat="43.8350902" lon="11.5488888"><ele>724.0</ele><time>2026-04-11T14:43:08.573Z</time></trkpt><trkpt lat="43.8350676" lon="11.5489993"><ele>724.0</ele><time>2026-04-11T14:43:09.574Z</time></trkpt><trkpt lat="43.8350439" lon="11.5491086"><ele>724.0</ele><time>2026-04-11T14:43:10.574Z</time></trkpt><trkpt lat="43.835015" lon="11.5492057"><ele>724.1666666666667</ele><time>2026-04-11T14:43:11.574Z</time></trkpt><trkpt lat="43.8349797" lon="11.5493096"><ele>724.3333333333334</ele><time>2026-04-11T14:43:12.574Z</time></trkpt><trkpt lat="43.8349121" lon="11.5494017"><ele>724.5</ele><time>2026-04-11T14:43:13.573Z</time></trkpt><trkpt lat="43.8348593" lon="11.5494797"><ele>724.6666666666666</ele><time>2026-04-11T14:43:14.574Z</time></trkpt><trkpt lat="43.834796" lon="11.5495588"><ele>724.8333333333333</ele><time>2026-04-11T14:43:15.574Z</time></trkpt><trkpt lat="43.8347328" lon="11.5496446"><ele>725.0</ele><time>2026-04-11T14:43:16.574Z</time></trkpt><trkpt lat="43.8346946" lon="11.5497164"><ele>725.0</ele><time>2026-04-11T14:43:17.574Z</time></trkpt><trkpt lat="43.8346535" lon="11.5497871"><ele>725.0</ele><time>2026-04-11T14:43:18.574Z</time></trkpt><trkpt lat="43.8346247" lon="11.5498665"><ele>725.0</ele><time>2026-04-11T14:43:19.574Z</time></trkpt><trkpt lat="43.8346403" lon="11.5499553"><ele>725.0</ele><time>2026-04-11T14:43:20.574Z</time></trkpt><trkpt lat="43.8346589" lon="11.5500485"><ele>725.0</ele><time>2026-04-11T14:43:21.574Z</time></trkpt><trkpt lat="43.8346766" lon="11.550147"><ele>725.0</ele><time>2026-04-11T14:43:22.574Z</time></trkpt><trkpt lat="43.8347325" lon="11.5502661"><ele>725.0</ele><time>2026-04-11T14:43:23.574Z</time></trkpt><trkpt lat="43.8347745" lon="11.5503898"><ele>726.8</ele><time>2026-04-11T14:43:24.574Z</time></trkpt><trkpt lat="43.8348076" lon="11.5505221"><ele>728.6</ele><time>2026-04-11T14:43:25.573Z</time></trkpt><trkpt lat="43.834832" lon="11.5506458"><ele>730.4000000000001</ele><time>2026-04-11T14:43:26.573Z</time></trkpt><trkpt lat="43.8348546" lon="11.5507769"><ele>732.2</ele><time>2026-04-11T14:43:27.573Z</time></trkpt><trkpt lat="43.8348872" lon="11.5508864"><ele>734.0</ele><time>2026-04-11T14:43:28.573Z</time></trkpt><trkpt lat="43.8349379" lon="11.5509874"><ele>734.0</ele><time>2026-04-11T14:43:29.574Z</time></trkpt><trkpt lat="43.8350147" lon="11.5510702"><ele>734.0</ele><time>2026-04-11T14:43:30.573Z</time></trkpt><trkpt lat="43.8350822" lon="11.5511556"><ele>734.0</ele><time>2026-04-11T14:43:31.574Z</time></trkpt><trkpt lat="43.8351392" lon="11.5512425"><ele>734.0</ele><time>2026-04-11T14:43:32.574Z</time></trkpt><trkpt lat="43.8352032" lon="11.5513651"><ele>734.0</ele><time>2026-04-11T14:43:33.574Z</time></trkpt><trkpt lat="43.8352635" lon="11.5514676"><ele>733.1666666666666</ele><time>2026-04-11T14:43:34.574Z</time></trkpt><trkpt lat="43.8353308" lon="11.5515604"><ele>732.3333333333333</ele><time>2026-04-11T14:43:35.574Z</time></trkpt><trkpt lat="43.8354189" lon="11.5516132"><ele>731.5</ele><time>2026-04-11T14:43:36.574Z</time></trkpt><trkpt lat="43.8355018" lon="11.5516651"><ele>730.6666666666666</ele><time>2026-04-11T14:43:37.574Z</time></trkpt><trkpt lat="43.8355767" lon="11.5517248"><ele>729.8333333333334</ele><time>2026-04-11T14:43:38.573Z</time></trkpt><trkpt lat="43.8356112" lon="11.551808"><ele>729.0</ele><time>2026-04-11T14:43:39.574Z</time></trkpt><trkpt lat="43.8356199" lon="11.551907"><ele>729.0</ele><time>2026-04-11T14:43:40.574Z</time></trkpt><trkpt lat="43.8356574" lon="11.5519925"><ele>729.0</ele><time>2026-04-11T14:43:41.574Z</time></trkpt><trkpt lat="43.8356808" lon="11.5520909"><ele>729.0</ele><time>2026-04-11T14:43:42.574Z</time></trkpt><trkpt lat="43.8356827" lon="11.5521859"><ele>729.0</ele><time>2026-04-11T14:43:43.574Z</time></trkpt><trkpt lat="43.8356942" lon="11.55229"><ele>729.0</ele><time>2026-04-11T14:43:44.574Z</time></trkpt><trkpt lat="43.8356796" lon="11.5524226"><ele>729.0</ele><time>2026-04-11T14:43:45.574Z</time></trkpt><trkpt lat="43.8356171" lon="11.5525662"><ele>729.8333333333334</ele><time>2026-04-11T14:43:46.573Z</time></trkpt><trkpt lat="43.8355964" lon="11.5526954"><ele>730.6666666666666</ele><time>2026-04-11T14:43:48.573Z</time></trkpt><trkpt lat="43.8355583" lon="11.552772"><ele>731.5</ele><time>2026-04-11T14:43:51.574Z</time></trkpt><trkpt lat="43.8355954" lon="11.5528633"><ele>732.3333333333333</ele><time>2026-04-11T14:43:58.574Z</time></trkpt><trkpt lat="43.8355941" lon="11.5527728"><ele>733.1666666666666</ele><time>2026-04-11T14:44:52.574Z</time></trkpt><trkpt lat="43.835665" lon="11.5527364"><ele>734.0</ele><time>2026-04-11T14:44:55.573Z</time></trkpt><trkpt lat="43.8357754" lon="11.5527361"><ele>734.0</ele><time>2026-04-11T14:44:56.573Z</time></trkpt><trkpt lat="43.8358593" lon="11.5527535"><ele>734.0</ele><time>2026-04-11T14:44:57.574Z</time></trkpt><trkpt lat="43.835953" lon="11.5527675"><ele>734.0</ele><time>2026-04-11T14:44:58.574Z</time></trkpt><trkpt lat="43.8360385" lon="11.5527754"><ele>734.0</ele><time>2026-04-11T14:44:59.574Z</time></trkpt><trkpt lat="43.836111" lon="11.5527827"><ele>734.0</ele><time>2026-04-11T14:45:00.574Z</time></trkpt><trkpt lat="43.8361789" lon="11.5528004"><ele>734.0</ele><time>2026-04-11T14:45:01.574Z</time></trkpt><trkpt lat="43.836251" lon="11.5528067"><ele>734.0</ele><time>2026-04-11T14:45:02.574Z</time></trkpt><trkpt lat="43.8363552" lon="11.552858"><ele>734.0</ele><time>2026-04-11T14:45:04.574Z</time></trkpt><trkpt lat="43.8364374" lon="11.5528749"><ele>734.0</ele><time>2026-04-11T14:45:05.573Z</time></trkpt><trkpt lat="43.8365067" lon="11.5528913"><ele>734.0</ele><time>2026-04-11T14:45:06.574Z</time></trkpt><trkpt lat="43.8365872" lon="11.5529185"><ele>734.0</ele><time>2026-04-11T14:45:07.573Z</time></trkpt><trkpt lat="43.8366543" lon="11.5529526"><ele>734.0</ele><time>2026-04-11T14:45:08.574Z</time></trkpt><trkpt lat="43.8367611" lon="11.5530629"><ele>735.2857142857142</ele><time>2026-04-11T14:45:10.573Z</time></trkpt><trkpt lat="43.8368155" lon="11.5531071"><ele>736.5714285714287</ele><time>2026-04-11T14:45:11.573Z</time></trkpt><trkpt lat="43.8368766" lon="11.5531487"><ele>737.8571428571429</ele><time>2026-04-11T14:45:12.574Z</time></trkpt><trkpt lat="43.8369534" lon="11.5531685"><ele>739.1428571428571</ele><time>2026-04-11T14:45:13.574Z</time></trkpt><trkpt lat="43.8370366" lon="11.5531918"><ele>740.4285714285713</ele><time>2026-04-11T14:45:14.574Z</time></trkpt><trkpt lat="43.8371194" lon="11.5531959"><ele>741.7142857142858</ele><time>2026-04-11T14:45:15.574Z</time></trkpt><trkpt lat="43.8371852" lon="11.553215"><ele>743.0</ele><time>2026-04-11T14:45:16.574Z</time></trkpt><trkpt lat="43.8372838" lon="11.5532388"><ele>743.0</ele><time>2026-04-11T14:45:18.573Z</time></trkpt><trkpt lat="43.8373788" lon="11.5532775"><ele>743.0</ele><time>2026-04-11T14:45:20.574Z</time></trkpt><trkpt lat="43.8374922" lon="11.5532858"><ele>743.0</ele><time>2026-04-11T14:45:22.573Z</time></trkpt><trkpt lat="43.83757" lon="11.5532633"><ele>743.0</ele><time>2026-04-11T14:45:24.574Z</time></trkpt><trkpt lat="43.8376399" lon="11.5532385"><ele>743.0</ele><time>2026-04-11T14:45:27.574Z</time></trkpt><trkpt lat="43.8375712" lon="11.553251"><ele>743.0</ele><time>2026-04-11T14:45:32.574Z</time></trkpt><trkpt lat="43.8374839" lon="11.5532822"><ele>743.0</ele><time>2026-04-11T14:45:34.574Z</time></trkpt><trkpt lat="43.8373685" lon="11.5532904"><ele>743.0</ele><time>2026-04-11T14:45:36.574Z</time></trkpt><trkpt lat="43.8372735" lon="11.5532556"><ele>743.0</ele><time>2026-04-11T14:45:38.574Z</time></trkpt><trkpt lat="43.8371974" lon="11.5532216"><ele>743.0</ele><time>2026-04-11T14:45:40.574Z</time></trkpt><trkpt lat="43.8371218" lon="11.553193"><ele>743.0</ele><time>2026-04-11T14:45:42.574Z</time></trkpt><trkpt lat="43.8370085" lon="11.5531828"><ele>743.0</ele><time>2026-04-11T14:45:44.574Z</time></trkpt><trkpt lat="43.8369196" lon="11.5531581"><ele>743.0</ele><time>2026-04-11T14:45:46.574Z</time></trkpt><trkpt lat="43.836838" lon="11.5531218"><ele>743.0</ele><time>2026-04-11T14:45:48.574Z</time></trkpt><trkpt lat="43.8367526" lon="11.5530723"><ele>743.0</ele><time>2026-04-11T14:45:51.573Z</time></trkpt><trkpt lat="43.836677" lon="11.5530462"><ele>743.0</ele><time>2026-04-11T14:45:53.574Z</time></trkpt><trkpt lat="43.8365917" lon="11.5530054"><ele>743.0</ele><time>2026-04-11T14:45:55.573Z</time></trkpt><trkpt lat="43.8365215" lon="11.5529422"><ele>740.5999999999999</ele><time>2026-04-11T14:45:57.573Z</time></trkpt><trkpt lat="43.8364044" lon="11.5528659"><ele>738.1999999999999</ele><time>2026-04-11T14:45:59.574Z</time></trkpt><trkpt lat="43.8363451" lon="11.5528292"><ele>735.8</ele><time>2026-04-11T14:46:00.574Z</time></trkpt><trkpt lat="43.8362282" lon="11.5527922"><ele>733.4</ele><time>2026-04-11T14:46:02.574Z</time></trkpt><trkpt lat="43.8361097" lon="11.5527586"><ele>731.0</ele><time>2026-04-11T14:46:04.573Z</time></trkpt><trkpt lat="43.8360348" lon="11.5527617"><ele>731.5</ele><time>2026-04-11T14:46:05.574Z</time></trkpt><trkpt lat="43.8359416" lon="11.5527569"><ele>732.0</ele><time>2026-04-11T14:46:06.574Z</time></trkpt><trkpt lat="43.8358654" lon="11.5527658"><ele>732.5</ele><time>2026-04-11T14:46:07.574Z</time></trkpt><trkpt lat="43.8357936" lon="11.5527618"><ele>733.0</ele><time>2026-04-11T14:46:08.574Z</time></trkpt><trkpt lat="43.8357279" lon="11.5527655"><ele>733.5</ele><time>2026-04-11T14:46:09.574Z</time></trkpt><trkpt lat="43.8356352" lon="11.5527942"><ele>734.0</ele><time>2026-04-11T14:46:11.574Z</time></trkpt><trkpt lat="43.8355862" lon="11.5528561"><ele>733.0</ele><time>2026-04-11T14:46:13.573Z</time></trkpt><trkpt lat="43.8355514" lon="11.5530158"><ele>732.0</ele><time>2026-04-11T14:46:15.573Z</time></trkpt><trkpt lat="43.8355283" lon="11.5531312"><ele>731.0</ele><time>2026-04-11T14:46:16.573Z</time></trkpt><trkpt lat="43.8354897" lon="11.5532515"><ele>730.0</ele><time>2026-04-11T14:46:17.573Z</time></trkpt><trkpt lat="43.8354318" lon="11.5533555"><ele>729.0</ele><time>2026-04-11T14:46:18.573Z</time></trkpt><trkpt lat="43.8353699" lon="11.5534518"><ele>729.0</ele><time>2026-04-11T14:46:19.574Z</time></trkpt><trkpt lat="43.8353229" lon="11.5535452"><ele>729.0</ele><time>2026-04-11T14:46:20.574Z</time></trkpt><trkpt lat="43.8352694" lon="11.5536422"><ele>729.0</ele><time>2026-04-11T14:46:21.574Z</time></trkpt><trkpt lat="43.8352491" lon="11.5537536"><ele>729.0</ele><time>2026-04-11T14:46:22.574Z</time></trkpt><trkpt lat="43.835215" lon="11.5538777"><ele>729.0</ele><time>2026-04-11T14:46:23.574Z</time></trkpt><trkpt lat="43.8351943" lon="11.5540454"><ele>726.25</ele><time>2026-04-11T14:46:24.573Z</time></trkpt><trkpt lat="43.8351866" lon="11.5542543"><ele>723.5</ele><time>2026-04-11T14:46:25.574Z</time></trkpt><trkpt lat="43.8351712" lon="11.5544452"><ele>720.75</ele><time>2026-04-11T14:46:26.574Z</time></trkpt><trkpt lat="43.8351536" lon="11.5546291"><ele>718.0</ele><time>2026-04-11T14:46:27.574Z</time></trkpt><trkpt lat="43.8351328" lon="11.5548083"><ele>718.0</ele><time>2026-04-11T14:46:28.573Z</time></trkpt><trkpt lat="43.8351076" lon="11.5549581"><ele>718.0</ele><time>2026-04-11T14:46:29.574Z</time></trkpt><trkpt lat="43.8350989" lon="11.5550829"><ele>718.0</ele><time>2026-04-11T14:46:30.574Z</time></trkpt><trkpt lat="43.8351031" lon="11.555199"><ele>718.0</ele><time>2026-04-11T14:46:31.573Z</time></trkpt><trkpt lat="43.8351391" lon="11.5552748"><ele>718.0</ele><time>2026-04-11T14:46:32.574Z</time></trkpt><trkpt lat="43.8351932" lon="11.5553503"><ele>718.0</ele><time>2026-04-11T14:46:33.574Z</time></trkpt><trkpt lat="43.8352431" lon="11.5554209"><ele>715.4</ele><time>2026-04-11T14:46:34.573Z</time></trkpt><trkpt lat="43.8353029" lon="11.5553753"><ele>712.8</ele><time>2026-04-11T14:46:35.574Z</time></trkpt><trkpt lat="43.8353843" lon="11.5552409"><ele>710.2</ele><time>2026-04-11T14:46:37.573Z</time></trkpt><trkpt lat="43.8354028" lon="11.5551258"><ele>707.6</ele><time>2026-04-11T14:46:38.574Z</time></trkpt><trkpt lat="43.8354328" lon="11.5549905"><ele>705.0</ele><time>2026-04-11T14:46:39.574Z</time></trkpt><trkpt lat="43.8354689" lon="11.5548461"><ele>705.0</ele><time>2026-04-11T14:46:40.574Z</time></trkpt><trkpt lat="43.8355032" lon="11.5547073"><ele>705.0</ele><time>2026-04-11T14:46:41.574Z</time></trkpt><trkpt lat="43.8355648" lon="11.5545882"><ele>705.0</ele><time>2026-04-11T14:46:42.574Z</time></trkpt><trkpt lat="43.8356048" lon="11.5544756"><ele>705.0</ele><time>2026-04-11T14:46:43.573Z</time></trkpt><trkpt lat="43.8356411" lon="11.5543889"><ele>705.0</ele><time>2026-04-11T14:46:44.573Z</time></trkpt><trkpt lat="43.8357188" lon="11.5543248"><ele>705.0</ele><time>2026-04-11T14:46:46.574Z</time></trkpt><trkpt lat="43.8358168" lon="11.5543714"><ele>705.0</ele><time>2026-04-11T14:46:48.574Z</time></trkpt><trkpt lat="43.8358882" lon="11.554485"><ele>705.0</ele><time>2026-04-11T14:46:50.573Z</time></trkpt><trkpt lat="43.8358989" lon="11.5546112"><ele>705.0</ele><time>2026-04-11T14:46:52.573Z</time></trkpt><trkpt lat="43.8358706" lon="11.5547599"><ele>705.0</ele><time>2026-04-11T14:46:54.574Z</time></trkpt><trkpt lat="43.8358657" lon="11.554905"><ele>705.0</ele><time>2026-04-11T14:46:56.574Z</time></trkpt><trkpt lat="43.8358522" lon="11.5550689"><ele>705.0</ele><time>2026-04-11T14:46:58.574Z</time></trkpt><trkpt lat="43.8358363" lon="11.5552218"><ele>705.0</ele><time>2026-04-11T14:47:00.574Z</time></trkpt><trkpt lat="43.8357915" lon="11.5553697"><ele>705.0</ele><time>2026-04-11T14:47:02.574Z</time></trkpt><trkpt lat="43.8357175" lon="11.5554814"><ele>702.0</ele><time>2026-04-11T14:47:04.573Z</time></trkpt><trkpt lat="43.8356425" lon="11.555598"><ele>699.0</ele><time>2026-04-11T14:47:06.574Z</time></trkpt><trkpt lat="43.8355779" lon="11.5557236"><ele>696.0</ele><time>2026-04-11T14:47:08.574Z</time></trkpt><trkpt lat="43.8355492" lon="11.5558671"><ele>693.0</ele><time>2026-04-11T14:47:10.573Z</time></trkpt><trkpt lat="43.8355657" lon="11.5559524"><ele>690.0</ele><time>2026-04-11T14:47:11.574Z</time></trkpt><trkpt lat="43.8355518" lon="11.5561316"><ele>687.5</ele><time>2026-04-11T14:47:13.574Z</time></trkpt><trkpt lat="43.8355506" lon="11.5562462"><ele>685.0</ele><time>2026-04-11T14:47:14.574Z</time></trkpt><trkpt lat="43.8355394" lon="11.5563452"><ele>682.5</ele><time>2026-04-11T14:47:15.574Z</time></trkpt><trkpt lat="43.835523" lon="11.5564392"><ele>680.0</ele><time>2026-04-11T14:47:16.574Z</time></trkpt><trkpt lat="43.8354603" lon="11.5565533"><ele>677.5</ele><time>2026-04-11T14:47:18.574Z</time></trkpt><trkpt lat="43.8353449" lon="11.5565402"><ele>675.0</ele><time>2026-04-11T14:47:20.574Z</time></trkpt><trkpt lat="43.835236" lon="11.5564218"><ele>675.0</ele><time>2026-04-11T14:47:22.574Z</time></trkpt><trkpt lat="43.8351788" lon="11.5563428"><ele>675.0</ele><time>2026-04-11T14:47:23.574Z</time></trkpt><trkpt lat="43.8351177" lon="11.5562577"><ele>675.0</ele><time>2026-04-11T14:47:24.574Z</time></trkpt><trkpt lat="43.8350634" lon="11.5562049"><ele>675.0</ele><time>2026-04-11T14:47:25.573Z</time></trkpt><trkpt lat="43.8349973" lon="11.5561003"><ele>675.0</ele><time>2026-04-11T14:47:27.573Z</time></trkpt><trkpt lat="43.8349271" lon="11.556041"><ele>675.0</ele><time>2026-04-11T14:47:29.574Z</time></trkpt><trkpt lat="43.8348631" lon="11.5559845"><ele>676.6</ele><time>2026-04-11T14:47:32.573Z</time></trkpt><trkpt lat="43.8347844" lon="11.555986"><ele>678.2</ele><time>2026-04-11T14:47:35.574Z</time></trkpt><trkpt lat="43.8346978" lon="11.5560477"><ele>679.8</ele><time>2026-04-11T14:47:37.574Z</time></trkpt><trkpt lat="43.8346136" lon="11.5561335"><ele>681.4</ele><time>2026-04-11T14:47:39.573Z</time></trkpt><trkpt lat="43.8345103" lon="11.5562102"><ele>683.0</ele><time>2026-04-11T14:47:41.574Z</time></trkpt><trkpt lat="43.8344532" lon="11.5562573"><ele>683.0</ele><time>2026-04-11T14:47:42.574Z</time></trkpt><trkpt lat="43.8343576" lon="11.5563221"><ele>683.0</ele><time>2026-04-11T14:47:44.572Z</time></trkpt><trkpt lat="43.8343047" lon="11.5563746"><ele>683.0</ele><time>2026-04-11T14:47:45.574Z</time></trkpt><trkpt lat="43.8342098" lon="11.5565249"><ele>683.0</ele><time>2026-04-11T14:47:47.573Z</time></trkpt><trkpt lat="43.8341785" lon="11.5566099"><ele>683.0</ele><time>2026-04-11T14:47:48.574Z</time></trkpt><trkpt lat="43.8341114" lon="11.5567648"><ele>683.2857142857143</ele><time>2026-04-11T14:47:50.574Z</time></trkpt><trkpt lat="43.834079" lon="11.5568427"><ele>683.5714285714286</ele><time>2026-04-11T14:47:51.574Z</time></trkpt><trkpt lat="43.8340401" lon="11.5569348"><ele>683.8571428571429</ele><time>2026-04-11T14:47:52.574Z</time></trkpt><trkpt lat="43.834001" lon="11.5570232"><ele>684.1428571428571</ele><time>2026-04-11T14:47:53.574Z</time></trkpt><trkpt lat="43.833951" lon="11.5570973"><ele>684.4285714285714</ele><time>2026-04-11T14:47:54.574Z</time></trkpt><trkpt lat="43.833893" lon="11.5571635"><ele>684.7142857142857</ele><time>2026-04-11T14:47:55.574Z</time></trkpt><trkpt lat="43.8338419" lon="11.5572314"><ele>685.0</ele><time>2026-04-11T14:47:56.572Z</time></trkpt><trkpt lat="43.833787" lon="11.5572908"><ele>686.0</ele><time>2026-04-11T14:47:57.574Z</time></trkpt><trkpt lat="43.8337199" lon="11.5573441"><ele>687.0</ele><time>2026-04-11T14:47:58.574Z</time></trkpt><trkpt lat="43.8336092" lon="11.5573762"><ele>688.0</ele><time>2026-04-11T14:47:59.574Z</time></trkpt><trkpt lat="43.8335364" lon="11.5574318"><ele>689.0</ele><time>2026-04-11T14:48:00.574Z</time></trkpt><trkpt lat="43.833473" lon="11.5575132"><ele>690.0</ele><time>2026-04-11T14:48:01.574Z</time></trkpt><trkpt lat="43.8334113" lon="11.5576749"><ele>690.0</ele><time>2026-04-11T14:48:03.573Z</time></trkpt><trkpt lat="43.8333965" lon="11.5578035"><ele>690.0</ele><time>2026-04-11T14:48:04.574Z</time></trkpt><trkpt lat="43.8333907" lon="11.5579221"><ele>690.0</ele><time>2026-04-11T14:48:05.574Z</time></trkpt><trkpt lat="43.833396" lon="11.5580387"><ele>690.0</ele><time>2026-04-11T14:48:06.574Z</time></trkpt><trkpt lat="43.8334065" lon="11.558141"><ele>690.0</ele><time>2026-04-11T14:48:07.574Z</time></trkpt><trkpt lat="43.8334474" lon="11.5582162"><ele>690.0</ele><time>2026-04-11T14:48:08.574Z</time></trkpt><trkpt lat="43.8334754" lon="11.5583113"><ele>685.1666666666666</ele><time>2026-04-11T14:48:09.574Z</time></trkpt><trkpt lat="43.8335492" lon="11.5583208"><ele>680.3333333333334</ele><time>2026-04-11T14:48:10.573Z</time></trkpt><trkpt lat="43.8336429" lon="11.5583645"><ele>675.5</ele><time>2026-04-11T14:48:11.574Z</time></trkpt><trkpt lat="43.8337061" lon="11.5584306"><ele>670.6666666666667</ele><time>2026-04-11T14:48:12.573Z</time></trkpt><trkpt lat="43.8337639" lon="11.558548"><ele>665.8333333333334</ele><time>2026-04-11T14:48:14.574Z</time></trkpt><trkpt lat="43.8337548" lon="11.5586616"><ele>661.0</ele><time>2026-04-11T14:48:16.574Z</time></trkpt><trkpt lat="43.833632" lon="11.5587473"><ele>660.8</ele><time>2026-04-11T14:48:18.574Z</time></trkpt><trkpt lat="43.8335133" lon="11.5587562"><ele>660.5999999999999</ele><time>2026-04-11T14:48:19.573Z</time></trkpt><trkpt lat="43.8334285" lon="11.5587926"><ele>660.4</ele><time>2026-04-11T14:48:20.574Z</time></trkpt><trkpt lat="43.8333411" lon="11.5588286"><ele>660.2</ele><time>2026-04-11T14:48:21.574Z</time></trkpt><trkpt lat="43.8332575" lon="11.5588884"><ele>660.0</ele><time>2026-04-11T14:48:22.574Z</time></trkpt><trkpt lat="43.8331829" lon="11.5589731"><ele>660.0</ele><time>2026-04-11T14:48:23.574Z</time></trkpt><trkpt lat="43.833112" lon="11.5590736"><ele>660.0</ele><time>2026-04-11T14:48:24.574Z</time></trkpt><trkpt lat="43.8330315" lon="11.5591682"><ele>660.0</ele><time>2026-04-11T14:48:25.574Z</time></trkpt><trkpt lat="43.8329491" lon="11.5592986"><ele>660.0</ele><time>2026-04-11T14:48:26.574Z</time></trkpt><trkpt lat="43.8328669" lon="11.559444"><ele>658.5</ele><time>2026-04-11T14:48:27.574Z</time></trkpt><trkpt lat="43.8327952" lon="11.5595739"><ele>657.0</ele><time>2026-04-11T14:48:28.574Z</time></trkpt><trkpt lat="43.8327087" lon="11.5596679"><ele>655.5</ele><time>2026-04-11T14:48:29.574Z</time></trkpt><trkpt lat="43.8326203" lon="11.5597732"><ele>654.0</ele><time>2026-04-11T14:48:30.573Z</time></trkpt><trkpt lat="43.8325356" lon="11.5598765"><ele>654.0</ele><time>2026-04-11T14:48:31.573Z</time></trkpt><trkpt lat="43.8324583" lon="11.5599995"><ele>654.0</ele><time>2026-04-11T14:48:32.573Z</time></trkpt><trkpt lat="43.8323794" lon="11.5600926"><ele>654.0</ele><time>2026-04-11T14:48:33.574Z</time></trkpt><trkpt lat="43.8323101" lon="11.5601536"><ele>654.0</ele><time>2026-04-11T14:48:34.574Z</time></trkpt><trkpt lat="43.8322503" lon="11.5602188"><ele>654.0</ele><time>2026-04-11T14:48:35.574Z</time></trkpt><trkpt lat="43.8321431" lon="11.5602039"><ele>654.0</ele><time>2026-04-11T14:48:37.574Z</time></trkpt><trkpt lat="43.8320695" lon="11.5601459"><ele>654.0</ele><time>2026-04-11T14:48:38.574Z</time></trkpt><trkpt lat="43.8319907" lon="11.5601095"><ele>654.0</ele><time>2026-04-11T14:48:39.574Z</time></trkpt><trkpt lat="43.8318916" lon="11.5600402"><ele>654.0</ele><time>2026-04-11T14:48:40.572Z</time></trkpt><trkpt lat="43.8317959" lon="11.5599968"><ele>654.0</ele><time>2026-04-11T14:48:41.574Z</time></trkpt><trkpt lat="43.8317111" lon="11.5599464"><ele>656.2</ele><time>2026-04-11T14:48:42.574Z</time></trkpt><trkpt lat="43.8316247" lon="11.5599094"><ele>658.4000000000001</ele><time>2026-04-11T14:48:43.574Z</time></trkpt><trkpt lat="43.8315617" lon="11.5599728"><ele>660.6</ele><time>2026-04-11T14:48:44.573Z</time></trkpt><trkpt lat="43.8314833" lon="11.5599934"><ele>662.8</ele><time>2026-04-11T14:48:45.574Z</time></trkpt><trkpt lat="43.8314326" lon="11.5600792"><ele>665.0</ele><time>2026-04-11T14:48:46.574Z</time></trkpt><trkpt lat="43.8313625" lon="11.5602262"><ele>665.0</ele><time>2026-04-11T14:48:47.572Z</time></trkpt><trkpt lat="43.8313008" lon="11.5603606"><ele>665.0</ele><time>2026-04-11T14:48:48.572Z</time></trkpt><trkpt lat="43.831217" lon="11.5604814"><ele>665.0</ele><time>2026-04-11T14:48:49.573Z</time></trkpt><trkpt lat="43.8311358" lon="11.5605618"><ele>665.0</ele><time>2026-04-11T14:48:50.574Z</time></trkpt><trkpt lat="43.8310798" lon="11.5606585"><ele>665.0</ele><time>2026-04-11T14:48:51.573Z</time></trkpt><trkpt lat="43.8310164" lon="11.5607593"><ele>665.2</ele><time>2026-04-11T14:48:52.574Z</time></trkpt><trkpt lat="43.8309838" lon="11.5608759"><ele>665.4</ele><time>2026-04-11T14:48:53.574Z</time></trkpt><trkpt lat="43.8309442" lon="11.5609795"><ele>665.5999999999999</ele><time>2026-04-11T14:48:54.573Z</time></trkpt><trkpt lat="43.8309377" lon="11.5611467"><ele>665.8</ele><time>2026-04-11T14:48:55.573Z</time></trkpt><trkpt lat="43.8309253" lon="11.5612626"><ele>666.0</ele><time>2026-04-11T14:48:56.573Z</time></trkpt><trkpt lat="43.8309474" lon="11.5614018"><ele>666.0</ele><time>2026-04-11T14:48:57.574Z</time></trkpt><trkpt lat="43.8309361" lon="11.5615121"><ele>666.0</ele><time>2026-04-11T14:48:58.573Z</time></trkpt><trkpt lat="43.8309205" lon="11.5616206"><ele>666.0</ele><time>2026-04-11T14:48:59.574Z</time></trkpt><trkpt lat="43.8308917" lon="11.5617626"><ele>666.0</ele><time>2026-04-11T14:49:00.574Z</time></trkpt><trkpt lat="43.8308708" lon="11.5619007"><ele>666.0</ele><time>2026-04-11T14:49:01.574Z</time></trkpt><trkpt lat="43.8308465" lon="11.5620351"><ele>663.5</ele><time>2026-04-11T14:49:02.573Z</time></trkpt><trkpt lat="43.830827" lon="11.5621669"><ele>661.0</ele><time>2026-04-11T14:49:03.573Z</time></trkpt><trkpt lat="43.8307978" lon="11.5623172"><ele>658.5</ele><time>2026-04-11T14:49:05.574Z</time></trkpt><trkpt lat="43.8307611" lon="11.5624095"><ele>656.0</ele><time>2026-04-11T14:49:06.574Z</time></trkpt><trkpt lat="43.8307214" lon="11.5624842"><ele>653.5</ele><time>2026-04-11T14:49:07.573Z</time></trkpt><trkpt lat="43.8306549" lon="11.5625164"><ele>651.0</ele><time>2026-04-11T14:49:08.574Z</time></trkpt><trkpt lat="43.8305363" lon="11.5626268"><ele>651.0</ele><time>2026-04-11T14:49:10.573Z</time></trkpt><trkpt lat="43.8304656" lon="11.5626766"><ele>651.0</ele><time>2026-04-11T14:49:11.573Z</time></trkpt><trkpt lat="43.8303918" lon="11.5627254"><ele>651.0</ele><time>2026-04-11T14:49:12.574Z</time></trkpt><trkpt lat="43.8303248" lon="11.5627732"><ele>651.0</ele><time>2026-04-11T14:49:13.574Z</time></trkpt><trkpt lat="43.8302666" lon="11.5628327"><ele>651.0</ele><time>2026-04-11T14:49:14.573Z</time></trkpt><trkpt lat="43.8301936" lon="11.5628771"><ele>651.0</ele><time>2026-04-11T14:49:15.574Z</time></trkpt><trkpt lat="43.8301234" lon="11.5629258"><ele>651.4</ele><time>2026-04-11T14:49:16.574Z</time></trkpt><trkpt lat="43.8300476" lon="11.5629709"><ele>651.8</ele><time>2026-04-11T14:49:17.574Z</time></trkpt><trkpt lat="43.8299705" lon="11.5630279"><ele>652.1999999999999</ele><time>2026-04-11T14:49:18.573Z</time></trkpt><trkpt lat="43.8298578" lon="11.5631655"><ele>652.5999999999999</ele><time>2026-04-11T14:49:20.574Z</time></trkpt><trkpt lat="43.8297794" lon="11.5632876"><ele>653.0</ele><time>2026-04-11T14:49:21.574Z</time></trkpt><trkpt lat="43.8297256" lon="11.5633717"><ele>653.0</ele><time>2026-04-11T14:49:22.573Z</time></trkpt><trkpt lat="43.8296724" lon="11.5634636"><ele>653.0</ele><time>2026-04-11T14:49:23.573Z</time></trkpt><trkpt lat="43.8296259" lon="11.5635543"><ele>653.0</ele><time>2026-04-11T14:49:24.573Z</time></trkpt><trkpt lat="43.8295843" lon="11.5636288"><ele>653.0</ele><time>2026-04-11T14:49:25.574Z</time></trkpt><trkpt lat="43.8295474" lon="11.5637295"><ele>653.0</ele><time>2026-04-11T14:49:26.573Z</time></trkpt><trkpt lat="43.8294932" lon="11.5638284"><ele>653.0</ele><time>2026-04-11T14:49:27.574Z</time></trkpt><trkpt lat="43.8294543" lon="11.5639168"><ele>651.5</ele><time>2026-04-11T14:49:28.574Z</time></trkpt><trkpt lat="43.8294393" lon="11.5640116"><ele>650.0</ele><time>2026-04-11T14:49:29.573Z</time></trkpt><trkpt lat="43.8294015" lon="11.5640981"><ele>648.5</ele><time>2026-04-11T14:49:30.574Z</time></trkpt><trkpt lat="43.8293767" lon="11.5642256"><ele>647.0</ele><time>2026-04-11T14:49:31.574Z</time></trkpt><trkpt lat="43.8293406" lon="11.5643384"><ele>645.5</ele><time>2026-04-11T14:49:32.573Z</time></trkpt><trkpt lat="43.829316" lon="11.5644528"><ele>644.0</ele><time>2026-04-11T14:49:33.574Z</time></trkpt><trkpt lat="43.8292874" lon="11.5645698"><ele>644.0</ele><time>2026-04-11T14:49:34.574Z</time></trkpt><trkpt lat="43.8292646" lon="11.5646653"><ele>644.0</ele><time>2026-04-11T14:49:35.573Z</time></trkpt><trkpt lat="43.8292354" lon="11.5647443"><ele>644.0</ele><time>2026-04-11T14:49:36.573Z</time></trkpt><trkpt lat="43.8291267" lon="11.5648064"><ele>644.0</ele><time>2026-04-11T14:49:38.574Z</time></trkpt><trkpt lat="43.8290727" lon="11.5647543"><ele>644.0</ele><time>2026-04-11T14:49:39.573Z</time></trkpt><trkpt lat="43.8289536" lon="11.56467"><ele>644.0</ele><time>2026-04-11T14:49:41.574Z</time></trkpt><trkpt lat="43.8288883" lon="11.5646064"><ele>644.0</ele><time>2026-04-11T14:49:42.574Z</time></trkpt><trkpt lat="43.8288338" lon="11.5645324"><ele>644.0</ele><time>2026-04-11T14:49:43.574Z</time></trkpt><trkpt lat="43.8287852" lon="11.5644546"><ele>644.0</ele><time>2026-04-11T14:49:44.574Z</time></trkpt><trkpt lat="43.8287348" lon="11.564362"><ele>644.0</ele><time>2026-04-11T14:49:45.574Z</time></trkpt><trkpt lat="43.8286859" lon="11.5642742"><ele>644.0</ele><time>2026-04-11T14:49:46.574Z</time></trkpt><trkpt lat="43.8286418" lon="11.5641986"><ele>646.1666666666666</ele><time>2026-04-11T14:49:47.574Z</time></trkpt><trkpt lat="43.8285874" lon="11.5640963"><ele>648.3333333333333</ele><time>2026-04-11T14:49:48.574Z</time></trkpt><trkpt lat="43.8285432" lon="11.5640035"><ele>650.5</ele><time>2026-04-11T14:49:49.573Z</time></trkpt><trkpt lat="43.8285018" lon="11.5639061"><ele>652.6666666666666</ele><time>2026-04-11T14:49:50.574Z</time></trkpt><trkpt lat="43.8284515" lon="11.5638181"><ele>654.8333333333334</ele><time>2026-04-11T14:49:51.573Z</time></trkpt><trkpt lat="43.8284146" lon="11.5637439"><ele>657.0</ele><time>2026-04-11T14:49:52.573Z</time></trkpt><trkpt lat="43.828355" lon="11.5636774"><ele>660.3333333333334</ele><time>2026-04-11T14:49:53.573Z</time></trkpt><trkpt lat="43.8283001" lon="11.5636083"><ele>663.6666666666666</ele><time>2026-04-11T14:49:54.573Z</time></trkpt><trkpt lat="43.8282434" lon="11.5635464"><ele>667.0</ele><time>2026-04-11T14:49:55.574Z</time></trkpt><trkpt lat="43.8281468" lon="11.5634771"><ele>670.3333333333333</ele><time>2026-04-11T14:49:57.573Z</time></trkpt><trkpt lat="43.8280577" lon="11.563491"><ele>673.6666666666666</ele><time>2026-04-11T14:49:58.573Z</time></trkpt><trkpt lat="43.8279972" lon="11.5635209"><ele>677.0</ele><time>2026-04-11T14:49:59.573Z</time></trkpt><trkpt lat="43.8278961" lon="11.5636248"><ele>673.0</ele><time>2026-04-11T14:50:01.574Z</time></trkpt><trkpt lat="43.8279009" lon="11.5637785"><ele>669.0</ele><time>2026-04-11T14:50:02.574Z</time></trkpt><trkpt lat="43.8278601" lon="11.5638862"><ele>665.0</ele><time>2026-04-11T14:50:03.574Z</time></trkpt><trkpt lat="43.8278463" lon="11.5640076"><ele>661.0</ele><time>2026-04-11T14:50:04.574Z</time></trkpt><trkpt lat="43.8278356" lon="11.5641519"><ele>657.0</ele><time>2026-04-11T14:50:05.573Z</time></trkpt><trkpt lat="43.8278237" lon="11.5642901"><ele>657.0</ele><time>2026-04-11T14:50:06.574Z</time></trkpt><trkpt lat="43.8278078" lon="11.564414"><ele>657.0</ele><time>2026-04-11T14:50:07.574Z</time></trkpt><trkpt lat="43.8278006" lon="11.5645357"><ele>657.0</ele><time>2026-04-11T14:50:08.573Z</time></trkpt><trkpt lat="43.8277867" lon="11.5646461"><ele>657.0</ele><time>2026-04-11T14:50:09.574Z</time></trkpt><trkpt lat="43.82776" lon="11.5647449"><ele>657.0</ele><time>2026-04-11T14:50:10.574Z</time></trkpt><trkpt lat="43.8276713" lon="11.5648254"><ele>657.0</ele><time>2026-04-11T14:50:12.574Z</time></trkpt><trkpt lat="43.8275885" lon="11.5648601"><ele>657.0</ele><time>2026-04-11T14:50:13.574Z</time></trkpt><trkpt lat="43.827512" lon="11.5649064"><ele>657.0</ele><time>2026-04-11T14:50:14.573Z</time></trkpt><trkpt lat="43.8274441" lon="11.5649848"><ele>657.0</ele><time>2026-04-11T14:50:15.574Z</time></trkpt><trkpt lat="43.8273735" lon="11.5650494"><ele>657.0</ele><time>2026-04-11T14:50:16.574Z</time></trkpt><trkpt lat="43.8273048" lon="11.5650973"><ele>657.0</ele><time>2026-04-11T14:50:17.574Z</time></trkpt><trkpt lat="43.8272353" lon="11.5651422"><ele>657.0</ele><time>2026-04-11T14:50:18.573Z</time></trkpt><trkpt lat="43.8271718" lon="11.5651126"><ele>657.0</ele><time>2026-04-11T14:50:19.574Z</time></trkpt><trkpt lat="43.8270929" lon="11.5651009"><ele>657.0</ele><time>2026-04-11T14:50:20.574Z</time></trkpt><trkpt lat="43.8270237" lon="11.5650764"><ele>657.0</ele><time>2026-04-11T14:50:21.573Z</time></trkpt><trkpt lat="43.8269509" lon="11.5650693"><ele>657.0</ele><time>2026-04-11T14:50:22.574Z</time></trkpt><trkpt lat="43.8268618" lon="11.5651687"><ele>657.0</ele><time>2026-04-11T14:50:24.574Z</time></trkpt><trkpt lat="43.8268689" lon="11.5652619"><ele>657.0</ele><time>2026-04-11T14:50:25.574Z</time></trkpt><trkpt lat="43.8268451" lon="11.5653676"><ele>656.8333333333334</ele><time>2026-04-11T14:50:26.574Z</time></trkpt><trkpt lat="43.8268336" lon="11.5654765"><ele>656.6666666666666</ele><time>2026-04-11T14:50:27.574Z</time></trkpt><trkpt lat="43.8268182" lon="11.5655878"><ele>656.5</ele><time>2026-04-11T14:50:28.573Z</time></trkpt><trkpt lat="43.8267935" lon="11.5656684"><ele>656.3333333333333</ele><time>2026-04-11T14:50:29.574Z</time></trkpt><trkpt lat="43.8267364" lon="11.5657502"><ele>656.1666666666666</ele><time>2026-04-11T14:50:30.572Z</time></trkpt><trkpt lat="43.8266814" lon="11.5658599"><ele>656.0</ele><time>2026-04-11T14:50:31.574Z</time></trkpt><trkpt lat="43.8266442" lon="11.5659739"><ele>656.0</ele><time>2026-04-11T14:50:32.574Z</time></trkpt><trkpt lat="43.8266013" lon="11.5660866"><ele>656.0</ele><time>2026-04-11T14:50:33.574Z</time></trkpt><trkpt lat="43.8265601" lon="11.5662111"><ele>656.0</ele><time>2026-04-11T14:50:34.573Z</time></trkpt><trkpt lat="43.826523" lon="11.5663227"><ele>656.0</ele><time>2026-04-11T14:50:35.574Z</time></trkpt><trkpt lat="43.8264558" lon="11.5663989"><ele>656.0</ele><time>2026-04-11T14:50:36.574Z</time></trkpt><trkpt lat="43.8263892" lon="11.5664915"><ele>652.6666666666666</ele><time>2026-04-11T14:50:37.574Z</time></trkpt><trkpt lat="43.8263239" lon="11.5665921"><ele>649.3333333333333</ele><time>2026-04-11T14:50:38.574Z</time></trkpt><trkpt lat="43.8262648" lon="11.5666827"><ele>646.0</ele><time>2026-04-11T14:50:39.574Z</time></trkpt><trkpt lat="43.8261994" lon="11.5667765"><ele>642.6666666666666</ele><time>2026-04-11T14:50:40.574Z</time></trkpt><trkpt lat="43.8261372" lon="11.5668428"><ele>639.3333333333334</ele><time>2026-04-11T14:50:41.574Z</time></trkpt><trkpt lat="43.8260728" lon="11.5669281"><ele>636.0</ele><time>2026-04-11T14:50:42.574Z</time></trkpt><trkpt lat="43.826016" lon="11.5669873"><ele>634.4</ele><time>2026-04-11T14:50:43.574Z</time></trkpt><trkpt lat="43.8259609" lon="11.567032"><ele>632.8</ele><time>2026-04-11T14:50:44.574Z</time></trkpt><trkpt lat="43.8258779" lon="11.5671343"><ele>631.1999999999999</ele><time>2026-04-11T14:50:46.573Z</time></trkpt><trkpt lat="43.8258483" lon="11.5672792"><ele>629.6</ele><time>2026-04-11T14:50:48.574Z</time></trkpt><trkpt lat="43.8259407" lon="11.567315"><ele>628.0</ele><time>2026-04-11T14:50:50.574Z</time></trkpt><trkpt lat="43.8260447" lon="11.5672785"><ele>626.8</ele><time>2026-04-11T14:50:52.574Z</time></trkpt><trkpt lat="43.8261402" lon="11.5672085"><ele>625.5999999999999</ele><time>2026-04-11T14:50:54.574Z</time></trkpt><trkpt lat="43.826216" lon="11.5671144"><ele>624.4000000000001</ele><time>2026-04-11T14:50:56.574Z</time></trkpt><trkpt lat="43.8262918" lon="11.5670354"><ele>623.2</ele><time>2026-04-11T14:50:58.573Z</time></trkpt><trkpt lat="43.8263531" lon="11.5670037"><ele>622.0</ele><time>2026-04-11T14:50:59.574Z</time></trkpt><trkpt lat="43.8264506" lon="11.5669157"><ele>619.8000000000001</ele><time>2026-04-11T14:51:01.574Z</time></trkpt><trkpt lat="43.8265131" lon="11.56687"><ele>617.6</ele><time>2026-04-11T14:51:02.574Z</time></trkpt><trkpt lat="43.8265934" lon="11.5667795"><ele>615.4000000000001</ele><time>2026-04-11T14:51:04.574Z</time></trkpt><trkpt lat="43.8266557" lon="11.5667333"><ele>613.2</ele><time>2026-04-11T14:51:05.574Z</time></trkpt><trkpt lat="43.8267601" lon="11.5666371"><ele>611.0</ele><time>2026-04-11T14:51:07.573Z</time></trkpt><trkpt lat="43.8268505" lon="11.5665312"><ele>611.0</ele><time>2026-04-11T14:51:09.574Z</time></trkpt><trkpt lat="43.8269253" lon="11.5663964"><ele>611.0</ele><time>2026-04-11T14:51:11.573Z</time></trkpt><trkpt lat="43.8269898" lon="11.5662483"><ele>611.0</ele><time>2026-04-11T14:51:13.574Z</time></trkpt><trkpt lat="43.827029" lon="11.5661761"><ele>611.0</ele><time>2026-04-11T14:51:14.574Z</time></trkpt><trkpt lat="43.827081" lon="11.566032"><ele>611.0</ele><time>2026-04-11T14:51:16.574Z</time></trkpt><trkpt lat="43.8271654" lon="11.5659385"><ele>611.0</ele><time>2026-04-11T14:51:18.574Z</time></trkpt><trkpt lat="43.8272555" lon="11.5659904"><ele>611.0</ele><time>2026-04-11T14:51:21.574Z</time></trkpt><trkpt lat="43.8272797" lon="11.5660899"><ele>611.0</ele><time>2026-04-11T14:51:23.574Z</time></trkpt><trkpt lat="43.8272453" lon="11.5661799"><ele>611.0</ele><time>2026-04-11T14:51:25.574Z</time></trkpt><trkpt lat="43.8271684" lon="11.566282"><ele>611.0</ele><time>2026-04-11T14:51:27.573Z</time></trkpt><trkpt lat="43.8271147" lon="11.5664424"><ele>611.0</ele><time>2026-04-11T14:51:29.574Z</time></trkpt><trkpt lat="43.8270883" lon="11.566534"><ele>611.0</ele><time>2026-04-11T14:51:30.573Z</time></trkpt><trkpt lat="43.8270557" lon="11.5666185"><ele>611.0</ele><time>2026-04-11T14:51:31.573Z</time></trkpt><trkpt lat="43.8270271" lon="11.5667172"><ele>611.0</ele><time>2026-04-11T14:51:32.574Z</time></trkpt><trkpt lat="43.8269981" lon="11.5668217"><ele>611.0</ele><time>2026-04-11T14:51:33.574Z</time></trkpt><trkpt lat="43.8269755" lon="11.5669291"><ele>611.0</ele><time>2026-04-11T14:51:34.573Z</time></trkpt><trkpt lat="43.8269429" lon="11.5670333"><ele>608.7142857142858</ele><time>2026-04-11T14:51:35.574Z</time></trkpt><trkpt lat="43.8269172" lon="11.5671323"><ele>606.4285714285714</ele><time>2026-04-11T14:51:36.574Z</time></trkpt><trkpt lat="43.8269061" lon="11.5672194"><ele>604.1428571428571</ele><time>2026-04-11T14:51:37.574Z</time></trkpt><trkpt lat="43.8269042" lon="11.5673219"><ele>601.8571428571429</ele><time>2026-04-11T14:51:38.573Z</time></trkpt><trkpt lat="43.8268996" lon="11.5674227"><ele>599.5714285714286</ele><time>2026-04-11T14:51:39.574Z</time></trkpt><trkpt lat="43.826899" lon="11.567521"><ele>597.2857142857143</ele><time>2026-04-11T14:51:40.573Z</time></trkpt><trkpt lat="43.8268994" lon="11.5676187"><ele>595.0</ele><time>2026-04-11T14:51:41.574Z</time></trkpt><trkpt lat="43.826886" lon="11.5677098"><ele>595.0</ele><time>2026-04-11T14:51:42.574Z</time></trkpt><trkpt lat="43.8268768" lon="11.5678125"><ele>595.0</ele><time>2026-04-11T14:51:43.573Z</time></trkpt><trkpt lat="43.8268613" lon="11.5679193"><ele>595.0</ele><time>2026-04-11T14:51:44.573Z</time></trkpt><trkpt lat="43.8268293" lon="11.5680193"><ele>595.0</ele><time>2026-04-11T14:51:45.574Z</time></trkpt><trkpt lat="43.8267967" lon="11.568114"><ele>595.0</ele><time>2026-04-11T14:51:46.574Z</time></trkpt><trkpt lat="43.826743" lon="11.5681734"><ele>595.0</ele><time>2026-04-11T14:51:47.574Z</time></trkpt><trkpt lat="43.8266853" lon="11.5682429"><ele>597.2</ele><time>2026-04-11T14:51:48.572Z</time></trkpt><trkpt lat="43.8266143" lon="11.5683208"><ele>599.4</ele><time>2026-04-11T14:51:49.574Z</time></trkpt><trkpt lat="43.8265406" lon="11.5683924"><ele>601.6</ele><time>2026-04-11T14:51:50.574Z</time></trkpt><trkpt lat="43.8264472" lon="11.5684505"><ele>603.8</ele><time>2026-04-11T14:51:51.573Z</time></trkpt><trkpt lat="43.8263706" lon="11.5685253"><ele>606.0</ele><time>2026-04-11T14:51:52.574Z</time></trkpt><trkpt lat="43.8263005" lon="11.5685793"><ele>606.0</ele><time>2026-04-11T14:51:53.573Z</time></trkpt><trkpt lat="43.8262353" lon="11.5686179"><ele>606.0</ele><time>2026-04-11T14:51:54.574Z</time></trkpt><trkpt lat="43.8261632" lon="11.568662"><ele>606.0</ele><time>2026-04-11T14:51:55.574Z</time></trkpt><trkpt lat="43.8260945" lon="11.5686868"><ele>606.0</ele><time>2026-04-11T14:51:56.573Z</time></trkpt><trkpt lat="43.8260115" lon="11.5687152"><ele>606.0</ele><time>2026-04-11T14:51:57.574Z</time></trkpt><trkpt lat="43.825934" lon="11.5687418"><ele>606.0</ele><time>2026-04-11T14:51:58.574Z</time></trkpt><trkpt lat="43.8258564" lon="11.5687704"><ele>603.1666666666666</ele><time>2026-04-11T14:51:59.573Z</time></trkpt><trkpt lat="43.8257894" lon="11.5688017"><ele>600.3333333333334</ele><time>2026-04-11T14:52:00.574Z</time></trkpt><trkpt lat="43.8257211" lon="11.5688406"><ele>597.5</ele><time>2026-04-11T14:52:01.574Z</time></trkpt><trkpt lat="43.825659" lon="11.568885"><ele>594.6666666666667</ele><time>2026-04-11T14:52:02.574Z</time></trkpt><trkpt lat="43.8255967" lon="11.5689238"><ele>591.8333333333334</ele><time>2026-04-11T14:52:03.573Z</time></trkpt><trkpt lat="43.8255053" lon="11.5689438"><ele>589.0</ele><time>2026-04-11T14:52:05.574Z</time></trkpt><trkpt lat="43.8254075" lon="11.5689143"><ele>589.0</ele><time>2026-04-11T14:52:07.574Z</time></trkpt><trkpt lat="43.8253314" lon="11.5688491"><ele>589.0</ele><time>2026-04-11T14:52:09.574Z</time></trkpt><trkpt lat="43.8252578" lon="11.5687449"><ele>589.0</ele><time>2026-04-11T14:52:11.574Z</time></trkpt><trkpt lat="43.8252151" lon="11.5686733"><ele>589.0</ele><time>2026-04-11T14:52:13.574Z</time></trkpt><trkpt lat="43.8251629" lon="11.568586"><ele>589.0</ele><time>2026-04-11T14:52:15.574Z</time></trkpt><trkpt lat="43.8251143" lon="11.568511"><ele>589.0</ele><time>2026-04-11T14:52:18.573Z</time></trkpt><trkpt lat="43.8250255" lon="11.5684254"><ele>589.8333333333334</ele><time>2026-04-11T14:52:21.574Z</time></trkpt><trkpt lat="43.8249699" lon="11.5683814"><ele>590.6666666666667</ele><time>2026-04-11T14:52:22.574Z</time></trkpt><trkpt lat="43.8248671" lon="11.5683256"><ele>591.5</ele><time>2026-04-11T14:52:24.574Z</time></trkpt><trkpt lat="43.8247968" lon="11.5682594"><ele>592.3333333333334</ele><time>2026-04-11T14:52:26.574Z</time></trkpt><trkpt lat="43.8247173" lon="11.5682219"><ele>593.1666666666666</ele><time>2026-04-11T14:52:28.574Z</time></trkpt><trkpt lat="43.8246545" lon="11.5681966"><ele>594.0</ele><time>2026-04-11T14:52:30.573Z</time></trkpt><trkpt lat="43.8245866" lon="11.5682097"><ele>594.0</ele><time>2026-04-11T14:52:32.574Z</time></trkpt><trkpt lat="43.8245111" lon="11.5681781"><ele>594.0</ele><time>2026-04-11T14:52:35.574Z</time></trkpt><trkpt lat="43.824443" lon="11.5680995"><ele>594.0</ele><time>2026-04-11T14:52:38.573Z</time></trkpt><trkpt lat="43.8243965" lon="11.5680367"><ele>594.0</ele><time>2026-04-11T14:52:40.574Z</time></trkpt><trkpt lat="43.8243265" lon="11.5679749"><ele>594.0</ele><time>2026-04-11T14:52:43.573Z</time></trkpt><trkpt lat="43.8242619" lon="11.5680523"><ele>594.0</ele><time>2026-04-11T14:53:09.574Z</time></trkpt><trkpt lat="43.8242093" lon="11.5681291"><ele>592.0</ele><time>2026-04-11T14:53:11.573Z</time></trkpt><trkpt lat="43.8241618" lon="11.5682039"><ele>590.0</ele><time>2026-04-11T14:53:13.573Z</time></trkpt><trkpt lat="43.8240914" lon="11.5682509"><ele>588.0</ele><time>2026-04-11T14:53:15.574Z</time></trkpt><trkpt lat="43.8240203" lon="11.5682927"><ele>586.0</ele><time>2026-04-11T14:53:18.573Z</time></trkpt><trkpt lat="43.8239783" lon="11.5683705"><ele>584.0</ele><time>2026-04-11T14:53:23.574Z</time></trkpt><trkpt lat="43.8238878" lon="11.5684138"><ele>582.0</ele><time>2026-04-11T14:53:27.574Z</time></trkpt><trkpt lat="43.8238162" lon="11.5684625"><ele>582.0</ele><time>2026-04-11T14:53:29.572Z</time></trkpt><trkpt lat="43.8237499" lon="11.5685264"><ele>582.0</ele><time>2026-04-11T14:53:31.573Z</time></trkpt><trkpt lat="43.823685" lon="11.5685944"><ele>582.0</ele><time>2026-04-11T14:53:33.573Z</time></trkpt><trkpt lat="43.8236147" lon="11.5686822"><ele>582.0</ele><time>2026-04-11T14:53:35.573Z</time></trkpt><trkpt lat="43.8235284" lon="11.5687678"><ele>582.0</ele><time>2026-04-11T14:53:37.574Z</time></trkpt><trkpt lat="43.8234286" lon="11.5688412"><ele>581.2</ele><time>2026-04-11T14:53:39.574Z</time></trkpt><trkpt lat="43.8233396" lon="11.5689011"><ele>580.4000000000001</ele><time>2026-04-11T14:53:41.573Z</time></trkpt><trkpt lat="43.8232647" lon="11.5689897"><ele>579.5999999999999</ele><time>2026-04-11T14:53:43.574Z</time></trkpt><trkpt lat="43.8231961" lon="11.5690856"><ele>578.8</ele><time>2026-04-11T14:53:45.574Z</time></trkpt><trkpt lat="43.8231186" lon="11.5691305"><ele>578.0</ele><time>2026-04-11T14:53:47.572Z</time></trkpt><trkpt lat="43.8230312" lon="11.5691786"><ele>578.0</ele><time>2026-04-11T14:53:49.574Z</time></trkpt><trkpt lat="43.8229453" lon="11.5692586"><ele>578.0</ele><time>2026-04-11T14:53:51.574Z</time></trkpt><trkpt lat="43.822859" lon="11.5693003"><ele>578.0</ele><time>2026-04-11T14:53:53.573Z</time></trkpt><trkpt lat="43.8227723" lon="11.5693473"><ele>578.0</ele><time>2026-04-11T14:53:55.574Z</time></trkpt><trkpt lat="43.8226814" lon="11.5694037"><ele>578.0</ele><time>2026-04-11T14:53:57.573Z</time></trkpt><trkpt lat="43.8226149" lon="11.5694539"><ele>576.8333333333333</ele><time>2026-04-11T14:53:59.573Z</time></trkpt><trkpt lat="43.8225143" lon="11.569519"><ele>575.6666666666666</ele><time>2026-04-11T14:54:01.574Z</time></trkpt><trkpt lat="43.8224501" lon="11.569558"><ele>574.5</ele><time>2026-04-11T14:54:02.574Z</time></trkpt><trkpt lat="43.8223832" lon="11.5695787"><ele>573.3333333333334</ele><time>2026-04-11T14:54:03.573Z</time></trkpt><trkpt lat="43.8222883" lon="11.5696078"><ele>572.1666666666667</ele><time>2026-04-11T14:54:05.574Z</time></trkpt><trkpt lat="43.8222188" lon="11.5696277"><ele>571.0</ele><time>2026-04-11T14:54:35.574Z</time></trkpt><trkpt lat="43.8221442" lon="11.5696408"><ele>571.0</ele><time>2026-04-11T14:54:38.574Z</time></trkpt><trkpt lat="43.822057" lon="11.569688"><ele>571.0</ele><time>2026-04-11T14:55:20.574Z</time></trkpt><trkpt lat="43.8219768" lon="11.5697362"><ele>571.0</ele><time>2026-04-11T14:55:22.574Z</time></trkpt><trkpt lat="43.8219089" lon="11.5697798"><ele>571.0</ele><time>2026-04-11T14:55:23.573Z</time></trkpt><trkpt lat="43.8218443" lon="11.5698158"><ele>571.0</ele><time>2026-04-11T14:55:25.574Z</time></trkpt><trkpt lat="43.8217597" lon="11.5698603"><ele>571.0</ele><time>2026-04-11T14:55:27.574Z</time></trkpt><trkpt lat="43.8216619" lon="11.5698647"><ele>575.0</ele><time>2026-04-11T14:55:29.574Z</time></trkpt><trkpt lat="43.8215479" lon="11.5698431"><ele>579.0</ele><time>2026-04-11T14:55:31.574Z</time></trkpt><trkpt lat="43.8214505" lon="11.5698741"><ele>583.0</ele><time>2026-04-11T14:55:33.574Z</time></trkpt><trkpt lat="43.8213835" lon="11.5698719"><ele>587.0</ele><time>2026-04-11T14:55:34.574Z</time></trkpt><trkpt lat="43.8212608" lon="11.5698939"><ele>591.0</ele><time>2026-04-11T14:55:36.574Z</time></trkpt><trkpt lat="43.8211296" lon="11.5699503"><ele>591.0</ele><time>2026-04-11T14:55:38.574Z</time></trkpt><trkpt lat="43.8210585" lon="11.5699928"><ele>591.0</ele><time>2026-04-11T14:55:39.574Z</time></trkpt><trkpt lat="43.8209941" lon="11.5700127"><ele>591.0</ele><time>2026-04-11T14:55:40.573Z</time></trkpt><trkpt lat="43.8208887" lon="11.5700238"><ele>591.0</ele><time>2026-04-11T14:55:42.574Z</time></trkpt><trkpt lat="43.8207964" lon="11.570011"><ele>591.0</ele><time>2026-04-11T14:55:44.574Z</time></trkpt><trkpt lat="43.8207002" lon="11.5700002"><ele>591.0</ele><time>2026-04-11T14:55:46.574Z</time></trkpt><trkpt lat="43.8206328" lon="11.5699213"><ele>591.8</ele><time>2026-04-11T14:55:48.574Z</time></trkpt><trkpt lat="43.8205473" lon="11.569892"><ele>592.6</ele><time>2026-04-11T14:55:51.574Z</time></trkpt><trkpt lat="43.8204845" lon="11.5699054"><ele>593.4</ele><time>2026-04-11T14:56:21.573Z</time></trkpt><trkpt lat="43.820408" lon="11.5698971"><ele>594.2</ele><time>2026-04-11T14:56:27.573Z</time></trkpt><trkpt lat="43.8203386" lon="11.5698515"><ele>595.0</ele><time>2026-04-11T14:56:30.574Z</time></trkpt><trkpt lat="43.8205078" lon="11.5699005"><ele>595.0</ele><time>2026-04-11T15:03:04.574Z</time></trkpt><trkpt lat="43.8206332" lon="11.5699506"><ele>595.0</ele><time>2026-04-11T15:03:34.574Z</time></trkpt><trkpt lat="43.8207104" lon="11.5699786"><ele>595.0</ele><time>2026-04-11T15:04:02.574Z</time></trkpt><trkpt lat="43.8207511" lon="11.5700509"><ele>595.0</ele><time>2026-04-11T15:04:42.573Z</time></trkpt><trkpt lat="43.8208443" lon="11.5700833"><ele>595.0</ele><time>2026-04-11T15:04:44.574Z</time></trkpt><trkpt lat="43.8209457" lon="11.5700415"><ele>594.4285714285714</ele><time>2026-04-11T15:04:46.574Z</time></trkpt><trkpt lat="43.8210167" lon="11.5700226"><ele>593.8571428571429</ele><time>2026-04-11T15:04:47.574Z</time></trkpt><trkpt lat="43.8210862" lon="11.5700131"><ele>593.2857142857142</ele><time>2026-04-11T15:04:48.573Z</time></trkpt><trkpt lat="43.8211543" lon="11.5699855"><ele>592.7142857142858</ele><time>2026-04-11T15:04:49.573Z</time></trkpt><trkpt lat="43.8212278" lon="11.5699669"><ele>592.1428571428571</ele><time>2026-04-11T15:04:50.574Z</time></trkpt><trkpt lat="43.8212968" lon="11.5699518"><ele>591.5714285714286</ele><time>2026-04-11T15:04:51.574Z</time></trkpt><trkpt lat="43.8213666" lon="11.5699471"><ele>591.0</ele><time>2026-04-11T15:04:52.574Z</time></trkpt><trkpt lat="43.8214393" lon="11.5699257"><ele>591.0</ele><time>2026-04-11T15:04:53.574Z</time></trkpt><trkpt lat="43.8215135" lon="11.5699224"><ele>591.0</ele><time>2026-04-11T15:04:54.574Z</time></trkpt><trkpt lat="43.8215766" lon="11.5699056"><ele>591.0</ele><time>2026-04-11T15:04:55.574Z</time></trkpt><trkpt lat="43.8216798" lon="11.5699032"><ele>591.0</ele><time>2026-04-11T15:04:57.574Z</time></trkpt><trkpt lat="43.82178" lon="11.5699121"><ele>591.0</ele><time>2026-04-11T15:04:59.573Z</time></trkpt><trkpt lat="43.8218392" lon="11.5698752"><ele>591.0</ele><time>2026-04-11T15:05:01.574Z</time></trkpt><trkpt lat="43.821897" lon="11.5698194"><ele>587.6666666666666</ele><time>2026-04-11T15:05:03.574Z</time></trkpt><trkpt lat="43.8219713" lon="11.5698114"><ele>584.3333333333334</ele><time>2026-04-11T15:05:05.574Z</time></trkpt><trkpt lat="43.8220397" lon="11.5697967"><ele>581.0</ele><time>2026-04-11T15:05:07.573Z</time></trkpt><trkpt lat="43.822116" lon="11.5697796"><ele>577.6666666666667</ele><time>2026-04-11T15:05:09.573Z</time></trkpt><trkpt lat="43.8221778" lon="11.5697589"><ele>574.3333333333334</ele><time>2026-04-11T15:05:10.574Z</time></trkpt><trkpt lat="43.8222914" lon="11.5697011"><ele>571.0</ele><time>2026-04-11T15:05:12.573Z</time></trkpt><trkpt lat="43.8224012" lon="11.5696609"><ele>571.0</ele><time>2026-04-11T15:05:14.574Z</time></trkpt><trkpt lat="43.822471" lon="11.5696334"><ele>571.0</ele><time>2026-04-11T15:05:16.574Z</time></trkpt><trkpt lat="43.8225294" lon="11.5695982"><ele>571.0</ele><time>2026-04-11T15:05:17.574Z</time></trkpt><trkpt lat="43.8226182" lon="11.5695029"><ele>571.0</ele><time>2026-04-11T15:05:19.573Z</time></trkpt><trkpt lat="43.8227164" lon="11.5694149"><ele>571.0</ele><time>2026-04-11T15:05:21.574Z</time></trkpt><trkpt lat="43.8228255" lon="11.569346"><ele>572.1666666666667</ele><time>2026-04-11T15:05:23.573Z</time></trkpt><trkpt lat="43.8229093" lon="11.5692924"><ele>573.3333333333334</ele><time>2026-04-11T15:05:25.574Z</time></trkpt><trkpt lat="43.8229746" lon="11.569252"><ele>574.5</ele><time>2026-04-11T15:05:27.574Z</time></trkpt><trkpt lat="43.8230338" lon="11.5692215"><ele>575.6666666666666</ele><time>2026-04-11T15:05:29.574Z</time></trkpt><trkpt lat="43.8231203" lon="11.5691589"><ele>576.8333333333333</ele><time>2026-04-11T15:05:31.574Z</time></trkpt><trkpt lat="43.8231971" lon="11.5690993"><ele>578.0</ele><time>2026-04-11T15:05:33.574Z</time></trkpt><trkpt lat="43.8232804" lon="11.5690256"><ele>578.0</ele><time>2026-04-11T15:05:35.574Z</time></trkpt><trkpt lat="43.8233723" lon="11.5689417"><ele>578.0</ele><time>2026-04-11T15:05:37.574Z</time></trkpt><trkpt lat="43.8234349" lon="11.5688844"><ele>578.0</ele><time>2026-04-11T15:05:38.573Z</time></trkpt><trkpt lat="43.8235173" lon="11.5687888"><ele>578.0</ele><time>2026-04-11T15:05:40.574Z</time></trkpt><trkpt lat="43.8235686" lon="11.568727"><ele>578.0</ele><time>2026-04-11T15:05:41.574Z</time></trkpt><trkpt lat="43.8236633" lon="11.5686233"><ele>578.6666666666666</ele><time>2026-04-11T15:05:43.574Z</time></trkpt><trkpt lat="43.8237483" lon="11.5685188"><ele>579.3333333333333</ele><time>2026-04-11T15:05:45.574Z</time></trkpt><trkpt lat="43.8238073" lon="11.5684471"><ele>580.0</ele><time>2026-04-11T15:05:47.573Z</time></trkpt><trkpt lat="43.8238568" lon="11.5683888"><ele>580.6666666666666</ele><time>2026-04-11T15:05:49.573Z</time></trkpt><trkpt lat="43.8239133" lon="11.56828"><ele>581.3333333333334</ele><time>2026-04-11T15:05:52.574Z</time></trkpt><trkpt lat="43.8239581" lon="11.5683687"><ele>582.0</ele><time>2026-04-11T15:06:42.574Z</time></trkpt><trkpt lat="43.8240341" lon="11.5682895"><ele>582.0</ele><time>2026-04-11T15:06:46.574Z</time></trkpt><trkpt lat="43.8240984" lon="11.5682185"><ele>582.0</ele><time>2026-04-11T15:06:48.574Z</time></trkpt><trkpt lat="43.8241653" lon="11.5681439"><ele>582.0</ele><time>2026-04-11T15:06:50.573Z</time></trkpt><trkpt lat="43.8242257" lon="11.5680917"><ele>582.0</ele><time>2026-04-11T15:06:52.574Z</time></trkpt><trkpt lat="43.8242984" lon="11.5680353"><ele>582.0</ele><time>2026-04-11T15:06:54.574Z</time></trkpt><trkpt lat="43.8243963" lon="11.5680882"><ele>582.0</ele><time>2026-04-11T15:06:57.574Z</time></trkpt><trkpt lat="43.8244532" lon="11.5681722"><ele>584.0</ele><time>2026-04-11T15:06:59.574Z</time></trkpt><trkpt lat="43.8245001" lon="11.5682404"><ele>586.0</ele><time>2026-04-11T15:07:01.574Z</time></trkpt><trkpt lat="43.8245726" lon="11.5682498"><ele>588.0</ele><time>2026-04-11T15:07:03.573Z</time></trkpt><trkpt lat="43.8246433" lon="11.5682608"><ele>590.0</ele><time>2026-04-11T15:07:05.573Z</time></trkpt><trkpt lat="43.8247418" lon="11.5682633"><ele>592.0</ele><time>2026-04-11T15:07:07.574Z</time></trkpt><trkpt lat="43.824801" lon="11.5683111"><ele>594.0</ele><time>2026-04-11T15:07:08.574Z</time></trkpt><trkpt lat="43.824866" lon="11.5683548"><ele>594.0</ele><time>2026-04-11T15:07:09.574Z</time></trkpt><trkpt lat="43.8249287" lon="11.568396"><ele>594.0</ele><time>2026-04-11T15:07:10.573Z</time></trkpt><trkpt lat="43.8250154" lon="11.568457"><ele>594.0</ele><time>2026-04-11T15:07:12.574Z</time></trkpt><trkpt lat="43.8250672" lon="11.5685089"><ele>594.0</ele><time>2026-04-11T15:07:15.574Z</time></trkpt><trkpt lat="43.8251431" lon="11.5685886"><ele>594.0</ele><time>2026-04-11T15:08:08.574Z</time></trkpt><trkpt lat="43.8252214" lon="11.5687003"><ele>594.0</ele><time>2026-04-11T15:08:10.573Z</time></trkpt><trkpt lat="43.8252935" lon="11.5687921"><ele>593.1666666666666</ele><time>2026-04-11T15:08:12.574Z</time></trkpt><trkpt lat="43.8253624" lon="11.56886"><ele>592.3333333333334</ele><time>2026-04-11T15:08:14.573Z</time></trkpt><trkpt lat="43.8254197" lon="11.5689012"><ele>591.5</ele><time>2026-04-11T15:08:16.574Z</time></trkpt><trkpt lat="43.8254926" lon="11.5689313"><ele>590.6666666666667</ele><time>2026-04-11T15:08:19.574Z</time></trkpt><trkpt lat="43.8255571" lon="11.5689481"><ele>589.8333333333334</ele><time>2026-04-11T15:08:23.574Z</time></trkpt><trkpt lat="43.825637" lon="11.5689"><ele>589.0</ele><time>2026-04-11T15:08:54.574Z</time></trkpt><trkpt lat="43.8257105" lon="11.5688608"><ele>589.0</ele><time>2026-04-11T15:08:55.574Z</time></trkpt><trkpt lat="43.8257709" lon="11.568831"><ele>589.0</ele><time>2026-04-11T15:08:56.574Z</time></trkpt><trkpt lat="43.8258512" lon="11.5687843"><ele>589.0</ele><time>2026-04-11T15:08:57.573Z</time></trkpt><trkpt lat="43.8259298" lon="11.5687574"><ele>589.0</ele><time>2026-04-11T15:08:58.574Z</time></trkpt><trkpt lat="43.8260124" lon="11.5687226"><ele>589.0</ele><time>2026-04-11T15:08:59.574Z</time></trkpt><trkpt lat="43.826108" lon="11.5686785"><ele>589.0</ele><time>2026-04-11T15:09:00.574Z</time></trkpt><trkpt lat="43.8262021" lon="11.5686303"><ele>591.8333333333334</ele><time>2026-04-11T15:09:01.574Z</time></trkpt><trkpt lat="43.8262706" lon="11.5685743"><ele>594.6666666666667</ele><time>2026-04-11T15:09:02.573Z</time></trkpt><trkpt lat="43.82633" lon="11.5685324"><ele>597.5</ele><time>2026-04-11T15:09:03.574Z</time></trkpt><trkpt lat="43.8264125" lon="11.5684706"><ele>600.3333333333334</ele><time>2026-04-11T15:09:05.572Z</time></trkpt><trkpt lat="43.8264838" lon="11.5684111"><ele>603.1666666666666</ele><time>2026-04-11T15:09:07.574Z</time></trkpt><trkpt lat="43.8265407" lon="11.5683613"><ele>606.0</ele><time>2026-04-11T15:09:08.574Z</time></trkpt><trkpt lat="43.8266" lon="11.5683123"><ele>606.0</ele><time>2026-04-11T15:09:09.573Z</time></trkpt><trkpt lat="43.8266638" lon="11.5682455"><ele>606.0</ele><time>2026-04-11T15:09:10.574Z</time></trkpt><trkpt lat="43.8267294" lon="11.5681764"><ele>606.0</ele><time>2026-04-11T15:09:11.574Z</time></trkpt><trkpt lat="43.826781" lon="11.5680943"><ele>606.0</ele><time>2026-04-11T15:09:12.574Z</time></trkpt><trkpt lat="43.8268252" lon="11.5680017"><ele>606.0</ele><time>2026-04-11T15:09:13.573Z</time></trkpt><trkpt lat="43.8268549" lon="11.567895"><ele>606.0</ele><time>2026-04-11T15:09:14.574Z</time></trkpt><trkpt lat="43.8268742" lon="11.5677771"><ele>603.8</ele><time>2026-04-11T15:09:15.574Z</time></trkpt><trkpt lat="43.8268827" lon="11.567642"><ele>601.6</ele><time>2026-04-11T15:09:16.574Z</time></trkpt><trkpt lat="43.8268913" lon="11.5675017"><ele>599.4</ele><time>2026-04-11T15:09:17.574Z</time></trkpt><trkpt lat="43.8268979" lon="11.5673599"><ele>597.2</ele><time>2026-04-11T15:09:18.573Z</time></trkpt><trkpt lat="43.8269191" lon="11.5672158"><ele>595.0</ele><time>2026-04-11T15:09:19.573Z</time></trkpt><trkpt lat="43.8269542" lon="11.5670791"><ele>598.2</ele><time>2026-04-11T15:09:20.573Z</time></trkpt><trkpt lat="43.8269919" lon="11.5669467"><ele>601.4</ele><time>2026-04-11T15:09:21.574Z</time></trkpt><trkpt lat="43.8270341" lon="11.5668258"><ele>604.6</ele><time>2026-04-11T15:09:22.574Z</time></trkpt><trkpt lat="43.8270662" lon="11.5667006"><ele>607.8</ele><time>2026-04-11T15:09:23.574Z</time></trkpt><trkpt lat="43.8270924" lon="11.5665745"><ele>611.0</ele><time>2026-04-11T15:09:24.574Z</time></trkpt><trkpt lat="43.8271242" lon="11.5664554"><ele>611.0</ele><time>2026-04-11T15:09:25.573Z</time></trkpt><trkpt lat="43.8271539" lon="11.5663386"><ele>611.0</ele><time>2026-04-11T15:09:26.574Z</time></trkpt><trkpt lat="43.8271764" lon="11.566245"><ele>611.0</ele><time>2026-04-11T15:09:27.574Z</time></trkpt><trkpt lat="43.8272274" lon="11.5661617"><ele>611.0</ele><time>2026-04-11T15:09:28.574Z</time></trkpt><trkpt lat="43.8272523" lon="11.5660264"><ele>611.0</ele><time>2026-04-11T15:09:30.573Z</time></trkpt><trkpt lat="43.8272031" lon="11.5659315"><ele>611.0</ele><time>2026-04-11T15:09:32.574Z</time></trkpt><trkpt lat="43.8271111" lon="11.5659143"><ele>611.0</ele><time>2026-04-11T15:09:34.574Z</time></trkpt><trkpt lat="43.827066" lon="11.5660273"><ele>611.0</ele><time>2026-04-11T15:09:35.574Z</time></trkpt><trkpt lat="43.8270111" lon="11.5661424"><ele>611.0</ele><time>2026-04-11T15:09:36.574Z</time></trkpt><trkpt lat="43.8269613" lon="11.5662382"><ele>611.0</ele><time>2026-04-11T15:09:37.573Z</time></trkpt><trkpt lat="43.8269011" lon="11.5663593"><ele>611.0</ele><time>2026-04-11T15:09:38.574Z</time></trkpt><trkpt lat="43.8268442" lon="11.5664594"><ele>616.0</ele><time>2026-04-11T15:09:39.574Z</time></trkpt><trkpt lat="43.826779" lon="11.5665488"><ele>621.0</ele><time>2026-04-11T15:09:40.574Z</time></trkpt><trkpt lat="43.8266986" lon="11.5666362"><ele>626.0</ele><time>2026-04-11T15:09:41.573Z</time></trkpt><trkpt lat="43.8266211" lon="11.5667241"><ele>631.0</ele><time>2026-04-11T15:09:42.574Z</time></trkpt><trkpt lat="43.8265112" lon="11.5668258"><ele>636.0</ele><time>2026-04-11T15:09:43.573Z</time></trkpt><trkpt lat="43.826416" lon="11.5669133"><ele>636.0</ele><time>2026-04-11T15:09:44.573Z</time></trkpt><trkpt lat="43.8263282" lon="11.5669899"><ele>636.0</ele><time>2026-04-11T15:09:45.574Z</time></trkpt><trkpt lat="43.8262704" lon="11.5670596"><ele>636.0</ele><time>2026-04-11T15:09:46.573Z</time></trkpt><trkpt lat="43.8262023" lon="11.5671265"><ele>636.0</ele><time>2026-04-11T15:09:47.574Z</time></trkpt><trkpt lat="43.826142" lon="11.5671819"><ele>636.0</ele><time>2026-04-11T15:09:48.573Z</time></trkpt><trkpt lat="43.8260767" lon="11.5672363"><ele>636.0</ele><time>2026-04-11T15:09:49.574Z</time></trkpt><trkpt lat="43.8260207" lon="11.5672827"><ele>636.0</ele><time>2026-04-11T15:09:50.573Z</time></trkpt><trkpt lat="43.8259086" lon="11.5673493"><ele>636.0</ele><time>2026-04-11T15:09:52.574Z</time></trkpt><trkpt lat="43.8258807" lon="11.5672697"><ele>636.0</ele><time>2026-04-11T15:09:53.574Z</time></trkpt><trkpt lat="43.8258839" lon="11.5671454"><ele>636.0</ele><time>2026-04-11T15:09:57.574Z</time></trkpt><trkpt lat="43.825955" lon="11.5670372"><ele>636.0</ele><time>2026-04-11T15:09:59.574Z</time></trkpt><trkpt lat="43.8260204" lon="11.5669998"><ele>636.0</ele><time>2026-04-11T15:10:00.574Z</time></trkpt><trkpt lat="43.8260814" lon="11.5669406"><ele>636.0</ele><time>2026-04-11T15:10:01.574Z</time></trkpt><trkpt lat="43.8261348" lon="11.5668884"><ele>636.0</ele><time>2026-04-11T15:10:02.573Z</time></trkpt><trkpt lat="43.8262126" lon="11.5668147"><ele>636.0</ele><time>2026-04-11T15:10:03.574Z</time></trkpt><trkpt lat="43.8262907" lon="11.5667386"><ele>636.0</ele><time>2026-04-11T15:10:04.574Z</time></trkpt><trkpt lat="43.8263561" lon="11.5666478"><ele>636.0</ele><time>2026-04-11T15:10:05.574Z</time></trkpt><trkpt lat="43.8264085" lon="11.5665577"><ele>636.0</ele><time>2026-04-11T15:10:06.573Z</time></trkpt><trkpt lat="43.8264669" lon="11.566477"><ele>636.0</ele><time>2026-04-11T15:10:07.573Z</time></trkpt><trkpt lat="43.8265179" lon="11.5663631"><ele>636.0</ele><time>2026-04-11T15:10:09.574Z</time></trkpt><trkpt lat="43.8265506" lon="11.5662854"><ele>636.0</ele><time>2026-04-11T15:10:11.574Z</time></trkpt><trkpt lat="43.8264594" lon="11.5663249"><ele>636.0</ele><time>2026-04-11T15:10:19.486Z</time></trkpt><trkpt lat="43.826366" lon="11.5663907"><ele>636.0</ele><time>2026-04-11T15:10:20.572Z</time></trkpt><trkpt lat="43.8263123" lon="11.5664493"><ele>636.0</ele><time>2026-04-11T15:10:21.573Z</time></trkpt><trkpt lat="43.82625" lon="11.5665209"><ele>636.0</ele><time>2026-04-11T15:10:22.573Z</time></trkpt><trkpt lat="43.8261664" lon="11.5665748"><ele>636.0</ele><time>2026-04-11T15:10:23.573Z</time></trkpt><trkpt lat="43.8260937" lon="11.5666029"><ele>636.0</ele><time>2026-04-11T15:10:24.572Z</time></trkpt><trkpt lat="43.8260342" lon="11.5666319"><ele>636.0</ele><time>2026-04-11T15:10:25.573Z</time></trkpt><trkpt lat="43.8259706" lon="11.566661"><ele>636.0</ele><time>2026-04-11T15:10:26.572Z</time></trkpt><trkpt lat="43.8259009" lon="11.5666529"><ele>636.0</ele><time>2026-04-11T15:10:27.573Z</time></trkpt><trkpt lat="43.8258285" lon="11.5666546"><ele>638.1666666666666</ele><time>2026-04-11T15:10:28.573Z</time></trkpt><trkpt lat="43.8257649" lon="11.566665"><ele>640.3333333333334</ele><time>2026-04-11T15:10:29.573Z</time></trkpt><trkpt lat="43.8256672" lon="11.5666225"><ele>642.5</ele><time>2026-04-11T15:10:31.572Z</time></trkpt><trkpt lat="43.8256682" lon="11.5665278"><ele>644.6666666666667</ele><time>2026-04-11T15:10:34.572Z</time></trkpt><trkpt lat="43.8257007" lon="11.5664186"><ele>646.8333333333334</ele><time>2026-04-11T15:10:36.572Z</time></trkpt><trkpt lat="43.8257314" lon="11.5663415"><ele>649.0</ele><time>2026-04-11T15:10:39.573Z</time></trkpt><trkpt lat="43.8257041" lon="11.5664341"><ele>648.9999999999999</ele><time>2026-04-11T15:10:52.573Z</time></trkpt><trkpt lat="43.8256676" lon="11.5665347"><ele>649.0</ele><time>2026-04-11T15:10:55.573Z</time></trkpt><trkpt lat="43.8255973" lon="11.5665651"><ele>649.0</ele><time>2026-04-11T15:10:59.573Z</time></trkpt><trkpt lat="43.8255415" lon="11.5665192"><ele>649.0</ele><time>2026-04-11T15:11:03.572Z</time></trkpt><trkpt lat="43.8255139" lon="11.5664389"><ele>649.0</ele><time>2026-04-11T15:11:07.572Z</time></trkpt><trkpt lat="43.8254762" lon="11.5663411"><ele>648.9999999999999</ele><time>2026-04-11T15:11:11.573Z</time></trkpt><trkpt lat="43.8254688" lon="11.566245"><ele>649.0</ele><time>2026-04-11T15:11:16.572Z</time></trkpt><trkpt lat="43.8254288" lon="11.5661653"><ele>670.0</ele><time>2026-04-11T15:11:20.572Z</time></trkpt><trkpt lat="43.8253802" lon="11.5660698"><ele>670.0</ele><time>2026-04-11T15:11:27.573Z</time></trkpt><trkpt lat="43.8253962" lon="11.5661648"><ele>670.0</ele><time>2026-04-11T15:12:10.573Z</time></trkpt><trkpt lat="43.8254302" lon="11.5662427"><ele>649.0</ele><time>2026-04-11T15:13:28.573Z</time></trkpt><trkpt lat="43.8254808" lon="11.5663085"><ele>649.0</ele><time>2026-04-11T15:14:27.572Z</time></trkpt></trkseg></trk></gpx>